<?xml version="1.0" encoding="UTF-8" standalone="no" ?>
<gpx xmlns="http://www.topografix.com/GPX/1/1" xmlns:xsi="http://www.w3.org/2001/XMLSchema-instance" xsi:schemaLocation="http://www.topografix.com/GPX/1/1 http://www.topografix.com/GPX/1/1/gpx.xsd" version="1.1" creator="VisuGPX - https://www.visugpx.com">
  <metadata>
    <name>Mont Llaret (2.370 m) - Versant Nord</name>
    <desc><![CDATA[Départ des Angles (Pyrénées Orientales)]]></desc>
  </metadata>
  <trk>
    <name><![CDATA[Mont Llaret (2.370 m) - Versant Nord_1]]></name>
    <trkseg>
      <trkpt lat="42.57838" lon="2.07579">
        <ele>1646</ele>
        <time>2020-07-21T07:57:13.000Z</time>
      </trkpt>
      <trkpt lat="42.57836" lon="2.07577">
        <ele>1644</ele>
        <time>2020-07-21T07:57:14.000Z</time>
      </trkpt>
      <trkpt lat="42.57834" lon="2.07576">
        <ele>1643</ele>
        <time>2020-07-21T07:57:15.000Z</time>
      </trkpt>
      <trkpt lat="42.57832" lon="2.07574">
        <ele>1643</ele>
        <time>2020-07-21T07:57:16.000Z</time>
      </trkpt>
      <trkpt lat="42.5783" lon="2.07571">
        <ele>1643</ele>
        <time>2020-07-21T07:57:17.000Z</time>
      </trkpt>
      <trkpt lat="42.57827" lon="2.07569">
        <ele>1644</ele>
        <time>2020-07-21T07:57:18.000Z</time>
      </trkpt>
      <trkpt lat="42.57825" lon="2.07567">
        <ele>1645</ele>
        <time>2020-07-21T07:57:19.000Z</time>
      </trkpt>
      <trkpt lat="42.57823" lon="2.07565">
        <ele>1645</ele>
        <time>2020-07-21T07:57:20.000Z</time>
      </trkpt>
      <trkpt lat="42.5782" lon="2.07563">
        <ele>1645</ele>
        <time>2020-07-21T07:57:21.000Z</time>
      </trkpt>
      <trkpt lat="42.57818" lon="2.0756">
        <ele>1645</ele>
        <time>2020-07-21T07:57:22.000Z</time>
      </trkpt>
      <trkpt lat="42.57816" lon="2.07557">
        <ele>1645</ele>
        <time>2020-07-21T07:57:23.000Z</time>
      </trkpt>
      <trkpt lat="42.57815" lon="2.07555">
        <ele>1646</ele>
        <time>2020-07-21T07:57:24.000Z</time>
      </trkpt>
      <trkpt lat="42.57813" lon="2.07552">
        <ele>1648</ele>
        <time>2020-07-21T07:57:25.000Z</time>
      </trkpt>
      <trkpt lat="42.57812" lon="2.0755">
        <ele>1648</ele>
        <time>2020-07-21T07:57:26.000Z</time>
      </trkpt>
      <trkpt lat="42.57811" lon="2.07548">
        <ele>1649</ele>
        <time>2020-07-21T07:57:27.000Z</time>
      </trkpt>
      <trkpt lat="42.57809" lon="2.07545">
        <ele>1650</ele>
        <time>2020-07-21T07:57:28.000Z</time>
      </trkpt>
      <trkpt lat="42.57807" lon="2.07542">
        <ele>1650</ele>
        <time>2020-07-21T07:57:29.000Z</time>
      </trkpt>
      <trkpt lat="42.57805" lon="2.07539">
        <ele>1651</ele>
        <time>2020-07-21T07:57:30.000Z</time>
      </trkpt>
      <trkpt lat="42.57803" lon="2.07536">
        <ele>1652</ele>
        <time>2020-07-21T07:57:31.000Z</time>
      </trkpt>
      <trkpt lat="42.57801" lon="2.07533">
        <ele>1652</ele>
        <time>2020-07-21T07:57:32.000Z</time>
      </trkpt>
      <trkpt lat="42.57798" lon="2.0753">
        <ele>1651</ele>
        <time>2020-07-21T07:57:33.000Z</time>
      </trkpt>
      <trkpt lat="42.57796" lon="2.07526">
        <ele>1651</ele>
        <time>2020-07-21T07:57:34.000Z</time>
      </trkpt>
      <trkpt lat="42.57793" lon="2.07523">
        <ele>1651</ele>
        <time>2020-07-21T07:57:35.000Z</time>
      </trkpt>
      <trkpt lat="42.57791" lon="2.07519">
        <ele>1651</ele>
        <time>2020-07-21T07:57:36.000Z</time>
      </trkpt>
      <trkpt lat="42.57789" lon="2.07516">
        <ele>1651</ele>
        <time>2020-07-21T07:57:37.000Z</time>
      </trkpt>
      <trkpt lat="42.57788" lon="2.07513">
        <ele>1651</ele>
        <time>2020-07-21T07:57:38.000Z</time>
      </trkpt>
      <trkpt lat="42.57787" lon="2.07509">
        <ele>1650</ele>
        <time>2020-07-21T07:57:39.000Z</time>
      </trkpt>
      <trkpt lat="42.57786" lon="2.07505">
        <ele>1651</ele>
        <time>2020-07-21T07:57:40.000Z</time>
      </trkpt>
      <trkpt lat="42.57785" lon="2.07501">
        <ele>1651</ele>
        <time>2020-07-21T07:57:41.000Z</time>
      </trkpt>
      <trkpt lat="42.57784" lon="2.07497">
        <ele>1651</ele>
        <time>2020-07-21T07:57:42.000Z</time>
      </trkpt>
      <trkpt lat="42.57783" lon="2.07494">
        <ele>1652</ele>
        <time>2020-07-21T07:57:43.000Z</time>
      </trkpt>
      <trkpt lat="42.57782" lon="2.0749">
        <ele>1652</ele>
        <time>2020-07-21T07:57:44.000Z</time>
      </trkpt>
      <trkpt lat="42.57781" lon="2.07487">
        <ele>1652</ele>
        <time>2020-07-21T07:57:45.000Z</time>
      </trkpt>
      <trkpt lat="42.5778" lon="2.07483">
        <ele>1652</ele>
        <time>2020-07-21T07:57:46.000Z</time>
      </trkpt>
      <trkpt lat="42.57779" lon="2.0748">
        <ele>1652</ele>
        <time>2020-07-21T07:57:47.000Z</time>
      </trkpt>
      <trkpt lat="42.57778" lon="2.07477">
        <ele>1653</ele>
        <time>2020-07-21T07:57:48.000Z</time>
      </trkpt>
      <trkpt lat="42.57776" lon="2.07475">
        <ele>1653</ele>
        <time>2020-07-21T07:57:49.000Z</time>
      </trkpt>
      <trkpt lat="42.57775" lon="2.07472">
        <ele>1653</ele>
        <time>2020-07-21T07:57:50.000Z</time>
      </trkpt>
      <trkpt lat="42.57773" lon="2.07469">
        <ele>1653</ele>
        <time>2020-07-21T07:57:51.000Z</time>
      </trkpt>
      <trkpt lat="42.57772" lon="2.07466">
        <ele>1654</ele>
        <time>2020-07-21T07:57:52.000Z</time>
      </trkpt>
      <trkpt lat="42.5777" lon="2.07463">
        <ele>1653</ele>
        <time>2020-07-21T07:57:53.000Z</time>
      </trkpt>
      <trkpt lat="42.57769" lon="2.0746">
        <ele>1652</ele>
        <time>2020-07-21T07:57:54.000Z</time>
      </trkpt>
      <trkpt lat="42.57768" lon="2.07457">
        <ele>1652</ele>
        <time>2020-07-21T07:57:55.000Z</time>
      </trkpt>
      <trkpt lat="42.57767" lon="2.07454">
        <ele>1651</ele>
        <time>2020-07-21T07:57:56.000Z</time>
      </trkpt>
      <trkpt lat="42.57765" lon="2.07451">
        <ele>1651</ele>
        <time>2020-07-21T07:57:57.000Z</time>
      </trkpt>
      <trkpt lat="42.57764" lon="2.07448">
        <ele>1652</ele>
        <time>2020-07-21T07:57:58.000Z</time>
      </trkpt>
      <trkpt lat="42.57763" lon="2.07445">
        <ele>1652</ele>
        <time>2020-07-21T07:57:59.000Z</time>
      </trkpt>
      <trkpt lat="42.57762" lon="2.07442">
        <ele>1652</ele>
        <time>2020-07-21T07:58:00.000Z</time>
      </trkpt>
      <trkpt lat="42.57761" lon="2.07439">
        <ele>1652</ele>
        <time>2020-07-21T07:58:01.000Z</time>
      </trkpt>
      <trkpt lat="42.5776" lon="2.07436">
        <ele>1653</ele>
        <time>2020-07-21T07:58:02.000Z</time>
      </trkpt>
      <trkpt lat="42.57758" lon="2.07433">
        <ele>1653</ele>
        <time>2020-07-21T07:58:03.000Z</time>
      </trkpt>
      <trkpt lat="42.57757" lon="2.0743">
        <ele>1653</ele>
        <time>2020-07-21T07:58:04.000Z</time>
      </trkpt>
      <trkpt lat="42.57755" lon="2.07428">
        <ele>1653</ele>
        <time>2020-07-21T07:58:05.000Z</time>
      </trkpt>
      <trkpt lat="42.57753" lon="2.07425">
        <ele>1652</ele>
        <time>2020-07-21T07:58:06.000Z</time>
      </trkpt>
      <trkpt lat="42.57751" lon="2.07422">
        <ele>1652</ele>
        <time>2020-07-21T07:58:07.000Z</time>
      </trkpt>
      <trkpt lat="42.57749" lon="2.07419">
        <ele>1653</ele>
        <time>2020-07-21T07:58:08.000Z</time>
      </trkpt>
      <trkpt lat="42.57747" lon="2.07416">
        <ele>1653</ele>
        <time>2020-07-21T07:58:09.000Z</time>
      </trkpt>
      <trkpt lat="42.57744" lon="2.07412">
        <ele>1653</ele>
        <time>2020-07-21T07:58:10.000Z</time>
      </trkpt>
      <trkpt lat="42.57742" lon="2.07409">
        <ele>1653</ele>
        <time>2020-07-21T07:58:11.000Z</time>
      </trkpt>
      <trkpt lat="42.57741" lon="2.07407">
        <ele>1653</ele>
        <time>2020-07-21T07:58:12.000Z</time>
      </trkpt>
      <trkpt lat="42.57739" lon="2.07404">
        <ele>1654</ele>
        <time>2020-07-21T07:58:13.000Z</time>
      </trkpt>
      <trkpt lat="42.57738" lon="2.07403">
        <ele>1654</ele>
        <time>2020-07-21T07:58:14.000Z</time>
      </trkpt>
      <trkpt lat="42.57736" lon="2.07401">
        <ele>1654</ele>
        <time>2020-07-21T07:58:15.000Z</time>
      </trkpt>
      <trkpt lat="42.57734" lon="2.07398">
        <ele>1655</ele>
        <time>2020-07-21T07:58:16.000Z</time>
      </trkpt>
      <trkpt lat="42.57732" lon="2.07396">
        <ele>1656</ele>
        <time>2020-07-21T07:58:17.000Z</time>
      </trkpt>
      <trkpt lat="42.5773" lon="2.07393">
        <ele>1657</ele>
        <time>2020-07-21T07:58:18.000Z</time>
      </trkpt>
      <trkpt lat="42.57727" lon="2.0739">
        <ele>1656</ele>
        <time>2020-07-21T07:58:19.000Z</time>
      </trkpt>
      <trkpt lat="42.57725" lon="2.07387">
        <ele>1656</ele>
        <time>2020-07-21T07:58:20.000Z</time>
      </trkpt>
      <trkpt lat="42.57723" lon="2.07385">
        <ele>1656</ele>
        <time>2020-07-21T07:58:21.000Z</time>
      </trkpt>
      <trkpt lat="42.57721" lon="2.07382">
        <ele>1657</ele>
        <time>2020-07-21T07:58:22.000Z</time>
      </trkpt>
      <trkpt lat="42.5772" lon="2.07379">
        <ele>1657</ele>
        <time>2020-07-21T07:58:23.000Z</time>
      </trkpt>
      <trkpt lat="42.57718" lon="2.07377">
        <ele>1657</ele>
        <time>2020-07-21T07:58:24.000Z</time>
      </trkpt>
      <trkpt lat="42.57716" lon="2.07374">
        <ele>1657</ele>
        <time>2020-07-21T07:58:25.000Z</time>
      </trkpt>
      <trkpt lat="42.57714" lon="2.07371">
        <ele>1657</ele>
        <time>2020-07-21T07:58:26.000Z</time>
      </trkpt>
      <trkpt lat="42.57712" lon="2.07368">
        <ele>1657</ele>
        <time>2020-07-21T07:58:27.000Z</time>
      </trkpt>
      <trkpt lat="42.5771" lon="2.07365">
        <ele>1657</ele>
        <time>2020-07-21T07:58:28.000Z</time>
      </trkpt>
      <trkpt lat="42.57709" lon="2.07362">
        <ele>1657</ele>
        <time>2020-07-21T07:58:29.000Z</time>
      </trkpt>
      <trkpt lat="42.57708" lon="2.07357">
        <ele>1657</ele>
        <time>2020-07-21T07:58:30.000Z</time>
      </trkpt>
      <trkpt lat="42.57707" lon="2.07353">
        <ele>1658</ele>
        <time>2020-07-21T07:58:31.000Z</time>
      </trkpt>
      <trkpt lat="42.57706" lon="2.07348">
        <ele>1658</ele>
        <time>2020-07-21T07:58:32.000Z</time>
      </trkpt>
      <trkpt lat="42.57706" lon="2.07343">
        <ele>1659</ele>
        <time>2020-07-21T07:58:33.000Z</time>
      </trkpt>
      <trkpt lat="42.57706" lon="2.07338">
        <ele>1659</ele>
        <time>2020-07-21T07:58:34.000Z</time>
      </trkpt>
      <trkpt lat="42.57705" lon="2.07334">
        <ele>1659</ele>
        <time>2020-07-21T07:58:35.000Z</time>
      </trkpt>
      <trkpt lat="42.57705" lon="2.0733">
        <ele>1660</ele>
        <time>2020-07-21T07:58:36.000Z</time>
      </trkpt>
      <trkpt lat="42.57704" lon="2.07326">
        <ele>1660</ele>
        <time>2020-07-21T07:58:37.000Z</time>
      </trkpt>
      <trkpt lat="42.57703" lon="2.07322">
        <ele>1660</ele>
        <time>2020-07-21T07:58:38.000Z</time>
      </trkpt>
      <trkpt lat="42.57702" lon="2.07318">
        <ele>1660</ele>
        <time>2020-07-21T07:58:39.000Z</time>
      </trkpt>
      <trkpt lat="42.57701" lon="2.07314">
        <ele>1660</ele>
        <time>2020-07-21T07:58:40.000Z</time>
      </trkpt>
      <trkpt lat="42.577" lon="2.0731">
        <ele>1660</ele>
        <time>2020-07-21T07:58:41.000Z</time>
      </trkpt>
      <trkpt lat="42.57699" lon="2.07306">
        <ele>1660</ele>
        <time>2020-07-21T07:58:42.000Z</time>
      </trkpt>
      <trkpt lat="42.57698" lon="2.07302">
        <ele>1660</ele>
        <time>2020-07-21T07:58:43.000Z</time>
      </trkpt>
      <trkpt lat="42.57696" lon="2.07297">
        <ele>1661</ele>
        <time>2020-07-21T07:58:44.000Z</time>
      </trkpt>
      <trkpt lat="42.57695" lon="2.07293">
        <ele>1661</ele>
        <time>2020-07-21T07:58:45.000Z</time>
      </trkpt>
      <trkpt lat="42.57694" lon="2.07288">
        <ele>1661</ele>
        <time>2020-07-21T07:58:46.000Z</time>
      </trkpt>
      <trkpt lat="42.57692" lon="2.07284">
        <ele>1660</ele>
        <time>2020-07-21T07:58:47.000Z</time>
      </trkpt>
      <trkpt lat="42.57691" lon="2.0728">
        <ele>1660</ele>
        <time>2020-07-21T07:58:48.000Z</time>
      </trkpt>
      <trkpt lat="42.57689" lon="2.07276">
        <ele>1656</ele>
        <time>2020-07-21T07:58:49.000Z</time>
      </trkpt>
      <trkpt lat="42.57687" lon="2.07272">
        <ele>1656</ele>
        <time>2020-07-21T07:58:50.000Z</time>
      </trkpt>
      <trkpt lat="42.57685" lon="2.07268">
        <ele>1656</ele>
        <time>2020-07-21T07:58:51.000Z</time>
      </trkpt>
      <trkpt lat="42.57683" lon="2.07264">
        <ele>1656</ele>
        <time>2020-07-21T07:58:52.000Z</time>
      </trkpt>
      <trkpt lat="42.57682" lon="2.0726">
        <ele>1656</ele>
        <time>2020-07-21T07:58:53.000Z</time>
      </trkpt>
      <trkpt lat="42.5768" lon="2.07257">
        <ele>1656</ele>
        <time>2020-07-21T07:58:54.000Z</time>
      </trkpt>
      <trkpt lat="42.57678" lon="2.07253">
        <ele>1657</ele>
        <time>2020-07-21T07:58:55.000Z</time>
      </trkpt>
      <trkpt lat="42.57676" lon="2.07249">
        <ele>1658</ele>
        <time>2020-07-21T07:58:56.000Z</time>
      </trkpt>
      <trkpt lat="42.57673" lon="2.07246">
        <ele>1657</ele>
        <time>2020-07-21T07:58:57.000Z</time>
      </trkpt>
      <trkpt lat="42.57671" lon="2.07242">
        <ele>1656</ele>
        <time>2020-07-21T07:58:58.000Z</time>
      </trkpt>
      <trkpt lat="42.57668" lon="2.07239">
        <ele>1657</ele>
        <time>2020-07-21T07:58:59.000Z</time>
      </trkpt>
      <trkpt lat="42.57666" lon="2.07236">
        <ele>1656</ele>
        <time>2020-07-21T07:59:00.000Z</time>
      </trkpt>
      <trkpt lat="42.57663" lon="2.07233">
        <ele>1655</ele>
        <time>2020-07-21T07:59:01.000Z</time>
      </trkpt>
      <trkpt lat="42.57661" lon="2.0723">
        <ele>1653</ele>
        <time>2020-07-21T07:59:02.000Z</time>
      </trkpt>
      <trkpt lat="42.57659" lon="2.07227">
        <ele>1653</ele>
        <time>2020-07-21T07:59:03.000Z</time>
      </trkpt>
      <trkpt lat="42.57656" lon="2.07224">
        <ele>1652</ele>
        <time>2020-07-21T07:59:04.000Z</time>
      </trkpt>
      <trkpt lat="42.57654" lon="2.07221">
        <ele>1652</ele>
        <time>2020-07-21T07:59:05.000Z</time>
      </trkpt>
      <trkpt lat="42.57651" lon="2.07219">
        <ele>1651</ele>
        <time>2020-07-21T07:59:06.000Z</time>
      </trkpt>
      <trkpt lat="42.57649" lon="2.07216">
        <ele>1651</ele>
        <time>2020-07-21T07:59:07.000Z</time>
      </trkpt>
      <trkpt lat="42.57646" lon="2.07214">
        <ele>1649</ele>
        <time>2020-07-21T07:59:08.000Z</time>
      </trkpt>
      <trkpt lat="42.57644" lon="2.07211">
        <ele>1649</ele>
        <time>2020-07-21T07:59:09.000Z</time>
      </trkpt>
      <trkpt lat="42.57641" lon="2.07208">
        <ele>1649</ele>
        <time>2020-07-21T07:59:10.000Z</time>
      </trkpt>
      <trkpt lat="42.57639" lon="2.07206">
        <ele>1648</ele>
        <time>2020-07-21T07:59:11.000Z</time>
      </trkpt>
      <trkpt lat="42.57636" lon="2.07204">
        <ele>1647</ele>
        <time>2020-07-21T07:59:12.000Z</time>
      </trkpt>
      <trkpt lat="42.57634" lon="2.07202">
        <ele>1647</ele>
        <time>2020-07-21T07:59:13.000Z</time>
      </trkpt>
      <trkpt lat="42.57631" lon="2.07201">
        <ele>1646</ele>
        <time>2020-07-21T07:59:14.000Z</time>
      </trkpt>
      <trkpt lat="42.57628" lon="2.07199">
        <ele>1646</ele>
        <time>2020-07-21T07:59:15.000Z</time>
      </trkpt>
      <trkpt lat="42.57625" lon="2.07198">
        <ele>1645</ele>
        <time>2020-07-21T07:59:16.000Z</time>
      </trkpt>
      <trkpt lat="42.57622" lon="2.07197">
        <ele>1644</ele>
        <time>2020-07-21T07:59:17.000Z</time>
      </trkpt>
      <trkpt lat="42.57619" lon="2.07196">
        <ele>1644</ele>
        <time>2020-07-21T07:59:18.000Z</time>
      </trkpt>
      <trkpt lat="42.57616" lon="2.07195">
        <ele>1643</ele>
        <time>2020-07-21T07:59:19.000Z</time>
      </trkpt>
      <trkpt lat="42.57613" lon="2.07193">
        <ele>1643</ele>
        <time>2020-07-21T07:59:20.000Z</time>
      </trkpt>
      <trkpt lat="42.57611" lon="2.07191">
        <ele>1643</ele>
        <time>2020-07-21T07:59:21.000Z</time>
      </trkpt>
      <trkpt lat="42.57609" lon="2.07188">
        <ele>1643</ele>
        <time>2020-07-21T07:59:22.000Z</time>
      </trkpt>
      <trkpt lat="42.57608" lon="2.07185">
        <ele>1643</ele>
        <time>2020-07-21T07:59:23.000Z</time>
      </trkpt>
      <trkpt lat="42.57608" lon="2.07182">
        <ele>1644</ele>
        <time>2020-07-21T07:59:24.000Z</time>
      </trkpt>
      <trkpt lat="42.57607" lon="2.07178">
        <ele>1645</ele>
        <time>2020-07-21T07:59:25.000Z</time>
      </trkpt>
      <trkpt lat="42.57607" lon="2.07174">
        <ele>1645</ele>
        <time>2020-07-21T07:59:26.000Z</time>
      </trkpt>
      <trkpt lat="42.57607" lon="2.07171">
        <ele>1645</ele>
        <time>2020-07-21T07:59:27.000Z</time>
      </trkpt>
      <trkpt lat="42.57607" lon="2.07167">
        <ele>1646</ele>
        <time>2020-07-21T07:59:28.000Z</time>
      </trkpt>
      <trkpt lat="42.57608" lon="2.07163">
        <ele>1646</ele>
        <time>2020-07-21T07:59:29.000Z</time>
      </trkpt>
      <trkpt lat="42.57608" lon="2.07159">
        <ele>1647</ele>
        <time>2020-07-21T07:59:30.000Z</time>
      </trkpt>
      <trkpt lat="42.57608" lon="2.07155">
        <ele>1646</ele>
        <time>2020-07-21T07:59:31.000Z</time>
      </trkpt>
      <trkpt lat="42.57608" lon="2.07151">
        <ele>1646</ele>
        <time>2020-07-21T07:59:32.000Z</time>
      </trkpt>
      <trkpt lat="42.57607" lon="2.07147">
        <ele>1646</ele>
        <time>2020-07-21T07:59:33.000Z</time>
      </trkpt>
      <trkpt lat="42.57606" lon="2.07144">
        <ele>1646</ele>
        <time>2020-07-21T07:59:34.000Z</time>
      </trkpt>
      <trkpt lat="42.57606" lon="2.0714">
        <ele>1646</ele>
        <time>2020-07-21T07:59:35.000Z</time>
      </trkpt>
      <trkpt lat="42.57605" lon="2.07136">
        <ele>1646</ele>
        <time>2020-07-21T07:59:36.000Z</time>
      </trkpt>
      <trkpt lat="42.57604" lon="2.07133">
        <ele>1646</ele>
        <time>2020-07-21T07:59:37.000Z</time>
      </trkpt>
      <trkpt lat="42.57603" lon="2.07129">
        <ele>1647</ele>
        <time>2020-07-21T07:59:38.000Z</time>
      </trkpt>
      <trkpt lat="42.57602" lon="2.07126">
        <ele>1647</ele>
        <time>2020-07-21T07:59:39.000Z</time>
      </trkpt>
      <trkpt lat="42.57601" lon="2.07123">
        <ele>1648</ele>
        <time>2020-07-21T07:59:40.000Z</time>
      </trkpt>
      <trkpt lat="42.57601" lon="2.07119">
        <ele>1646</ele>
        <time>2020-07-21T07:59:41.000Z</time>
      </trkpt>
      <trkpt lat="42.57601" lon="2.07115">
        <ele>1647</ele>
        <time>2020-07-21T07:59:42.000Z</time>
      </trkpt>
      <trkpt lat="42.57601" lon="2.0711">
        <ele>1647</ele>
        <time>2020-07-21T07:59:43.000Z</time>
      </trkpt>
      <trkpt lat="42.57601" lon="2.07106">
        <ele>1647</ele>
        <time>2020-07-21T07:59:44.000Z</time>
      </trkpt>
      <trkpt lat="42.57601" lon="2.07102">
        <ele>1648</ele>
        <time>2020-07-21T07:59:45.000Z</time>
      </trkpt>
      <trkpt lat="42.57601" lon="2.07098">
        <ele>1648</ele>
        <time>2020-07-21T07:59:46.000Z</time>
      </trkpt>
      <trkpt lat="42.57601" lon="2.07095">
        <ele>1649</ele>
        <time>2020-07-21T07:59:47.000Z</time>
      </trkpt>
      <trkpt lat="42.576" lon="2.07091">
        <ele>1649</ele>
        <time>2020-07-21T07:59:48.000Z</time>
      </trkpt>
      <trkpt lat="42.576" lon="2.07087">
        <ele>1649</ele>
        <time>2020-07-21T07:59:49.000Z</time>
      </trkpt>
      <trkpt lat="42.576" lon="2.07084">
        <ele>1650</ele>
        <time>2020-07-21T07:59:50.000Z</time>
      </trkpt>
      <trkpt lat="42.576" lon="2.0708">
        <ele>1651</ele>
        <time>2020-07-21T07:59:51.000Z</time>
      </trkpt>
      <trkpt lat="42.576" lon="2.07076">
        <ele>1651</ele>
        <time>2020-07-21T07:59:52.000Z</time>
      </trkpt>
      <trkpt lat="42.576" lon="2.07072">
        <ele>1651</ele>
        <time>2020-07-21T07:59:53.000Z</time>
      </trkpt>
      <trkpt lat="42.57601" lon="2.07069">
        <ele>1652</ele>
        <time>2020-07-21T07:59:54.000Z</time>
      </trkpt>
      <trkpt lat="42.57601" lon="2.07065">
        <ele>1652</ele>
        <time>2020-07-21T07:59:55.000Z</time>
      </trkpt>
      <trkpt lat="42.57602" lon="2.07061">
        <ele>1652</ele>
        <time>2020-07-21T07:59:56.000Z</time>
      </trkpt>
      <trkpt lat="42.57602" lon="2.07056">
        <ele>1653</ele>
        <time>2020-07-21T07:59:57.000Z</time>
      </trkpt>
      <trkpt lat="42.57603" lon="2.07052">
        <ele>1654</ele>
        <time>2020-07-21T07:59:58.000Z</time>
      </trkpt>
      <trkpt lat="42.57603" lon="2.07049">
        <ele>1654</ele>
        <time>2020-07-21T07:59:59.000Z</time>
      </trkpt>
      <trkpt lat="42.57604" lon="2.07045">
        <ele>1655</ele>
        <time>2020-07-21T08:00:00.000Z</time>
      </trkpt>
      <trkpt lat="42.57604" lon="2.07042">
        <ele>1656</ele>
        <time>2020-07-21T08:00:01.000Z</time>
      </trkpt>
      <trkpt lat="42.57604" lon="2.0704">
        <ele>1656</ele>
        <time>2020-07-21T08:00:02.000Z</time>
      </trkpt>
      <trkpt lat="42.57605" lon="2.07037">
        <ele>1657</ele>
        <time>2020-07-21T08:00:03.000Z</time>
      </trkpt>
      <trkpt lat="42.57606" lon="2.07035">
        <ele>1658</ele>
        <time>2020-07-21T08:00:04.000Z</time>
      </trkpt>
      <trkpt lat="42.57607" lon="2.07033">
        <ele>1657</ele>
        <time>2020-07-21T08:00:05.000Z</time>
      </trkpt>
      <trkpt lat="42.57626" lon="2.07019">
        <ele>1664</ele>
        <time>2020-07-21T08:00:06.113Z</time>
      </trkpt>
      <trkpt lat="42.57627" lon="2.07019">
        <ele>1664</ele>
        <time>2020-07-21T08:00:07.113Z</time>
      </trkpt>
      <trkpt lat="42.57628" lon="2.0702">
        <ele>1664</ele>
        <time>2020-07-21T08:00:08.113Z</time>
      </trkpt>
      <trkpt lat="42.5763" lon="2.07021">
        <ele>1664</ele>
        <time>2020-07-21T08:00:09.113Z</time>
      </trkpt>
      <trkpt lat="42.57638" lon="2.07027">
        <ele>1665</ele>
        <time>2020-07-21T08:00:10.086Z</time>
      </trkpt>
      <trkpt lat="42.57641" lon="2.07028">
        <ele>1664</ele>
        <time>2020-07-21T08:00:11.086Z</time>
      </trkpt>
      <trkpt lat="42.57642" lon="2.07029">
        <ele>1664</ele>
        <time>2020-07-21T08:00:12.086Z</time>
      </trkpt>
      <trkpt lat="42.57644" lon="2.0703">
        <ele>1664</ele>
        <time>2020-07-21T08:00:13.086Z</time>
      </trkpt>
      <trkpt lat="42.57646" lon="2.07032">
        <ele>1664</ele>
        <time>2020-07-21T08:00:14.086Z</time>
      </trkpt>
      <trkpt lat="42.57649" lon="2.07034">
        <ele>1664</ele>
        <time>2020-07-21T08:00:15.086Z</time>
      </trkpt>
      <trkpt lat="42.57651" lon="2.07037">
        <ele>1664</ele>
        <time>2020-07-21T08:00:16.086Z</time>
      </trkpt>
      <trkpt lat="42.57654" lon="2.07039">
        <ele>1664</ele>
        <time>2020-07-21T08:00:17.086Z</time>
      </trkpt>
      <trkpt lat="42.57656" lon="2.07041">
        <ele>1663</ele>
        <time>2020-07-21T08:00:18.086Z</time>
      </trkpt>
      <trkpt lat="42.57659" lon="2.07043">
        <ele>1664</ele>
        <time>2020-07-21T08:00:19.086Z</time>
      </trkpt>
      <trkpt lat="42.57662" lon="2.07046">
        <ele>1663</ele>
        <time>2020-07-21T08:00:20.086Z</time>
      </trkpt>
      <trkpt lat="42.57664" lon="2.07048">
        <ele>1664</ele>
        <time>2020-07-21T08:00:21.086Z</time>
      </trkpt>
      <trkpt lat="42.57667" lon="2.07051">
        <ele>1664</ele>
        <time>2020-07-21T08:00:22.086Z</time>
      </trkpt>
      <trkpt lat="42.5767" lon="2.07053">
        <ele>1664</ele>
        <time>2020-07-21T08:00:23.086Z</time>
      </trkpt>
      <trkpt lat="42.57672" lon="2.07055">
        <ele>1663</ele>
        <time>2020-07-21T08:00:24.086Z</time>
      </trkpt>
      <trkpt lat="42.57675" lon="2.07057">
        <ele>1664</ele>
        <time>2020-07-21T08:00:25.086Z</time>
      </trkpt>
      <trkpt lat="42.57678" lon="2.0706">
        <ele>1663</ele>
        <time>2020-07-21T08:00:26.086Z</time>
      </trkpt>
      <trkpt lat="42.5768" lon="2.07063">
        <ele>1663</ele>
        <time>2020-07-21T08:00:27.086Z</time>
      </trkpt>
      <trkpt lat="42.57683" lon="2.07066">
        <ele>1664</ele>
        <time>2020-07-21T08:00:28.086Z</time>
      </trkpt>
      <trkpt lat="42.57683" lon="2.07066">
        <ele>1664</ele>
        <time>2020-07-21T08:00:29.086Z</time>
      </trkpt>
      <trkpt lat="42.57687" lon="2.07074">
        <ele>1664</ele>
        <time>2020-07-21T08:00:30.086Z</time>
      </trkpt>
      <trkpt lat="42.57689" lon="2.07078">
        <ele>1665</ele>
        <time>2020-07-21T08:00:31.086Z</time>
      </trkpt>
      <trkpt lat="42.57689" lon="2.07078">
        <ele>1665</ele>
        <time>2020-07-21T08:00:32.086Z</time>
      </trkpt>
      <trkpt lat="42.57691" lon="2.07082">
        <ele>1663</ele>
        <time>2020-07-21T08:00:33.086Z</time>
      </trkpt>
      <trkpt lat="42.57693" lon="2.07084">
        <ele>1663</ele>
        <time>2020-07-21T08:00:34.086Z</time>
      </trkpt>
      <trkpt lat="42.57694" lon="2.07085">
        <ele>1663</ele>
        <time>2020-07-21T08:00:35.086Z</time>
      </trkpt>
      <trkpt lat="42.57694" lon="2.07085">
        <ele>1663</ele>
        <time>2020-07-21T08:00:36.086Z</time>
      </trkpt>
      <trkpt lat="42.57696" lon="2.07087">
        <ele>1663</ele>
        <time>2020-07-21T08:00:37.086Z</time>
      </trkpt>
      <trkpt lat="42.57698" lon="2.07087">
        <ele>1662</ele>
        <time>2020-07-21T08:00:38.086Z</time>
      </trkpt>
      <trkpt lat="42.577" lon="2.07088">
        <ele>1662</ele>
        <time>2020-07-21T08:00:39.086Z</time>
      </trkpt>
      <trkpt lat="42.57702" lon="2.07088">
        <ele>1662</ele>
        <time>2020-07-21T08:00:40.086Z</time>
      </trkpt>
      <trkpt lat="42.57704" lon="2.07089">
        <ele>1662</ele>
        <time>2020-07-21T08:00:41.086Z</time>
      </trkpt>
      <trkpt lat="42.57706" lon="2.07089">
        <ele>1663</ele>
        <time>2020-07-21T08:00:42.086Z</time>
      </trkpt>
      <trkpt lat="42.57707" lon="2.07089">
        <ele>1663</ele>
        <time>2020-07-21T08:00:43.086Z</time>
      </trkpt>
      <trkpt lat="42.57709" lon="2.07088">
        <ele>1664</ele>
        <time>2020-07-21T08:00:44.086Z</time>
      </trkpt>
      <trkpt lat="42.5771" lon="2.07087">
        <ele>1664</ele>
        <time>2020-07-21T08:00:45.086Z</time>
      </trkpt>
      <trkpt lat="42.57711" lon="2.07085">
        <ele>1664</ele>
        <time>2020-07-21T08:00:46.086Z</time>
      </trkpt>
      <trkpt lat="42.57711" lon="2.07082">
        <ele>1664</ele>
        <time>2020-07-21T08:00:47.086Z</time>
      </trkpt>
      <trkpt lat="42.57712" lon="2.07078">
        <ele>1665</ele>
        <time>2020-07-21T08:00:48.086Z</time>
      </trkpt>
      <trkpt lat="42.57712" lon="2.0707">
        <ele>1666</ele>
        <time>2020-07-21T08:00:49.086Z</time>
      </trkpt>
      <trkpt lat="42.57712" lon="2.07066">
        <ele>1666</ele>
        <time>2020-07-21T08:00:50.086Z</time>
      </trkpt>
      <trkpt lat="42.57712" lon="2.07062">
        <ele>1666</ele>
        <time>2020-07-21T08:00:51.086Z</time>
      </trkpt>
      <trkpt lat="42.57712" lon="2.07058">
        <ele>1667</ele>
        <time>2020-07-21T08:00:52.086Z</time>
      </trkpt>
      <trkpt lat="42.57712" lon="2.07054">
        <ele>1667</ele>
        <time>2020-07-21T08:00:53.086Z</time>
      </trkpt>
      <trkpt lat="42.57712" lon="2.07054">
        <ele>1667</ele>
        <time>2020-07-21T08:00:54.086Z</time>
      </trkpt>
      <trkpt lat="42.57712" lon="2.07047">
        <ele>1668</ele>
        <time>2020-07-21T08:00:55.086Z</time>
      </trkpt>
      <trkpt lat="42.57712" lon="2.07043">
        <ele>1670</ele>
        <time>2020-07-21T08:00:56.086Z</time>
      </trkpt>
      <trkpt lat="42.57711" lon="2.0704">
        <ele>1671</ele>
        <time>2020-07-21T08:00:57.086Z</time>
      </trkpt>
      <trkpt lat="42.57711" lon="2.07037">
        <ele>1671</ele>
        <time>2020-07-21T08:00:58.086Z</time>
      </trkpt>
      <trkpt lat="42.5771" lon="2.07035">
        <ele>1671</ele>
        <time>2020-07-21T08:00:59.086Z</time>
      </trkpt>
      <trkpt lat="42.57709" lon="2.07031">
        <ele>1671</ele>
        <time>2020-07-21T08:01:00.086Z</time>
      </trkpt>
      <trkpt lat="42.57707" lon="2.07028">
        <ele>1672</ele>
        <time>2020-07-21T08:01:01.086Z</time>
      </trkpt>
      <trkpt lat="42.57706" lon="2.07025">
        <ele>1672</ele>
        <time>2020-07-21T08:01:02.086Z</time>
      </trkpt>
      <trkpt lat="42.57706" lon="2.07021">
        <ele>1674</ele>
        <time>2020-07-21T08:01:03.086Z</time>
      </trkpt>
      <trkpt lat="42.57705" lon="2.07018">
        <ele>1675</ele>
        <time>2020-07-21T08:01:04.086Z</time>
      </trkpt>
      <trkpt lat="42.57704" lon="2.07015">
        <ele>1677</ele>
        <time>2020-07-21T08:01:05.086Z</time>
      </trkpt>
      <trkpt lat="42.57702" lon="2.07012">
        <ele>1676</ele>
        <time>2020-07-21T08:01:06.086Z</time>
      </trkpt>
      <trkpt lat="42.57701" lon="2.07009">
        <ele>1677</ele>
        <time>2020-07-21T08:01:07.086Z</time>
      </trkpt>
      <trkpt lat="42.577" lon="2.07006">
        <ele>1678</ele>
        <time>2020-07-21T08:01:08.086Z</time>
      </trkpt>
      <trkpt lat="42.57699" lon="2.07003">
        <ele>1677</ele>
        <time>2020-07-21T08:01:09.086Z</time>
      </trkpt>
      <trkpt lat="42.57698" lon="2.07">
        <ele>1678</ele>
        <time>2020-07-21T08:01:10.086Z</time>
      </trkpt>
      <trkpt lat="42.57697" lon="2.06997">
        <ele>1677</ele>
        <time>2020-07-21T08:01:11.086Z</time>
      </trkpt>
      <trkpt lat="42.57696" lon="2.06994">
        <ele>1678</ele>
        <time>2020-07-21T08:01:12.086Z</time>
      </trkpt>
      <trkpt lat="42.57696" lon="2.06991">
        <ele>1678</ele>
        <time>2020-07-21T08:01:13.086Z</time>
      </trkpt>
      <trkpt lat="42.57695" lon="2.06987">
        <ele>1679</ele>
        <time>2020-07-21T08:01:14.086Z</time>
      </trkpt>
      <trkpt lat="42.57695" lon="2.06987">
        <ele>1679</ele>
        <time>2020-07-21T08:01:15.086Z</time>
      </trkpt>
      <trkpt lat="42.57695" lon="2.06985">
        <ele>1679</ele>
        <time>2020-07-21T08:01:16.086Z</time>
      </trkpt>
      <trkpt lat="42.57693" lon="2.06978">
        <ele>1680</ele>
        <time>2020-07-21T08:01:17.086Z</time>
      </trkpt>
      <trkpt lat="42.57693" lon="2.06978">
        <ele>1680</ele>
        <time>2020-07-21T08:01:18.086Z</time>
      </trkpt>
      <trkpt lat="42.57692" lon="2.06972">
        <ele>1680</ele>
        <time>2020-07-21T08:01:19.086Z</time>
      </trkpt>
      <trkpt lat="42.57691" lon="2.06969">
        <ele>1681</ele>
        <time>2020-07-21T08:01:20.086Z</time>
      </trkpt>
      <trkpt lat="42.57691" lon="2.06965">
        <ele>1682</ele>
        <time>2020-07-21T08:01:21.086Z</time>
      </trkpt>
      <trkpt lat="42.57691" lon="2.06965">
        <ele>1682</ele>
        <time>2020-07-21T08:01:22.086Z</time>
      </trkpt>
      <trkpt lat="42.57691" lon="2.06962">
        <ele>1682</ele>
        <time>2020-07-21T08:01:23.086Z</time>
      </trkpt>
      <trkpt lat="42.5769" lon="2.06959">
        <ele>1682</ele>
        <time>2020-07-21T08:01:24.086Z</time>
      </trkpt>
      <trkpt lat="42.57689" lon="2.06953">
        <ele>1683</ele>
        <time>2020-07-21T08:01:25.086Z</time>
      </trkpt>
      <trkpt lat="42.57689" lon="2.0695">
        <ele>1682</ele>
        <time>2020-07-21T08:01:26.086Z</time>
      </trkpt>
      <trkpt lat="42.57688" lon="2.06947">
        <ele>1682</ele>
        <time>2020-07-21T08:01:27.086Z</time>
      </trkpt>
      <trkpt lat="42.57688" lon="2.06944">
        <ele>1682</ele>
        <time>2020-07-21T08:01:28.086Z</time>
      </trkpt>
      <trkpt lat="42.57688" lon="2.06944">
        <ele>1682</ele>
        <time>2020-07-21T08:01:29.086Z</time>
      </trkpt>
      <trkpt lat="42.57687" lon="2.06938">
        <ele>1683</ele>
        <time>2020-07-21T08:01:30.086Z</time>
      </trkpt>
      <trkpt lat="42.57687" lon="2.06938">
        <ele>1683</ele>
        <time>2020-07-21T08:01:31.086Z</time>
      </trkpt>
      <trkpt lat="42.57687" lon="2.06931">
        <ele>1684</ele>
        <time>2020-07-21T08:01:32.086Z</time>
      </trkpt>
      <trkpt lat="42.57687" lon="2.06931">
        <ele>1684</ele>
        <time>2020-07-21T08:01:33.086Z</time>
      </trkpt>
      <trkpt lat="42.57687" lon="2.06924">
        <ele>1684</ele>
        <time>2020-07-21T08:01:34.086Z</time>
      </trkpt>
      <trkpt lat="42.57687" lon="2.06921">
        <ele>1684</ele>
        <time>2020-07-21T08:01:35.086Z</time>
      </trkpt>
      <trkpt lat="42.57687" lon="2.06921">
        <ele>1684</ele>
        <time>2020-07-21T08:01:36.086Z</time>
      </trkpt>
      <trkpt lat="42.57686" lon="2.06915">
        <ele>1683</ele>
        <time>2020-07-21T08:01:37.086Z</time>
      </trkpt>
      <trkpt lat="42.57686" lon="2.06915">
        <ele>1683</ele>
        <time>2020-07-21T08:01:38.086Z</time>
      </trkpt>
      <trkpt lat="42.57686" lon="2.06909">
        <ele>1683</ele>
        <time>2020-07-21T08:01:39.086Z</time>
      </trkpt>
      <trkpt lat="42.57685" lon="2.06906">
        <ele>1684</ele>
        <time>2020-07-21T08:01:40.086Z</time>
      </trkpt>
      <trkpt lat="42.57685" lon="2.06906">
        <ele>1684</ele>
        <time>2020-07-21T08:01:41.086Z</time>
      </trkpt>
      <trkpt lat="42.57685" lon="2.06903">
        <ele>1684</ele>
        <time>2020-07-21T08:01:42.086Z</time>
      </trkpt>
      <trkpt lat="42.57684" lon="2.06897">
        <ele>1684</ele>
        <time>2020-07-21T08:01:43.086Z</time>
      </trkpt>
      <trkpt lat="42.57684" lon="2.06894">
        <ele>1684</ele>
        <time>2020-07-21T08:01:44.086Z</time>
      </trkpt>
      <trkpt lat="42.57683" lon="2.06891">
        <ele>1684</ele>
        <time>2020-07-21T08:01:45.086Z</time>
      </trkpt>
      <trkpt lat="42.57683" lon="2.06891">
        <ele>1684</ele>
        <time>2020-07-21T08:01:46.086Z</time>
      </trkpt>
      <trkpt lat="42.57682" lon="2.06886">
        <ele>1683</ele>
        <time>2020-07-21T08:01:47.086Z</time>
      </trkpt>
      <trkpt lat="42.57682" lon="2.06886">
        <ele>1683</ele>
        <time>2020-07-21T08:01:48.086Z</time>
      </trkpt>
      <trkpt lat="42.57681" lon="2.0688">
        <ele>1684</ele>
        <time>2020-07-21T08:01:49.086Z</time>
      </trkpt>
      <trkpt lat="42.5768" lon="2.06877">
        <ele>1684</ele>
        <time>2020-07-21T08:01:50.086Z</time>
      </trkpt>
      <trkpt lat="42.5768" lon="2.06877">
        <ele>1684</ele>
        <time>2020-07-21T08:01:51.086Z</time>
      </trkpt>
      <trkpt lat="42.57679" lon="2.06872">
        <ele>1684</ele>
        <time>2020-07-21T08:01:52.086Z</time>
      </trkpt>
      <trkpt lat="42.57678" lon="2.06869">
        <ele>1684</ele>
        <time>2020-07-21T08:01:53.086Z</time>
      </trkpt>
      <trkpt lat="42.57678" lon="2.06869">
        <ele>1684</ele>
        <time>2020-07-21T08:01:54.086Z</time>
      </trkpt>
      <trkpt lat="42.57677" lon="2.06866">
        <ele>1685</ele>
        <time>2020-07-21T08:01:55.086Z</time>
      </trkpt>
      <trkpt lat="42.57677" lon="2.06863">
        <ele>1685</ele>
        <time>2020-07-21T08:01:56.086Z</time>
      </trkpt>
      <trkpt lat="42.57675" lon="2.06856">
        <ele>1686</ele>
        <time>2020-07-21T08:01:57.086Z</time>
      </trkpt>
      <trkpt lat="42.57675" lon="2.06856">
        <ele>1686</ele>
        <time>2020-07-21T08:01:58.086Z</time>
      </trkpt>
      <trkpt lat="42.57674" lon="2.0685">
        <ele>1686</ele>
        <time>2020-07-21T08:01:59.086Z</time>
      </trkpt>
      <trkpt lat="42.57674" lon="2.0685">
        <ele>1686</ele>
        <time>2020-07-21T08:02:00.086Z</time>
      </trkpt>
      <trkpt lat="42.57673" lon="2.06844">
        <ele>1687</ele>
        <time>2020-07-21T08:02:01.086Z</time>
      </trkpt>
      <trkpt lat="42.57672" lon="2.06841">
        <ele>1687</ele>
        <time>2020-07-21T08:02:02.086Z</time>
      </trkpt>
      <trkpt lat="42.57672" lon="2.06837">
        <ele>1688</ele>
        <time>2020-07-21T08:02:03.086Z</time>
      </trkpt>
      <trkpt lat="42.57671" lon="2.06835">
        <ele>1688</ele>
        <time>2020-07-21T08:02:04.086Z</time>
      </trkpt>
      <trkpt lat="42.57671" lon="2.06831">
        <ele>1688</ele>
        <time>2020-07-21T08:02:05.086Z</time>
      </trkpt>
      <trkpt lat="42.57671" lon="2.06831">
        <ele>1688</ele>
        <time>2020-07-21T08:02:06.086Z</time>
      </trkpt>
      <trkpt lat="42.5767" lon="2.06825">
        <ele>1689</ele>
        <time>2020-07-21T08:02:07.086Z</time>
      </trkpt>
      <trkpt lat="42.57669" lon="2.06822">
        <ele>1690</ele>
        <time>2020-07-21T08:02:08.086Z</time>
      </trkpt>
      <trkpt lat="42.57669" lon="2.06819">
        <ele>1690</ele>
        <time>2020-07-21T08:02:09.086Z</time>
      </trkpt>
      <trkpt lat="42.57668" lon="2.06816">
        <ele>1691</ele>
        <time>2020-07-21T08:02:10.086Z</time>
      </trkpt>
      <trkpt lat="42.57668" lon="2.06813">
        <ele>1691</ele>
        <time>2020-07-21T08:02:11.086Z</time>
      </trkpt>
      <trkpt lat="42.57667" lon="2.0681">
        <ele>1691</ele>
        <time>2020-07-21T08:02:12.086Z</time>
      </trkpt>
      <trkpt lat="42.57667" lon="2.06807">
        <ele>1692</ele>
        <time>2020-07-21T08:02:13.086Z</time>
      </trkpt>
      <trkpt lat="42.57667" lon="2.06804">
        <ele>1692</ele>
        <time>2020-07-21T08:02:14.086Z</time>
      </trkpt>
      <trkpt lat="42.57667" lon="2.06804">
        <ele>1692</ele>
        <time>2020-07-21T08:02:15.086Z</time>
      </trkpt>
      <trkpt lat="42.57666" lon="2.06798">
        <ele>1693</ele>
        <time>2020-07-21T08:02:16.086Z</time>
      </trkpt>
      <trkpt lat="42.57665" lon="2.06795">
        <ele>1693</ele>
        <time>2020-07-21T08:02:17.086Z</time>
      </trkpt>
      <trkpt lat="42.57665" lon="2.06792">
        <ele>1694</ele>
        <time>2020-07-21T08:02:18.086Z</time>
      </trkpt>
      <trkpt lat="42.57665" lon="2.06789">
        <ele>1694</ele>
        <time>2020-07-21T08:02:19.086Z</time>
      </trkpt>
      <trkpt lat="42.57664" lon="2.06787">
        <ele>1694</ele>
        <time>2020-07-21T08:02:20.086Z</time>
      </trkpt>
      <trkpt lat="42.57664" lon="2.06784">
        <ele>1695</ele>
        <time>2020-07-21T08:02:21.086Z</time>
      </trkpt>
      <trkpt lat="42.57664" lon="2.06781">
        <ele>1695</ele>
        <time>2020-07-21T08:02:22.086Z</time>
      </trkpt>
      <trkpt lat="42.57663" lon="2.06778">
        <ele>1695</ele>
        <time>2020-07-21T08:02:23.086Z</time>
      </trkpt>
      <trkpt lat="42.57662" lon="2.06776">
        <ele>1696</ele>
        <time>2020-07-21T08:02:24.086Z</time>
      </trkpt>
      <trkpt lat="42.57661" lon="2.06773">
        <ele>1696</ele>
        <time>2020-07-21T08:02:25.086Z</time>
      </trkpt>
      <trkpt lat="42.5766" lon="2.06771">
        <ele>1697</ele>
        <time>2020-07-21T08:02:26.086Z</time>
      </trkpt>
      <trkpt lat="42.57659" lon="2.06768">
        <ele>1696</ele>
        <time>2020-07-21T08:02:27.086Z</time>
      </trkpt>
      <trkpt lat="42.57658" lon="2.06766">
        <ele>1697</ele>
        <time>2020-07-21T08:02:28.086Z</time>
      </trkpt>
      <trkpt lat="42.57658" lon="2.06766">
        <ele>1697</ele>
        <time>2020-07-21T08:02:29.086Z</time>
      </trkpt>
      <trkpt lat="42.57655" lon="2.06762">
        <ele>1698</ele>
        <time>2020-07-21T08:02:30.086Z</time>
      </trkpt>
      <trkpt lat="42.57655" lon="2.06759">
        <ele>1696</ele>
        <time>2020-07-21T08:02:31.086Z</time>
      </trkpt>
      <trkpt lat="42.57655" lon="2.06756">
        <ele>1696</ele>
        <time>2020-07-21T08:02:32.086Z</time>
      </trkpt>
      <trkpt lat="42.57656" lon="2.06753">
        <ele>1697</ele>
        <time>2020-07-21T08:02:33.086Z</time>
      </trkpt>
      <trkpt lat="42.57656" lon="2.06751">
        <ele>1697</ele>
        <time>2020-07-21T08:02:34.086Z</time>
      </trkpt>
      <trkpt lat="42.57656" lon="2.06751">
        <ele>1697</ele>
        <time>2020-07-21T08:02:35.086Z</time>
      </trkpt>
      <trkpt lat="42.57658" lon="2.06746">
        <ele>1699</ele>
        <time>2020-07-21T08:02:36.086Z</time>
      </trkpt>
      <trkpt lat="42.57659" lon="2.06744">
        <ele>1700</ele>
        <time>2020-07-21T08:02:37.086Z</time>
      </trkpt>
      <trkpt lat="42.5766" lon="2.06742">
        <ele>1700</ele>
        <time>2020-07-21T08:02:38.086Z</time>
      </trkpt>
      <trkpt lat="42.5766" lon="2.06742">
        <ele>1700</ele>
        <time>2020-07-21T08:02:39.086Z</time>
      </trkpt>
      <trkpt lat="42.57662" lon="2.06737">
        <ele>1701</ele>
        <time>2020-07-21T08:02:40.086Z</time>
      </trkpt>
      <trkpt lat="42.57663" lon="2.06735">
        <ele>1702</ele>
        <time>2020-07-21T08:02:41.086Z</time>
      </trkpt>
      <trkpt lat="42.57663" lon="2.06735">
        <ele>1702</ele>
        <time>2020-07-21T08:02:42.086Z</time>
      </trkpt>
      <trkpt lat="42.57664" lon="2.06732">
        <ele>1702</ele>
        <time>2020-07-21T08:02:43.086Z</time>
      </trkpt>
      <trkpt lat="42.57665" lon="2.0673">
        <ele>1702</ele>
        <time>2020-07-21T08:02:44.086Z</time>
      </trkpt>
      <trkpt lat="42.57666" lon="2.06728">
        <ele>1702</ele>
        <time>2020-07-21T08:02:45.086Z</time>
      </trkpt>
      <trkpt lat="42.57666" lon="2.06728">
        <ele>1702</ele>
        <time>2020-07-21T08:02:46.086Z</time>
      </trkpt>
      <trkpt lat="42.57667" lon="2.06725">
        <ele>1702</ele>
        <time>2020-07-21T08:02:47.086Z</time>
      </trkpt>
      <trkpt lat="42.57668" lon="2.06722">
        <ele>1703</ele>
        <time>2020-07-21T08:02:48.086Z</time>
      </trkpt>
      <trkpt lat="42.57669" lon="2.06721">
        <ele>1702</ele>
        <time>2020-07-21T08:02:49.086Z</time>
      </trkpt>
      <trkpt lat="42.5767" lon="2.06719">
        <ele>1702</ele>
        <time>2020-07-21T08:02:50.086Z</time>
      </trkpt>
      <trkpt lat="42.57672" lon="2.06717">
        <ele>1703</ele>
        <time>2020-07-21T08:02:51.086Z</time>
      </trkpt>
      <trkpt lat="42.57673" lon="2.06715">
        <ele>1704</ele>
        <time>2020-07-21T08:02:52.086Z</time>
      </trkpt>
      <trkpt lat="42.57674" lon="2.06714">
        <ele>1704</ele>
        <time>2020-07-21T08:02:53.086Z</time>
      </trkpt>
      <trkpt lat="42.57674" lon="2.06712">
        <ele>1704</ele>
        <time>2020-07-21T08:02:54.086Z</time>
      </trkpt>
      <trkpt lat="42.57675" lon="2.0671">
        <ele>1705</ele>
        <time>2020-07-21T08:02:55.086Z</time>
      </trkpt>
      <trkpt lat="42.57676" lon="2.06708">
        <ele>1706</ele>
        <time>2020-07-21T08:02:56.086Z</time>
      </trkpt>
      <trkpt lat="42.57677" lon="2.06706">
        <ele>1707</ele>
        <time>2020-07-21T08:02:57.086Z</time>
      </trkpt>
      <trkpt lat="42.57678" lon="2.06705">
        <ele>1708</ele>
        <time>2020-07-21T08:02:58.086Z</time>
      </trkpt>
      <trkpt lat="42.5768" lon="2.06703">
        <ele>1708</ele>
        <time>2020-07-21T08:02:59.086Z</time>
      </trkpt>
      <trkpt lat="42.5768" lon="2.06703">
        <ele>1708</ele>
        <time>2020-07-21T08:03:00.086Z</time>
      </trkpt>
      <trkpt lat="42.57681" lon="2.06699">
        <ele>1709</ele>
        <time>2020-07-21T08:03:01.086Z</time>
      </trkpt>
      <trkpt lat="42.57682" lon="2.06697">
        <ele>1710</ele>
        <time>2020-07-21T08:03:02.086Z</time>
      </trkpt>
      <trkpt lat="42.57683" lon="2.06695">
        <ele>1710</ele>
        <time>2020-07-21T08:03:03.086Z</time>
      </trkpt>
      <trkpt lat="42.57683" lon="2.06692">
        <ele>1710</ele>
        <time>2020-07-21T08:03:04.086Z</time>
      </trkpt>
      <trkpt lat="42.57684" lon="2.0669">
        <ele>1711</ele>
        <time>2020-07-21T08:03:05.086Z</time>
      </trkpt>
      <trkpt lat="42.57685" lon="2.06688">
        <ele>1712</ele>
        <time>2020-07-21T08:03:06.086Z</time>
      </trkpt>
      <trkpt lat="42.57686" lon="2.06686">
        <ele>1713</ele>
        <time>2020-07-21T08:03:07.086Z</time>
      </trkpt>
      <trkpt lat="42.57686" lon="2.06684">
        <ele>1713</ele>
        <time>2020-07-21T08:03:08.086Z</time>
      </trkpt>
      <trkpt lat="42.57687" lon="2.06682">
        <ele>1714</ele>
        <time>2020-07-21T08:03:09.086Z</time>
      </trkpt>
      <trkpt lat="42.57688" lon="2.0668">
        <ele>1714</ele>
        <time>2020-07-21T08:03:10.086Z</time>
      </trkpt>
      <trkpt lat="42.57689" lon="2.06677">
        <ele>1714</ele>
        <time>2020-07-21T08:03:11.086Z</time>
      </trkpt>
      <trkpt lat="42.57689" lon="2.06675">
        <ele>1714</ele>
        <time>2020-07-21T08:03:12.086Z</time>
      </trkpt>
      <trkpt lat="42.5769" lon="2.06673">
        <ele>1715</ele>
        <time>2020-07-21T08:03:13.086Z</time>
      </trkpt>
      <trkpt lat="42.57691" lon="2.06671">
        <ele>1715</ele>
        <time>2020-07-21T08:03:14.086Z</time>
      </trkpt>
      <trkpt lat="42.57692" lon="2.06669">
        <ele>1715</ele>
        <time>2020-07-21T08:03:15.086Z</time>
      </trkpt>
      <trkpt lat="42.57692" lon="2.06667">
        <ele>1715</ele>
        <time>2020-07-21T08:03:16.086Z</time>
      </trkpt>
      <trkpt lat="42.57693" lon="2.06664">
        <ele>1715</ele>
        <time>2020-07-21T08:03:17.086Z</time>
      </trkpt>
      <trkpt lat="42.57693" lon="2.06662">
        <ele>1715</ele>
        <time>2020-07-21T08:03:18.086Z</time>
      </trkpt>
      <trkpt lat="42.57693" lon="2.0666">
        <ele>1715</ele>
        <time>2020-07-21T08:03:19.086Z</time>
      </trkpt>
      <trkpt lat="42.57694" lon="2.06658">
        <ele>1714</ele>
        <time>2020-07-21T08:03:20.086Z</time>
      </trkpt>
      <trkpt lat="42.57694" lon="2.06656">
        <ele>1714</ele>
        <time>2020-07-21T08:03:21.086Z</time>
      </trkpt>
      <trkpt lat="42.57694" lon="2.06654">
        <ele>1715</ele>
        <time>2020-07-21T08:03:22.086Z</time>
      </trkpt>
      <trkpt lat="42.57695" lon="2.06652">
        <ele>1715</ele>
        <time>2020-07-21T08:03:23.086Z</time>
      </trkpt>
      <trkpt lat="42.57696" lon="2.0665">
        <ele>1716</ele>
        <time>2020-07-21T08:03:24.086Z</time>
      </trkpt>
      <trkpt lat="42.57696" lon="2.06647">
        <ele>1717</ele>
        <time>2020-07-21T08:03:25.086Z</time>
      </trkpt>
      <trkpt lat="42.57696" lon="2.06645">
        <ele>1717</ele>
        <time>2020-07-21T08:03:26.086Z</time>
      </trkpt>
      <trkpt lat="42.57697" lon="2.06643">
        <ele>1718</ele>
        <time>2020-07-21T08:03:27.086Z</time>
      </trkpt>
      <trkpt lat="42.57697" lon="2.06641">
        <ele>1719</ele>
        <time>2020-07-21T08:03:28.086Z</time>
      </trkpt>
      <trkpt lat="42.57698" lon="2.06639">
        <ele>1720</ele>
        <time>2020-07-21T08:03:29.086Z</time>
      </trkpt>
      <trkpt lat="42.57698" lon="2.06636">
        <ele>1720</ele>
        <time>2020-07-21T08:03:30.086Z</time>
      </trkpt>
      <trkpt lat="42.57699" lon="2.06634">
        <ele>1720</ele>
        <time>2020-07-21T08:03:31.086Z</time>
      </trkpt>
      <trkpt lat="42.57699" lon="2.06632">
        <ele>1721</ele>
        <time>2020-07-21T08:03:32.086Z</time>
      </trkpt>
      <trkpt lat="42.577" lon="2.0663">
        <ele>1721</ele>
        <time>2020-07-21T08:03:33.086Z</time>
      </trkpt>
      <trkpt lat="42.577" lon="2.06628">
        <ele>1721</ele>
        <time>2020-07-21T08:03:34.086Z</time>
      </trkpt>
      <trkpt lat="42.57701" lon="2.06626">
        <ele>1721</ele>
        <time>2020-07-21T08:03:35.086Z</time>
      </trkpt>
      <trkpt lat="42.57701" lon="2.06624">
        <ele>1722</ele>
        <time>2020-07-21T08:03:36.086Z</time>
      </trkpt>
      <trkpt lat="42.57702" lon="2.06621">
        <ele>1722</ele>
        <time>2020-07-21T08:03:37.086Z</time>
      </trkpt>
      <trkpt lat="42.57702" lon="2.06619">
        <ele>1723</ele>
        <time>2020-07-21T08:03:38.086Z</time>
      </trkpt>
      <trkpt lat="42.57703" lon="2.06617">
        <ele>1723</ele>
        <time>2020-07-21T08:03:39.086Z</time>
      </trkpt>
      <trkpt lat="42.57703" lon="2.06615">
        <ele>1723</ele>
        <time>2020-07-21T08:03:40.086Z</time>
      </trkpt>
      <trkpt lat="42.57703" lon="2.06615">
        <ele>1723</ele>
        <time>2020-07-21T08:03:41.086Z</time>
      </trkpt>
      <trkpt lat="42.57704" lon="2.06611">
        <ele>1725</ele>
        <time>2020-07-21T08:03:42.086Z</time>
      </trkpt>
      <trkpt lat="42.57704" lon="2.06609">
        <ele>1725</ele>
        <time>2020-07-21T08:03:43.086Z</time>
      </trkpt>
      <trkpt lat="42.57704" lon="2.06606">
        <ele>1725</ele>
        <time>2020-07-21T08:03:44.086Z</time>
      </trkpt>
      <trkpt lat="42.57705" lon="2.06604">
        <ele>1725</ele>
        <time>2020-07-21T08:03:45.086Z</time>
      </trkpt>
      <trkpt lat="42.57705" lon="2.06604">
        <ele>1725</ele>
        <time>2020-07-21T08:03:46.086Z</time>
      </trkpt>
      <trkpt lat="42.57705" lon="2.066">
        <ele>1725</ele>
        <time>2020-07-21T08:03:47.086Z</time>
      </trkpt>
      <trkpt lat="42.57706" lon="2.06598">
        <ele>1725</ele>
        <time>2020-07-21T08:03:48.086Z</time>
      </trkpt>
      <trkpt lat="42.57706" lon="2.06596">
        <ele>1725</ele>
        <time>2020-07-21T08:03:49.086Z</time>
      </trkpt>
      <trkpt lat="42.57707" lon="2.06593">
        <ele>1725</ele>
        <time>2020-07-21T08:03:50.086Z</time>
      </trkpt>
      <trkpt lat="42.57707" lon="2.06591">
        <ele>1726</ele>
        <time>2020-07-21T08:03:51.086Z</time>
      </trkpt>
      <trkpt lat="42.57707" lon="2.06589">
        <ele>1726</ele>
        <time>2020-07-21T08:03:52.086Z</time>
      </trkpt>
      <trkpt lat="42.57708" lon="2.06587">
        <ele>1726</ele>
        <time>2020-07-21T08:03:53.086Z</time>
      </trkpt>
      <trkpt lat="42.57709" lon="2.06585">
        <ele>1727</ele>
        <time>2020-07-21T08:03:54.086Z</time>
      </trkpt>
      <trkpt lat="42.5771" lon="2.06582">
        <ele>1727</ele>
        <time>2020-07-21T08:03:55.086Z</time>
      </trkpt>
      <trkpt lat="42.5771" lon="2.0658">
        <ele>1727</ele>
        <time>2020-07-21T08:03:56.086Z</time>
      </trkpt>
      <trkpt lat="42.57711" lon="2.06578">
        <ele>1728</ele>
        <time>2020-07-21T08:03:57.086Z</time>
      </trkpt>
      <trkpt lat="42.57712" lon="2.06576">
        <ele>1728</ele>
        <time>2020-07-21T08:03:58.086Z</time>
      </trkpt>
      <trkpt lat="42.57712" lon="2.06574">
        <ele>1728</ele>
        <time>2020-07-21T08:03:59.086Z</time>
      </trkpt>
      <trkpt lat="42.57712" lon="2.06574">
        <ele>1728</ele>
        <time>2020-07-21T08:04:00.086Z</time>
      </trkpt>
      <trkpt lat="42.57713" lon="2.06571">
        <ele>1730</ele>
        <time>2020-07-21T08:04:01.086Z</time>
      </trkpt>
      <trkpt lat="42.57714" lon="2.06569">
        <ele>1731</ele>
        <time>2020-07-21T08:04:02.086Z</time>
      </trkpt>
      <trkpt lat="42.57715" lon="2.06568">
        <ele>1731</ele>
        <time>2020-07-21T08:04:03.086Z</time>
      </trkpt>
      <trkpt lat="42.57715" lon="2.06565">
        <ele>1731</ele>
        <time>2020-07-21T08:04:04.086Z</time>
      </trkpt>
      <trkpt lat="42.57716" lon="2.06563">
        <ele>1731</ele>
        <time>2020-07-21T08:04:05.086Z</time>
      </trkpt>
      <trkpt lat="42.57717" lon="2.06561">
        <ele>1732</ele>
        <time>2020-07-21T08:04:06.086Z</time>
      </trkpt>
      <trkpt lat="42.57718" lon="2.06559">
        <ele>1733</ele>
        <time>2020-07-21T08:04:07.086Z</time>
      </trkpt>
      <trkpt lat="42.57718" lon="2.06557">
        <ele>1733</ele>
        <time>2020-07-21T08:04:08.086Z</time>
      </trkpt>
      <trkpt lat="42.57719" lon="2.06554">
        <ele>1734</ele>
        <time>2020-07-21T08:04:09.086Z</time>
      </trkpt>
      <trkpt lat="42.57719" lon="2.06552">
        <ele>1734</ele>
        <time>2020-07-21T08:04:10.086Z</time>
      </trkpt>
      <trkpt lat="42.5772" lon="2.0655">
        <ele>1735</ele>
        <time>2020-07-21T08:04:11.086Z</time>
      </trkpt>
      <trkpt lat="42.5772" lon="2.0655">
        <ele>1735</ele>
        <time>2020-07-21T08:04:12.086Z</time>
      </trkpt>
      <trkpt lat="42.57722" lon="2.06545">
        <ele>1735</ele>
        <time>2020-07-21T08:04:13.086Z</time>
      </trkpt>
      <trkpt lat="42.57722" lon="2.06543">
        <ele>1736</ele>
        <time>2020-07-21T08:04:14.086Z</time>
      </trkpt>
      <trkpt lat="42.57723" lon="2.0654">
        <ele>1737</ele>
        <time>2020-07-21T08:04:15.086Z</time>
      </trkpt>
      <trkpt lat="42.57724" lon="2.06538">
        <ele>1738</ele>
        <time>2020-07-21T08:04:16.086Z</time>
      </trkpt>
      <trkpt lat="42.57724" lon="2.06536">
        <ele>1739</ele>
        <time>2020-07-21T08:04:17.086Z</time>
      </trkpt>
      <trkpt lat="42.57725" lon="2.06534">
        <ele>1739</ele>
        <time>2020-07-21T08:04:18.086Z</time>
      </trkpt>
      <trkpt lat="42.57725" lon="2.06532">
        <ele>1739</ele>
        <time>2020-07-21T08:04:19.086Z</time>
      </trkpt>
      <trkpt lat="42.57725" lon="2.0653">
        <ele>1741</ele>
        <time>2020-07-21T08:04:20.086Z</time>
      </trkpt>
      <trkpt lat="42.57726" lon="2.06528">
        <ele>1742</ele>
        <time>2020-07-21T08:04:21.086Z</time>
      </trkpt>
      <trkpt lat="42.57726" lon="2.06526">
        <ele>1743</ele>
        <time>2020-07-21T08:04:22.086Z</time>
      </trkpt>
      <trkpt lat="42.57726" lon="2.06524">
        <ele>1743</ele>
        <time>2020-07-21T08:04:23.086Z</time>
      </trkpt>
      <trkpt lat="42.57726" lon="2.06521">
        <ele>1744</ele>
        <time>2020-07-21T08:04:24.086Z</time>
      </trkpt>
      <trkpt lat="42.57726" lon="2.06519">
        <ele>1744</ele>
        <time>2020-07-21T08:04:25.086Z</time>
      </trkpt>
      <trkpt lat="42.57726" lon="2.06516">
        <ele>1745</ele>
        <time>2020-07-21T08:04:26.086Z</time>
      </trkpt>
      <trkpt lat="42.57726" lon="2.06514">
        <ele>1746</ele>
        <time>2020-07-21T08:04:27.086Z</time>
      </trkpt>
      <trkpt lat="42.57727" lon="2.06511">
        <ele>1746</ele>
        <time>2020-07-21T08:04:28.086Z</time>
      </trkpt>
      <trkpt lat="42.57727" lon="2.06509">
        <ele>1747</ele>
        <time>2020-07-21T08:04:29.086Z</time>
      </trkpt>
      <trkpt lat="42.57727" lon="2.06507">
        <ele>1747</ele>
        <time>2020-07-21T08:04:30.086Z</time>
      </trkpt>
      <trkpt lat="42.57728" lon="2.06504">
        <ele>1747</ele>
        <time>2020-07-21T08:04:31.086Z</time>
      </trkpt>
      <trkpt lat="42.57728" lon="2.06502">
        <ele>1748</ele>
        <time>2020-07-21T08:04:32.086Z</time>
      </trkpt>
      <trkpt lat="42.57728" lon="2.065">
        <ele>1748</ele>
        <time>2020-07-21T08:04:33.086Z</time>
      </trkpt>
      <trkpt lat="42.57728" lon="2.06498">
        <ele>1749</ele>
        <time>2020-07-21T08:04:34.086Z</time>
      </trkpt>
      <trkpt lat="42.57729" lon="2.06496">
        <ele>1749</ele>
        <time>2020-07-21T08:04:35.086Z</time>
      </trkpt>
      <trkpt lat="42.57729" lon="2.06493">
        <ele>1749</ele>
        <time>2020-07-21T08:04:36.086Z</time>
      </trkpt>
      <trkpt lat="42.5773" lon="2.06491">
        <ele>1749</ele>
        <time>2020-07-21T08:04:37.086Z</time>
      </trkpt>
      <trkpt lat="42.5773" lon="2.06489">
        <ele>1749</ele>
        <time>2020-07-21T08:04:38.086Z</time>
      </trkpt>
      <trkpt lat="42.5773" lon="2.06486">
        <ele>1749</ele>
        <time>2020-07-21T08:04:39.086Z</time>
      </trkpt>
      <trkpt lat="42.57731" lon="2.06484">
        <ele>1750</ele>
        <time>2020-07-21T08:04:40.086Z</time>
      </trkpt>
      <trkpt lat="42.57731" lon="2.06482">
        <ele>1750</ele>
        <time>2020-07-21T08:04:41.086Z</time>
      </trkpt>
      <trkpt lat="42.57731" lon="2.06482">
        <ele>1750</ele>
        <time>2020-07-21T08:04:42.086Z</time>
      </trkpt>
      <trkpt lat="42.57732" lon="2.06477">
        <ele>1751</ele>
        <time>2020-07-21T08:04:43.086Z</time>
      </trkpt>
      <trkpt lat="42.57733" lon="2.06475">
        <ele>1751</ele>
        <time>2020-07-21T08:04:44.086Z</time>
      </trkpt>
      <trkpt lat="42.57733" lon="2.06472">
        <ele>1751</ele>
        <time>2020-07-21T08:04:45.086Z</time>
      </trkpt>
      <trkpt lat="42.57734" lon="2.0647">
        <ele>1750</ele>
        <time>2020-07-21T08:04:46.086Z</time>
      </trkpt>
      <trkpt lat="42.57734" lon="2.06467">
        <ele>1751</ele>
        <time>2020-07-21T08:04:47.086Z</time>
      </trkpt>
      <trkpt lat="42.57735" lon="2.06465">
        <ele>1751</ele>
        <time>2020-07-21T08:04:48.086Z</time>
      </trkpt>
      <trkpt lat="42.57736" lon="2.06462">
        <ele>1752</ele>
        <time>2020-07-21T08:04:49.086Z</time>
      </trkpt>
      <trkpt lat="42.57736" lon="2.0646">
        <ele>1752</ele>
        <time>2020-07-21T08:04:50.086Z</time>
      </trkpt>
      <trkpt lat="42.57737" lon="2.06458">
        <ele>1752</ele>
        <time>2020-07-21T08:04:51.086Z</time>
      </trkpt>
      <trkpt lat="42.57738" lon="2.06455">
        <ele>1752</ele>
        <time>2020-07-21T08:04:52.086Z</time>
      </trkpt>
      <trkpt lat="42.57738" lon="2.06453">
        <ele>1753</ele>
        <time>2020-07-21T08:04:53.086Z</time>
      </trkpt>
      <trkpt lat="42.57739" lon="2.0645">
        <ele>1754</ele>
        <time>2020-07-21T08:04:54.086Z</time>
      </trkpt>
      <trkpt lat="42.5774" lon="2.06448">
        <ele>1754</ele>
        <time>2020-07-21T08:04:55.086Z</time>
      </trkpt>
      <trkpt lat="42.5774" lon="2.06446">
        <ele>1754</ele>
        <time>2020-07-21T08:04:56.086Z</time>
      </trkpt>
      <trkpt lat="42.57741" lon="2.06443">
        <ele>1755</ele>
        <time>2020-07-21T08:04:57.086Z</time>
      </trkpt>
      <trkpt lat="42.57742" lon="2.0644">
        <ele>1755</ele>
        <time>2020-07-21T08:04:58.086Z</time>
      </trkpt>
      <trkpt lat="42.57743" lon="2.06437">
        <ele>1756</ele>
        <time>2020-07-21T08:04:59.086Z</time>
      </trkpt>
      <trkpt lat="42.57744" lon="2.06435">
        <ele>1756</ele>
        <time>2020-07-21T08:05:00.086Z</time>
      </trkpt>
      <trkpt lat="42.57745" lon="2.06432">
        <ele>1756</ele>
        <time>2020-07-21T08:05:01.086Z</time>
      </trkpt>
      <trkpt lat="42.57747" lon="2.0643">
        <ele>1756</ele>
        <time>2020-07-21T08:05:02.086Z</time>
      </trkpt>
      <trkpt lat="42.57749" lon="2.06428">
        <ele>1757</ele>
        <time>2020-07-21T08:05:03.086Z</time>
      </trkpt>
      <trkpt lat="42.57751" lon="2.06425">
        <ele>1759</ele>
        <time>2020-07-21T08:05:04.086Z</time>
      </trkpt>
      <trkpt lat="42.57753" lon="2.06423">
        <ele>1759</ele>
        <time>2020-07-21T08:05:05.086Z</time>
      </trkpt>
      <trkpt lat="42.57755" lon="2.06421">
        <ele>1760</ele>
        <time>2020-07-21T08:05:06.086Z</time>
      </trkpt>
      <trkpt lat="42.57757" lon="2.0642">
        <ele>1761</ele>
        <time>2020-07-21T08:05:07.086Z</time>
      </trkpt>
      <trkpt lat="42.5776" lon="2.06419">
        <ele>1762</ele>
        <time>2020-07-21T08:05:08.086Z</time>
      </trkpt>
      <trkpt lat="42.57762" lon="2.06418">
        <ele>1762</ele>
        <time>2020-07-21T08:05:09.086Z</time>
      </trkpt>
      <trkpt lat="42.57764" lon="2.06416">
        <ele>1762</ele>
        <time>2020-07-21T08:05:10.086Z</time>
      </trkpt>
      <trkpt lat="42.57766" lon="2.06416">
        <ele>1763</ele>
        <time>2020-07-21T08:05:11.086Z</time>
      </trkpt>
      <trkpt lat="42.57768" lon="2.06415">
        <ele>1762</ele>
        <time>2020-07-21T08:05:12.086Z</time>
      </trkpt>
      <trkpt lat="42.57771" lon="2.06414">
        <ele>1762</ele>
        <time>2020-07-21T08:05:13.086Z</time>
      </trkpt>
      <trkpt lat="42.57773" lon="2.06414">
        <ele>1763</ele>
        <time>2020-07-21T08:05:14.086Z</time>
      </trkpt>
      <trkpt lat="42.57776" lon="2.06414">
        <ele>1763</ele>
        <time>2020-07-21T08:05:15.086Z</time>
      </trkpt>
      <trkpt lat="42.57778" lon="2.06414">
        <ele>1763</ele>
        <time>2020-07-21T08:05:16.086Z</time>
      </trkpt>
      <trkpt lat="42.57781" lon="2.06414">
        <ele>1764</ele>
        <time>2020-07-21T08:05:17.086Z</time>
      </trkpt>
      <trkpt lat="42.57783" lon="2.06415">
        <ele>1764</ele>
        <time>2020-07-21T08:05:18.086Z</time>
      </trkpt>
      <trkpt lat="42.57785" lon="2.06415">
        <ele>1764</ele>
        <time>2020-07-21T08:05:19.086Z</time>
      </trkpt>
      <trkpt lat="42.57787" lon="2.06416">
        <ele>1764</ele>
        <time>2020-07-21T08:05:20.086Z</time>
      </trkpt>
      <trkpt lat="42.57789" lon="2.06417">
        <ele>1765</ele>
        <time>2020-07-21T08:05:21.086Z</time>
      </trkpt>
      <trkpt lat="42.57792" lon="2.06418">
        <ele>1765</ele>
        <time>2020-07-21T08:05:22.086Z</time>
      </trkpt>
      <trkpt lat="42.57794" lon="2.06419">
        <ele>1765</ele>
        <time>2020-07-21T08:05:23.086Z</time>
      </trkpt>
      <trkpt lat="42.57796" lon="2.06421">
        <ele>1765</ele>
        <time>2020-07-21T08:05:24.086Z</time>
      </trkpt>
      <trkpt lat="42.57798" lon="2.06422">
        <ele>1766</ele>
        <time>2020-07-21T08:05:25.086Z</time>
      </trkpt>
      <trkpt lat="42.578" lon="2.06423">
        <ele>1766</ele>
        <time>2020-07-21T08:05:26.086Z</time>
      </trkpt>
      <trkpt lat="42.57801" lon="2.06424">
        <ele>1766</ele>
        <time>2020-07-21T08:05:27.086Z</time>
      </trkpt>
      <trkpt lat="42.57803" lon="2.06425">
        <ele>1766</ele>
        <time>2020-07-21T08:05:28.086Z</time>
      </trkpt>
      <trkpt lat="42.57805" lon="2.06428">
        <ele>1765</ele>
        <time>2020-07-21T08:05:29.086Z</time>
      </trkpt>
      <trkpt lat="42.57806" lon="2.0643">
        <ele>1765</ele>
        <time>2020-07-21T08:05:30.086Z</time>
      </trkpt>
      <trkpt lat="42.57808" lon="2.06433">
        <ele>1766</ele>
        <time>2020-07-21T08:05:31.086Z</time>
      </trkpt>
      <trkpt lat="42.57809" lon="2.06435">
        <ele>1765</ele>
        <time>2020-07-21T08:05:32.086Z</time>
      </trkpt>
      <trkpt lat="42.57811" lon="2.06437">
        <ele>1765</ele>
        <time>2020-07-21T08:05:33.086Z</time>
      </trkpt>
      <trkpt lat="42.57813" lon="2.06439">
        <ele>1765</ele>
        <time>2020-07-21T08:05:34.086Z</time>
      </trkpt>
      <trkpt lat="42.57815" lon="2.06442">
        <ele>1765</ele>
        <time>2020-07-21T08:05:35.086Z</time>
      </trkpt>
      <trkpt lat="42.57817" lon="2.06444">
        <ele>1766</ele>
        <time>2020-07-21T08:05:36.086Z</time>
      </trkpt>
      <trkpt lat="42.57819" lon="2.06445">
        <ele>1767</ele>
        <time>2020-07-21T08:05:37.086Z</time>
      </trkpt>
      <trkpt lat="42.57821" lon="2.06447">
        <ele>1768</ele>
        <time>2020-07-21T08:05:38.086Z</time>
      </trkpt>
      <trkpt lat="42.57823" lon="2.06449">
        <ele>1768</ele>
        <time>2020-07-21T08:05:39.086Z</time>
      </trkpt>
      <trkpt lat="42.57824" lon="2.06452">
        <ele>1768</ele>
        <time>2020-07-21T08:05:40.086Z</time>
      </trkpt>
      <trkpt lat="42.57826" lon="2.06454">
        <ele>1768</ele>
        <time>2020-07-21T08:05:41.086Z</time>
      </trkpt>
      <trkpt lat="42.57828" lon="2.06457">
        <ele>1768</ele>
        <time>2020-07-21T08:05:42.086Z</time>
      </trkpt>
      <trkpt lat="42.57829" lon="2.06459">
        <ele>1768</ele>
        <time>2020-07-21T08:05:43.086Z</time>
      </trkpt>
      <trkpt lat="42.57831" lon="2.06462">
        <ele>1767</ele>
        <time>2020-07-21T08:05:44.086Z</time>
      </trkpt>
      <trkpt lat="42.57833" lon="2.06464">
        <ele>1767</ele>
        <time>2020-07-21T08:05:45.086Z</time>
      </trkpt>
      <trkpt lat="42.57834" lon="2.06466">
        <ele>1767</ele>
        <time>2020-07-21T08:05:46.086Z</time>
      </trkpt>
      <trkpt lat="42.57836" lon="2.06468">
        <ele>1767</ele>
        <time>2020-07-21T08:05:47.086Z</time>
      </trkpt>
      <trkpt lat="42.57838" lon="2.06471">
        <ele>1768</ele>
        <time>2020-07-21T08:05:48.086Z</time>
      </trkpt>
      <trkpt lat="42.5784" lon="2.06474">
        <ele>1767</ele>
        <time>2020-07-21T08:05:49.086Z</time>
      </trkpt>
      <trkpt lat="42.57841" lon="2.06476">
        <ele>1767</ele>
        <time>2020-07-21T08:05:50.086Z</time>
      </trkpt>
      <trkpt lat="42.57843" lon="2.06478">
        <ele>1768</ele>
        <time>2020-07-21T08:05:51.086Z</time>
      </trkpt>
      <trkpt lat="42.57845" lon="2.06481">
        <ele>1768</ele>
        <time>2020-07-21T08:05:52.086Z</time>
      </trkpt>
      <trkpt lat="42.57846" lon="2.06483">
        <ele>1768</ele>
        <time>2020-07-21T08:05:53.086Z</time>
      </trkpt>
      <trkpt lat="42.57848" lon="2.06486">
        <ele>1767</ele>
        <time>2020-07-21T08:05:54.086Z</time>
      </trkpt>
      <trkpt lat="42.57849" lon="2.06489">
        <ele>1768</ele>
        <time>2020-07-21T08:05:55.086Z</time>
      </trkpt>
      <trkpt lat="42.57851" lon="2.06491">
        <ele>1768</ele>
        <time>2020-07-21T08:05:56.086Z</time>
      </trkpt>
      <trkpt lat="42.57852" lon="2.06493">
        <ele>1767</ele>
        <time>2020-07-21T08:05:57.086Z</time>
      </trkpt>
      <trkpt lat="42.57854" lon="2.06495">
        <ele>1767</ele>
        <time>2020-07-21T08:05:58.086Z</time>
      </trkpt>
      <trkpt lat="42.57856" lon="2.06497">
        <ele>1767</ele>
        <time>2020-07-21T08:05:59.086Z</time>
      </trkpt>
      <trkpt lat="42.57857" lon="2.06499">
        <ele>1766</ele>
        <time>2020-07-21T08:06:00.086Z</time>
      </trkpt>
      <trkpt lat="42.57859" lon="2.06501">
        <ele>1767</ele>
        <time>2020-07-21T08:06:01.086Z</time>
      </trkpt>
      <trkpt lat="42.57861" lon="2.06504">
        <ele>1767</ele>
        <time>2020-07-21T08:06:02.086Z</time>
      </trkpt>
      <trkpt lat="42.57863" lon="2.06507">
        <ele>1767</ele>
        <time>2020-07-21T08:06:03.086Z</time>
      </trkpt>
      <trkpt lat="42.57865" lon="2.06509">
        <ele>1767</ele>
        <time>2020-07-21T08:06:04.086Z</time>
      </trkpt>
      <trkpt lat="42.57866" lon="2.06512">
        <ele>1768</ele>
        <time>2020-07-21T08:06:05.086Z</time>
      </trkpt>
      <trkpt lat="42.57868" lon="2.06515">
        <ele>1769</ele>
        <time>2020-07-21T08:06:06.086Z</time>
      </trkpt>
      <trkpt lat="42.57869" lon="2.06518">
        <ele>1770</ele>
        <time>2020-07-21T08:06:07.086Z</time>
      </trkpt>
      <trkpt lat="42.57871" lon="2.0652">
        <ele>1772</ele>
        <time>2020-07-21T08:06:08.086Z</time>
      </trkpt>
      <trkpt lat="42.57872" lon="2.06523">
        <ele>1772</ele>
        <time>2020-07-21T08:06:09.086Z</time>
      </trkpt>
      <trkpt lat="42.57874" lon="2.06526">
        <ele>1772</ele>
        <time>2020-07-21T08:06:10.086Z</time>
      </trkpt>
      <trkpt lat="42.57875" lon="2.06529">
        <ele>1772</ele>
        <time>2020-07-21T08:06:11.086Z</time>
      </trkpt>
      <trkpt lat="42.57877" lon="2.06532">
        <ele>1774</ele>
        <time>2020-07-21T08:06:12.086Z</time>
      </trkpt>
      <trkpt lat="42.57878" lon="2.06536">
        <ele>1775</ele>
        <time>2020-07-21T08:06:13.086Z</time>
      </trkpt>
      <trkpt lat="42.57879" lon="2.06539">
        <ele>1775</ele>
        <time>2020-07-21T08:06:14.086Z</time>
      </trkpt>
      <trkpt lat="42.5788" lon="2.06542">
        <ele>1775</ele>
        <time>2020-07-21T08:06:15.086Z</time>
      </trkpt>
      <trkpt lat="42.57882" lon="2.06544">
        <ele>1775</ele>
        <time>2020-07-21T08:06:16.086Z</time>
      </trkpt>
      <trkpt lat="42.57884" lon="2.06547">
        <ele>1775</ele>
        <time>2020-07-21T08:06:17.086Z</time>
      </trkpt>
      <trkpt lat="42.57885" lon="2.0655">
        <ele>1775</ele>
        <time>2020-07-21T08:06:18.086Z</time>
      </trkpt>
      <trkpt lat="42.57887" lon="2.06553">
        <ele>1775</ele>
        <time>2020-07-21T08:06:19.086Z</time>
      </trkpt>
      <trkpt lat="42.57888" lon="2.06556">
        <ele>1775</ele>
        <time>2020-07-21T08:06:20.086Z</time>
      </trkpt>
      <trkpt lat="42.5789" lon="2.06559">
        <ele>1775</ele>
        <time>2020-07-21T08:06:21.086Z</time>
      </trkpt>
      <trkpt lat="42.57891" lon="2.06561">
        <ele>1775</ele>
        <time>2020-07-21T08:06:22.086Z</time>
      </trkpt>
      <trkpt lat="42.57892" lon="2.06564">
        <ele>1774</ele>
        <time>2020-07-21T08:06:23.086Z</time>
      </trkpt>
      <trkpt lat="42.57893" lon="2.06567">
        <ele>1773</ele>
        <time>2020-07-21T08:06:24.086Z</time>
      </trkpt>
      <trkpt lat="42.57894" lon="2.0657">
        <ele>1773</ele>
        <time>2020-07-21T08:06:25.086Z</time>
      </trkpt>
      <trkpt lat="42.57896" lon="2.06573">
        <ele>1772</ele>
        <time>2020-07-21T08:06:26.086Z</time>
      </trkpt>
      <trkpt lat="42.57897" lon="2.06575">
        <ele>1772</ele>
        <time>2020-07-21T08:06:27.086Z</time>
      </trkpt>
      <trkpt lat="42.57898" lon="2.06578">
        <ele>1772</ele>
        <time>2020-07-21T08:06:28.086Z</time>
      </trkpt>
      <trkpt lat="42.579" lon="2.06581">
        <ele>1772</ele>
        <time>2020-07-21T08:06:29.086Z</time>
      </trkpt>
      <trkpt lat="42.57901" lon="2.06584">
        <ele>1772</ele>
        <time>2020-07-21T08:06:30.086Z</time>
      </trkpt>
      <trkpt lat="42.57902" lon="2.06587">
        <ele>1771</ele>
        <time>2020-07-21T08:06:31.086Z</time>
      </trkpt>
      <trkpt lat="42.57904" lon="2.06589">
        <ele>1771</ele>
        <time>2020-07-21T08:06:32.086Z</time>
      </trkpt>
      <trkpt lat="42.57905" lon="2.06592">
        <ele>1771</ele>
        <time>2020-07-21T08:06:33.086Z</time>
      </trkpt>
      <trkpt lat="42.57906" lon="2.06595">
        <ele>1772</ele>
        <time>2020-07-21T08:06:34.086Z</time>
      </trkpt>
      <trkpt lat="42.57908" lon="2.06598">
        <ele>1773</ele>
        <time>2020-07-21T08:06:35.086Z</time>
      </trkpt>
      <trkpt lat="42.57909" lon="2.06601">
        <ele>1774</ele>
        <time>2020-07-21T08:06:36.086Z</time>
      </trkpt>
      <trkpt lat="42.5791" lon="2.06604">
        <ele>1774</ele>
        <time>2020-07-21T08:06:37.086Z</time>
      </trkpt>
      <trkpt lat="42.57911" lon="2.06607">
        <ele>1774</ele>
        <time>2020-07-21T08:06:38.086Z</time>
      </trkpt>
      <trkpt lat="42.57912" lon="2.0661">
        <ele>1775</ele>
        <time>2020-07-21T08:06:39.086Z</time>
      </trkpt>
      <trkpt lat="42.57913" lon="2.06614">
        <ele>1775</ele>
        <time>2020-07-21T08:06:40.086Z</time>
      </trkpt>
      <trkpt lat="42.57914" lon="2.06617">
        <ele>1776</ele>
        <time>2020-07-21T08:06:41.086Z</time>
      </trkpt>
      <trkpt lat="42.57914" lon="2.0662">
        <ele>1777</ele>
        <time>2020-07-21T08:06:42.086Z</time>
      </trkpt>
      <trkpt lat="42.57915" lon="2.06623">
        <ele>1777</ele>
        <time>2020-07-21T08:06:43.086Z</time>
      </trkpt>
      <trkpt lat="42.57916" lon="2.06626">
        <ele>1777</ele>
        <time>2020-07-21T08:06:44.086Z</time>
      </trkpt>
      <trkpt lat="42.57916" lon="2.06629">
        <ele>1779</ele>
        <time>2020-07-21T08:06:45.086Z</time>
      </trkpt>
      <trkpt lat="42.57917" lon="2.06632">
        <ele>1779</ele>
        <time>2020-07-21T08:06:46.086Z</time>
      </trkpt>
      <trkpt lat="42.57918" lon="2.06635">
        <ele>1779</ele>
        <time>2020-07-21T08:06:47.086Z</time>
      </trkpt>
      <trkpt lat="42.57919" lon="2.06638">
        <ele>1780</ele>
        <time>2020-07-21T08:06:48.086Z</time>
      </trkpt>
      <trkpt lat="42.5792" lon="2.0664">
        <ele>1780</ele>
        <time>2020-07-21T08:06:49.086Z</time>
      </trkpt>
      <trkpt lat="42.57921" lon="2.06643">
        <ele>1780</ele>
        <time>2020-07-21T08:06:50.086Z</time>
      </trkpt>
      <trkpt lat="42.57922" lon="2.06645">
        <ele>1781</ele>
        <time>2020-07-21T08:06:51.086Z</time>
      </trkpt>
      <trkpt lat="42.57923" lon="2.06648">
        <ele>1780</ele>
        <time>2020-07-21T08:06:52.086Z</time>
      </trkpt>
      <trkpt lat="42.57925" lon="2.0665">
        <ele>1781</ele>
        <time>2020-07-21T08:06:53.086Z</time>
      </trkpt>
      <trkpt lat="42.57926" lon="2.06653">
        <ele>1781</ele>
        <time>2020-07-21T08:06:54.086Z</time>
      </trkpt>
      <trkpt lat="42.57927" lon="2.06656">
        <ele>1781</ele>
        <time>2020-07-21T08:06:55.086Z</time>
      </trkpt>
      <trkpt lat="42.57928" lon="2.06659">
        <ele>1781</ele>
        <time>2020-07-21T08:06:56.086Z</time>
      </trkpt>
      <trkpt lat="42.5793" lon="2.06662">
        <ele>1782</ele>
        <time>2020-07-21T08:06:57.086Z</time>
      </trkpt>
      <trkpt lat="42.57931" lon="2.06664">
        <ele>1782</ele>
        <time>2020-07-21T08:06:58.086Z</time>
      </trkpt>
      <trkpt lat="42.57932" lon="2.06667">
        <ele>1782</ele>
        <time>2020-07-21T08:06:59.086Z</time>
      </trkpt>
      <trkpt lat="42.57933" lon="2.0667">
        <ele>1781</ele>
        <time>2020-07-21T08:07:00.086Z</time>
      </trkpt>
      <trkpt lat="42.57935" lon="2.06672">
        <ele>1780</ele>
        <time>2020-07-21T08:07:01.086Z</time>
      </trkpt>
      <trkpt lat="42.57936" lon="2.06675">
        <ele>1781</ele>
        <time>2020-07-21T08:07:02.086Z</time>
      </trkpt>
      <trkpt lat="42.57937" lon="2.06677">
        <ele>1782</ele>
        <time>2020-07-21T08:07:03.086Z</time>
      </trkpt>
      <trkpt lat="42.57938" lon="2.0668">
        <ele>1782</ele>
        <time>2020-07-21T08:07:04.086Z</time>
      </trkpt>
      <trkpt lat="42.5794" lon="2.06683">
        <ele>1782</ele>
        <time>2020-07-21T08:07:05.086Z</time>
      </trkpt>
      <trkpt lat="42.57941" lon="2.06686">
        <ele>1782</ele>
        <time>2020-07-21T08:07:06.086Z</time>
      </trkpt>
      <trkpt lat="42.57942" lon="2.06688">
        <ele>1782</ele>
        <time>2020-07-21T08:07:07.086Z</time>
      </trkpt>
      <trkpt lat="42.57943" lon="2.06691">
        <ele>1782</ele>
        <time>2020-07-21T08:07:08.086Z</time>
      </trkpt>
      <trkpt lat="42.57944" lon="2.06694">
        <ele>1782</ele>
        <time>2020-07-21T08:07:09.086Z</time>
      </trkpt>
      <trkpt lat="42.57945" lon="2.06697">
        <ele>1782</ele>
        <time>2020-07-21T08:07:10.086Z</time>
      </trkpt>
      <trkpt lat="42.57946" lon="2.067">
        <ele>1782</ele>
        <time>2020-07-21T08:07:11.086Z</time>
      </trkpt>
      <trkpt lat="42.57948" lon="2.06703">
        <ele>1782</ele>
        <time>2020-07-21T08:07:12.086Z</time>
      </trkpt>
      <trkpt lat="42.5795" lon="2.06706">
        <ele>1782</ele>
        <time>2020-07-21T08:07:13.086Z</time>
      </trkpt>
      <trkpt lat="42.57951" lon="2.06708">
        <ele>1782</ele>
        <time>2020-07-21T08:07:14.086Z</time>
      </trkpt>
      <trkpt lat="42.57953" lon="2.06711">
        <ele>1782</ele>
        <time>2020-07-21T08:07:15.086Z</time>
      </trkpt>
      <trkpt lat="42.57954" lon="2.06713">
        <ele>1782</ele>
        <time>2020-07-21T08:07:16.086Z</time>
      </trkpt>
      <trkpt lat="42.57956" lon="2.06715">
        <ele>1782</ele>
        <time>2020-07-21T08:07:17.086Z</time>
      </trkpt>
      <trkpt lat="42.57957" lon="2.06717">
        <ele>1782</ele>
        <time>2020-07-21T08:07:18.086Z</time>
      </trkpt>
      <trkpt lat="42.57959" lon="2.0672">
        <ele>1783</ele>
        <time>2020-07-21T08:07:19.086Z</time>
      </trkpt>
      <trkpt lat="42.57961" lon="2.06722">
        <ele>1783</ele>
        <time>2020-07-21T08:07:20.086Z</time>
      </trkpt>
      <trkpt lat="42.57963" lon="2.06725">
        <ele>1783</ele>
        <time>2020-07-21T08:07:21.086Z</time>
      </trkpt>
      <trkpt lat="42.57964" lon="2.06728">
        <ele>1783</ele>
        <time>2020-07-21T08:07:22.086Z</time>
      </trkpt>
      <trkpt lat="42.57966" lon="2.0673">
        <ele>1783</ele>
        <time>2020-07-21T08:07:23.086Z</time>
      </trkpt>
      <trkpt lat="42.57967" lon="2.06733">
        <ele>1784</ele>
        <time>2020-07-21T08:07:24.086Z</time>
      </trkpt>
      <trkpt lat="42.57968" lon="2.06736">
        <ele>1785</ele>
        <time>2020-07-21T08:07:25.086Z</time>
      </trkpt>
      <trkpt lat="42.5797" lon="2.06738">
        <ele>1786</ele>
        <time>2020-07-21T08:07:26.086Z</time>
      </trkpt>
      <trkpt lat="42.57971" lon="2.06741">
        <ele>1787</ele>
        <time>2020-07-21T08:07:27.086Z</time>
      </trkpt>
      <trkpt lat="42.57973" lon="2.06744">
        <ele>1787</ele>
        <time>2020-07-21T08:07:28.086Z</time>
      </trkpt>
      <trkpt lat="42.57974" lon="2.06747">
        <ele>1788</ele>
        <time>2020-07-21T08:07:29.086Z</time>
      </trkpt>
      <trkpt lat="42.57976" lon="2.0675">
        <ele>1789</ele>
        <time>2020-07-21T08:07:30.086Z</time>
      </trkpt>
      <trkpt lat="42.57977" lon="2.06753">
        <ele>1790</ele>
        <time>2020-07-21T08:07:31.086Z</time>
      </trkpt>
      <trkpt lat="42.57979" lon="2.06756">
        <ele>1790</ele>
        <time>2020-07-21T08:07:32.086Z</time>
      </trkpt>
      <trkpt lat="42.5798" lon="2.06759">
        <ele>1791</ele>
        <time>2020-07-21T08:07:33.086Z</time>
      </trkpt>
      <trkpt lat="42.57982" lon="2.06762">
        <ele>1793</ele>
        <time>2020-07-21T08:07:34.086Z</time>
      </trkpt>
      <trkpt lat="42.57983" lon="2.06765">
        <ele>1793</ele>
        <time>2020-07-21T08:07:35.086Z</time>
      </trkpt>
      <trkpt lat="42.57984" lon="2.06769">
        <ele>1794</ele>
        <time>2020-07-21T08:07:36.086Z</time>
      </trkpt>
      <trkpt lat="42.57986" lon="2.06772">
        <ele>1794</ele>
        <time>2020-07-21T08:07:37.086Z</time>
      </trkpt>
      <trkpt lat="42.57987" lon="2.06775">
        <ele>1795</ele>
        <time>2020-07-21T08:07:38.086Z</time>
      </trkpt>
      <trkpt lat="42.57989" lon="2.06778">
        <ele>1797</ele>
        <time>2020-07-21T08:07:39.086Z</time>
      </trkpt>
      <trkpt lat="42.5799" lon="2.06782">
        <ele>1797</ele>
        <time>2020-07-21T08:07:40.086Z</time>
      </trkpt>
      <trkpt lat="42.57991" lon="2.06785">
        <ele>1797</ele>
        <time>2020-07-21T08:07:41.086Z</time>
      </trkpt>
      <trkpt lat="42.57993" lon="2.06787">
        <ele>1796</ele>
        <time>2020-07-21T08:07:42.086Z</time>
      </trkpt>
      <trkpt lat="42.57995" lon="2.0679">
        <ele>1797</ele>
        <time>2020-07-21T08:07:43.086Z</time>
      </trkpt>
      <trkpt lat="42.57997" lon="2.06793">
        <ele>1797</ele>
        <time>2020-07-21T08:07:44.086Z</time>
      </trkpt>
      <trkpt lat="42.57998" lon="2.06796">
        <ele>1797</ele>
        <time>2020-07-21T08:07:45.086Z</time>
      </trkpt>
      <trkpt lat="42.58" lon="2.06798">
        <ele>1797</ele>
        <time>2020-07-21T08:07:46.086Z</time>
      </trkpt>
      <trkpt lat="42.58001" lon="2.06801">
        <ele>1797</ele>
        <time>2020-07-21T08:07:47.086Z</time>
      </trkpt>
      <trkpt lat="42.58003" lon="2.06804">
        <ele>1797</ele>
        <time>2020-07-21T08:07:48.086Z</time>
      </trkpt>
      <trkpt lat="42.58005" lon="2.06807">
        <ele>1798</ele>
        <time>2020-07-21T08:07:49.086Z</time>
      </trkpt>
      <trkpt lat="42.58006" lon="2.0681">
        <ele>1799</ele>
        <time>2020-07-21T08:07:50.086Z</time>
      </trkpt>
      <trkpt lat="42.58008" lon="2.06814">
        <ele>1799</ele>
        <time>2020-07-21T08:07:51.086Z</time>
      </trkpt>
      <trkpt lat="42.5801" lon="2.06817">
        <ele>1800</ele>
        <time>2020-07-21T08:07:52.086Z</time>
      </trkpt>
      <trkpt lat="42.58011" lon="2.0682">
        <ele>1801</ele>
        <time>2020-07-21T08:07:53.086Z</time>
      </trkpt>
      <trkpt lat="42.58013" lon="2.06823">
        <ele>1801</ele>
        <time>2020-07-21T08:07:54.086Z</time>
      </trkpt>
      <trkpt lat="42.58015" lon="2.06826">
        <ele>1802</ele>
        <time>2020-07-21T08:07:55.086Z</time>
      </trkpt>
      <trkpt lat="42.58017" lon="2.06828">
        <ele>1802</ele>
        <time>2020-07-21T08:07:56.086Z</time>
      </trkpt>
      <trkpt lat="42.58018" lon="2.06831">
        <ele>1803</ele>
        <time>2020-07-21T08:07:57.086Z</time>
      </trkpt>
      <trkpt lat="42.5802" lon="2.06834">
        <ele>1804</ele>
        <time>2020-07-21T08:07:58.086Z</time>
      </trkpt>
      <trkpt lat="42.58022" lon="2.06837">
        <ele>1804</ele>
        <time>2020-07-21T08:07:59.086Z</time>
      </trkpt>
      <trkpt lat="42.58024" lon="2.06839">
        <ele>1804</ele>
        <time>2020-07-21T08:08:00.086Z</time>
      </trkpt>
      <trkpt lat="42.58026" lon="2.06841">
        <ele>1804</ele>
        <time>2020-07-21T08:08:01.086Z</time>
      </trkpt>
      <trkpt lat="42.58028" lon="2.06842">
        <ele>1805</ele>
        <time>2020-07-21T08:08:02.086Z</time>
      </trkpt>
      <trkpt lat="42.5803" lon="2.06844">
        <ele>1804</ele>
        <time>2020-07-21T08:08:03.086Z</time>
      </trkpt>
      <trkpt lat="42.58033" lon="2.06846">
        <ele>1804</ele>
        <time>2020-07-21T08:08:04.086Z</time>
      </trkpt>
      <trkpt lat="42.58035" lon="2.06847">
        <ele>1804</ele>
        <time>2020-07-21T08:08:05.086Z</time>
      </trkpt>
      <trkpt lat="42.58037" lon="2.06849">
        <ele>1804</ele>
        <time>2020-07-21T08:08:06.086Z</time>
      </trkpt>
      <trkpt lat="42.5804" lon="2.06851">
        <ele>1805</ele>
        <time>2020-07-21T08:08:07.086Z</time>
      </trkpt>
      <trkpt lat="42.58042" lon="2.06852">
        <ele>1805</ele>
        <time>2020-07-21T08:08:08.086Z</time>
      </trkpt>
      <trkpt lat="42.58045" lon="2.06854">
        <ele>1806</ele>
        <time>2020-07-21T08:08:09.086Z</time>
      </trkpt>
      <trkpt lat="42.58047" lon="2.06856">
        <ele>1806</ele>
        <time>2020-07-21T08:08:10.086Z</time>
      </trkpt>
      <trkpt lat="42.58049" lon="2.06857">
        <ele>1806</ele>
        <time>2020-07-21T08:08:11.086Z</time>
      </trkpt>
      <trkpt lat="42.58052" lon="2.06859">
        <ele>1807</ele>
        <time>2020-07-21T08:08:12.086Z</time>
      </trkpt>
      <trkpt lat="42.58054" lon="2.0686">
        <ele>1807</ele>
        <time>2020-07-21T08:08:13.086Z</time>
      </trkpt>
      <trkpt lat="42.58056" lon="2.06861">
        <ele>1808</ele>
        <time>2020-07-21T08:08:14.086Z</time>
      </trkpt>
      <trkpt lat="42.58058" lon="2.06862">
        <ele>1808</ele>
        <time>2020-07-21T08:08:15.086Z</time>
      </trkpt>
      <trkpt lat="42.58061" lon="2.06862">
        <ele>1809</ele>
        <time>2020-07-21T08:08:16.086Z</time>
      </trkpt>
      <trkpt lat="42.58063" lon="2.06862">
        <ele>1810</ele>
        <time>2020-07-21T08:08:17.086Z</time>
      </trkpt>
      <trkpt lat="42.58065" lon="2.06862">
        <ele>1811</ele>
        <time>2020-07-21T08:08:18.086Z</time>
      </trkpt>
      <trkpt lat="42.58068" lon="2.06862">
        <ele>1811</ele>
        <time>2020-07-21T08:08:19.086Z</time>
      </trkpt>
      <trkpt lat="42.5807" lon="2.06861">
        <ele>1811</ele>
        <time>2020-07-21T08:08:20.086Z</time>
      </trkpt>
      <trkpt lat="42.58073" lon="2.06861">
        <ele>1812</ele>
        <time>2020-07-21T08:08:21.086Z</time>
      </trkpt>
      <trkpt lat="42.58076" lon="2.0686">
        <ele>1811</ele>
        <time>2020-07-21T08:08:22.086Z</time>
      </trkpt>
      <trkpt lat="42.58078" lon="2.06859">
        <ele>1810</ele>
        <time>2020-07-21T08:08:23.086Z</time>
      </trkpt>
      <trkpt lat="42.58081" lon="2.06857">
        <ele>1810</ele>
        <time>2020-07-21T08:08:24.086Z</time>
      </trkpt>
      <trkpt lat="42.58084" lon="2.06856">
        <ele>1811</ele>
        <time>2020-07-21T08:08:25.086Z</time>
      </trkpt>
      <trkpt lat="42.58086" lon="2.06854">
        <ele>1810</ele>
        <time>2020-07-21T08:08:26.086Z</time>
      </trkpt>
      <trkpt lat="42.58089" lon="2.06852">
        <ele>1810</ele>
        <time>2020-07-21T08:08:27.086Z</time>
      </trkpt>
      <trkpt lat="42.58091" lon="2.0685">
        <ele>1810</ele>
        <time>2020-07-21T08:08:28.086Z</time>
      </trkpt>
      <trkpt lat="42.58094" lon="2.06849">
        <ele>1811</ele>
        <time>2020-07-21T08:08:29.086Z</time>
      </trkpt>
      <trkpt lat="42.58096" lon="2.06848">
        <ele>1811</ele>
        <time>2020-07-21T08:08:30.086Z</time>
      </trkpt>
      <trkpt lat="42.58099" lon="2.06847">
        <ele>1811</ele>
        <time>2020-07-21T08:08:31.086Z</time>
      </trkpt>
      <trkpt lat="42.58101" lon="2.06845">
        <ele>1811</ele>
        <time>2020-07-21T08:08:32.086Z</time>
      </trkpt>
      <trkpt lat="42.58103" lon="2.06844">
        <ele>1812</ele>
        <time>2020-07-21T08:08:33.086Z</time>
      </trkpt>
      <trkpt lat="42.58106" lon="2.06842">
        <ele>1812</ele>
        <time>2020-07-21T08:08:34.086Z</time>
      </trkpt>
      <trkpt lat="42.58108" lon="2.0684">
        <ele>1812</ele>
        <time>2020-07-21T08:08:35.086Z</time>
      </trkpt>
      <trkpt lat="42.5811" lon="2.06838">
        <ele>1813</ele>
        <time>2020-07-21T08:08:36.086Z</time>
      </trkpt>
      <trkpt lat="42.58112" lon="2.06837">
        <ele>1813</ele>
        <time>2020-07-21T08:08:37.086Z</time>
      </trkpt>
      <trkpt lat="42.58115" lon="2.06835">
        <ele>1813</ele>
        <time>2020-07-21T08:08:38.086Z</time>
      </trkpt>
      <trkpt lat="42.58117" lon="2.06834">
        <ele>1813</ele>
        <time>2020-07-21T08:08:39.086Z</time>
      </trkpt>
      <trkpt lat="42.58119" lon="2.06832">
        <ele>1814</ele>
        <time>2020-07-21T08:08:40.086Z</time>
      </trkpt>
      <trkpt lat="42.58122" lon="2.06831">
        <ele>1814</ele>
        <time>2020-07-21T08:08:41.086Z</time>
      </trkpt>
      <trkpt lat="42.58122" lon="2.06831">
        <ele>1814</ele>
        <time>2020-07-21T08:08:42.086Z</time>
      </trkpt>
      <trkpt lat="42.58126" lon="2.06828">
        <ele>1815</ele>
        <time>2020-07-21T08:08:43.086Z</time>
      </trkpt>
      <trkpt lat="42.58128" lon="2.06826">
        <ele>1815</ele>
        <time>2020-07-21T08:08:44.086Z</time>
      </trkpt>
      <trkpt lat="42.5813" lon="2.06824">
        <ele>1816</ele>
        <time>2020-07-21T08:08:45.086Z</time>
      </trkpt>
      <trkpt lat="42.58132" lon="2.06821">
        <ele>1816</ele>
        <time>2020-07-21T08:08:46.086Z</time>
      </trkpt>
      <trkpt lat="42.58133" lon="2.06818">
        <ele>1816</ele>
        <time>2020-07-21T08:08:47.086Z</time>
      </trkpt>
      <trkpt lat="42.58135" lon="2.06816">
        <ele>1816</ele>
        <time>2020-07-21T08:08:48.086Z</time>
      </trkpt>
      <trkpt lat="42.58137" lon="2.06813">
        <ele>1817</ele>
        <time>2020-07-21T08:08:49.086Z</time>
      </trkpt>
      <trkpt lat="42.58139" lon="2.06811">
        <ele>1817</ele>
        <time>2020-07-21T08:08:50.086Z</time>
      </trkpt>
      <trkpt lat="42.58141" lon="2.06808">
        <ele>1818</ele>
        <time>2020-07-21T08:08:51.086Z</time>
      </trkpt>
      <trkpt lat="42.58144" lon="2.06806">
        <ele>1818</ele>
        <time>2020-07-21T08:08:52.086Z</time>
      </trkpt>
      <trkpt lat="42.58146" lon="2.06803">
        <ele>1819</ele>
        <time>2020-07-21T08:08:53.086Z</time>
      </trkpt>
      <trkpt lat="42.58148" lon="2.06801">
        <ele>1818</ele>
        <time>2020-07-21T08:08:54.086Z</time>
      </trkpt>
      <trkpt lat="42.5815" lon="2.068">
        <ele>1819</ele>
        <time>2020-07-21T08:08:55.086Z</time>
      </trkpt>
      <trkpt lat="42.58152" lon="2.06798">
        <ele>1819</ele>
        <time>2020-07-21T08:08:56.086Z</time>
      </trkpt>
      <trkpt lat="42.58155" lon="2.06796">
        <ele>1820</ele>
        <time>2020-07-21T08:08:57.086Z</time>
      </trkpt>
      <trkpt lat="42.58157" lon="2.06793">
        <ele>1820</ele>
        <time>2020-07-21T08:08:58.086Z</time>
      </trkpt>
      <trkpt lat="42.58159" lon="2.06791">
        <ele>1820</ele>
        <time>2020-07-21T08:08:59.086Z</time>
      </trkpt>
      <trkpt lat="42.58161" lon="2.06789">
        <ele>1821</ele>
        <time>2020-07-21T08:09:00.086Z</time>
      </trkpt>
      <trkpt lat="42.58163" lon="2.06787">
        <ele>1821</ele>
        <time>2020-07-21T08:09:01.086Z</time>
      </trkpt>
      <trkpt lat="42.58165" lon="2.06785">
        <ele>1821</ele>
        <time>2020-07-21T08:09:02.086Z</time>
      </trkpt>
      <trkpt lat="42.58167" lon="2.06783">
        <ele>1821</ele>
        <time>2020-07-21T08:09:03.086Z</time>
      </trkpt>
      <trkpt lat="42.5817" lon="2.06781">
        <ele>1821</ele>
        <time>2020-07-21T08:09:04.086Z</time>
      </trkpt>
      <trkpt lat="42.58172" lon="2.06779">
        <ele>1821</ele>
        <time>2020-07-21T08:09:05.086Z</time>
      </trkpt>
      <trkpt lat="42.58174" lon="2.06777">
        <ele>1821</ele>
        <time>2020-07-21T08:09:06.086Z</time>
      </trkpt>
      <trkpt lat="42.58176" lon="2.06775">
        <ele>1822</ele>
        <time>2020-07-21T08:09:07.086Z</time>
      </trkpt>
      <trkpt lat="42.58178" lon="2.06772">
        <ele>1822</ele>
        <time>2020-07-21T08:09:08.086Z</time>
      </trkpt>
      <trkpt lat="42.5818" lon="2.0677">
        <ele>1823</ele>
        <time>2020-07-21T08:09:09.086Z</time>
      </trkpt>
      <trkpt lat="42.58182" lon="2.06767">
        <ele>1823</ele>
        <time>2020-07-21T08:09:10.086Z</time>
      </trkpt>
      <trkpt lat="42.58184" lon="2.06765">
        <ele>1823</ele>
        <time>2020-07-21T08:09:11.086Z</time>
      </trkpt>
      <trkpt lat="42.58186" lon="2.06762">
        <ele>1824</ele>
        <time>2020-07-21T08:09:12.086Z</time>
      </trkpt>
      <trkpt lat="42.58188" lon="2.0676">
        <ele>1824</ele>
        <time>2020-07-21T08:09:13.086Z</time>
      </trkpt>
      <trkpt lat="42.5819" lon="2.06757">
        <ele>1823</ele>
        <time>2020-07-21T08:09:14.086Z</time>
      </trkpt>
      <trkpt lat="42.58192" lon="2.06755">
        <ele>1823</ele>
        <time>2020-07-21T08:09:15.086Z</time>
      </trkpt>
      <trkpt lat="42.58194" lon="2.06752">
        <ele>1823</ele>
        <time>2020-07-21T08:09:16.086Z</time>
      </trkpt>
      <trkpt lat="42.58195" lon="2.0675">
        <ele>1824</ele>
        <time>2020-07-21T08:09:17.086Z</time>
      </trkpt>
      <trkpt lat="42.58197" lon="2.06748">
        <ele>1824</ele>
        <time>2020-07-21T08:09:18.086Z</time>
      </trkpt>
      <trkpt lat="42.58199" lon="2.06745">
        <ele>1825</ele>
        <time>2020-07-21T08:09:19.086Z</time>
      </trkpt>
      <trkpt lat="42.58201" lon="2.06743">
        <ele>1825</ele>
        <time>2020-07-21T08:09:20.086Z</time>
      </trkpt>
      <trkpt lat="42.58202" lon="2.0674">
        <ele>1826</ele>
        <time>2020-07-21T08:09:21.086Z</time>
      </trkpt>
      <trkpt lat="42.58204" lon="2.06738">
        <ele>1826</ele>
        <time>2020-07-21T08:09:22.086Z</time>
      </trkpt>
      <trkpt lat="42.58206" lon="2.06735">
        <ele>1826</ele>
        <time>2020-07-21T08:09:23.086Z</time>
      </trkpt>
      <trkpt lat="42.58208" lon="2.06733">
        <ele>1827</ele>
        <time>2020-07-21T08:09:24.086Z</time>
      </trkpt>
      <trkpt lat="42.58209" lon="2.0673">
        <ele>1828</ele>
        <time>2020-07-21T08:09:25.086Z</time>
      </trkpt>
      <trkpt lat="42.58211" lon="2.06727">
        <ele>1828</ele>
        <time>2020-07-21T08:09:26.086Z</time>
      </trkpt>
      <trkpt lat="42.58212" lon="2.06725">
        <ele>1829</ele>
        <time>2020-07-21T08:09:27.086Z</time>
      </trkpt>
      <trkpt lat="42.58214" lon="2.06722">
        <ele>1829</ele>
        <time>2020-07-21T08:09:28.086Z</time>
      </trkpt>
      <trkpt lat="42.58215" lon="2.06719">
        <ele>1828</ele>
        <time>2020-07-21T08:09:29.086Z</time>
      </trkpt>
      <trkpt lat="42.58217" lon="2.06716">
        <ele>1829</ele>
        <time>2020-07-21T08:09:30.086Z</time>
      </trkpt>
      <trkpt lat="42.58218" lon="2.06714">
        <ele>1829</ele>
        <time>2020-07-21T08:09:31.086Z</time>
      </trkpt>
      <trkpt lat="42.58219" lon="2.06711">
        <ele>1829</ele>
        <time>2020-07-21T08:09:32.086Z</time>
      </trkpt>
      <trkpt lat="42.5822" lon="2.06709">
        <ele>1830</ele>
        <time>2020-07-21T08:09:33.086Z</time>
      </trkpt>
      <trkpt lat="42.58222" lon="2.06706">
        <ele>1830</ele>
        <time>2020-07-21T08:09:34.086Z</time>
      </trkpt>
      <trkpt lat="42.58223" lon="2.06704">
        <ele>1830</ele>
        <time>2020-07-21T08:09:35.086Z</time>
      </trkpt>
      <trkpt lat="42.58224" lon="2.06701">
        <ele>1830</ele>
        <time>2020-07-21T08:09:36.086Z</time>
      </trkpt>
      <trkpt lat="42.58226" lon="2.06699">
        <ele>1831</ele>
        <time>2020-07-21T08:09:37.086Z</time>
      </trkpt>
      <trkpt lat="42.58227" lon="2.06697">
        <ele>1830</ele>
        <time>2020-07-21T08:09:38.086Z</time>
      </trkpt>
      <trkpt lat="42.58228" lon="2.06694">
        <ele>1830</ele>
        <time>2020-07-21T08:09:39.086Z</time>
      </trkpt>
      <trkpt lat="42.58229" lon="2.06692">
        <ele>1829</ele>
        <time>2020-07-21T08:09:40.086Z</time>
      </trkpt>
      <trkpt lat="42.5823" lon="2.06689">
        <ele>1830</ele>
        <time>2020-07-21T08:09:41.086Z</time>
      </trkpt>
      <trkpt lat="42.58231" lon="2.06687">
        <ele>1830</ele>
        <time>2020-07-21T08:09:42.086Z</time>
      </trkpt>
      <trkpt lat="42.58232" lon="2.06684">
        <ele>1830</ele>
        <time>2020-07-21T08:09:43.086Z</time>
      </trkpt>
      <trkpt lat="42.58233" lon="2.06682">
        <ele>1830</ele>
        <time>2020-07-21T08:09:44.086Z</time>
      </trkpt>
      <trkpt lat="42.58234" lon="2.0668">
        <ele>1831</ele>
        <time>2020-07-21T08:09:45.086Z</time>
      </trkpt>
      <trkpt lat="42.58235" lon="2.06678">
        <ele>1831</ele>
        <time>2020-07-21T08:09:46.086Z</time>
      </trkpt>
      <trkpt lat="42.58236" lon="2.06675">
        <ele>1832</ele>
        <time>2020-07-21T08:09:47.086Z</time>
      </trkpt>
      <trkpt lat="42.58237" lon="2.06673">
        <ele>1833</ele>
        <time>2020-07-21T08:09:48.086Z</time>
      </trkpt>
      <trkpt lat="42.58238" lon="2.0667">
        <ele>1833</ele>
        <time>2020-07-21T08:09:49.086Z</time>
      </trkpt>
      <trkpt lat="42.58239" lon="2.06668">
        <ele>1833</ele>
        <time>2020-07-21T08:09:50.086Z</time>
      </trkpt>
      <trkpt lat="42.5824" lon="2.06665">
        <ele>1833</ele>
        <time>2020-07-21T08:09:51.086Z</time>
      </trkpt>
      <trkpt lat="42.58241" lon="2.06663">
        <ele>1834</ele>
        <time>2020-07-21T08:09:52.086Z</time>
      </trkpt>
      <trkpt lat="42.58242" lon="2.0666">
        <ele>1834</ele>
        <time>2020-07-21T08:09:53.086Z</time>
      </trkpt>
      <trkpt lat="42.58243" lon="2.06658">
        <ele>1834</ele>
        <time>2020-07-21T08:09:54.086Z</time>
      </trkpt>
      <trkpt lat="42.58244" lon="2.06655">
        <ele>1835</ele>
        <time>2020-07-21T08:09:55.086Z</time>
      </trkpt>
      <trkpt lat="42.58245" lon="2.06653">
        <ele>1835</ele>
        <time>2020-07-21T08:09:56.086Z</time>
      </trkpt>
      <trkpt lat="42.58246" lon="2.06651">
        <ele>1835</ele>
        <time>2020-07-21T08:09:57.086Z</time>
      </trkpt>
      <trkpt lat="42.58246" lon="2.06648">
        <ele>1836</ele>
        <time>2020-07-21T08:09:58.086Z</time>
      </trkpt>
      <trkpt lat="42.58247" lon="2.06646">
        <ele>1836</ele>
        <time>2020-07-21T08:09:59.086Z</time>
      </trkpt>
      <trkpt lat="42.58248" lon="2.06643">
        <ele>1837</ele>
        <time>2020-07-21T08:10:00.086Z</time>
      </trkpt>
      <trkpt lat="42.58248" lon="2.06641">
        <ele>1838</ele>
        <time>2020-07-21T08:10:01.086Z</time>
      </trkpt>
      <trkpt lat="42.58249" lon="2.06639">
        <ele>1838</ele>
        <time>2020-07-21T08:10:02.086Z</time>
      </trkpt>
      <trkpt lat="42.58249" lon="2.06637">
        <ele>1838</ele>
        <time>2020-07-21T08:10:03.086Z</time>
      </trkpt>
      <trkpt lat="42.5825" lon="2.06634">
        <ele>1839</ele>
        <time>2020-07-21T08:10:04.086Z</time>
      </trkpt>
      <trkpt lat="42.58251" lon="2.06632">
        <ele>1840</ele>
        <time>2020-07-21T08:10:05.086Z</time>
      </trkpt>
      <trkpt lat="42.58251" lon="2.06629">
        <ele>1840</ele>
        <time>2020-07-21T08:10:06.086Z</time>
      </trkpt>
      <trkpt lat="42.58252" lon="2.06627">
        <ele>1841</ele>
        <time>2020-07-21T08:10:07.086Z</time>
      </trkpt>
      <trkpt lat="42.58253" lon="2.06625">
        <ele>1842</ele>
        <time>2020-07-21T08:10:08.086Z</time>
      </trkpt>
      <trkpt lat="42.58253" lon="2.06623">
        <ele>1843</ele>
        <time>2020-07-21T08:10:09.086Z</time>
      </trkpt>
      <trkpt lat="42.58253" lon="2.06622">
        <ele>1843</ele>
        <time>2020-07-21T08:10:10.086Z</time>
      </trkpt>
      <trkpt lat="42.58254" lon="2.0662">
        <ele>1844</ele>
        <time>2020-07-21T08:10:11.086Z</time>
      </trkpt>
      <trkpt lat="42.58255" lon="2.06618">
        <ele>1844</ele>
        <time>2020-07-21T08:10:12.086Z</time>
      </trkpt>
      <trkpt lat="42.58255" lon="2.06616">
        <ele>1844</ele>
        <time>2020-07-21T08:10:13.086Z</time>
      </trkpt>
      <trkpt lat="42.58255" lon="2.06613">
        <ele>1844</ele>
        <time>2020-07-21T08:10:14.086Z</time>
      </trkpt>
      <trkpt lat="42.58256" lon="2.06611">
        <ele>1845</ele>
        <time>2020-07-21T08:10:15.086Z</time>
      </trkpt>
      <trkpt lat="42.58256" lon="2.06609">
        <ele>1846</ele>
        <time>2020-07-21T08:10:16.086Z</time>
      </trkpt>
      <trkpt lat="42.58257" lon="2.06606">
        <ele>1846</ele>
        <time>2020-07-21T08:10:17.086Z</time>
      </trkpt>
      <trkpt lat="42.58258" lon="2.06604">
        <ele>1847</ele>
        <time>2020-07-21T08:10:18.086Z</time>
      </trkpt>
      <trkpt lat="42.58258" lon="2.06602">
        <ele>1848</ele>
        <time>2020-07-21T08:10:19.086Z</time>
      </trkpt>
      <trkpt lat="42.58259" lon="2.06601">
        <ele>1849</ele>
        <time>2020-07-21T08:10:20.086Z</time>
      </trkpt>
      <trkpt lat="42.5826" lon="2.06599">
        <ele>1849</ele>
        <time>2020-07-21T08:10:21.086Z</time>
      </trkpt>
      <trkpt lat="42.58261" lon="2.06597">
        <ele>1850</ele>
        <time>2020-07-21T08:10:22.086Z</time>
      </trkpt>
      <trkpt lat="42.58262" lon="2.06595">
        <ele>1851</ele>
        <time>2020-07-21T08:10:23.086Z</time>
      </trkpt>
      <trkpt lat="42.58263" lon="2.06593">
        <ele>1852</ele>
        <time>2020-07-21T08:10:24.086Z</time>
      </trkpt>
      <trkpt lat="42.58264" lon="2.06591">
        <ele>1852</ele>
        <time>2020-07-21T08:10:25.086Z</time>
      </trkpt>
      <trkpt lat="42.58265" lon="2.0659">
        <ele>1853</ele>
        <time>2020-07-21T08:10:26.086Z</time>
      </trkpt>
      <trkpt lat="42.58266" lon="2.06588">
        <ele>1853</ele>
        <time>2020-07-21T08:10:27.086Z</time>
      </trkpt>
      <trkpt lat="42.58266" lon="2.06587">
        <ele>1854</ele>
        <time>2020-07-21T08:10:28.086Z</time>
      </trkpt>
      <trkpt lat="42.58267" lon="2.06585">
        <ele>1855</ele>
        <time>2020-07-21T08:10:29.086Z</time>
      </trkpt>
      <trkpt lat="42.58268" lon="2.06584">
        <ele>1856</ele>
        <time>2020-07-21T08:10:30.086Z</time>
      </trkpt>
      <trkpt lat="42.58269" lon="2.06582">
        <ele>1856</ele>
        <time>2020-07-21T08:10:31.086Z</time>
      </trkpt>
      <trkpt lat="42.5827" lon="2.0658">
        <ele>1856</ele>
        <time>2020-07-21T08:10:32.086Z</time>
      </trkpt>
      <trkpt lat="42.58271" lon="2.06578">
        <ele>1856</ele>
        <time>2020-07-21T08:10:33.086Z</time>
      </trkpt>
      <trkpt lat="42.58271" lon="2.06577">
        <ele>1856</ele>
        <time>2020-07-21T08:10:34.086Z</time>
      </trkpt>
      <trkpt lat="42.58272" lon="2.06575">
        <ele>1856</ele>
        <time>2020-07-21T08:10:35.086Z</time>
      </trkpt>
      <trkpt lat="42.58273" lon="2.06574">
        <ele>1857</ele>
        <time>2020-07-21T08:10:36.086Z</time>
      </trkpt>
      <trkpt lat="42.58277" lon="2.06568">
        <ele>1857</ele>
        <time>2020-07-21T08:10:37.028Z</time>
      </trkpt>
      <trkpt lat="42.58277" lon="2.06567">
        <ele>1856</ele>
        <time>2020-07-21T08:10:38.028Z</time>
      </trkpt>
      <trkpt lat="42.58276" lon="2.06566">
        <ele>1857</ele>
        <time>2020-07-21T08:10:39.028Z</time>
      </trkpt>
      <trkpt lat="42.58275" lon="2.06564">
        <ele>1857</ele>
        <time>2020-07-21T08:10:40.028Z</time>
      </trkpt>
      <trkpt lat="42.58275" lon="2.06561">
        <ele>1857</ele>
        <time>2020-07-21T08:10:41.028Z</time>
      </trkpt>
      <trkpt lat="42.58274" lon="2.06557">
        <ele>1858</ele>
        <time>2020-07-21T08:10:42.028Z</time>
      </trkpt>
      <trkpt lat="42.58273" lon="2.06554">
        <ele>1858</ele>
        <time>2020-07-21T08:10:43.028Z</time>
      </trkpt>
      <trkpt lat="42.58272" lon="2.0655">
        <ele>1858</ele>
        <time>2020-07-21T08:10:44.028Z</time>
      </trkpt>
      <trkpt lat="42.58271" lon="2.06547">
        <ele>1859</ele>
        <time>2020-07-21T08:10:45.028Z</time>
      </trkpt>
      <trkpt lat="42.58271" lon="2.06544">
        <ele>1859</ele>
        <time>2020-07-21T08:10:46.028Z</time>
      </trkpt>
      <trkpt lat="42.5827" lon="2.0654">
        <ele>1859</ele>
        <time>2020-07-21T08:10:47.028Z</time>
      </trkpt>
      <trkpt lat="42.58269" lon="2.06537">
        <ele>1860</ele>
        <time>2020-07-21T08:10:48.028Z</time>
      </trkpt>
      <trkpt lat="42.58268" lon="2.06534">
        <ele>1860</ele>
        <time>2020-07-21T08:10:49.028Z</time>
      </trkpt>
      <trkpt lat="42.58267" lon="2.06531">
        <ele>1860</ele>
        <time>2020-07-21T08:10:50.028Z</time>
      </trkpt>
      <trkpt lat="42.58266" lon="2.06528">
        <ele>1861</ele>
        <time>2020-07-21T08:10:51.028Z</time>
      </trkpt>
      <trkpt lat="42.58264" lon="2.06525">
        <ele>1862</ele>
        <time>2020-07-21T08:10:52.028Z</time>
      </trkpt>
      <trkpt lat="42.58263" lon="2.06522">
        <ele>1862</ele>
        <time>2020-07-21T08:10:53.028Z</time>
      </trkpt>
      <trkpt lat="42.58262" lon="2.06519">
        <ele>1863</ele>
        <time>2020-07-21T08:10:54.028Z</time>
      </trkpt>
      <trkpt lat="42.58261" lon="2.06516">
        <ele>1863</ele>
        <time>2020-07-21T08:10:55.028Z</time>
      </trkpt>
      <trkpt lat="42.58259" lon="2.06514">
        <ele>1864</ele>
        <time>2020-07-21T08:10:56.028Z</time>
      </trkpt>
      <trkpt lat="42.58258" lon="2.06511">
        <ele>1865</ele>
        <time>2020-07-21T08:10:57.028Z</time>
      </trkpt>
      <trkpt lat="42.58257" lon="2.06509">
        <ele>1866</ele>
        <time>2020-07-21T08:10:58.028Z</time>
      </trkpt>
      <trkpt lat="42.58255" lon="2.06506">
        <ele>1867</ele>
        <time>2020-07-21T08:10:59.028Z</time>
      </trkpt>
      <trkpt lat="42.58254" lon="2.06504">
        <ele>1868</ele>
        <time>2020-07-21T08:11:00.028Z</time>
      </trkpt>
      <trkpt lat="42.58253" lon="2.06501">
        <ele>1868</ele>
        <time>2020-07-21T08:11:01.028Z</time>
      </trkpt>
      <trkpt lat="42.58251" lon="2.06498">
        <ele>1869</ele>
        <time>2020-07-21T08:11:02.028Z</time>
      </trkpt>
      <trkpt lat="42.5825" lon="2.06496">
        <ele>1870</ele>
        <time>2020-07-21T08:11:03.028Z</time>
      </trkpt>
      <trkpt lat="42.58249" lon="2.06493">
        <ele>1870</ele>
        <time>2020-07-21T08:11:04.028Z</time>
      </trkpt>
      <trkpt lat="42.58248" lon="2.0649">
        <ele>1871</ele>
        <time>2020-07-21T08:11:05.028Z</time>
      </trkpt>
      <trkpt lat="42.58247" lon="2.06488">
        <ele>1871</ele>
        <time>2020-07-21T08:11:06.028Z</time>
      </trkpt>
      <trkpt lat="42.58245" lon="2.06485">
        <ele>1871</ele>
        <time>2020-07-21T08:11:07.028Z</time>
      </trkpt>
      <trkpt lat="42.58244" lon="2.06482">
        <ele>1871</ele>
        <time>2020-07-21T08:11:08.028Z</time>
      </trkpt>
      <trkpt lat="42.58243" lon="2.06479">
        <ele>1872</ele>
        <time>2020-07-21T08:11:09.028Z</time>
      </trkpt>
      <trkpt lat="42.58242" lon="2.06476">
        <ele>1872</ele>
        <time>2020-07-21T08:11:10.028Z</time>
      </trkpt>
      <trkpt lat="42.58241" lon="2.06474">
        <ele>1872</ele>
        <time>2020-07-21T08:11:11.028Z</time>
      </trkpt>
      <trkpt lat="42.5824" lon="2.06471">
        <ele>1873</ele>
        <time>2020-07-21T08:11:12.028Z</time>
      </trkpt>
      <trkpt lat="42.58239" lon="2.06468">
        <ele>1873</ele>
        <time>2020-07-21T08:11:13.028Z</time>
      </trkpt>
      <trkpt lat="42.58237" lon="2.06466">
        <ele>1874</ele>
        <time>2020-07-21T08:11:14.028Z</time>
      </trkpt>
      <trkpt lat="42.58236" lon="2.06463">
        <ele>1874</ele>
        <time>2020-07-21T08:11:15.028Z</time>
      </trkpt>
      <trkpt lat="42.58235" lon="2.0646">
        <ele>1874</ele>
        <time>2020-07-21T08:11:16.028Z</time>
      </trkpt>
      <trkpt lat="42.58234" lon="2.06457">
        <ele>1874</ele>
        <time>2020-07-21T08:11:17.028Z</time>
      </trkpt>
      <trkpt lat="42.58233" lon="2.06455">
        <ele>1874</ele>
        <time>2020-07-21T08:11:18.028Z</time>
      </trkpt>
      <trkpt lat="42.58232" lon="2.06452">
        <ele>1875</ele>
        <time>2020-07-21T08:11:19.028Z</time>
      </trkpt>
      <trkpt lat="42.58231" lon="2.06449">
        <ele>1875</ele>
        <time>2020-07-21T08:11:20.028Z</time>
      </trkpt>
      <trkpt lat="42.5823" lon="2.06447">
        <ele>1876</ele>
        <time>2020-07-21T08:11:21.028Z</time>
      </trkpt>
      <trkpt lat="42.58229" lon="2.06444">
        <ele>1876</ele>
        <time>2020-07-21T08:11:22.028Z</time>
      </trkpt>
      <trkpt lat="42.58229" lon="2.06441">
        <ele>1877</ele>
        <time>2020-07-21T08:11:23.028Z</time>
      </trkpt>
      <trkpt lat="42.58228" lon="2.06438">
        <ele>1877</ele>
        <time>2020-07-21T08:11:24.028Z</time>
      </trkpt>
      <trkpt lat="42.58226" lon="2.06436">
        <ele>1878</ele>
        <time>2020-07-21T08:11:25.028Z</time>
      </trkpt>
      <trkpt lat="42.58225" lon="2.06433">
        <ele>1878</ele>
        <time>2020-07-21T08:11:26.028Z</time>
      </trkpt>
      <trkpt lat="42.58224" lon="2.0643">
        <ele>1879</ele>
        <time>2020-07-21T08:11:27.028Z</time>
      </trkpt>
      <trkpt lat="42.58223" lon="2.06428">
        <ele>1880</ele>
        <time>2020-07-21T08:11:28.028Z</time>
      </trkpt>
      <trkpt lat="42.58222" lon="2.06425">
        <ele>1880</ele>
        <time>2020-07-21T08:11:29.028Z</time>
      </trkpt>
      <trkpt lat="42.58221" lon="2.06422">
        <ele>1881</ele>
        <time>2020-07-21T08:11:30.028Z</time>
      </trkpt>
      <trkpt lat="42.5822" lon="2.06419">
        <ele>1881</ele>
        <time>2020-07-21T08:11:31.028Z</time>
      </trkpt>
      <trkpt lat="42.58219" lon="2.06416">
        <ele>1882</ele>
        <time>2020-07-21T08:11:32.028Z</time>
      </trkpt>
      <trkpt lat="42.58218" lon="2.06413">
        <ele>1882</ele>
        <time>2020-07-21T08:11:33.028Z</time>
      </trkpt>
      <trkpt lat="42.58216" lon="2.0641">
        <ele>1883</ele>
        <time>2020-07-21T08:11:34.028Z</time>
      </trkpt>
      <trkpt lat="42.58216" lon="2.06407">
        <ele>1883</ele>
        <time>2020-07-21T08:11:35.028Z</time>
      </trkpt>
      <trkpt lat="42.58214" lon="2.06404">
        <ele>1883</ele>
        <time>2020-07-21T08:11:36.028Z</time>
      </trkpt>
      <trkpt lat="42.58213" lon="2.06401">
        <ele>1883</ele>
        <time>2020-07-21T08:11:37.028Z</time>
      </trkpt>
      <trkpt lat="42.58212" lon="2.06398">
        <ele>1883</ele>
        <time>2020-07-21T08:11:38.028Z</time>
      </trkpt>
      <trkpt lat="42.58211" lon="2.06395">
        <ele>1883</ele>
        <time>2020-07-21T08:11:39.028Z</time>
      </trkpt>
      <trkpt lat="42.5821" lon="2.06392">
        <ele>1883</ele>
        <time>2020-07-21T08:11:40.028Z</time>
      </trkpt>
      <trkpt lat="42.58209" lon="2.06389">
        <ele>1883</ele>
        <time>2020-07-21T08:11:41.028Z</time>
      </trkpt>
      <trkpt lat="42.58208" lon="2.06386">
        <ele>1884</ele>
        <time>2020-07-21T08:11:42.028Z</time>
      </trkpt>
      <trkpt lat="42.58207" lon="2.06383">
        <ele>1884</ele>
        <time>2020-07-21T08:11:43.028Z</time>
      </trkpt>
      <trkpt lat="42.58206" lon="2.0638">
        <ele>1885</ele>
        <time>2020-07-21T08:11:44.028Z</time>
      </trkpt>
      <trkpt lat="42.58205" lon="2.06378">
        <ele>1886</ele>
        <time>2020-07-21T08:11:45.028Z</time>
      </trkpt>
      <trkpt lat="42.58204" lon="2.06375">
        <ele>1886</ele>
        <time>2020-07-21T08:11:46.028Z</time>
      </trkpt>
      <trkpt lat="42.58203" lon="2.06372">
        <ele>1887</ele>
        <time>2020-07-21T08:11:47.028Z</time>
      </trkpt>
      <trkpt lat="42.58202" lon="2.0637">
        <ele>1888</ele>
        <time>2020-07-21T08:11:48.028Z</time>
      </trkpt>
      <trkpt lat="42.58201" lon="2.06367">
        <ele>1888</ele>
        <time>2020-07-21T08:11:49.028Z</time>
      </trkpt>
      <trkpt lat="42.582" lon="2.06365">
        <ele>1889</ele>
        <time>2020-07-21T08:11:50.028Z</time>
      </trkpt>
      <trkpt lat="42.58199" lon="2.06362">
        <ele>1889</ele>
        <time>2020-07-21T08:11:51.028Z</time>
      </trkpt>
      <trkpt lat="42.58198" lon="2.06359">
        <ele>1890</ele>
        <time>2020-07-21T08:11:52.028Z</time>
      </trkpt>
      <trkpt lat="42.58197" lon="2.06357">
        <ele>1890</ele>
        <time>2020-07-21T08:11:53.028Z</time>
      </trkpt>
      <trkpt lat="42.58195" lon="2.06354">
        <ele>1890</ele>
        <time>2020-07-21T08:11:54.028Z</time>
      </trkpt>
      <trkpt lat="42.58194" lon="2.06352">
        <ele>1891</ele>
        <time>2020-07-21T08:11:55.028Z</time>
      </trkpt>
      <trkpt lat="42.58193" lon="2.06349">
        <ele>1891</ele>
        <time>2020-07-21T08:11:56.028Z</time>
      </trkpt>
      <trkpt lat="42.58191" lon="2.06346">
        <ele>1892</ele>
        <time>2020-07-21T08:11:57.028Z</time>
      </trkpt>
      <trkpt lat="42.5819" lon="2.06343">
        <ele>1892</ele>
        <time>2020-07-21T08:11:58.028Z</time>
      </trkpt>
      <trkpt lat="42.58188" lon="2.06341">
        <ele>1892</ele>
        <time>2020-07-21T08:11:59.028Z</time>
      </trkpt>
      <trkpt lat="42.58187" lon="2.06338">
        <ele>1893</ele>
        <time>2020-07-21T08:12:00.028Z</time>
      </trkpt>
      <trkpt lat="42.58186" lon="2.06336">
        <ele>1893</ele>
        <time>2020-07-21T08:12:01.028Z</time>
      </trkpt>
      <trkpt lat="42.58185" lon="2.06333">
        <ele>1893</ele>
        <time>2020-07-21T08:12:02.028Z</time>
      </trkpt>
      <trkpt lat="42.58184" lon="2.06331">
        <ele>1893</ele>
        <time>2020-07-21T08:12:03.028Z</time>
      </trkpt>
      <trkpt lat="42.58183" lon="2.06328">
        <ele>1894</ele>
        <time>2020-07-21T08:12:04.028Z</time>
      </trkpt>
      <trkpt lat="42.58182" lon="2.06325">
        <ele>1894</ele>
        <time>2020-07-21T08:12:05.028Z</time>
      </trkpt>
      <trkpt lat="42.58181" lon="2.06323">
        <ele>1895</ele>
        <time>2020-07-21T08:12:06.028Z</time>
      </trkpt>
      <trkpt lat="42.5818" lon="2.0632">
        <ele>1895</ele>
        <time>2020-07-21T08:12:07.028Z</time>
      </trkpt>
      <trkpt lat="42.58178" lon="2.06318">
        <ele>1895</ele>
        <time>2020-07-21T08:12:08.028Z</time>
      </trkpt>
      <trkpt lat="42.58177" lon="2.06315">
        <ele>1897</ele>
        <time>2020-07-21T08:12:09.028Z</time>
      </trkpt>
      <trkpt lat="42.58176" lon="2.06313">
        <ele>1897</ele>
        <time>2020-07-21T08:12:10.028Z</time>
      </trkpt>
      <trkpt lat="42.58175" lon="2.0631">
        <ele>1898</ele>
        <time>2020-07-21T08:12:11.028Z</time>
      </trkpt>
      <trkpt lat="42.58174" lon="2.06307">
        <ele>1898</ele>
        <time>2020-07-21T08:12:12.028Z</time>
      </trkpt>
      <trkpt lat="42.58173" lon="2.06305">
        <ele>1898</ele>
        <time>2020-07-21T08:12:13.028Z</time>
      </trkpt>
      <trkpt lat="42.58172" lon="2.06302">
        <ele>1899</ele>
        <time>2020-07-21T08:12:14.028Z</time>
      </trkpt>
      <trkpt lat="42.58171" lon="2.06299">
        <ele>1899</ele>
        <time>2020-07-21T08:12:15.028Z</time>
      </trkpt>
      <trkpt lat="42.5817" lon="2.06296">
        <ele>1899</ele>
        <time>2020-07-21T08:12:16.028Z</time>
      </trkpt>
      <trkpt lat="42.58169" lon="2.06292">
        <ele>1898</ele>
        <time>2020-07-21T08:12:17.028Z</time>
      </trkpt>
      <trkpt lat="42.58168" lon="2.06289">
        <ele>1896</ele>
        <time>2020-07-21T08:12:18.028Z</time>
      </trkpt>
      <trkpt lat="42.58168" lon="2.06285">
        <ele>1896</ele>
        <time>2020-07-21T08:12:19.028Z</time>
      </trkpt>
      <trkpt lat="42.58167" lon="2.06281">
        <ele>1896</ele>
        <time>2020-07-21T08:12:20.028Z</time>
      </trkpt>
      <trkpt lat="42.58166" lon="2.06278">
        <ele>1896</ele>
        <time>2020-07-21T08:12:21.028Z</time>
      </trkpt>
      <trkpt lat="42.58165" lon="2.06274">
        <ele>1896</ele>
        <time>2020-07-21T08:12:22.028Z</time>
      </trkpt>
      <trkpt lat="42.58164" lon="2.06271">
        <ele>1895</ele>
        <time>2020-07-21T08:12:23.028Z</time>
      </trkpt>
      <trkpt lat="42.58163" lon="2.06267">
        <ele>1894</ele>
        <time>2020-07-21T08:12:24.028Z</time>
      </trkpt>
      <trkpt lat="42.58163" lon="2.06263">
        <ele>1894</ele>
        <time>2020-07-21T08:12:25.028Z</time>
      </trkpt>
      <trkpt lat="42.58162" lon="2.0626">
        <ele>1894</ele>
        <time>2020-07-21T08:12:26.028Z</time>
      </trkpt>
      <trkpt lat="42.58161" lon="2.06256">
        <ele>1894</ele>
        <time>2020-07-21T08:12:27.028Z</time>
      </trkpt>
      <trkpt lat="42.5816" lon="2.06253">
        <ele>1895</ele>
        <time>2020-07-21T08:12:28.028Z</time>
      </trkpt>
      <trkpt lat="42.58159" lon="2.06249">
        <ele>1895</ele>
        <time>2020-07-21T08:12:29.028Z</time>
      </trkpt>
      <trkpt lat="42.58158" lon="2.06246">
        <ele>1895</ele>
        <time>2020-07-21T08:12:30.028Z</time>
      </trkpt>
      <trkpt lat="42.58157" lon="2.06243">
        <ele>1896</ele>
        <time>2020-07-21T08:12:31.028Z</time>
      </trkpt>
      <trkpt lat="42.58156" lon="2.06239">
        <ele>1896</ele>
        <time>2020-07-21T08:12:32.028Z</time>
      </trkpt>
      <trkpt lat="42.58156" lon="2.06236">
        <ele>1896</ele>
        <time>2020-07-21T08:12:33.028Z</time>
      </trkpt>
      <trkpt lat="42.58155" lon="2.06233">
        <ele>1896</ele>
        <time>2020-07-21T08:12:34.028Z</time>
      </trkpt>
      <trkpt lat="42.58154" lon="2.0623">
        <ele>1897</ele>
        <time>2020-07-21T08:12:35.028Z</time>
      </trkpt>
      <trkpt lat="42.58152" lon="2.06227">
        <ele>1897</ele>
        <time>2020-07-21T08:12:36.028Z</time>
      </trkpt>
      <trkpt lat="42.58151" lon="2.06223">
        <ele>1897</ele>
        <time>2020-07-21T08:12:37.028Z</time>
      </trkpt>
      <trkpt lat="42.5815" lon="2.0622">
        <ele>1897</ele>
        <time>2020-07-21T08:12:38.028Z</time>
      </trkpt>
      <trkpt lat="42.58149" lon="2.06217">
        <ele>1896</ele>
        <time>2020-07-21T08:12:39.028Z</time>
      </trkpt>
      <trkpt lat="42.58148" lon="2.06214">
        <ele>1897</ele>
        <time>2020-07-21T08:12:40.028Z</time>
      </trkpt>
      <trkpt lat="42.58148" lon="2.0621">
        <ele>1896</ele>
        <time>2020-07-21T08:12:41.028Z</time>
      </trkpt>
      <trkpt lat="42.58147" lon="2.06207">
        <ele>1898</ele>
        <time>2020-07-21T08:12:42.028Z</time>
      </trkpt>
      <trkpt lat="42.58146" lon="2.06204">
        <ele>1898</ele>
        <time>2020-07-21T08:12:43.028Z</time>
      </trkpt>
      <trkpt lat="42.58145" lon="2.062">
        <ele>1899</ele>
        <time>2020-07-21T08:12:44.028Z</time>
      </trkpt>
      <trkpt lat="42.58144" lon="2.06197">
        <ele>1898</ele>
        <time>2020-07-21T08:12:45.028Z</time>
      </trkpt>
      <trkpt lat="42.58143" lon="2.06194">
        <ele>1899</ele>
        <time>2020-07-21T08:12:46.028Z</time>
      </trkpt>
      <trkpt lat="42.58142" lon="2.06191">
        <ele>1899</ele>
        <time>2020-07-21T08:12:47.028Z</time>
      </trkpt>
      <trkpt lat="42.58142" lon="2.06187">
        <ele>1900</ele>
        <time>2020-07-21T08:12:48.028Z</time>
      </trkpt>
      <trkpt lat="42.58141" lon="2.06184">
        <ele>1901</ele>
        <time>2020-07-21T08:12:49.028Z</time>
      </trkpt>
      <trkpt lat="42.5814" lon="2.06181">
        <ele>1900</ele>
        <time>2020-07-21T08:12:50.028Z</time>
      </trkpt>
      <trkpt lat="42.58139" lon="2.06178">
        <ele>1901</ele>
        <time>2020-07-21T08:12:51.028Z</time>
      </trkpt>
      <trkpt lat="42.58138" lon="2.06175">
        <ele>1901</ele>
        <time>2020-07-21T08:12:52.028Z</time>
      </trkpt>
      <trkpt lat="42.58138" lon="2.06171">
        <ele>1901</ele>
        <time>2020-07-21T08:12:53.028Z</time>
      </trkpt>
      <trkpt lat="42.58137" lon="2.06168">
        <ele>1902</ele>
        <time>2020-07-21T08:12:54.028Z</time>
      </trkpt>
      <trkpt lat="42.58136" lon="2.06165">
        <ele>1902</ele>
        <time>2020-07-21T08:12:55.028Z</time>
      </trkpt>
      <trkpt lat="42.58135" lon="2.06162">
        <ele>1902</ele>
        <time>2020-07-21T08:12:56.028Z</time>
      </trkpt>
      <trkpt lat="42.58134" lon="2.06159">
        <ele>1903</ele>
        <time>2020-07-21T08:12:57.028Z</time>
      </trkpt>
      <trkpt lat="42.58133" lon="2.06156">
        <ele>1904</ele>
        <time>2020-07-21T08:12:58.028Z</time>
      </trkpt>
      <trkpt lat="42.58132" lon="2.06153">
        <ele>1904</ele>
        <time>2020-07-21T08:12:59.028Z</time>
      </trkpt>
      <trkpt lat="42.58131" lon="2.0615">
        <ele>1905</ele>
        <time>2020-07-21T08:13:00.028Z</time>
      </trkpt>
      <trkpt lat="42.5813" lon="2.06147">
        <ele>1905</ele>
        <time>2020-07-21T08:13:01.028Z</time>
      </trkpt>
      <trkpt lat="42.58129" lon="2.06144">
        <ele>1905</ele>
        <time>2020-07-21T08:13:02.028Z</time>
      </trkpt>
      <trkpt lat="42.58128" lon="2.06141">
        <ele>1905</ele>
        <time>2020-07-21T08:13:03.028Z</time>
      </trkpt>
      <trkpt lat="42.58127" lon="2.06138">
        <ele>1906</ele>
        <time>2020-07-21T08:13:04.028Z</time>
      </trkpt>
      <trkpt lat="42.58126" lon="2.06135">
        <ele>1907</ele>
        <time>2020-07-21T08:13:05.028Z</time>
      </trkpt>
      <trkpt lat="42.58126" lon="2.06132">
        <ele>1908</ele>
        <time>2020-07-21T08:13:06.028Z</time>
      </trkpt>
      <trkpt lat="42.58125" lon="2.0613">
        <ele>1908</ele>
        <time>2020-07-21T08:13:07.028Z</time>
      </trkpt>
      <trkpt lat="42.58124" lon="2.06127">
        <ele>1908</ele>
        <time>2020-07-21T08:13:08.028Z</time>
      </trkpt>
      <trkpt lat="42.58124" lon="2.06124">
        <ele>1908</ele>
        <time>2020-07-21T08:13:09.028Z</time>
      </trkpt>
      <trkpt lat="42.58123" lon="2.06121">
        <ele>1908</ele>
        <time>2020-07-21T08:13:10.028Z</time>
      </trkpt>
      <trkpt lat="42.58123" lon="2.06117">
        <ele>1907</ele>
        <time>2020-07-21T08:13:11.028Z</time>
      </trkpt>
      <trkpt lat="42.58122" lon="2.06114">
        <ele>1908</ele>
        <time>2020-07-21T08:13:12.028Z</time>
      </trkpt>
      <trkpt lat="42.58121" lon="2.06111">
        <ele>1907</ele>
        <time>2020-07-21T08:13:13.028Z</time>
      </trkpt>
      <trkpt lat="42.5812" lon="2.06108">
        <ele>1907</ele>
        <time>2020-07-21T08:13:14.028Z</time>
      </trkpt>
      <trkpt lat="42.5812" lon="2.06105">
        <ele>1908</ele>
        <time>2020-07-21T08:13:15.028Z</time>
      </trkpt>
      <trkpt lat="42.5812" lon="2.06102">
        <ele>1908</ele>
        <time>2020-07-21T08:13:16.028Z</time>
      </trkpt>
      <trkpt lat="42.58119" lon="2.06099">
        <ele>1908</ele>
        <time>2020-07-21T08:13:17.028Z</time>
      </trkpt>
      <trkpt lat="42.58119" lon="2.06096">
        <ele>1909</ele>
        <time>2020-07-21T08:13:18.028Z</time>
      </trkpt>
      <trkpt lat="42.58119" lon="2.06093">
        <ele>1909</ele>
        <time>2020-07-21T08:13:19.028Z</time>
      </trkpt>
      <trkpt lat="42.58119" lon="2.0609">
        <ele>1910</ele>
        <time>2020-07-21T08:13:20.028Z</time>
      </trkpt>
      <trkpt lat="42.58119" lon="2.06087">
        <ele>1911</ele>
        <time>2020-07-21T08:13:21.028Z</time>
      </trkpt>
      <trkpt lat="42.58118" lon="2.06084">
        <ele>1911</ele>
        <time>2020-07-21T08:13:22.028Z</time>
      </trkpt>
      <trkpt lat="42.58118" lon="2.06081">
        <ele>1911</ele>
        <time>2020-07-21T08:13:23.028Z</time>
      </trkpt>
      <trkpt lat="42.58117" lon="2.06079">
        <ele>1911</ele>
        <time>2020-07-21T08:13:24.028Z</time>
      </trkpt>
      <trkpt lat="42.58117" lon="2.06076">
        <ele>1911</ele>
        <time>2020-07-21T08:13:25.028Z</time>
      </trkpt>
      <trkpt lat="42.58116" lon="2.06073">
        <ele>1912</ele>
        <time>2020-07-21T08:13:26.028Z</time>
      </trkpt>
      <trkpt lat="42.58116" lon="2.0607">
        <ele>1913</ele>
        <time>2020-07-21T08:13:27.028Z</time>
      </trkpt>
      <trkpt lat="42.58115" lon="2.06068">
        <ele>1913</ele>
        <time>2020-07-21T08:13:28.028Z</time>
      </trkpt>
      <trkpt lat="42.58115" lon="2.06065">
        <ele>1913</ele>
        <time>2020-07-21T08:13:29.028Z</time>
      </trkpt>
      <trkpt lat="42.58114" lon="2.06063">
        <ele>1913</ele>
        <time>2020-07-21T08:13:30.028Z</time>
      </trkpt>
      <trkpt lat="42.58114" lon="2.06061">
        <ele>1914</ele>
        <time>2020-07-21T08:13:31.028Z</time>
      </trkpt>
      <trkpt lat="42.58113" lon="2.06058">
        <ele>1913</ele>
        <time>2020-07-21T08:13:32.028Z</time>
      </trkpt>
      <trkpt lat="42.58113" lon="2.06055">
        <ele>1914</ele>
        <time>2020-07-21T08:13:33.028Z</time>
      </trkpt>
      <trkpt lat="42.58113" lon="2.06053">
        <ele>1914</ele>
        <time>2020-07-21T08:13:34.028Z</time>
      </trkpt>
      <trkpt lat="42.58112" lon="2.0605">
        <ele>1915</ele>
        <time>2020-07-21T08:13:35.028Z</time>
      </trkpt>
      <trkpt lat="42.58112" lon="2.06048">
        <ele>1915</ele>
        <time>2020-07-21T08:13:36.028Z</time>
      </trkpt>
      <trkpt lat="42.58112" lon="2.06045">
        <ele>1915</ele>
        <time>2020-07-21T08:13:37.028Z</time>
      </trkpt>
      <trkpt lat="42.58112" lon="2.06042">
        <ele>1915</ele>
        <time>2020-07-21T08:13:38.028Z</time>
      </trkpt>
      <trkpt lat="42.58111" lon="2.0604">
        <ele>1916</ele>
        <time>2020-07-21T08:13:39.028Z</time>
      </trkpt>
      <trkpt lat="42.58111" lon="2.06037">
        <ele>1916</ele>
        <time>2020-07-21T08:13:40.028Z</time>
      </trkpt>
      <trkpt lat="42.58111" lon="2.06034">
        <ele>1917</ele>
        <time>2020-07-21T08:13:41.028Z</time>
      </trkpt>
      <trkpt lat="42.58111" lon="2.06031">
        <ele>1917</ele>
        <time>2020-07-21T08:13:42.028Z</time>
      </trkpt>
      <trkpt lat="42.58111" lon="2.06029">
        <ele>1917</ele>
        <time>2020-07-21T08:13:43.028Z</time>
      </trkpt>
      <trkpt lat="42.58111" lon="2.06026">
        <ele>1918</ele>
        <time>2020-07-21T08:13:44.028Z</time>
      </trkpt>
      <trkpt lat="42.58111" lon="2.06023">
        <ele>1918</ele>
        <time>2020-07-21T08:13:45.028Z</time>
      </trkpt>
      <trkpt lat="42.58111" lon="2.0602">
        <ele>1918</ele>
        <time>2020-07-21T08:13:46.028Z</time>
      </trkpt>
      <trkpt lat="42.58111" lon="2.06017">
        <ele>1919</ele>
        <time>2020-07-21T08:13:47.028Z</time>
      </trkpt>
      <trkpt lat="42.5811" lon="2.06014">
        <ele>1918</ele>
        <time>2020-07-21T08:13:48.028Z</time>
      </trkpt>
      <trkpt lat="42.5811" lon="2.06011">
        <ele>1919</ele>
        <time>2020-07-21T08:13:49.028Z</time>
      </trkpt>
      <trkpt lat="42.5811" lon="2.06008">
        <ele>1919</ele>
        <time>2020-07-21T08:13:50.028Z</time>
      </trkpt>
      <trkpt lat="42.5811" lon="2.06005">
        <ele>1920</ele>
        <time>2020-07-21T08:13:51.028Z</time>
      </trkpt>
      <trkpt lat="42.5811" lon="2.06002">
        <ele>1920</ele>
        <time>2020-07-21T08:13:52.028Z</time>
      </trkpt>
      <trkpt lat="42.5811" lon="2.06">
        <ele>1921</ele>
        <time>2020-07-21T08:13:53.028Z</time>
      </trkpt>
      <trkpt lat="42.58109" lon="2.05996">
        <ele>1922</ele>
        <time>2020-07-21T08:13:54.028Z</time>
      </trkpt>
      <trkpt lat="42.58109" lon="2.05994">
        <ele>1922</ele>
        <time>2020-07-21T08:13:55.028Z</time>
      </trkpt>
      <trkpt lat="42.58108" lon="2.0599">
        <ele>1923</ele>
        <time>2020-07-21T08:13:56.028Z</time>
      </trkpt>
      <trkpt lat="42.58108" lon="2.05987">
        <ele>1923</ele>
        <time>2020-07-21T08:13:57.028Z</time>
      </trkpt>
      <trkpt lat="42.58108" lon="2.05984">
        <ele>1923</ele>
        <time>2020-07-21T08:13:58.028Z</time>
      </trkpt>
      <trkpt lat="42.58108" lon="2.05981">
        <ele>1924</ele>
        <time>2020-07-21T08:13:59.028Z</time>
      </trkpt>
      <trkpt lat="42.58107" lon="2.05978">
        <ele>1925</ele>
        <time>2020-07-21T08:14:00.028Z</time>
      </trkpt>
      <trkpt lat="42.58107" lon="2.05975">
        <ele>1925</ele>
        <time>2020-07-21T08:14:01.028Z</time>
      </trkpt>
      <trkpt lat="42.58107" lon="2.05972">
        <ele>1925</ele>
        <time>2020-07-21T08:14:02.028Z</time>
      </trkpt>
      <trkpt lat="42.58107" lon="2.05969">
        <ele>1926</ele>
        <time>2020-07-21T08:14:03.028Z</time>
      </trkpt>
      <trkpt lat="42.58107" lon="2.05966">
        <ele>1926</ele>
        <time>2020-07-21T08:14:04.028Z</time>
      </trkpt>
      <trkpt lat="42.58107" lon="2.05963">
        <ele>1926</ele>
        <time>2020-07-21T08:14:05.028Z</time>
      </trkpt>
      <trkpt lat="42.58107" lon="2.0596">
        <ele>1927</ele>
        <time>2020-07-21T08:14:06.028Z</time>
      </trkpt>
      <trkpt lat="42.58107" lon="2.05957">
        <ele>1928</ele>
        <time>2020-07-21T08:14:07.028Z</time>
      </trkpt>
      <trkpt lat="42.58107" lon="2.05954">
        <ele>1929</ele>
        <time>2020-07-21T08:14:08.028Z</time>
      </trkpt>
      <trkpt lat="42.58107" lon="2.0595">
        <ele>1929</ele>
        <time>2020-07-21T08:14:09.028Z</time>
      </trkpt>
      <trkpt lat="42.58107" lon="2.05947">
        <ele>1930</ele>
        <time>2020-07-21T08:14:10.028Z</time>
      </trkpt>
      <trkpt lat="42.58107" lon="2.05944">
        <ele>1930</ele>
        <time>2020-07-21T08:14:11.028Z</time>
      </trkpt>
      <trkpt lat="42.58107" lon="2.05941">
        <ele>1931</ele>
        <time>2020-07-21T08:14:12.028Z</time>
      </trkpt>
      <trkpt lat="42.58107" lon="2.05938">
        <ele>1930</ele>
        <time>2020-07-21T08:14:13.028Z</time>
      </trkpt>
      <trkpt lat="42.58107" lon="2.05935">
        <ele>1931</ele>
        <time>2020-07-21T08:14:14.028Z</time>
      </trkpt>
      <trkpt lat="42.58107" lon="2.05932">
        <ele>1931</ele>
        <time>2020-07-21T08:14:15.028Z</time>
      </trkpt>
      <trkpt lat="42.58107" lon="2.05928">
        <ele>1931</ele>
        <time>2020-07-21T08:14:16.028Z</time>
      </trkpt>
      <trkpt lat="42.58107" lon="2.05925">
        <ele>1932</ele>
        <time>2020-07-21T08:14:17.028Z</time>
      </trkpt>
      <trkpt lat="42.58107" lon="2.05922">
        <ele>1932</ele>
        <time>2020-07-21T08:14:18.028Z</time>
      </trkpt>
      <trkpt lat="42.58107" lon="2.05919">
        <ele>1932</ele>
        <time>2020-07-21T08:14:19.028Z</time>
      </trkpt>
      <trkpt lat="42.58107" lon="2.05916">
        <ele>1932</ele>
        <time>2020-07-21T08:14:20.028Z</time>
      </trkpt>
      <trkpt lat="42.58106" lon="2.05913">
        <ele>1932</ele>
        <time>2020-07-21T08:14:21.028Z</time>
      </trkpt>
      <trkpt lat="42.58106" lon="2.0591">
        <ele>1933</ele>
        <time>2020-07-21T08:14:22.028Z</time>
      </trkpt>
      <trkpt lat="42.58106" lon="2.05906">
        <ele>1933</ele>
        <time>2020-07-21T08:14:23.028Z</time>
      </trkpt>
      <trkpt lat="42.58105" lon="2.05903">
        <ele>1933</ele>
        <time>2020-07-21T08:14:24.028Z</time>
      </trkpt>
      <trkpt lat="42.58105" lon="2.059">
        <ele>1934</ele>
        <time>2020-07-21T08:14:25.028Z</time>
      </trkpt>
      <trkpt lat="42.58105" lon="2.05896">
        <ele>1933</ele>
        <time>2020-07-21T08:14:26.028Z</time>
      </trkpt>
      <trkpt lat="42.58105" lon="2.05893">
        <ele>1933</ele>
        <time>2020-07-21T08:14:27.028Z</time>
      </trkpt>
      <trkpt lat="42.58104" lon="2.0589">
        <ele>1934</ele>
        <time>2020-07-21T08:14:28.028Z</time>
      </trkpt>
      <trkpt lat="42.58104" lon="2.05887">
        <ele>1934</ele>
        <time>2020-07-21T08:14:29.028Z</time>
      </trkpt>
      <trkpt lat="42.58104" lon="2.05884">
        <ele>1934</ele>
        <time>2020-07-21T08:14:30.028Z</time>
      </trkpt>
      <trkpt lat="42.58103" lon="2.05881">
        <ele>1935</ele>
        <time>2020-07-21T08:14:31.028Z</time>
      </trkpt>
      <trkpt lat="42.58102" lon="2.05878">
        <ele>1935</ele>
        <time>2020-07-21T08:14:32.028Z</time>
      </trkpt>
      <trkpt lat="42.58102" lon="2.05875">
        <ele>1935</ele>
        <time>2020-07-21T08:14:33.028Z</time>
      </trkpt>
      <trkpt lat="42.58101" lon="2.05872">
        <ele>1935</ele>
        <time>2020-07-21T08:14:34.028Z</time>
      </trkpt>
      <trkpt lat="42.581" lon="2.0587">
        <ele>1935</ele>
        <time>2020-07-21T08:14:35.028Z</time>
      </trkpt>
      <trkpt lat="42.581" lon="2.05867">
        <ele>1936</ele>
        <time>2020-07-21T08:14:36.028Z</time>
      </trkpt>
      <trkpt lat="42.58099" lon="2.05864">
        <ele>1937</ele>
        <time>2020-07-21T08:14:37.028Z</time>
      </trkpt>
      <trkpt lat="42.58099" lon="2.05861">
        <ele>1937</ele>
        <time>2020-07-21T08:14:38.028Z</time>
      </trkpt>
      <trkpt lat="42.58099" lon="2.05858">
        <ele>1938</ele>
        <time>2020-07-21T08:14:39.028Z</time>
      </trkpt>
      <trkpt lat="42.58098" lon="2.05856">
        <ele>1938</ele>
        <time>2020-07-21T08:14:40.028Z</time>
      </trkpt>
      <trkpt lat="42.58098" lon="2.05853">
        <ele>1939</ele>
        <time>2020-07-21T08:14:41.028Z</time>
      </trkpt>
      <trkpt lat="42.58097" lon="2.0585">
        <ele>1939</ele>
        <time>2020-07-21T08:14:42.028Z</time>
      </trkpt>
      <trkpt lat="42.58096" lon="2.05847">
        <ele>1940</ele>
        <time>2020-07-21T08:14:43.028Z</time>
      </trkpt>
      <trkpt lat="42.58095" lon="2.05844">
        <ele>1940</ele>
        <time>2020-07-21T08:14:44.028Z</time>
      </trkpt>
      <trkpt lat="42.58094" lon="2.05842">
        <ele>1942</ele>
        <time>2020-07-21T08:14:45.028Z</time>
      </trkpt>
      <trkpt lat="42.58093" lon="2.05839">
        <ele>1942</ele>
        <time>2020-07-21T08:14:46.028Z</time>
      </trkpt>
      <trkpt lat="42.58093" lon="2.05836">
        <ele>1943</ele>
        <time>2020-07-21T08:14:47.028Z</time>
      </trkpt>
      <trkpt lat="42.58092" lon="2.05834">
        <ele>1944</ele>
        <time>2020-07-21T08:14:48.028Z</time>
      </trkpt>
      <trkpt lat="42.58091" lon="2.05831">
        <ele>1945</ele>
        <time>2020-07-21T08:14:49.028Z</time>
      </trkpt>
      <trkpt lat="42.5809" lon="2.05828">
        <ele>1945</ele>
        <time>2020-07-21T08:14:50.028Z</time>
      </trkpt>
      <trkpt lat="42.5809" lon="2.05826">
        <ele>1946</ele>
        <time>2020-07-21T08:14:51.028Z</time>
      </trkpt>
      <trkpt lat="42.58089" lon="2.05824">
        <ele>1946</ele>
        <time>2020-07-21T08:14:52.028Z</time>
      </trkpt>
      <trkpt lat="42.58089" lon="2.05822">
        <ele>1947</ele>
        <time>2020-07-21T08:14:53.028Z</time>
      </trkpt>
      <trkpt lat="42.58088" lon="2.05819">
        <ele>1948</ele>
        <time>2020-07-21T08:14:54.028Z</time>
      </trkpt>
      <trkpt lat="42.58087" lon="2.05817">
        <ele>1948</ele>
        <time>2020-07-21T08:14:55.028Z</time>
      </trkpt>
      <trkpt lat="42.58087" lon="2.05814">
        <ele>1948</ele>
        <time>2020-07-21T08:14:56.028Z</time>
      </trkpt>
      <trkpt lat="42.58086" lon="2.05811">
        <ele>1948</ele>
        <time>2020-07-21T08:14:57.028Z</time>
      </trkpt>
      <trkpt lat="42.58086" lon="2.05809">
        <ele>1949</ele>
        <time>2020-07-21T08:14:58.028Z</time>
      </trkpt>
      <trkpt lat="42.58085" lon="2.05806">
        <ele>1948</ele>
        <time>2020-07-21T08:14:59.028Z</time>
      </trkpt>
      <trkpt lat="42.58085" lon="2.05803">
        <ele>1949</ele>
        <time>2020-07-21T08:15:00.028Z</time>
      </trkpt>
      <trkpt lat="42.58084" lon="2.058">
        <ele>1949</ele>
        <time>2020-07-21T08:15:01.028Z</time>
      </trkpt>
      <trkpt lat="42.58084" lon="2.05798">
        <ele>1949</ele>
        <time>2020-07-21T08:15:02.028Z</time>
      </trkpt>
      <trkpt lat="42.58083" lon="2.05795">
        <ele>1949</ele>
        <time>2020-07-21T08:15:03.028Z</time>
      </trkpt>
      <trkpt lat="42.58083" lon="2.05792">
        <ele>1950</ele>
        <time>2020-07-21T08:15:04.028Z</time>
      </trkpt>
      <trkpt lat="42.58082" lon="2.05789">
        <ele>1950</ele>
        <time>2020-07-21T08:15:05.028Z</time>
      </trkpt>
      <trkpt lat="42.58082" lon="2.05786">
        <ele>1950</ele>
        <time>2020-07-21T08:15:06.028Z</time>
      </trkpt>
      <trkpt lat="42.58081" lon="2.05783">
        <ele>1950</ele>
        <time>2020-07-21T08:15:07.028Z</time>
      </trkpt>
      <trkpt lat="42.5808" lon="2.0578">
        <ele>1950</ele>
        <time>2020-07-21T08:15:08.028Z</time>
      </trkpt>
      <trkpt lat="42.5808" lon="2.05777">
        <ele>1951</ele>
        <time>2020-07-21T08:15:09.028Z</time>
      </trkpt>
      <trkpt lat="42.58079" lon="2.05775">
        <ele>1951</ele>
        <time>2020-07-21T08:15:10.028Z</time>
      </trkpt>
      <trkpt lat="42.58078" lon="2.05772">
        <ele>1951</ele>
        <time>2020-07-21T08:15:11.028Z</time>
      </trkpt>
      <trkpt lat="42.58077" lon="2.05769">
        <ele>1952</ele>
        <time>2020-07-21T08:15:12.028Z</time>
      </trkpt>
      <trkpt lat="42.58076" lon="2.05767">
        <ele>1952</ele>
        <time>2020-07-21T08:15:13.028Z</time>
      </trkpt>
      <trkpt lat="42.58075" lon="2.05764">
        <ele>1952</ele>
        <time>2020-07-21T08:15:14.028Z</time>
      </trkpt>
      <trkpt lat="42.58074" lon="2.05761">
        <ele>1952</ele>
        <time>2020-07-21T08:15:15.028Z</time>
      </trkpt>
      <trkpt lat="42.58073" lon="2.05759">
        <ele>1953</ele>
        <time>2020-07-21T08:15:16.028Z</time>
      </trkpt>
      <trkpt lat="42.58072" lon="2.05756">
        <ele>1953</ele>
        <time>2020-07-21T08:15:17.028Z</time>
      </trkpt>
      <trkpt lat="42.58071" lon="2.05753">
        <ele>1954</ele>
        <time>2020-07-21T08:15:18.028Z</time>
      </trkpt>
      <trkpt lat="42.5807" lon="2.05751">
        <ele>1954</ele>
        <time>2020-07-21T08:15:19.028Z</time>
      </trkpt>
      <trkpt lat="42.58069" lon="2.05748">
        <ele>1954</ele>
        <time>2020-07-21T08:15:20.028Z</time>
      </trkpt>
      <trkpt lat="42.58068" lon="2.05745">
        <ele>1954</ele>
        <time>2020-07-21T08:15:21.028Z</time>
      </trkpt>
      <trkpt lat="42.58067" lon="2.05743">
        <ele>1955</ele>
        <time>2020-07-21T08:15:22.028Z</time>
      </trkpt>
      <trkpt lat="42.58066" lon="2.0574">
        <ele>1955</ele>
        <time>2020-07-21T08:15:23.028Z</time>
      </trkpt>
      <trkpt lat="42.58065" lon="2.05737">
        <ele>1955</ele>
        <time>2020-07-21T08:15:24.028Z</time>
      </trkpt>
      <trkpt lat="42.58064" lon="2.05734">
        <ele>1955</ele>
        <time>2020-07-21T08:15:25.028Z</time>
      </trkpt>
      <trkpt lat="42.58063" lon="2.05731">
        <ele>1957</ele>
        <time>2020-07-21T08:15:26.028Z</time>
      </trkpt>
      <trkpt lat="42.58061" lon="2.05728">
        <ele>1957</ele>
        <time>2020-07-21T08:15:27.028Z</time>
      </trkpt>
      <trkpt lat="42.5806" lon="2.05726">
        <ele>1957</ele>
        <time>2020-07-21T08:15:28.028Z</time>
      </trkpt>
      <trkpt lat="42.58059" lon="2.05723">
        <ele>1957</ele>
        <time>2020-07-21T08:15:29.028Z</time>
      </trkpt>
      <trkpt lat="42.58057" lon="2.0572">
        <ele>1958</ele>
        <time>2020-07-21T08:15:30.028Z</time>
      </trkpt>
      <trkpt lat="42.58056" lon="2.05717">
        <ele>1958</ele>
        <time>2020-07-21T08:15:31.028Z</time>
      </trkpt>
      <trkpt lat="42.58055" lon="2.05715">
        <ele>1958</ele>
        <time>2020-07-21T08:15:32.028Z</time>
      </trkpt>
      <trkpt lat="42.58053" lon="2.05712">
        <ele>1958</ele>
        <time>2020-07-21T08:15:33.028Z</time>
      </trkpt>
      <trkpt lat="42.58052" lon="2.05709">
        <ele>1958</ele>
        <time>2020-07-21T08:15:34.028Z</time>
      </trkpt>
      <trkpt lat="42.5805" lon="2.05707">
        <ele>1958</ele>
        <time>2020-07-21T08:15:35.028Z</time>
      </trkpt>
      <trkpt lat="42.58048" lon="2.05704">
        <ele>1958</ele>
        <time>2020-07-21T08:15:36.028Z</time>
      </trkpt>
      <trkpt lat="42.58047" lon="2.05702">
        <ele>1958</ele>
        <time>2020-07-21T08:15:37.028Z</time>
      </trkpt>
      <trkpt lat="42.58045" lon="2.05699">
        <ele>1958</ele>
        <time>2020-07-21T08:15:38.028Z</time>
      </trkpt>
      <trkpt lat="42.58044" lon="2.05697">
        <ele>1959</ele>
        <time>2020-07-21T08:15:39.028Z</time>
      </trkpt>
      <trkpt lat="42.58042" lon="2.05694">
        <ele>1958</ele>
        <time>2020-07-21T08:15:40.028Z</time>
      </trkpt>
      <trkpt lat="42.58041" lon="2.05692">
        <ele>1959</ele>
        <time>2020-07-21T08:15:41.028Z</time>
      </trkpt>
      <trkpt lat="42.58039" lon="2.0569">
        <ele>1959</ele>
        <time>2020-07-21T08:15:42.028Z</time>
      </trkpt>
      <trkpt lat="42.58037" lon="2.05688">
        <ele>1959</ele>
        <time>2020-07-21T08:15:43.028Z</time>
      </trkpt>
      <trkpt lat="42.58036" lon="2.05686">
        <ele>1959</ele>
        <time>2020-07-21T08:15:44.028Z</time>
      </trkpt>
      <trkpt lat="42.58034" lon="2.05684">
        <ele>1961</ele>
        <time>2020-07-21T08:15:45.028Z</time>
      </trkpt>
      <trkpt lat="42.58032" lon="2.05682">
        <ele>1961</ele>
        <time>2020-07-21T08:15:46.028Z</time>
      </trkpt>
      <trkpt lat="42.5803" lon="2.0568">
        <ele>1960</ele>
        <time>2020-07-21T08:15:47.028Z</time>
      </trkpt>
      <trkpt lat="42.58029" lon="2.05677">
        <ele>1960</ele>
        <time>2020-07-21T08:15:48.028Z</time>
      </trkpt>
      <trkpt lat="42.58028" lon="2.05675">
        <ele>1961</ele>
        <time>2020-07-21T08:15:49.028Z</time>
      </trkpt>
      <trkpt lat="42.58026" lon="2.05673">
        <ele>1962</ele>
        <time>2020-07-21T08:15:50.028Z</time>
      </trkpt>
      <trkpt lat="42.58025" lon="2.05671">
        <ele>1962</ele>
        <time>2020-07-21T08:15:51.028Z</time>
      </trkpt>
      <trkpt lat="42.58023" lon="2.05669">
        <ele>1962</ele>
        <time>2020-07-21T08:15:52.028Z</time>
      </trkpt>
      <trkpt lat="42.58022" lon="2.05667">
        <ele>1963</ele>
        <time>2020-07-21T08:15:53.028Z</time>
      </trkpt>
      <trkpt lat="42.5802" lon="2.05666">
        <ele>1964</ele>
        <time>2020-07-21T08:15:54.028Z</time>
      </trkpt>
      <trkpt lat="42.58019" lon="2.05664">
        <ele>1965</ele>
        <time>2020-07-21T08:15:55.028Z</time>
      </trkpt>
      <trkpt lat="42.58017" lon="2.05662">
        <ele>1965</ele>
        <time>2020-07-21T08:15:56.028Z</time>
      </trkpt>
      <trkpt lat="42.58015" lon="2.0566">
        <ele>1966</ele>
        <time>2020-07-21T08:15:57.028Z</time>
      </trkpt>
      <trkpt lat="42.58013" lon="2.05658">
        <ele>1966</ele>
        <time>2020-07-21T08:15:58.028Z</time>
      </trkpt>
      <trkpt lat="42.58012" lon="2.05656">
        <ele>1966</ele>
        <time>2020-07-21T08:15:59.028Z</time>
      </trkpt>
      <trkpt lat="42.58011" lon="2.05654">
        <ele>1966</ele>
        <time>2020-07-21T08:16:00.028Z</time>
      </trkpt>
      <trkpt lat="42.58009" lon="2.05652">
        <ele>1966</ele>
        <time>2020-07-21T08:16:01.028Z</time>
      </trkpt>
      <trkpt lat="42.58008" lon="2.0565">
        <ele>1968</ele>
        <time>2020-07-21T08:16:02.028Z</time>
      </trkpt>
      <trkpt lat="42.58006" lon="2.05649">
        <ele>1968</ele>
        <time>2020-07-21T08:16:03.028Z</time>
      </trkpt>
      <trkpt lat="42.58004" lon="2.05647">
        <ele>1969</ele>
        <time>2020-07-21T08:16:04.028Z</time>
      </trkpt>
      <trkpt lat="42.58002" lon="2.05646">
        <ele>1970</ele>
        <time>2020-07-21T08:16:05.028Z</time>
      </trkpt>
      <trkpt lat="42.58001" lon="2.05644">
        <ele>1970</ele>
        <time>2020-07-21T08:16:06.028Z</time>
      </trkpt>
      <trkpt lat="42.57999" lon="2.05643">
        <ele>1971</ele>
        <time>2020-07-21T08:16:07.028Z</time>
      </trkpt>
      <trkpt lat="42.57997" lon="2.05641">
        <ele>1972</ele>
        <time>2020-07-21T08:16:08.028Z</time>
      </trkpt>
      <trkpt lat="42.57996" lon="2.0564">
        <ele>1972</ele>
        <time>2020-07-21T08:16:09.028Z</time>
      </trkpt>
      <trkpt lat="42.57994" lon="2.05638">
        <ele>1972</ele>
        <time>2020-07-21T08:16:10.028Z</time>
      </trkpt>
      <trkpt lat="42.57993" lon="2.05636">
        <ele>1973</ele>
        <time>2020-07-21T08:16:11.028Z</time>
      </trkpt>
      <trkpt lat="42.57992" lon="2.05634">
        <ele>1974</ele>
        <time>2020-07-21T08:16:12.028Z</time>
      </trkpt>
      <trkpt lat="42.57991" lon="2.05633">
        <ele>1974</ele>
        <time>2020-07-21T08:16:13.028Z</time>
      </trkpt>
      <trkpt lat="42.5799" lon="2.0563">
        <ele>1975</ele>
        <time>2020-07-21T08:16:14.028Z</time>
      </trkpt>
      <trkpt lat="42.57989" lon="2.05628">
        <ele>1975</ele>
        <time>2020-07-21T08:16:15.028Z</time>
      </trkpt>
      <trkpt lat="42.57988" lon="2.05626">
        <ele>1976</ele>
        <time>2020-07-21T08:16:16.028Z</time>
      </trkpt>
      <trkpt lat="42.57987" lon="2.05623">
        <ele>1977</ele>
        <time>2020-07-21T08:16:17.028Z</time>
      </trkpt>
      <trkpt lat="42.57986" lon="2.05621">
        <ele>1977</ele>
        <time>2020-07-21T08:16:18.028Z</time>
      </trkpt>
      <trkpt lat="42.57985" lon="2.05619">
        <ele>1977</ele>
        <time>2020-07-21T08:16:19.028Z</time>
      </trkpt>
      <trkpt lat="42.57984" lon="2.05617">
        <ele>1977</ele>
        <time>2020-07-21T08:16:20.028Z</time>
      </trkpt>
      <trkpt lat="42.57983" lon="2.05615">
        <ele>1978</ele>
        <time>2020-07-21T08:16:21.028Z</time>
      </trkpt>
      <trkpt lat="42.57982" lon="2.05612">
        <ele>1978</ele>
        <time>2020-07-21T08:16:22.028Z</time>
      </trkpt>
      <trkpt lat="42.57981" lon="2.0561">
        <ele>1978</ele>
        <time>2020-07-21T08:16:23.028Z</time>
      </trkpt>
      <trkpt lat="42.5798" lon="2.05608">
        <ele>1978</ele>
        <time>2020-07-21T08:16:24.028Z</time>
      </trkpt>
      <trkpt lat="42.57979" lon="2.05606">
        <ele>1978</ele>
        <time>2020-07-21T08:16:25.028Z</time>
      </trkpt>
      <trkpt lat="42.57979" lon="2.05604">
        <ele>1980</ele>
        <time>2020-07-21T08:16:26.028Z</time>
      </trkpt>
      <trkpt lat="42.57978" lon="2.05602">
        <ele>1980</ele>
        <time>2020-07-21T08:16:27.028Z</time>
      </trkpt>
      <trkpt lat="42.57976" lon="2.056">
        <ele>1980</ele>
        <time>2020-07-21T08:16:28.028Z</time>
      </trkpt>
      <trkpt lat="42.57975" lon="2.05598">
        <ele>1980</ele>
        <time>2020-07-21T08:16:29.028Z</time>
      </trkpt>
      <trkpt lat="42.57974" lon="2.05596">
        <ele>1980</ele>
        <time>2020-07-21T08:16:30.028Z</time>
      </trkpt>
      <trkpt lat="42.57972" lon="2.05594">
        <ele>1981</ele>
        <time>2020-07-21T08:16:31.028Z</time>
      </trkpt>
      <trkpt lat="42.57971" lon="2.05591">
        <ele>1981</ele>
        <time>2020-07-21T08:16:32.028Z</time>
      </trkpt>
      <trkpt lat="42.5797" lon="2.05589">
        <ele>1982</ele>
        <time>2020-07-21T08:16:33.028Z</time>
      </trkpt>
      <trkpt lat="42.57969" lon="2.05586">
        <ele>1982</ele>
        <time>2020-07-21T08:16:34.028Z</time>
      </trkpt>
      <trkpt lat="42.57968" lon="2.05584">
        <ele>1983</ele>
        <time>2020-07-21T08:16:35.028Z</time>
      </trkpt>
      <trkpt lat="42.57968" lon="2.05582">
        <ele>1983</ele>
        <time>2020-07-21T08:16:36.028Z</time>
      </trkpt>
      <trkpt lat="42.57967" lon="2.05579">
        <ele>1983</ele>
        <time>2020-07-21T08:16:37.028Z</time>
      </trkpt>
      <trkpt lat="42.57966" lon="2.05577">
        <ele>1984</ele>
        <time>2020-07-21T08:16:38.028Z</time>
      </trkpt>
      <trkpt lat="42.57965" lon="2.05574">
        <ele>1984</ele>
        <time>2020-07-21T08:16:39.028Z</time>
      </trkpt>
      <trkpt lat="42.57965" lon="2.05572">
        <ele>1984</ele>
        <time>2020-07-21T08:16:40.028Z</time>
      </trkpt>
      <trkpt lat="42.57964" lon="2.05569">
        <ele>1984</ele>
        <time>2020-07-21T08:16:41.028Z</time>
      </trkpt>
      <trkpt lat="42.57963" lon="2.05567">
        <ele>1984</ele>
        <time>2020-07-21T08:16:42.028Z</time>
      </trkpt>
      <trkpt lat="42.57962" lon="2.05564">
        <ele>1985</ele>
        <time>2020-07-21T08:16:43.028Z</time>
      </trkpt>
      <trkpt lat="42.57962" lon="2.05562">
        <ele>1987</ele>
        <time>2020-07-21T08:16:44.028Z</time>
      </trkpt>
      <trkpt lat="42.57961" lon="2.05561">
        <ele>1987</ele>
        <time>2020-07-21T08:16:45.028Z</time>
      </trkpt>
      <trkpt lat="42.5796" lon="2.05559">
        <ele>1987</ele>
        <time>2020-07-21T08:16:46.028Z</time>
      </trkpt>
      <trkpt lat="42.57959" lon="2.05557">
        <ele>1987</ele>
        <time>2020-07-21T08:16:47.028Z</time>
      </trkpt>
      <trkpt lat="42.57958" lon="2.05555">
        <ele>1988</ele>
        <time>2020-07-21T08:16:48.028Z</time>
      </trkpt>
      <trkpt lat="42.57957" lon="2.05553">
        <ele>1988</ele>
        <time>2020-07-21T08:16:49.028Z</time>
      </trkpt>
      <trkpt lat="42.57956" lon="2.0555">
        <ele>1989</ele>
        <time>2020-07-21T08:16:50.028Z</time>
      </trkpt>
      <trkpt lat="42.57955" lon="2.05548">
        <ele>1990</ele>
        <time>2020-07-21T08:16:51.028Z</time>
      </trkpt>
      <trkpt lat="42.57955" lon="2.05546">
        <ele>1990</ele>
        <time>2020-07-21T08:16:52.028Z</time>
      </trkpt>
      <trkpt lat="42.57954" lon="2.05544">
        <ele>1991</ele>
        <time>2020-07-21T08:16:53.028Z</time>
      </trkpt>
      <trkpt lat="42.57953" lon="2.05542">
        <ele>1991</ele>
        <time>2020-07-21T08:16:54.028Z</time>
      </trkpt>
      <trkpt lat="42.57953" lon="2.05539">
        <ele>1991</ele>
        <time>2020-07-21T08:16:55.028Z</time>
      </trkpt>
      <trkpt lat="42.57953" lon="2.05537">
        <ele>1991</ele>
        <time>2020-07-21T08:16:56.028Z</time>
      </trkpt>
      <trkpt lat="42.57952" lon="2.05534">
        <ele>1991</ele>
        <time>2020-07-21T08:16:57.028Z</time>
      </trkpt>
      <trkpt lat="42.57951" lon="2.05531">
        <ele>1992</ele>
        <time>2020-07-21T08:16:58.028Z</time>
      </trkpt>
      <trkpt lat="42.57951" lon="2.05529">
        <ele>1992</ele>
        <time>2020-07-21T08:16:59.028Z</time>
      </trkpt>
      <trkpt lat="42.5795" lon="2.05527">
        <ele>1992</ele>
        <time>2020-07-21T08:17:00.028Z</time>
      </trkpt>
      <trkpt lat="42.57949" lon="2.05524">
        <ele>1993</ele>
        <time>2020-07-21T08:17:01.028Z</time>
      </trkpt>
      <trkpt lat="42.57948" lon="2.05522">
        <ele>1993</ele>
        <time>2020-07-21T08:17:02.028Z</time>
      </trkpt>
      <trkpt lat="42.57948" lon="2.05519">
        <ele>1993</ele>
        <time>2020-07-21T08:17:03.028Z</time>
      </trkpt>
      <trkpt lat="42.57947" lon="2.05517">
        <ele>1993</ele>
        <time>2020-07-21T08:17:04.028Z</time>
      </trkpt>
      <trkpt lat="42.57946" lon="2.05515">
        <ele>1993</ele>
        <time>2020-07-21T08:17:05.028Z</time>
      </trkpt>
      <trkpt lat="42.57945" lon="2.05512">
        <ele>1994</ele>
        <time>2020-07-21T08:17:06.028Z</time>
      </trkpt>
      <trkpt lat="42.57944" lon="2.0551">
        <ele>1994</ele>
        <time>2020-07-21T08:17:07.028Z</time>
      </trkpt>
      <trkpt lat="42.57943" lon="2.05508">
        <ele>1994</ele>
        <time>2020-07-21T08:17:08.028Z</time>
      </trkpt>
      <trkpt lat="42.57942" lon="2.05506">
        <ele>1994</ele>
        <time>2020-07-21T08:17:09.028Z</time>
      </trkpt>
      <trkpt lat="42.57942" lon="2.05504">
        <ele>1995</ele>
        <time>2020-07-21T08:17:10.028Z</time>
      </trkpt>
      <trkpt lat="42.57941" lon="2.05502">
        <ele>1995</ele>
        <time>2020-07-21T08:17:11.028Z</time>
      </trkpt>
      <trkpt lat="42.5794" lon="2.055">
        <ele>1995</ele>
        <time>2020-07-21T08:17:12.028Z</time>
      </trkpt>
      <trkpt lat="42.5794" lon="2.05498">
        <ele>1995</ele>
        <time>2020-07-21T08:17:13.028Z</time>
      </trkpt>
      <trkpt lat="42.57939" lon="2.05496">
        <ele>1996</ele>
        <time>2020-07-21T08:17:14.028Z</time>
      </trkpt>
      <trkpt lat="42.57938" lon="2.05494">
        <ele>1996</ele>
        <time>2020-07-21T08:17:15.028Z</time>
      </trkpt>
      <trkpt lat="42.57937" lon="2.05493">
        <ele>1997</ele>
        <time>2020-07-21T08:17:16.028Z</time>
      </trkpt>
      <trkpt lat="42.57936" lon="2.05491">
        <ele>1997</ele>
        <time>2020-07-21T08:17:17.028Z</time>
      </trkpt>
      <trkpt lat="42.57936" lon="2.0549">
        <ele>1997</ele>
        <time>2020-07-21T08:17:18.028Z</time>
      </trkpt>
      <trkpt lat="42.57936" lon="2.05488">
        <ele>1997</ele>
        <time>2020-07-21T08:17:19.028Z</time>
      </trkpt>
      <trkpt lat="42.57935" lon="2.05487">
        <ele>1997</ele>
        <time>2020-07-21T08:17:20.028Z</time>
      </trkpt>
      <trkpt lat="42.57935" lon="2.05485">
        <ele>1997</ele>
        <time>2020-07-21T08:17:21.028Z</time>
      </trkpt>
      <trkpt lat="42.57935" lon="2.05484">
        <ele>1998</ele>
        <time>2020-07-21T08:17:22.028Z</time>
      </trkpt>
      <trkpt lat="42.57934" lon="2.05482">
        <ele>1999</ele>
        <time>2020-07-21T08:17:23.028Z</time>
      </trkpt>
      <trkpt lat="42.57934" lon="2.05481">
        <ele>1999</ele>
        <time>2020-07-21T08:17:24.028Z</time>
      </trkpt>
      <trkpt lat="42.57933" lon="2.0548">
        <ele>1999</ele>
        <time>2020-07-21T08:17:25.028Z</time>
      </trkpt>
      <trkpt lat="42.57933" lon="2.05479">
        <ele>2000</ele>
        <time>2020-07-21T08:17:26.028Z</time>
      </trkpt>
      <trkpt lat="42.57933" lon="2.05477">
        <ele>2000</ele>
        <time>2020-07-21T08:17:27.028Z</time>
      </trkpt>
      <trkpt lat="42.57933" lon="2.05476">
        <ele>2000</ele>
        <time>2020-07-21T08:17:28.028Z</time>
      </trkpt>
      <trkpt lat="42.57932" lon="2.05475">
        <ele>2000</ele>
        <time>2020-07-21T08:17:29.028Z</time>
      </trkpt>
      <trkpt lat="42.57932" lon="2.05474">
        <ele>2001</ele>
        <time>2020-07-21T08:17:30.028Z</time>
      </trkpt>
      <trkpt lat="42.57932" lon="2.05473">
        <ele>2001</ele>
        <time>2020-07-21T08:17:31.028Z</time>
      </trkpt>
      <trkpt lat="42.57932" lon="2.05472">
        <ele>2001</ele>
        <time>2020-07-21T08:17:32.028Z</time>
      </trkpt>
      <trkpt lat="42.57931" lon="2.0547">
        <ele>2001</ele>
        <time>2020-07-21T08:17:33.028Z</time>
      </trkpt>
      <trkpt lat="42.57931" lon="2.05469">
        <ele>2002</ele>
        <time>2020-07-21T08:17:34.028Z</time>
      </trkpt>
      <trkpt lat="42.5793" lon="2.05468">
        <ele>2001</ele>
        <time>2020-07-21T08:17:35.028Z</time>
      </trkpt>
      <trkpt lat="42.5793" lon="2.05467">
        <ele>2002</ele>
        <time>2020-07-21T08:17:36.028Z</time>
      </trkpt>
      <trkpt lat="42.57929" lon="2.05466">
        <ele>2002</ele>
        <time>2020-07-21T08:17:37.028Z</time>
      </trkpt>
      <trkpt lat="42.57929" lon="2.05464">
        <ele>2002</ele>
        <time>2020-07-21T08:17:38.028Z</time>
      </trkpt>
      <trkpt lat="42.57928" lon="2.05463">
        <ele>2002</ele>
        <time>2020-07-21T08:17:39.028Z</time>
      </trkpt>
      <trkpt lat="42.57928" lon="2.05461">
        <ele>2002</ele>
        <time>2020-07-21T08:17:40.028Z</time>
      </trkpt>
      <trkpt lat="42.57928" lon="2.0546">
        <ele>2002</ele>
        <time>2020-07-21T08:17:41.028Z</time>
      </trkpt>
      <trkpt lat="42.57928" lon="2.0546">
        <ele>2003</ele>
        <time>2020-07-21T08:17:42.028Z</time>
      </trkpt>
      <trkpt lat="42.57928" lon="2.05459">
        <ele>2004</ele>
        <time>2020-07-21T08:17:43.028Z</time>
      </trkpt>
      <trkpt lat="42.57928" lon="2.05457">
        <ele>2004</ele>
        <time>2020-07-21T08:17:44.028Z</time>
      </trkpt>
      <trkpt lat="42.57928" lon="2.05456">
        <ele>2006</ele>
        <time>2020-07-21T08:17:45.028Z</time>
      </trkpt>
      <trkpt lat="42.57928" lon="2.05454">
        <ele>2007</ele>
        <time>2020-07-21T08:17:46.028Z</time>
      </trkpt>
      <trkpt lat="42.57929" lon="2.05453">
        <ele>2007</ele>
        <time>2020-07-21T08:17:47.028Z</time>
      </trkpt>
      <trkpt lat="42.57929" lon="2.05452">
        <ele>2006</ele>
        <time>2020-07-21T08:17:48.028Z</time>
      </trkpt>
      <trkpt lat="42.57928" lon="2.05451">
        <ele>2007</ele>
        <time>2020-07-21T08:17:49.028Z</time>
      </trkpt>
      <trkpt lat="42.57928" lon="2.0545">
        <ele>2006</ele>
        <time>2020-07-21T08:17:50.028Z</time>
      </trkpt>
      <trkpt lat="42.57928" lon="2.05448">
        <ele>2006</ele>
        <time>2020-07-21T08:17:51.028Z</time>
      </trkpt>
      <trkpt lat="42.57927" lon="2.05447">
        <ele>2006</ele>
        <time>2020-07-21T08:17:52.028Z</time>
      </trkpt>
      <trkpt lat="42.57926" lon="2.05446">
        <ele>2006</ele>
        <time>2020-07-21T08:17:53.028Z</time>
      </trkpt>
      <trkpt lat="42.57926" lon="2.05444">
        <ele>2006</ele>
        <time>2020-07-21T08:17:54.028Z</time>
      </trkpt>
      <trkpt lat="42.57926" lon="2.05443">
        <ele>2007</ele>
        <time>2020-07-21T08:17:55.028Z</time>
      </trkpt>
      <trkpt lat="42.57925" lon="2.05442">
        <ele>2007</ele>
        <time>2020-07-21T08:17:56.028Z</time>
      </trkpt>
      <trkpt lat="42.57925" lon="2.05441">
        <ele>2007</ele>
        <time>2020-07-21T08:17:57.028Z</time>
      </trkpt>
      <trkpt lat="42.57924" lon="2.0544">
        <ele>2007</ele>
        <time>2020-07-21T08:17:58.028Z</time>
      </trkpt>
      <trkpt lat="42.57924" lon="2.05438">
        <ele>2008</ele>
        <time>2020-07-21T08:17:59.028Z</time>
      </trkpt>
      <trkpt lat="42.57923" lon="2.05437">
        <ele>2008</ele>
        <time>2020-07-21T08:18:00.028Z</time>
      </trkpt>
      <trkpt lat="42.57923" lon="2.05435">
        <ele>2008</ele>
        <time>2020-07-21T08:18:01.028Z</time>
      </trkpt>
      <trkpt lat="42.57922" lon="2.05434">
        <ele>2009</ele>
        <time>2020-07-21T08:18:02.028Z</time>
      </trkpt>
      <trkpt lat="42.57922" lon="2.05433">
        <ele>2009</ele>
        <time>2020-07-21T08:18:03.028Z</time>
      </trkpt>
      <trkpt lat="42.57921" lon="2.05432">
        <ele>2008</ele>
        <time>2020-07-21T08:18:04.028Z</time>
      </trkpt>
      <trkpt lat="42.57921" lon="2.05431">
        <ele>2009</ele>
        <time>2020-07-21T08:18:05.028Z</time>
      </trkpt>
      <trkpt lat="42.5792" lon="2.05429">
        <ele>2009</ele>
        <time>2020-07-21T08:18:06.028Z</time>
      </trkpt>
      <trkpt lat="42.5792" lon="2.05428">
        <ele>2009</ele>
        <time>2020-07-21T08:18:07.028Z</time>
      </trkpt>
      <trkpt lat="42.57919" lon="2.05426">
        <ele>2009</ele>
        <time>2020-07-21T08:18:08.028Z</time>
      </trkpt>
      <trkpt lat="42.57918" lon="2.05425">
        <ele>2009</ele>
        <time>2020-07-21T08:18:09.028Z</time>
      </trkpt>
      <trkpt lat="42.57918" lon="2.05424">
        <ele>2009</ele>
        <time>2020-07-21T08:18:10.028Z</time>
      </trkpt>
      <trkpt lat="42.57918" lon="2.05422">
        <ele>2011</ele>
        <time>2020-07-21T08:18:11.028Z</time>
      </trkpt>
      <trkpt lat="42.57917" lon="2.0542">
        <ele>2011</ele>
        <time>2020-07-21T08:18:12.028Z</time>
      </trkpt>
      <trkpt lat="42.57917" lon="2.05419">
        <ele>2011</ele>
        <time>2020-07-21T08:18:13.028Z</time>
      </trkpt>
      <trkpt lat="42.57916" lon="2.05417">
        <ele>2012</ele>
        <time>2020-07-21T08:18:14.028Z</time>
      </trkpt>
      <trkpt lat="42.57916" lon="2.05416">
        <ele>2012</ele>
        <time>2020-07-21T08:18:15.028Z</time>
      </trkpt>
      <trkpt lat="42.57916" lon="2.05415">
        <ele>2012</ele>
        <time>2020-07-21T08:18:16.028Z</time>
      </trkpt>
      <trkpt lat="42.57915" lon="2.05413">
        <ele>2013</ele>
        <time>2020-07-21T08:18:17.028Z</time>
      </trkpt>
      <trkpt lat="42.57915" lon="2.05412">
        <ele>2012</ele>
        <time>2020-07-21T08:18:18.028Z</time>
      </trkpt>
      <trkpt lat="42.57915" lon="2.0541">
        <ele>2012</ele>
        <time>2020-07-21T08:18:19.028Z</time>
      </trkpt>
      <trkpt lat="42.57916" lon="2.05408">
        <ele>2012</ele>
        <time>2020-07-21T08:18:20.028Z</time>
      </trkpt>
      <trkpt lat="42.57916" lon="2.05406">
        <ele>2012</ele>
        <time>2020-07-21T08:18:21.028Z</time>
      </trkpt>
      <trkpt lat="42.57916" lon="2.05404">
        <ele>2013</ele>
        <time>2020-07-21T08:18:22.028Z</time>
      </trkpt>
      <trkpt lat="42.57916" lon="2.05403">
        <ele>2013</ele>
        <time>2020-07-21T08:18:23.028Z</time>
      </trkpt>
      <trkpt lat="42.57916" lon="2.05401">
        <ele>2013</ele>
        <time>2020-07-21T08:18:24.028Z</time>
      </trkpt>
      <trkpt lat="42.57916" lon="2.05399">
        <ele>2014</ele>
        <time>2020-07-21T08:18:25.028Z</time>
      </trkpt>
      <trkpt lat="42.57916" lon="2.05396">
        <ele>2015</ele>
        <time>2020-07-21T08:18:26.028Z</time>
      </trkpt>
      <trkpt lat="42.57915" lon="2.05393">
        <ele>2015</ele>
        <time>2020-07-21T08:18:27.028Z</time>
      </trkpt>
      <trkpt lat="42.57915" lon="2.0539">
        <ele>2016</ele>
        <time>2020-07-21T08:18:28.028Z</time>
      </trkpt>
      <trkpt lat="42.57915" lon="2.05388">
        <ele>2016</ele>
        <time>2020-07-21T08:18:29.028Z</time>
      </trkpt>
      <trkpt lat="42.57915" lon="2.05385">
        <ele>2016</ele>
        <time>2020-07-21T08:18:30.028Z</time>
      </trkpt>
      <trkpt lat="42.57914" lon="2.05382">
        <ele>2017</ele>
        <time>2020-07-21T08:18:31.028Z</time>
      </trkpt>
      <trkpt lat="42.57915" lon="2.0538">
        <ele>2018</ele>
        <time>2020-07-21T08:18:32.028Z</time>
      </trkpt>
      <trkpt lat="42.57915" lon="2.05377">
        <ele>2019</ele>
        <time>2020-07-21T08:18:33.028Z</time>
      </trkpt>
      <trkpt lat="42.57915" lon="2.05374">
        <ele>2019</ele>
        <time>2020-07-21T08:18:34.028Z</time>
      </trkpt>
      <trkpt lat="42.57915" lon="2.05371">
        <ele>2019</ele>
        <time>2020-07-21T08:18:35.028Z</time>
      </trkpt>
      <trkpt lat="42.57915" lon="2.05368">
        <ele>2020</ele>
        <time>2020-07-21T08:18:36.028Z</time>
      </trkpt>
      <trkpt lat="42.57916" lon="2.05366">
        <ele>2020</ele>
        <time>2020-07-21T08:18:37.028Z</time>
      </trkpt>
      <trkpt lat="42.57916" lon="2.05363">
        <ele>2020</ele>
        <time>2020-07-21T08:18:38.028Z</time>
      </trkpt>
      <trkpt lat="42.57916" lon="2.05361">
        <ele>2020</ele>
        <time>2020-07-21T08:18:39.028Z</time>
      </trkpt>
      <trkpt lat="42.57916" lon="2.05358">
        <ele>2020</ele>
        <time>2020-07-21T08:18:40.028Z</time>
      </trkpt>
      <trkpt lat="42.57916" lon="2.05357">
        <ele>2020</ele>
        <time>2020-07-21T08:18:41.028Z</time>
      </trkpt>
      <trkpt lat="42.57916" lon="2.05356">
        <ele>2021</ele>
        <time>2020-07-21T08:18:42.028Z</time>
      </trkpt>
      <trkpt lat="42.57915" lon="2.05355">
        <ele>2022</ele>
        <time>2020-07-21T08:18:43.028Z</time>
      </trkpt>
      <trkpt lat="42.57914" lon="2.05354">
        <ele>2022</ele>
        <time>2020-07-21T08:18:44.028Z</time>
      </trkpt>
      <trkpt lat="42.57913" lon="2.05353">
        <ele>2023</ele>
        <time>2020-07-21T08:18:45.028Z</time>
      </trkpt>
      <trkpt lat="42.57913" lon="2.05352">
        <ele>2023</ele>
        <time>2020-07-21T08:18:46.028Z</time>
      </trkpt>
      <trkpt lat="42.57912" lon="2.05351">
        <ele>2022</ele>
        <time>2020-07-21T08:18:47.028Z</time>
      </trkpt>
      <trkpt lat="42.57903" lon="2.05362">
        <ele>2022</ele>
        <time>2020-07-21T08:18:48.032Z</time>
      </trkpt>
      <trkpt lat="42.57904" lon="2.05361">
        <ele>2022</ele>
        <time>2020-07-21T08:18:49.032Z</time>
      </trkpt>
      <trkpt lat="42.57905" lon="2.0536">
        <ele>2022</ele>
        <time>2020-07-21T08:18:50.032Z</time>
      </trkpt>
      <trkpt lat="42.57906" lon="2.05357">
        <ele>2022</ele>
        <time>2020-07-21T08:18:51.032Z</time>
      </trkpt>
      <trkpt lat="42.57906" lon="2.05355">
        <ele>2023</ele>
        <time>2020-07-21T08:18:52.032Z</time>
      </trkpt>
      <trkpt lat="42.57907" lon="2.05352">
        <ele>2023</ele>
        <time>2020-07-21T08:18:53.032Z</time>
      </trkpt>
      <trkpt lat="42.57907" lon="2.05348">
        <ele>2023</ele>
        <time>2020-07-21T08:18:54.032Z</time>
      </trkpt>
      <trkpt lat="42.57906" lon="2.05345">
        <ele>2023</ele>
        <time>2020-07-21T08:18:55.032Z</time>
      </trkpt>
      <trkpt lat="42.57906" lon="2.05341">
        <ele>2023</ele>
        <time>2020-07-21T08:18:56.032Z</time>
      </trkpt>
      <trkpt lat="42.57905" lon="2.05338">
        <ele>2024</ele>
        <time>2020-07-21T08:18:57.032Z</time>
      </trkpt>
      <trkpt lat="42.57904" lon="2.05334">
        <ele>2024</ele>
        <time>2020-07-21T08:18:58.032Z</time>
      </trkpt>
      <trkpt lat="42.57902" lon="2.05331">
        <ele>2024</ele>
        <time>2020-07-21T08:18:59.032Z</time>
      </trkpt>
      <trkpt lat="42.57901" lon="2.05328">
        <ele>2025</ele>
        <time>2020-07-21T08:19:00.032Z</time>
      </trkpt>
      <trkpt lat="42.579" lon="2.05325">
        <ele>2025</ele>
        <time>2020-07-21T08:19:01.032Z</time>
      </trkpt>
      <trkpt lat="42.579" lon="2.05322">
        <ele>2026</ele>
        <time>2020-07-21T08:19:02.032Z</time>
      </trkpt>
      <trkpt lat="42.57899" lon="2.05319">
        <ele>2026</ele>
        <time>2020-07-21T08:19:03.032Z</time>
      </trkpt>
      <trkpt lat="42.57898" lon="2.05316">
        <ele>2026</ele>
        <time>2020-07-21T08:19:04.032Z</time>
      </trkpt>
      <trkpt lat="42.57898" lon="2.05313">
        <ele>2027</ele>
        <time>2020-07-21T08:19:05.032Z</time>
      </trkpt>
      <trkpt lat="42.57897" lon="2.05311">
        <ele>2027</ele>
        <time>2020-07-21T08:19:06.032Z</time>
      </trkpt>
      <trkpt lat="42.57896" lon="2.05308">
        <ele>2027</ele>
        <time>2020-07-21T08:19:07.032Z</time>
      </trkpt>
      <trkpt lat="42.57896" lon="2.05306">
        <ele>2028</ele>
        <time>2020-07-21T08:19:08.032Z</time>
      </trkpt>
      <trkpt lat="42.57895" lon="2.05303">
        <ele>2028</ele>
        <time>2020-07-21T08:19:09.032Z</time>
      </trkpt>
      <trkpt lat="42.57894" lon="2.05301">
        <ele>2030</ele>
        <time>2020-07-21T08:19:10.032Z</time>
      </trkpt>
      <trkpt lat="42.57894" lon="2.05299">
        <ele>2031</ele>
        <time>2020-07-21T08:19:11.032Z</time>
      </trkpt>
      <trkpt lat="42.57893" lon="2.05297">
        <ele>2032</ele>
        <time>2020-07-21T08:19:12.032Z</time>
      </trkpt>
      <trkpt lat="42.57893" lon="2.05295">
        <ele>2033</ele>
        <time>2020-07-21T08:19:13.032Z</time>
      </trkpt>
      <trkpt lat="42.57893" lon="2.05293">
        <ele>2033</ele>
        <time>2020-07-21T08:19:14.032Z</time>
      </trkpt>
      <trkpt lat="42.57892" lon="2.05291">
        <ele>2033</ele>
        <time>2020-07-21T08:19:15.032Z</time>
      </trkpt>
      <trkpt lat="42.57892" lon="2.05289">
        <ele>2034</ele>
        <time>2020-07-21T08:19:16.032Z</time>
      </trkpt>
      <trkpt lat="42.57892" lon="2.05286">
        <ele>2034</ele>
        <time>2020-07-21T08:19:17.032Z</time>
      </trkpt>
      <trkpt lat="42.57892" lon="2.05284">
        <ele>2034</ele>
        <time>2020-07-21T08:19:18.032Z</time>
      </trkpt>
      <trkpt lat="42.57892" lon="2.05281">
        <ele>2034</ele>
        <time>2020-07-21T08:19:19.032Z</time>
      </trkpt>
      <trkpt lat="42.57892" lon="2.05279">
        <ele>2034</ele>
        <time>2020-07-21T08:19:20.032Z</time>
      </trkpt>
      <trkpt lat="42.57892" lon="2.05276">
        <ele>2035</ele>
        <time>2020-07-21T08:19:21.032Z</time>
      </trkpt>
      <trkpt lat="42.57892" lon="2.05273">
        <ele>2035</ele>
        <time>2020-07-21T08:19:22.032Z</time>
      </trkpt>
      <trkpt lat="42.57892" lon="2.05271">
        <ele>2036</ele>
        <time>2020-07-21T08:19:23.032Z</time>
      </trkpt>
      <trkpt lat="42.57893" lon="2.05268">
        <ele>2036</ele>
        <time>2020-07-21T08:19:24.032Z</time>
      </trkpt>
      <trkpt lat="42.57893" lon="2.05266">
        <ele>2037</ele>
        <time>2020-07-21T08:19:25.032Z</time>
      </trkpt>
      <trkpt lat="42.57894" lon="2.05263">
        <ele>2037</ele>
        <time>2020-07-21T08:19:26.032Z</time>
      </trkpt>
      <trkpt lat="42.57895" lon="2.05261">
        <ele>2038</ele>
        <time>2020-07-21T08:19:27.032Z</time>
      </trkpt>
      <trkpt lat="42.57895" lon="2.05259">
        <ele>2039</ele>
        <time>2020-07-21T08:19:28.032Z</time>
      </trkpt>
      <trkpt lat="42.57896" lon="2.05257">
        <ele>2039</ele>
        <time>2020-07-21T08:19:29.032Z</time>
      </trkpt>
      <trkpt lat="42.57897" lon="2.05256">
        <ele>2040</ele>
        <time>2020-07-21T08:19:30.032Z</time>
      </trkpt>
      <trkpt lat="42.57897" lon="2.05254">
        <ele>2041</ele>
        <time>2020-07-21T08:19:31.032Z</time>
      </trkpt>
      <trkpt lat="42.57898" lon="2.05253">
        <ele>2041</ele>
        <time>2020-07-21T08:19:32.032Z</time>
      </trkpt>
      <trkpt lat="42.57899" lon="2.05251">
        <ele>2041</ele>
        <time>2020-07-21T08:19:33.032Z</time>
      </trkpt>
      <trkpt lat="42.57899" lon="2.0525">
        <ele>2040</ele>
        <time>2020-07-21T08:19:34.032Z</time>
      </trkpt>
      <trkpt lat="42.579" lon="2.05249">
        <ele>2041</ele>
        <time>2020-07-21T08:19:35.032Z</time>
      </trkpt>
      <trkpt lat="42.579" lon="2.05247">
        <ele>2041</ele>
        <time>2020-07-21T08:19:36.032Z</time>
      </trkpt>
      <trkpt lat="42.579" lon="2.05246">
        <ele>2041</ele>
        <time>2020-07-21T08:19:37.032Z</time>
      </trkpt>
      <trkpt lat="42.579" lon="2.05245">
        <ele>2042</ele>
        <time>2020-07-21T08:19:38.032Z</time>
      </trkpt>
      <trkpt lat="42.579" lon="2.05244">
        <ele>2043</ele>
        <time>2020-07-21T08:19:39.032Z</time>
      </trkpt>
      <trkpt lat="42.579" lon="2.05243">
        <ele>2042</ele>
        <time>2020-07-21T08:19:40.032Z</time>
      </trkpt>
      <trkpt lat="42.579" lon="2.05241">
        <ele>2043</ele>
        <time>2020-07-21T08:19:41.032Z</time>
      </trkpt>
      <trkpt lat="42.579" lon="2.0524">
        <ele>2043</ele>
        <time>2020-07-21T08:19:42.032Z</time>
      </trkpt>
      <trkpt lat="42.57901" lon="2.05238">
        <ele>2043</ele>
        <time>2020-07-21T08:19:43.032Z</time>
      </trkpt>
      <trkpt lat="42.57901" lon="2.05237">
        <ele>2044</ele>
        <time>2020-07-21T08:19:44.032Z</time>
      </trkpt>
      <trkpt lat="42.57901" lon="2.05236">
        <ele>2044</ele>
        <time>2020-07-21T08:19:45.032Z</time>
      </trkpt>
      <trkpt lat="42.57901" lon="2.05234">
        <ele>2044</ele>
        <time>2020-07-21T08:19:46.032Z</time>
      </trkpt>
      <trkpt lat="42.57902" lon="2.05234">
        <ele>2045</ele>
        <time>2020-07-21T08:19:47.032Z</time>
      </trkpt>
      <trkpt lat="42.57902" lon="2.05233">
        <ele>2045</ele>
        <time>2020-07-21T08:19:48.032Z</time>
      </trkpt>
      <trkpt lat="42.57902" lon="2.05231">
        <ele>2045</ele>
        <time>2020-07-21T08:19:49.032Z</time>
      </trkpt>
      <trkpt lat="42.57901" lon="2.0523">
        <ele>2045</ele>
        <time>2020-07-21T08:19:50.032Z</time>
      </trkpt>
      <trkpt lat="42.57901" lon="2.05228">
        <ele>2045</ele>
        <time>2020-07-21T08:19:51.032Z</time>
      </trkpt>
      <trkpt lat="42.57901" lon="2.05227">
        <ele>2045</ele>
        <time>2020-07-21T08:19:52.032Z</time>
      </trkpt>
      <trkpt lat="42.57901" lon="2.05226">
        <ele>2045</ele>
        <time>2020-07-21T08:19:53.032Z</time>
      </trkpt>
      <trkpt lat="42.57901" lon="2.05225">
        <ele>2046</ele>
        <time>2020-07-21T08:19:54.032Z</time>
      </trkpt>
      <trkpt lat="42.579" lon="2.05224">
        <ele>2046</ele>
        <time>2020-07-21T08:19:55.032Z</time>
      </trkpt>
      <trkpt lat="42.579" lon="2.05223">
        <ele>2046</ele>
        <time>2020-07-21T08:19:56.032Z</time>
      </trkpt>
      <trkpt lat="42.579" lon="2.05221">
        <ele>2047</ele>
        <time>2020-07-21T08:19:57.032Z</time>
      </trkpt>
      <trkpt lat="42.579" lon="2.0522">
        <ele>2046</ele>
        <time>2020-07-21T08:19:58.032Z</time>
      </trkpt>
      <trkpt lat="42.57901" lon="2.05218">
        <ele>2047</ele>
        <time>2020-07-21T08:19:59.032Z</time>
      </trkpt>
      <trkpt lat="42.57901" lon="2.05217">
        <ele>2047</ele>
        <time>2020-07-21T08:20:00.032Z</time>
      </trkpt>
      <trkpt lat="42.57901" lon="2.05215">
        <ele>2048</ele>
        <time>2020-07-21T08:20:01.032Z</time>
      </trkpt>
      <trkpt lat="42.57901" lon="2.05214">
        <ele>2048</ele>
        <time>2020-07-21T08:20:02.032Z</time>
      </trkpt>
      <trkpt lat="42.57901" lon="2.05213">
        <ele>2048</ele>
        <time>2020-07-21T08:20:03.032Z</time>
      </trkpt>
      <trkpt lat="42.57902" lon="2.05211">
        <ele>2048</ele>
        <time>2020-07-21T08:20:04.032Z</time>
      </trkpt>
      <trkpt lat="42.57902" lon="2.0521">
        <ele>2048</ele>
        <time>2020-07-21T08:20:05.032Z</time>
      </trkpt>
      <trkpt lat="42.57903" lon="2.05209">
        <ele>2048</ele>
        <time>2020-07-21T08:20:06.032Z</time>
      </trkpt>
      <trkpt lat="42.57903" lon="2.05207">
        <ele>2049</ele>
        <time>2020-07-21T08:20:07.032Z</time>
      </trkpt>
      <trkpt lat="42.57904" lon="2.05206">
        <ele>2048</ele>
        <time>2020-07-21T08:20:08.032Z</time>
      </trkpt>
      <trkpt lat="42.57904" lon="2.05205">
        <ele>2048</ele>
        <time>2020-07-21T08:20:09.032Z</time>
      </trkpt>
      <trkpt lat="42.57904" lon="2.05203">
        <ele>2049</ele>
        <time>2020-07-21T08:20:10.032Z</time>
      </trkpt>
      <trkpt lat="42.57905" lon="2.05201">
        <ele>2049</ele>
        <time>2020-07-21T08:20:11.032Z</time>
      </trkpt>
      <trkpt lat="42.57905" lon="2.05199">
        <ele>2050</ele>
        <time>2020-07-21T08:20:12.032Z</time>
      </trkpt>
      <trkpt lat="42.57906" lon="2.05196">
        <ele>2050</ele>
        <time>2020-07-21T08:20:13.032Z</time>
      </trkpt>
      <trkpt lat="42.57906" lon="2.05194">
        <ele>2050</ele>
        <time>2020-07-21T08:20:14.032Z</time>
      </trkpt>
      <trkpt lat="42.57906" lon="2.05191">
        <ele>2051</ele>
        <time>2020-07-21T08:20:15.032Z</time>
      </trkpt>
      <trkpt lat="42.57906" lon="2.05189">
        <ele>2051</ele>
        <time>2020-07-21T08:20:16.032Z</time>
      </trkpt>
      <trkpt lat="42.57906" lon="2.05187">
        <ele>2052</ele>
        <time>2020-07-21T08:20:17.032Z</time>
      </trkpt>
      <trkpt lat="42.57907" lon="2.05185">
        <ele>2053</ele>
        <time>2020-07-21T08:20:18.032Z</time>
      </trkpt>
      <trkpt lat="42.57907" lon="2.05183">
        <ele>2053</ele>
        <time>2020-07-21T08:20:19.032Z</time>
      </trkpt>
      <trkpt lat="42.57907" lon="2.0518">
        <ele>2054</ele>
        <time>2020-07-21T08:20:20.032Z</time>
      </trkpt>
      <trkpt lat="42.57907" lon="2.05178">
        <ele>2054</ele>
        <time>2020-07-21T08:20:21.032Z</time>
      </trkpt>
      <trkpt lat="42.57907" lon="2.05175">
        <ele>2054</ele>
        <time>2020-07-21T08:20:22.032Z</time>
      </trkpt>
      <trkpt lat="42.57908" lon="2.05173">
        <ele>2055</ele>
        <time>2020-07-21T08:20:23.032Z</time>
      </trkpt>
      <trkpt lat="42.57908" lon="2.0517">
        <ele>2055</ele>
        <time>2020-07-21T08:20:24.032Z</time>
      </trkpt>
      <trkpt lat="42.57908" lon="2.05168">
        <ele>2055</ele>
        <time>2020-07-21T08:20:25.032Z</time>
      </trkpt>
      <trkpt lat="42.57908" lon="2.05165">
        <ele>2056</ele>
        <time>2020-07-21T08:20:26.032Z</time>
      </trkpt>
      <trkpt lat="42.57908" lon="2.05163">
        <ele>2056</ele>
        <time>2020-07-21T08:20:27.032Z</time>
      </trkpt>
      <trkpt lat="42.57908" lon="2.05161">
        <ele>2057</ele>
        <time>2020-07-21T08:20:28.032Z</time>
      </trkpt>
      <trkpt lat="42.57907" lon="2.05158">
        <ele>2057</ele>
        <time>2020-07-21T08:20:29.032Z</time>
      </trkpt>
      <trkpt lat="42.57907" lon="2.05155">
        <ele>2058</ele>
        <time>2020-07-21T08:20:30.032Z</time>
      </trkpt>
      <trkpt lat="42.57907" lon="2.05153">
        <ele>2058</ele>
        <time>2020-07-21T08:20:31.032Z</time>
      </trkpt>
      <trkpt lat="42.57907" lon="2.05151">
        <ele>2058</ele>
        <time>2020-07-21T08:20:32.032Z</time>
      </trkpt>
      <trkpt lat="42.57907" lon="2.05148">
        <ele>2059</ele>
        <time>2020-07-21T08:20:33.032Z</time>
      </trkpt>
      <trkpt lat="42.57907" lon="2.05145">
        <ele>2058</ele>
        <time>2020-07-21T08:20:34.032Z</time>
      </trkpt>
      <trkpt lat="42.57908" lon="2.05142">
        <ele>2058</ele>
        <time>2020-07-21T08:20:35.032Z</time>
      </trkpt>
      <trkpt lat="42.57909" lon="2.0514">
        <ele>2058</ele>
        <time>2020-07-21T08:20:36.032Z</time>
      </trkpt>
      <trkpt lat="42.57909" lon="2.05137">
        <ele>2058</ele>
        <time>2020-07-21T08:20:37.032Z</time>
      </trkpt>
      <trkpt lat="42.5791" lon="2.05134">
        <ele>2058</ele>
        <time>2020-07-21T08:20:38.032Z</time>
      </trkpt>
      <trkpt lat="42.57911" lon="2.05132">
        <ele>2059</ele>
        <time>2020-07-21T08:20:39.032Z</time>
      </trkpt>
      <trkpt lat="42.57911" lon="2.0513">
        <ele>2059</ele>
        <time>2020-07-21T08:20:40.032Z</time>
      </trkpt>
      <trkpt lat="42.57911" lon="2.05129">
        <ele>2060</ele>
        <time>2020-07-21T08:20:41.032Z</time>
      </trkpt>
      <trkpt lat="42.57912" lon="2.05128">
        <ele>2060</ele>
        <time>2020-07-21T08:20:42.032Z</time>
      </trkpt>
      <trkpt lat="42.57912" lon="2.05126">
        <ele>2061</ele>
        <time>2020-07-21T08:20:43.032Z</time>
      </trkpt>
      <trkpt lat="42.57913" lon="2.05124">
        <ele>2061</ele>
        <time>2020-07-21T08:20:44.032Z</time>
      </trkpt>
      <trkpt lat="42.57914" lon="2.05122">
        <ele>2061</ele>
        <time>2020-07-21T08:20:45.032Z</time>
      </trkpt>
      <trkpt lat="42.57916" lon="2.05117">
        <ele>2062</ele>
        <time>2020-07-21T08:20:46.052Z</time>
      </trkpt>
      <trkpt lat="42.57916" lon="2.05116">
        <ele>2062</ele>
        <time>2020-07-21T08:20:47.052Z</time>
      </trkpt>
      <trkpt lat="42.57916" lon="2.05115">
        <ele>2061</ele>
        <time>2020-07-21T08:20:48.052Z</time>
      </trkpt>
      <trkpt lat="42.57916" lon="2.05114">
        <ele>2062</ele>
        <time>2020-07-21T08:20:49.052Z</time>
      </trkpt>
      <trkpt lat="42.57916" lon="2.05112">
        <ele>2062</ele>
        <time>2020-07-21T08:20:50.052Z</time>
      </trkpt>
      <trkpt lat="42.57916" lon="2.05109">
        <ele>2062</ele>
        <time>2020-07-21T08:20:51.052Z</time>
      </trkpt>
      <trkpt lat="42.57916" lon="2.05106">
        <ele>2063</ele>
        <time>2020-07-21T08:20:52.052Z</time>
      </trkpt>
      <trkpt lat="42.57916" lon="2.05103">
        <ele>2063</ele>
        <time>2020-07-21T08:20:53.052Z</time>
      </trkpt>
      <trkpt lat="42.57916" lon="2.051">
        <ele>2063</ele>
        <time>2020-07-21T08:20:54.052Z</time>
      </trkpt>
      <trkpt lat="42.57916" lon="2.05097">
        <ele>2063</ele>
        <time>2020-07-21T08:20:55.052Z</time>
      </trkpt>
      <trkpt lat="42.57916" lon="2.05095">
        <ele>2064</ele>
        <time>2020-07-21T08:20:56.052Z</time>
      </trkpt>
      <trkpt lat="42.57916" lon="2.05092">
        <ele>2064</ele>
        <time>2020-07-21T08:20:57.052Z</time>
      </trkpt>
      <trkpt lat="42.57916" lon="2.0509">
        <ele>2064</ele>
        <time>2020-07-21T08:20:58.052Z</time>
      </trkpt>
      <trkpt lat="42.57916" lon="2.05087">
        <ele>2065</ele>
        <time>2020-07-21T08:20:59.052Z</time>
      </trkpt>
      <trkpt lat="42.57916" lon="2.05085">
        <ele>2065</ele>
        <time>2020-07-21T08:21:00.052Z</time>
      </trkpt>
      <trkpt lat="42.57916" lon="2.05082">
        <ele>2066</ele>
        <time>2020-07-21T08:21:01.052Z</time>
      </trkpt>
      <trkpt lat="42.57916" lon="2.0508">
        <ele>2066</ele>
        <time>2020-07-21T08:21:02.052Z</time>
      </trkpt>
      <trkpt lat="42.57916" lon="2.05078">
        <ele>2068</ele>
        <time>2020-07-21T08:21:03.052Z</time>
      </trkpt>
      <trkpt lat="42.57916" lon="2.05076">
        <ele>2068</ele>
        <time>2020-07-21T08:21:04.052Z</time>
      </trkpt>
      <trkpt lat="42.57915" lon="2.05074">
        <ele>2069</ele>
        <time>2020-07-21T08:21:05.052Z</time>
      </trkpt>
      <trkpt lat="42.57915" lon="2.05072">
        <ele>2070</ele>
        <time>2020-07-21T08:21:06.052Z</time>
      </trkpt>
      <trkpt lat="42.57915" lon="2.0507">
        <ele>2070</ele>
        <time>2020-07-21T08:21:07.052Z</time>
      </trkpt>
      <trkpt lat="42.57915" lon="2.05068">
        <ele>2071</ele>
        <time>2020-07-21T08:21:08.052Z</time>
      </trkpt>
      <trkpt lat="42.57915" lon="2.05066">
        <ele>2071</ele>
        <time>2020-07-21T08:21:09.052Z</time>
      </trkpt>
      <trkpt lat="42.57914" lon="2.05064">
        <ele>2071</ele>
        <time>2020-07-21T08:21:10.052Z</time>
      </trkpt>
      <trkpt lat="42.57914" lon="2.05062">
        <ele>2071</ele>
        <time>2020-07-21T08:21:11.052Z</time>
      </trkpt>
      <trkpt lat="42.57914" lon="2.0506">
        <ele>2072</ele>
        <time>2020-07-21T08:21:12.052Z</time>
      </trkpt>
      <trkpt lat="42.57914" lon="2.05058">
        <ele>2073</ele>
        <time>2020-07-21T08:21:13.052Z</time>
      </trkpt>
      <trkpt lat="42.57914" lon="2.05057">
        <ele>2073</ele>
        <time>2020-07-21T08:21:14.052Z</time>
      </trkpt>
      <trkpt lat="42.57914" lon="2.05055">
        <ele>2074</ele>
        <time>2020-07-21T08:21:15.052Z</time>
      </trkpt>
      <trkpt lat="42.57914" lon="2.05053">
        <ele>2074</ele>
        <time>2020-07-21T08:21:16.052Z</time>
      </trkpt>
      <trkpt lat="42.57914" lon="2.05052">
        <ele>2074</ele>
        <time>2020-07-21T08:21:17.052Z</time>
      </trkpt>
      <trkpt lat="42.57914" lon="2.0505">
        <ele>2075</ele>
        <time>2020-07-21T08:21:18.052Z</time>
      </trkpt>
      <trkpt lat="42.57914" lon="2.05047">
        <ele>2076</ele>
        <time>2020-07-21T08:21:19.052Z</time>
      </trkpt>
      <trkpt lat="42.57913" lon="2.05045">
        <ele>2076</ele>
        <time>2020-07-21T08:21:20.052Z</time>
      </trkpt>
      <trkpt lat="42.57913" lon="2.05043">
        <ele>2077</ele>
        <time>2020-07-21T08:21:21.052Z</time>
      </trkpt>
      <trkpt lat="42.57913" lon="2.05041">
        <ele>2078</ele>
        <time>2020-07-21T08:21:22.052Z</time>
      </trkpt>
      <trkpt lat="42.57912" lon="2.05039">
        <ele>2079</ele>
        <time>2020-07-21T08:21:23.052Z</time>
      </trkpt>
      <trkpt lat="42.57912" lon="2.05038">
        <ele>2079</ele>
        <time>2020-07-21T08:21:24.052Z</time>
      </trkpt>
      <trkpt lat="42.57912" lon="2.05036">
        <ele>2080</ele>
        <time>2020-07-21T08:21:25.052Z</time>
      </trkpt>
      <trkpt lat="42.57912" lon="2.05034">
        <ele>2081</ele>
        <time>2020-07-21T08:21:26.052Z</time>
      </trkpt>
      <trkpt lat="42.57912" lon="2.05031">
        <ele>2081</ele>
        <time>2020-07-21T08:21:27.052Z</time>
      </trkpt>
      <trkpt lat="42.57912" lon="2.05029">
        <ele>2081</ele>
        <time>2020-07-21T08:21:28.052Z</time>
      </trkpt>
      <trkpt lat="42.57912" lon="2.05027">
        <ele>2082</ele>
        <time>2020-07-21T08:21:29.052Z</time>
      </trkpt>
      <trkpt lat="42.57912" lon="2.05025">
        <ele>2083</ele>
        <time>2020-07-21T08:21:30.052Z</time>
      </trkpt>
      <trkpt lat="42.57912" lon="2.05023">
        <ele>2084</ele>
        <time>2020-07-21T08:21:31.052Z</time>
      </trkpt>
      <trkpt lat="42.57912" lon="2.05021">
        <ele>2084</ele>
        <time>2020-07-21T08:21:32.052Z</time>
      </trkpt>
      <trkpt lat="42.57912" lon="2.0502">
        <ele>2084</ele>
        <time>2020-07-21T08:21:33.052Z</time>
      </trkpt>
      <trkpt lat="42.57912" lon="2.05018">
        <ele>2085</ele>
        <time>2020-07-21T08:21:34.052Z</time>
      </trkpt>
      <trkpt lat="42.57912" lon="2.05016">
        <ele>2085</ele>
        <time>2020-07-21T08:21:35.052Z</time>
      </trkpt>
      <trkpt lat="42.57912" lon="2.05014">
        <ele>2085</ele>
        <time>2020-07-21T08:21:36.052Z</time>
      </trkpt>
      <trkpt lat="42.57912" lon="2.05012">
        <ele>2085</ele>
        <time>2020-07-21T08:21:37.052Z</time>
      </trkpt>
      <trkpt lat="42.57911" lon="2.05011">
        <ele>2086</ele>
        <time>2020-07-21T08:21:38.052Z</time>
      </trkpt>
      <trkpt lat="42.57911" lon="2.05009">
        <ele>2086</ele>
        <time>2020-07-21T08:21:39.052Z</time>
      </trkpt>
      <trkpt lat="42.57911" lon="2.05007">
        <ele>2087</ele>
        <time>2020-07-21T08:21:40.052Z</time>
      </trkpt>
      <trkpt lat="42.57911" lon="2.05006">
        <ele>2087</ele>
        <time>2020-07-21T08:21:41.052Z</time>
      </trkpt>
      <trkpt lat="42.57911" lon="2.05005">
        <ele>2087</ele>
        <time>2020-07-21T08:21:42.052Z</time>
      </trkpt>
      <trkpt lat="42.57911" lon="2.05003">
        <ele>2087</ele>
        <time>2020-07-21T08:21:43.052Z</time>
      </trkpt>
      <trkpt lat="42.57911" lon="2.05002">
        <ele>2088</ele>
        <time>2020-07-21T08:21:44.052Z</time>
      </trkpt>
      <trkpt lat="42.57911" lon="2.05">
        <ele>2088</ele>
        <time>2020-07-21T08:21:45.052Z</time>
      </trkpt>
      <trkpt lat="42.5791" lon="2.04999">
        <ele>2089</ele>
        <time>2020-07-21T08:21:46.052Z</time>
      </trkpt>
      <trkpt lat="42.5791" lon="2.04998">
        <ele>2088</ele>
        <time>2020-07-21T08:21:47.052Z</time>
      </trkpt>
      <trkpt lat="42.5791" lon="2.04997">
        <ele>2088</ele>
        <time>2020-07-21T08:21:48.052Z</time>
      </trkpt>
      <trkpt lat="42.5791" lon="2.04996">
        <ele>2088</ele>
        <time>2020-07-21T08:21:49.052Z</time>
      </trkpt>
      <trkpt lat="42.5791" lon="2.04995">
        <ele>2088</ele>
        <time>2020-07-21T08:21:50.052Z</time>
      </trkpt>
      <trkpt lat="42.5791" lon="2.04994">
        <ele>2088</ele>
        <time>2020-07-21T08:21:51.052Z</time>
      </trkpt>
      <trkpt lat="42.5791" lon="2.04992">
        <ele>2088</ele>
        <time>2020-07-21T08:21:52.052Z</time>
      </trkpt>
      <trkpt lat="42.5791" lon="2.04991">
        <ele>2089</ele>
        <time>2020-07-21T08:21:53.052Z</time>
      </trkpt>
      <trkpt lat="42.57909" lon="2.04989">
        <ele>2090</ele>
        <time>2020-07-21T08:21:54.052Z</time>
      </trkpt>
      <trkpt lat="42.57909" lon="2.04986">
        <ele>2089</ele>
        <time>2020-07-21T08:21:55.052Z</time>
      </trkpt>
      <trkpt lat="42.57908" lon="2.04983">
        <ele>2090</ele>
        <time>2020-07-21T08:21:56.052Z</time>
      </trkpt>
      <trkpt lat="42.57908" lon="2.04981">
        <ele>2090</ele>
        <time>2020-07-21T08:21:57.052Z</time>
      </trkpt>
      <trkpt lat="42.57908" lon="2.04979">
        <ele>2090</ele>
        <time>2020-07-21T08:21:58.052Z</time>
      </trkpt>
      <trkpt lat="42.57908" lon="2.04976">
        <ele>2090</ele>
        <time>2020-07-21T08:21:59.052Z</time>
      </trkpt>
      <trkpt lat="42.57908" lon="2.04974">
        <ele>2091</ele>
        <time>2020-07-21T08:22:00.052Z</time>
      </trkpt>
      <trkpt lat="42.57908" lon="2.04972">
        <ele>2091</ele>
        <time>2020-07-21T08:22:01.052Z</time>
      </trkpt>
      <trkpt lat="42.57907" lon="2.0497">
        <ele>2091</ele>
        <time>2020-07-21T08:22:02.052Z</time>
      </trkpt>
      <trkpt lat="42.57907" lon="2.04968">
        <ele>2092</ele>
        <time>2020-07-21T08:22:03.052Z</time>
      </trkpt>
      <trkpt lat="42.57906" lon="2.04966">
        <ele>2092</ele>
        <time>2020-07-21T08:22:04.052Z</time>
      </trkpt>
      <trkpt lat="42.57906" lon="2.04964">
        <ele>2092</ele>
        <time>2020-07-21T08:22:05.052Z</time>
      </trkpt>
      <trkpt lat="42.57905" lon="2.04962">
        <ele>2092</ele>
        <time>2020-07-21T08:22:06.052Z</time>
      </trkpt>
      <trkpt lat="42.57905" lon="2.04961">
        <ele>2094</ele>
        <time>2020-07-21T08:22:07.052Z</time>
      </trkpt>
      <trkpt lat="42.57905" lon="2.04959">
        <ele>2094</ele>
        <time>2020-07-21T08:22:08.052Z</time>
      </trkpt>
      <trkpt lat="42.57905" lon="2.04958">
        <ele>2095</ele>
        <time>2020-07-21T08:22:09.052Z</time>
      </trkpt>
      <trkpt lat="42.57904" lon="2.04957">
        <ele>2095</ele>
        <time>2020-07-21T08:22:10.052Z</time>
      </trkpt>
      <trkpt lat="42.57904" lon="2.04956">
        <ele>2095</ele>
        <time>2020-07-21T08:22:11.052Z</time>
      </trkpt>
      <trkpt lat="42.57904" lon="2.04955">
        <ele>2095</ele>
        <time>2020-07-21T08:22:12.052Z</time>
      </trkpt>
      <trkpt lat="42.57904" lon="2.04954">
        <ele>2096</ele>
        <time>2020-07-21T08:22:13.052Z</time>
      </trkpt>
      <trkpt lat="42.57904" lon="2.04953">
        <ele>2095</ele>
        <time>2020-07-21T08:22:14.052Z</time>
      </trkpt>
      <trkpt lat="42.57904" lon="2.04951">
        <ele>2095</ele>
        <time>2020-07-21T08:22:15.052Z</time>
      </trkpt>
      <trkpt lat="42.57903" lon="2.0495">
        <ele>2096</ele>
        <time>2020-07-21T08:22:16.052Z</time>
      </trkpt>
      <trkpt lat="42.57903" lon="2.04949">
        <ele>2095</ele>
        <time>2020-07-21T08:22:17.052Z</time>
      </trkpt>
      <trkpt lat="42.57903" lon="2.04947">
        <ele>2096</ele>
        <time>2020-07-21T08:22:18.052Z</time>
      </trkpt>
      <trkpt lat="42.57903" lon="2.04946">
        <ele>2095</ele>
        <time>2020-07-21T08:22:19.052Z</time>
      </trkpt>
      <trkpt lat="42.57903" lon="2.04945">
        <ele>2096</ele>
        <time>2020-07-21T08:22:20.052Z</time>
      </trkpt>
      <trkpt lat="42.57903" lon="2.04943">
        <ele>2096</ele>
        <time>2020-07-21T08:22:21.052Z</time>
      </trkpt>
      <trkpt lat="42.57903" lon="2.04942">
        <ele>2097</ele>
        <time>2020-07-21T08:22:22.052Z</time>
      </trkpt>
      <trkpt lat="42.57903" lon="2.04941">
        <ele>2097</ele>
        <time>2020-07-21T08:22:23.052Z</time>
      </trkpt>
      <trkpt lat="42.57903" lon="2.0494">
        <ele>2098</ele>
        <time>2020-07-21T08:22:24.052Z</time>
      </trkpt>
      <trkpt lat="42.57903" lon="2.04939">
        <ele>2099</ele>
        <time>2020-07-21T08:22:25.052Z</time>
      </trkpt>
      <trkpt lat="42.57902" lon="2.04937">
        <ele>2099</ele>
        <time>2020-07-21T08:22:26.052Z</time>
      </trkpt>
      <trkpt lat="42.57902" lon="2.04936">
        <ele>2100</ele>
        <time>2020-07-21T08:22:27.052Z</time>
      </trkpt>
      <trkpt lat="42.57902" lon="2.04935">
        <ele>2100</ele>
        <time>2020-07-21T08:22:28.052Z</time>
      </trkpt>
      <trkpt lat="42.57902" lon="2.04934">
        <ele>2100</ele>
        <time>2020-07-21T08:22:29.052Z</time>
      </trkpt>
      <trkpt lat="42.57901" lon="2.04933">
        <ele>2100</ele>
        <time>2020-07-21T08:22:30.052Z</time>
      </trkpt>
      <trkpt lat="42.57901" lon="2.04932">
        <ele>2100</ele>
        <time>2020-07-21T08:22:31.052Z</time>
      </trkpt>
      <trkpt lat="42.57901" lon="2.04931">
        <ele>2101</ele>
        <time>2020-07-21T08:22:32.052Z</time>
      </trkpt>
      <trkpt lat="42.579" lon="2.0493">
        <ele>2101</ele>
        <time>2020-07-21T08:22:33.052Z</time>
      </trkpt>
      <trkpt lat="42.579" lon="2.04929">
        <ele>2102</ele>
        <time>2020-07-21T08:22:34.052Z</time>
      </trkpt>
      <trkpt lat="42.579" lon="2.04928">
        <ele>2102</ele>
        <time>2020-07-21T08:22:35.052Z</time>
      </trkpt>
      <trkpt lat="42.579" lon="2.04927">
        <ele>2102</ele>
        <time>2020-07-21T08:22:36.052Z</time>
      </trkpt>
      <trkpt lat="42.57899" lon="2.04926">
        <ele>2103</ele>
        <time>2020-07-21T08:22:37.052Z</time>
      </trkpt>
      <trkpt lat="42.57899" lon="2.04925">
        <ele>2103</ele>
        <time>2020-07-21T08:22:38.052Z</time>
      </trkpt>
      <trkpt lat="42.57898" lon="2.04924">
        <ele>2103</ele>
        <time>2020-07-21T08:22:39.052Z</time>
      </trkpt>
      <trkpt lat="42.57898" lon="2.04923">
        <ele>2104</ele>
        <time>2020-07-21T08:22:40.052Z</time>
      </trkpt>
      <trkpt lat="42.57897" lon="2.04922">
        <ele>2105</ele>
        <time>2020-07-21T08:22:41.052Z</time>
      </trkpt>
      <trkpt lat="42.57897" lon="2.04921">
        <ele>2105</ele>
        <time>2020-07-21T08:22:42.052Z</time>
      </trkpt>
      <trkpt lat="42.57896" lon="2.0492">
        <ele>2106</ele>
        <time>2020-07-21T08:22:43.052Z</time>
      </trkpt>
      <trkpt lat="42.57896" lon="2.04919">
        <ele>2107</ele>
        <time>2020-07-21T08:22:44.052Z</time>
      </trkpt>
      <trkpt lat="42.57895" lon="2.04918">
        <ele>2107</ele>
        <time>2020-07-21T08:22:45.052Z</time>
      </trkpt>
      <trkpt lat="42.57895" lon="2.04918">
        <ele>2107</ele>
        <time>2020-07-21T08:22:46.052Z</time>
      </trkpt>
      <trkpt lat="42.57894" lon="2.04916">
        <ele>2107</ele>
        <time>2020-07-21T08:22:47.052Z</time>
      </trkpt>
      <trkpt lat="42.57894" lon="2.04915">
        <ele>2108</ele>
        <time>2020-07-21T08:22:48.052Z</time>
      </trkpt>
      <trkpt lat="42.57893" lon="2.04914">
        <ele>2109</ele>
        <time>2020-07-21T08:22:49.052Z</time>
      </trkpt>
      <trkpt lat="42.57893" lon="2.04913">
        <ele>2109</ele>
        <time>2020-07-21T08:22:50.052Z</time>
      </trkpt>
      <trkpt lat="42.57893" lon="2.04912">
        <ele>2109</ele>
        <time>2020-07-21T08:22:51.052Z</time>
      </trkpt>
      <trkpt lat="42.57893" lon="2.04911">
        <ele>2109</ele>
        <time>2020-07-21T08:22:52.052Z</time>
      </trkpt>
      <trkpt lat="42.57893" lon="2.0491">
        <ele>2109</ele>
        <time>2020-07-21T08:22:53.052Z</time>
      </trkpt>
      <trkpt lat="42.57893" lon="2.04908">
        <ele>2110</ele>
        <time>2020-07-21T08:22:54.052Z</time>
      </trkpt>
      <trkpt lat="42.57893" lon="2.04907">
        <ele>2110</ele>
        <time>2020-07-21T08:22:55.052Z</time>
      </trkpt>
      <trkpt lat="42.57892" lon="2.04906">
        <ele>2110</ele>
        <time>2020-07-21T08:22:56.052Z</time>
      </trkpt>
      <trkpt lat="42.57892" lon="2.04905">
        <ele>2111</ele>
        <time>2020-07-21T08:22:57.052Z</time>
      </trkpt>
      <trkpt lat="42.57892" lon="2.04905">
        <ele>2112</ele>
        <time>2020-07-21T08:22:58.052Z</time>
      </trkpt>
      <trkpt lat="42.57891" lon="2.04904">
        <ele>2112</ele>
        <time>2020-07-21T08:22:59.052Z</time>
      </trkpt>
      <trkpt lat="42.57891" lon="2.04904">
        <ele>2112</ele>
        <time>2020-07-21T08:23:00.052Z</time>
      </trkpt>
      <trkpt lat="42.5789" lon="2.04903">
        <ele>2112</ele>
        <time>2020-07-21T08:23:01.052Z</time>
      </trkpt>
      <trkpt lat="42.5789" lon="2.04903">
        <ele>2113</ele>
        <time>2020-07-21T08:23:02.052Z</time>
      </trkpt>
      <trkpt lat="42.5789" lon="2.04902">
        <ele>2113</ele>
        <time>2020-07-21T08:23:03.052Z</time>
      </trkpt>
      <trkpt lat="42.5789" lon="2.04901">
        <ele>2113</ele>
        <time>2020-07-21T08:23:04.052Z</time>
      </trkpt>
      <trkpt lat="42.5789" lon="2.049">
        <ele>2113</ele>
        <time>2020-07-21T08:23:05.052Z</time>
      </trkpt>
      <trkpt lat="42.57889" lon="2.04899">
        <ele>2114</ele>
        <time>2020-07-21T08:23:06.052Z</time>
      </trkpt>
      <trkpt lat="42.57889" lon="2.04898">
        <ele>2115</ele>
        <time>2020-07-21T08:23:07.052Z</time>
      </trkpt>
      <trkpt lat="42.57888" lon="2.04897">
        <ele>2115</ele>
        <time>2020-07-21T08:23:08.052Z</time>
      </trkpt>
      <trkpt lat="42.57888" lon="2.04895">
        <ele>2114</ele>
        <time>2020-07-21T08:23:09.052Z</time>
      </trkpt>
      <trkpt lat="42.57889" lon="2.04894">
        <ele>2114</ele>
        <time>2020-07-21T08:23:10.052Z</time>
      </trkpt>
      <trkpt lat="42.57889" lon="2.04892">
        <ele>2115</ele>
        <time>2020-07-21T08:23:11.052Z</time>
      </trkpt>
      <trkpt lat="42.57888" lon="2.04891">
        <ele>2115</ele>
        <time>2020-07-21T08:23:12.052Z</time>
      </trkpt>
      <trkpt lat="42.57888" lon="2.0489">
        <ele>2116</ele>
        <time>2020-07-21T08:23:13.052Z</time>
      </trkpt>
      <trkpt lat="42.57888" lon="2.04889">
        <ele>2116</ele>
        <time>2020-07-21T08:23:14.052Z</time>
      </trkpt>
      <trkpt lat="42.57887" lon="2.04887">
        <ele>2117</ele>
        <time>2020-07-21T08:23:15.052Z</time>
      </trkpt>
      <trkpt lat="42.57887" lon="2.04886">
        <ele>2117</ele>
        <time>2020-07-21T08:23:16.052Z</time>
      </trkpt>
      <trkpt lat="42.57886" lon="2.04885">
        <ele>2117</ele>
        <time>2020-07-21T08:23:17.052Z</time>
      </trkpt>
      <trkpt lat="42.57886" lon="2.04884">
        <ele>2118</ele>
        <time>2020-07-21T08:23:18.052Z</time>
      </trkpt>
      <trkpt lat="42.57885" lon="2.04883">
        <ele>2118</ele>
        <time>2020-07-21T08:23:19.052Z</time>
      </trkpt>
      <trkpt lat="42.57885" lon="2.04883">
        <ele>2118</ele>
        <time>2020-07-21T08:23:20.052Z</time>
      </trkpt>
      <trkpt lat="42.57884" lon="2.04882">
        <ele>2118</ele>
        <time>2020-07-21T08:23:21.052Z</time>
      </trkpt>
      <trkpt lat="42.57884" lon="2.04881">
        <ele>2119</ele>
        <time>2020-07-21T08:23:22.052Z</time>
      </trkpt>
      <trkpt lat="42.57883" lon="2.0488">
        <ele>2119</ele>
        <time>2020-07-21T08:23:23.052Z</time>
      </trkpt>
      <trkpt lat="42.57883" lon="2.04879">
        <ele>2119</ele>
        <time>2020-07-21T08:23:24.052Z</time>
      </trkpt>
      <trkpt lat="42.57884" lon="2.04878">
        <ele>2119</ele>
        <time>2020-07-21T08:23:25.052Z</time>
      </trkpt>
      <trkpt lat="42.57884" lon="2.04876">
        <ele>2120</ele>
        <time>2020-07-21T08:23:26.052Z</time>
      </trkpt>
      <trkpt lat="42.57883" lon="2.04875">
        <ele>2120</ele>
        <time>2020-07-21T08:23:27.052Z</time>
      </trkpt>
      <trkpt lat="42.57883" lon="2.04874">
        <ele>2121</ele>
        <time>2020-07-21T08:23:28.052Z</time>
      </trkpt>
      <trkpt lat="42.57882" lon="2.04873">
        <ele>2121</ele>
        <time>2020-07-21T08:23:29.052Z</time>
      </trkpt>
      <trkpt lat="42.57882" lon="2.04871">
        <ele>2121</ele>
        <time>2020-07-21T08:23:30.052Z</time>
      </trkpt>
      <trkpt lat="42.57881" lon="2.0487">
        <ele>2121</ele>
        <time>2020-07-21T08:23:31.052Z</time>
      </trkpt>
      <trkpt lat="42.57881" lon="2.04869">
        <ele>2122</ele>
        <time>2020-07-21T08:23:32.052Z</time>
      </trkpt>
      <trkpt lat="42.57881" lon="2.04869">
        <ele>2123</ele>
        <time>2020-07-21T08:23:33.052Z</time>
      </trkpt>
      <trkpt lat="42.5788" lon="2.04868">
        <ele>2123</ele>
        <time>2020-07-21T08:23:34.052Z</time>
      </trkpt>
      <trkpt lat="42.5788" lon="2.04867">
        <ele>2123</ele>
        <time>2020-07-21T08:23:35.052Z</time>
      </trkpt>
      <trkpt lat="42.57879" lon="2.04867">
        <ele>2124</ele>
        <time>2020-07-21T08:23:36.052Z</time>
      </trkpt>
      <trkpt lat="42.57878" lon="2.04866">
        <ele>2125</ele>
        <time>2020-07-21T08:23:37.052Z</time>
      </trkpt>
      <trkpt lat="42.57878" lon="2.04865">
        <ele>2125</ele>
        <time>2020-07-21T08:23:38.052Z</time>
      </trkpt>
      <trkpt lat="42.57877" lon="2.04865">
        <ele>2125</ele>
        <time>2020-07-21T08:23:39.052Z</time>
      </trkpt>
      <trkpt lat="42.57876" lon="2.04864">
        <ele>2126</ele>
        <time>2020-07-21T08:23:40.052Z</time>
      </trkpt>
      <trkpt lat="42.57875" lon="2.04863">
        <ele>2126</ele>
        <time>2020-07-21T08:23:41.052Z</time>
      </trkpt>
      <trkpt lat="42.57874" lon="2.04863">
        <ele>2127</ele>
        <time>2020-07-21T08:23:42.052Z</time>
      </trkpt>
      <trkpt lat="42.57873" lon="2.04862">
        <ele>2127</ele>
        <time>2020-07-21T08:23:43.052Z</time>
      </trkpt>
      <trkpt lat="42.57873" lon="2.04862">
        <ele>2127</ele>
        <time>2020-07-21T08:23:44.052Z</time>
      </trkpt>
      <trkpt lat="42.57872" lon="2.04861">
        <ele>2127</ele>
        <time>2020-07-21T08:23:45.052Z</time>
      </trkpt>
      <trkpt lat="42.57871" lon="2.0486">
        <ele>2128</ele>
        <time>2020-07-21T08:23:46.052Z</time>
      </trkpt>
      <trkpt lat="42.57871" lon="2.04859">
        <ele>2129</ele>
        <time>2020-07-21T08:23:47.052Z</time>
      </trkpt>
      <trkpt lat="42.5787" lon="2.04858">
        <ele>2129</ele>
        <time>2020-07-21T08:23:48.052Z</time>
      </trkpt>
      <trkpt lat="42.5787" lon="2.04856">
        <ele>2129</ele>
        <time>2020-07-21T08:23:49.052Z</time>
      </trkpt>
      <trkpt lat="42.57869" lon="2.04855">
        <ele>2130</ele>
        <time>2020-07-21T08:23:50.052Z</time>
      </trkpt>
      <trkpt lat="42.57869" lon="2.04854">
        <ele>2130</ele>
        <time>2020-07-21T08:23:51.052Z</time>
      </trkpt>
      <trkpt lat="42.57868" lon="2.04852">
        <ele>2129</ele>
        <time>2020-07-21T08:23:52.052Z</time>
      </trkpt>
      <trkpt lat="42.57868" lon="2.0485">
        <ele>2130</ele>
        <time>2020-07-21T08:23:53.052Z</time>
      </trkpt>
      <trkpt lat="42.57867" lon="2.04848">
        <ele>2130</ele>
        <time>2020-07-21T08:23:54.052Z</time>
      </trkpt>
      <trkpt lat="42.57867" lon="2.04847">
        <ele>2130</ele>
        <time>2020-07-21T08:23:55.052Z</time>
      </trkpt>
      <trkpt lat="42.57866" lon="2.04846">
        <ele>2132</ele>
        <time>2020-07-21T08:23:56.052Z</time>
      </trkpt>
      <trkpt lat="42.57866" lon="2.04845">
        <ele>2133</ele>
        <time>2020-07-21T08:23:57.052Z</time>
      </trkpt>
      <trkpt lat="42.57865" lon="2.04845">
        <ele>2133</ele>
        <time>2020-07-21T08:23:58.052Z</time>
      </trkpt>
      <trkpt lat="42.57865" lon="2.04844">
        <ele>2133</ele>
        <time>2020-07-21T08:23:59.052Z</time>
      </trkpt>
      <trkpt lat="42.57864" lon="2.04843">
        <ele>2134</ele>
        <time>2020-07-21T08:24:00.052Z</time>
      </trkpt>
      <trkpt lat="42.57864" lon="2.04842">
        <ele>2134</ele>
        <time>2020-07-21T08:24:01.052Z</time>
      </trkpt>
      <trkpt lat="42.57863" lon="2.0484">
        <ele>2134</ele>
        <time>2020-07-21T08:24:02.052Z</time>
      </trkpt>
      <trkpt lat="42.57862" lon="2.04839">
        <ele>2135</ele>
        <time>2020-07-21T08:24:03.052Z</time>
      </trkpt>
      <trkpt lat="42.57862" lon="2.04838">
        <ele>2135</ele>
        <time>2020-07-21T08:24:04.052Z</time>
      </trkpt>
      <trkpt lat="42.57862" lon="2.04837">
        <ele>2133</ele>
        <time>2020-07-21T08:24:05.052Z</time>
      </trkpt>
      <trkpt lat="42.57861" lon="2.04837">
        <ele>2134</ele>
        <time>2020-07-21T08:24:06.052Z</time>
      </trkpt>
      <trkpt lat="42.57861" lon="2.04836">
        <ele>2134</ele>
        <time>2020-07-21T08:24:07.052Z</time>
      </trkpt>
      <trkpt lat="42.5786" lon="2.04835">
        <ele>2135</ele>
        <time>2020-07-21T08:24:08.052Z</time>
      </trkpt>
      <trkpt lat="42.5786" lon="2.04834">
        <ele>2135</ele>
        <time>2020-07-21T08:24:09.052Z</time>
      </trkpt>
      <trkpt lat="42.57859" lon="2.04832">
        <ele>2135</ele>
        <time>2020-07-21T08:24:10.052Z</time>
      </trkpt>
      <trkpt lat="42.57859" lon="2.04831">
        <ele>2135</ele>
        <time>2020-07-21T08:24:11.052Z</time>
      </trkpt>
      <trkpt lat="42.57858" lon="2.0483">
        <ele>2136</ele>
        <time>2020-07-21T08:24:12.052Z</time>
      </trkpt>
      <trkpt lat="42.57858" lon="2.04828">
        <ele>2137</ele>
        <time>2020-07-21T08:24:13.052Z</time>
      </trkpt>
      <trkpt lat="42.57858" lon="2.04827">
        <ele>2138</ele>
        <time>2020-07-21T08:24:14.052Z</time>
      </trkpt>
      <trkpt lat="42.57857" lon="2.04826">
        <ele>2138</ele>
        <time>2020-07-21T08:24:15.052Z</time>
      </trkpt>
      <trkpt lat="42.57857" lon="2.04825">
        <ele>2138</ele>
        <time>2020-07-21T08:24:16.052Z</time>
      </trkpt>
      <trkpt lat="42.57857" lon="2.04823">
        <ele>2138</ele>
        <time>2020-07-21T08:24:17.052Z</time>
      </trkpt>
      <trkpt lat="42.57856" lon="2.04822">
        <ele>2138</ele>
        <time>2020-07-21T08:24:18.052Z</time>
      </trkpt>
      <trkpt lat="42.57856" lon="2.04821">
        <ele>2138</ele>
        <time>2020-07-21T08:24:19.052Z</time>
      </trkpt>
      <trkpt lat="42.57855" lon="2.0482">
        <ele>2139</ele>
        <time>2020-07-21T08:24:20.052Z</time>
      </trkpt>
      <trkpt lat="42.57855" lon="2.04819">
        <ele>2139</ele>
        <time>2020-07-21T08:24:21.052Z</time>
      </trkpt>
      <trkpt lat="42.57855" lon="2.04818">
        <ele>2140</ele>
        <time>2020-07-21T08:24:22.052Z</time>
      </trkpt>
      <trkpt lat="42.57854" lon="2.04816">
        <ele>2140</ele>
        <time>2020-07-21T08:24:23.052Z</time>
      </trkpt>
      <trkpt lat="42.57854" lon="2.04815">
        <ele>2140</ele>
        <time>2020-07-21T08:24:24.052Z</time>
      </trkpt>
      <trkpt lat="42.57853" lon="2.04813">
        <ele>2140</ele>
        <time>2020-07-21T08:24:25.052Z</time>
      </trkpt>
      <trkpt lat="42.57853" lon="2.04811">
        <ele>2140</ele>
        <time>2020-07-21T08:24:26.052Z</time>
      </trkpt>
      <trkpt lat="42.57852" lon="2.0481">
        <ele>2140</ele>
        <time>2020-07-21T08:24:27.052Z</time>
      </trkpt>
      <trkpt lat="42.57852" lon="2.04809">
        <ele>2140</ele>
        <time>2020-07-21T08:24:28.052Z</time>
      </trkpt>
      <trkpt lat="42.57851" lon="2.04807">
        <ele>2140</ele>
        <time>2020-07-21T08:24:29.052Z</time>
      </trkpt>
      <trkpt lat="42.57851" lon="2.04806">
        <ele>2141</ele>
        <time>2020-07-21T08:24:30.052Z</time>
      </trkpt>
      <trkpt lat="42.57851" lon="2.04805">
        <ele>2141</ele>
        <time>2020-07-21T08:24:31.052Z</time>
      </trkpt>
      <trkpt lat="42.57851" lon="2.04803">
        <ele>2141</ele>
        <time>2020-07-21T08:24:32.052Z</time>
      </trkpt>
      <trkpt lat="42.57851" lon="2.04802">
        <ele>2141</ele>
        <time>2020-07-21T08:24:33.052Z</time>
      </trkpt>
      <trkpt lat="42.5785" lon="2.048">
        <ele>2141</ele>
        <time>2020-07-21T08:24:34.052Z</time>
      </trkpt>
      <trkpt lat="42.5785" lon="2.04798">
        <ele>2141</ele>
        <time>2020-07-21T08:24:35.052Z</time>
      </trkpt>
      <trkpt lat="42.57849" lon="2.04797">
        <ele>2141</ele>
        <time>2020-07-21T08:24:36.052Z</time>
      </trkpt>
      <trkpt lat="42.57848" lon="2.04795">
        <ele>2142</ele>
        <time>2020-07-21T08:24:37.052Z</time>
      </trkpt>
      <trkpt lat="42.57848" lon="2.04793">
        <ele>2142</ele>
        <time>2020-07-21T08:24:38.052Z</time>
      </trkpt>
      <trkpt lat="42.57848" lon="2.04791">
        <ele>2142</ele>
        <time>2020-07-21T08:24:39.052Z</time>
      </trkpt>
      <trkpt lat="42.57847" lon="2.04788">
        <ele>2141</ele>
        <time>2020-07-21T08:24:40.052Z</time>
      </trkpt>
      <trkpt lat="42.57846" lon="2.04786">
        <ele>2141</ele>
        <time>2020-07-21T08:24:41.052Z</time>
      </trkpt>
      <trkpt lat="42.57846" lon="2.04784">
        <ele>2141</ele>
        <time>2020-07-21T08:24:42.052Z</time>
      </trkpt>
      <trkpt lat="42.57845" lon="2.04782">
        <ele>2141</ele>
        <time>2020-07-21T08:24:43.052Z</time>
      </trkpt>
      <trkpt lat="42.57844" lon="2.0478">
        <ele>2141</ele>
        <time>2020-07-21T08:24:44.052Z</time>
      </trkpt>
      <trkpt lat="42.57844" lon="2.04778">
        <ele>2141</ele>
        <time>2020-07-21T08:24:45.052Z</time>
      </trkpt>
      <trkpt lat="42.57843" lon="2.04775">
        <ele>2140</ele>
        <time>2020-07-21T08:24:46.052Z</time>
      </trkpt>
      <trkpt lat="42.57842" lon="2.04773">
        <ele>2141</ele>
        <time>2020-07-21T08:24:47.052Z</time>
      </trkpt>
      <trkpt lat="42.57842" lon="2.04771">
        <ele>2141</ele>
        <time>2020-07-21T08:24:48.052Z</time>
      </trkpt>
      <trkpt lat="42.57841" lon="2.04769">
        <ele>2141</ele>
        <time>2020-07-21T08:24:49.052Z</time>
      </trkpt>
      <trkpt lat="42.5784" lon="2.04766">
        <ele>2141</ele>
        <time>2020-07-21T08:24:50.052Z</time>
      </trkpt>
      <trkpt lat="42.57839" lon="2.04764">
        <ele>2141</ele>
        <time>2020-07-21T08:24:51.052Z</time>
      </trkpt>
      <trkpt lat="42.57838" lon="2.04761">
        <ele>2143</ele>
        <time>2020-07-21T08:24:52.052Z</time>
      </trkpt>
      <trkpt lat="42.57838" lon="2.04759">
        <ele>2143</ele>
        <time>2020-07-21T08:24:53.052Z</time>
      </trkpt>
      <trkpt lat="42.57837" lon="2.04756">
        <ele>2144</ele>
        <time>2020-07-21T08:24:54.052Z</time>
      </trkpt>
      <trkpt lat="42.57837" lon="2.04753">
        <ele>2144</ele>
        <time>2020-07-21T08:24:55.052Z</time>
      </trkpt>
      <trkpt lat="42.57836" lon="2.04751">
        <ele>2144</ele>
        <time>2020-07-21T08:24:56.052Z</time>
      </trkpt>
      <trkpt lat="42.57835" lon="2.04749">
        <ele>2144</ele>
        <time>2020-07-21T08:24:57.052Z</time>
      </trkpt>
      <trkpt lat="42.57835" lon="2.04746">
        <ele>2145</ele>
        <time>2020-07-21T08:24:58.052Z</time>
      </trkpt>
      <trkpt lat="42.57834" lon="2.04744">
        <ele>2145</ele>
        <time>2020-07-21T08:24:59.052Z</time>
      </trkpt>
      <trkpt lat="42.57833" lon="2.04741">
        <ele>2146</ele>
        <time>2020-07-21T08:25:00.052Z</time>
      </trkpt>
      <trkpt lat="42.57832" lon="2.04738">
        <ele>2146</ele>
        <time>2020-07-21T08:25:01.052Z</time>
      </trkpt>
      <trkpt lat="42.57831" lon="2.04736">
        <ele>2147</ele>
        <time>2020-07-21T08:25:02.052Z</time>
      </trkpt>
      <trkpt lat="42.5783" lon="2.04733">
        <ele>2147</ele>
        <time>2020-07-21T08:25:03.052Z</time>
      </trkpt>
      <trkpt lat="42.5783" lon="2.04731">
        <ele>2148</ele>
        <time>2020-07-21T08:25:04.052Z</time>
      </trkpt>
      <trkpt lat="42.57829" lon="2.04728">
        <ele>2148</ele>
        <time>2020-07-21T08:25:05.052Z</time>
      </trkpt>
      <trkpt lat="42.57828" lon="2.04726">
        <ele>2148</ele>
        <time>2020-07-21T08:25:06.052Z</time>
      </trkpt>
      <trkpt lat="42.57828" lon="2.04723">
        <ele>2149</ele>
        <time>2020-07-21T08:25:07.052Z</time>
      </trkpt>
      <trkpt lat="42.57827" lon="2.04721">
        <ele>2149</ele>
        <time>2020-07-21T08:25:08.052Z</time>
      </trkpt>
      <trkpt lat="42.57826" lon="2.04718">
        <ele>2150</ele>
        <time>2020-07-21T08:25:09.052Z</time>
      </trkpt>
      <trkpt lat="42.57825" lon="2.04715">
        <ele>2151</ele>
        <time>2020-07-21T08:25:10.052Z</time>
      </trkpt>
      <trkpt lat="42.57825" lon="2.04712">
        <ele>2150</ele>
        <time>2020-07-21T08:25:11.052Z</time>
      </trkpt>
      <trkpt lat="42.57824" lon="2.0471">
        <ele>2151</ele>
        <time>2020-07-21T08:25:12.052Z</time>
      </trkpt>
      <trkpt lat="42.57823" lon="2.04708">
        <ele>2150</ele>
        <time>2020-07-21T08:25:13.052Z</time>
      </trkpt>
      <trkpt lat="42.57823" lon="2.04705">
        <ele>2150</ele>
        <time>2020-07-21T08:25:14.052Z</time>
      </trkpt>
      <trkpt lat="42.57822" lon="2.04703">
        <ele>2151</ele>
        <time>2020-07-21T08:25:15.052Z</time>
      </trkpt>
      <trkpt lat="42.57821" lon="2.04701">
        <ele>2151</ele>
        <time>2020-07-21T08:25:16.052Z</time>
      </trkpt>
      <trkpt lat="42.5782" lon="2.04699">
        <ele>2151</ele>
        <time>2020-07-21T08:25:17.052Z</time>
      </trkpt>
      <trkpt lat="42.57819" lon="2.04696">
        <ele>2151</ele>
        <time>2020-07-21T08:25:18.052Z</time>
      </trkpt>
      <trkpt lat="42.57818" lon="2.04694">
        <ele>2152</ele>
        <time>2020-07-21T08:25:19.052Z</time>
      </trkpt>
      <trkpt lat="42.57817" lon="2.04691">
        <ele>2151</ele>
        <time>2020-07-21T08:25:20.052Z</time>
      </trkpt>
      <trkpt lat="42.57816" lon="2.04689">
        <ele>2152</ele>
        <time>2020-07-21T08:25:21.052Z</time>
      </trkpt>
      <trkpt lat="42.57815" lon="2.04687">
        <ele>2154</ele>
        <time>2020-07-21T08:25:22.052Z</time>
      </trkpt>
      <trkpt lat="42.57814" lon="2.04684">
        <ele>2154</ele>
        <time>2020-07-21T08:25:23.052Z</time>
      </trkpt>
      <trkpt lat="42.57814" lon="2.04682">
        <ele>2155</ele>
        <time>2020-07-21T08:25:24.052Z</time>
      </trkpt>
      <trkpt lat="42.57813" lon="2.04679">
        <ele>2155</ele>
        <time>2020-07-21T08:25:25.052Z</time>
      </trkpt>
      <trkpt lat="42.57812" lon="2.04677">
        <ele>2157</ele>
        <time>2020-07-21T08:25:26.052Z</time>
      </trkpt>
      <trkpt lat="42.57811" lon="2.04674">
        <ele>2158</ele>
        <time>2020-07-21T08:25:27.052Z</time>
      </trkpt>
      <trkpt lat="42.5781" lon="2.04672">
        <ele>2159</ele>
        <time>2020-07-21T08:25:28.052Z</time>
      </trkpt>
      <trkpt lat="42.57809" lon="2.0467">
        <ele>2160</ele>
        <time>2020-07-21T08:25:29.052Z</time>
      </trkpt>
      <trkpt lat="42.57809" lon="2.04667">
        <ele>2160</ele>
        <time>2020-07-21T08:25:30.052Z</time>
      </trkpt>
      <trkpt lat="42.57808" lon="2.04665">
        <ele>2161</ele>
        <time>2020-07-21T08:25:31.052Z</time>
      </trkpt>
      <trkpt lat="42.57807" lon="2.04664">
        <ele>2161</ele>
        <time>2020-07-21T08:25:32.052Z</time>
      </trkpt>
      <trkpt lat="42.57807" lon="2.04662">
        <ele>2161</ele>
        <time>2020-07-21T08:25:33.052Z</time>
      </trkpt>
      <trkpt lat="42.57806" lon="2.0466">
        <ele>2162</ele>
        <time>2020-07-21T08:25:34.052Z</time>
      </trkpt>
      <trkpt lat="42.57805" lon="2.04659">
        <ele>2163</ele>
        <time>2020-07-21T08:25:35.052Z</time>
      </trkpt>
      <trkpt lat="42.57805" lon="2.04658">
        <ele>2162</ele>
        <time>2020-07-21T08:25:36.052Z</time>
      </trkpt>
      <trkpt lat="42.57804" lon="2.04657">
        <ele>2163</ele>
        <time>2020-07-21T08:25:37.052Z</time>
      </trkpt>
      <trkpt lat="42.57804" lon="2.04655">
        <ele>2164</ele>
        <time>2020-07-21T08:25:38.052Z</time>
      </trkpt>
      <trkpt lat="42.57803" lon="2.04653">
        <ele>2164</ele>
        <time>2020-07-21T08:25:39.052Z</time>
      </trkpt>
      <trkpt lat="42.57803" lon="2.04652">
        <ele>2164</ele>
        <time>2020-07-21T08:25:40.052Z</time>
      </trkpt>
      <trkpt lat="42.57803" lon="2.0465">
        <ele>2165</ele>
        <time>2020-07-21T08:25:41.052Z</time>
      </trkpt>
      <trkpt lat="42.57802" lon="2.04649">
        <ele>2165</ele>
        <time>2020-07-21T08:25:42.052Z</time>
      </trkpt>
      <trkpt lat="42.57802" lon="2.04648">
        <ele>2166</ele>
        <time>2020-07-21T08:25:43.052Z</time>
      </trkpt>
      <trkpt lat="42.57801" lon="2.04647">
        <ele>2167</ele>
        <time>2020-07-21T08:25:44.052Z</time>
      </trkpt>
      <trkpt lat="42.57801" lon="2.04645">
        <ele>2168</ele>
        <time>2020-07-21T08:25:45.052Z</time>
      </trkpt>
      <trkpt lat="42.578" lon="2.04644">
        <ele>2169</ele>
        <time>2020-07-21T08:25:46.052Z</time>
      </trkpt>
      <trkpt lat="42.57799" lon="2.04642">
        <ele>2170</ele>
        <time>2020-07-21T08:25:47.052Z</time>
      </trkpt>
      <trkpt lat="42.57798" lon="2.04641">
        <ele>2170</ele>
        <time>2020-07-21T08:25:48.052Z</time>
      </trkpt>
      <trkpt lat="42.57798" lon="2.04639">
        <ele>2170</ele>
        <time>2020-07-21T08:25:49.052Z</time>
      </trkpt>
      <trkpt lat="42.57797" lon="2.04637">
        <ele>2170</ele>
        <time>2020-07-21T08:25:50.052Z</time>
      </trkpt>
      <trkpt lat="42.57797" lon="2.04636">
        <ele>2170</ele>
        <time>2020-07-21T08:25:51.052Z</time>
      </trkpt>
      <trkpt lat="42.57796" lon="2.04635">
        <ele>2171</ele>
        <time>2020-07-21T08:25:52.052Z</time>
      </trkpt>
      <trkpt lat="42.57795" lon="2.04634">
        <ele>2172</ele>
        <time>2020-07-21T08:25:53.052Z</time>
      </trkpt>
      <trkpt lat="42.57794" lon="2.04633">
        <ele>2171</ele>
        <time>2020-07-21T08:25:54.052Z</time>
      </trkpt>
      <trkpt lat="42.57794" lon="2.04632">
        <ele>2171</ele>
        <time>2020-07-21T08:25:55.052Z</time>
      </trkpt>
      <trkpt lat="42.57793" lon="2.04631">
        <ele>2172</ele>
        <time>2020-07-21T08:25:56.052Z</time>
      </trkpt>
      <trkpt lat="42.57792" lon="2.0463">
        <ele>2172</ele>
        <time>2020-07-21T08:25:57.052Z</time>
      </trkpt>
      <trkpt lat="42.57792" lon="2.04628">
        <ele>2172</ele>
        <time>2020-07-21T08:25:58.052Z</time>
      </trkpt>
      <trkpt lat="42.57791" lon="2.04626">
        <ele>2172</ele>
        <time>2020-07-21T08:25:59.052Z</time>
      </trkpt>
      <trkpt lat="42.57791" lon="2.04625">
        <ele>2172</ele>
        <time>2020-07-21T08:26:00.052Z</time>
      </trkpt>
      <trkpt lat="42.57791" lon="2.04623">
        <ele>2171</ele>
        <time>2020-07-21T08:26:01.052Z</time>
      </trkpt>
      <trkpt lat="42.5779" lon="2.04621">
        <ele>2172</ele>
        <time>2020-07-21T08:26:02.052Z</time>
      </trkpt>
      <trkpt lat="42.5779" lon="2.0462">
        <ele>2172</ele>
        <time>2020-07-21T08:26:03.052Z</time>
      </trkpt>
      <trkpt lat="42.5779" lon="2.04619">
        <ele>2172</ele>
        <time>2020-07-21T08:26:04.052Z</time>
      </trkpt>
      <trkpt lat="42.5779" lon="2.04618">
        <ele>2172</ele>
        <time>2020-07-21T08:26:05.052Z</time>
      </trkpt>
      <trkpt lat="42.57789" lon="2.04617">
        <ele>2172</ele>
        <time>2020-07-21T08:26:06.052Z</time>
      </trkpt>
      <trkpt lat="42.57789" lon="2.04615">
        <ele>2172</ele>
        <time>2020-07-21T08:26:07.052Z</time>
      </trkpt>
      <trkpt lat="42.57788" lon="2.04614">
        <ele>2172</ele>
        <time>2020-07-21T08:26:08.052Z</time>
      </trkpt>
      <trkpt lat="42.57787" lon="2.04612">
        <ele>2172</ele>
        <time>2020-07-21T08:26:09.052Z</time>
      </trkpt>
      <trkpt lat="42.57787" lon="2.04611">
        <ele>2172</ele>
        <time>2020-07-21T08:26:10.052Z</time>
      </trkpt>
      <trkpt lat="42.57786" lon="2.04609">
        <ele>2173</ele>
        <time>2020-07-21T08:26:11.052Z</time>
      </trkpt>
      <trkpt lat="42.57785" lon="2.04607">
        <ele>2173</ele>
        <time>2020-07-21T08:26:12.052Z</time>
      </trkpt>
      <trkpt lat="42.57784" lon="2.04606">
        <ele>2173</ele>
        <time>2020-07-21T08:26:13.052Z</time>
      </trkpt>
      <trkpt lat="42.57783" lon="2.04605">
        <ele>2173</ele>
        <time>2020-07-21T08:26:14.052Z</time>
      </trkpt>
      <trkpt lat="42.57782" lon="2.04604">
        <ele>2173</ele>
        <time>2020-07-21T08:26:15.052Z</time>
      </trkpt>
      <trkpt lat="42.57781" lon="2.04603">
        <ele>2173</ele>
        <time>2020-07-21T08:26:16.052Z</time>
      </trkpt>
      <trkpt lat="42.57781" lon="2.04602">
        <ele>2174</ele>
        <time>2020-07-21T08:26:17.052Z</time>
      </trkpt>
      <trkpt lat="42.5778" lon="2.04601">
        <ele>2174</ele>
        <time>2020-07-21T08:26:18.052Z</time>
      </trkpt>
      <trkpt lat="42.57779" lon="2.04601">
        <ele>2174</ele>
        <time>2020-07-21T08:26:19.052Z</time>
      </trkpt>
      <trkpt lat="42.57778" lon="2.046">
        <ele>2175</ele>
        <time>2020-07-21T08:26:20.052Z</time>
      </trkpt>
      <trkpt lat="42.57777" lon="2.04598">
        <ele>2175</ele>
        <time>2020-07-21T08:26:21.052Z</time>
      </trkpt>
      <trkpt lat="42.57777" lon="2.04597">
        <ele>2175</ele>
        <time>2020-07-21T08:26:22.052Z</time>
      </trkpt>
      <trkpt lat="42.57776" lon="2.04596">
        <ele>2175</ele>
        <time>2020-07-21T08:26:23.052Z</time>
      </trkpt>
      <trkpt lat="42.57775" lon="2.04596">
        <ele>2175</ele>
        <time>2020-07-21T08:26:24.052Z</time>
      </trkpt>
      <trkpt lat="42.57774" lon="2.04594">
        <ele>2175</ele>
        <time>2020-07-21T08:26:25.052Z</time>
      </trkpt>
      <trkpt lat="42.57774" lon="2.04592">
        <ele>2175</ele>
        <time>2020-07-21T08:26:26.052Z</time>
      </trkpt>
      <trkpt lat="42.57775" lon="2.04591">
        <ele>2176</ele>
        <time>2020-07-21T08:26:27.052Z</time>
      </trkpt>
      <trkpt lat="42.57775" lon="2.04589">
        <ele>2176</ele>
        <time>2020-07-21T08:26:28.052Z</time>
      </trkpt>
      <trkpt lat="42.57775" lon="2.04588">
        <ele>2176</ele>
        <time>2020-07-21T08:26:29.052Z</time>
      </trkpt>
      <trkpt lat="42.57775" lon="2.04586">
        <ele>2177</ele>
        <time>2020-07-21T08:26:30.052Z</time>
      </trkpt>
      <trkpt lat="42.57775" lon="2.04584">
        <ele>2177</ele>
        <time>2020-07-21T08:26:31.052Z</time>
      </trkpt>
      <trkpt lat="42.57776" lon="2.04583">
        <ele>2177</ele>
        <time>2020-07-21T08:26:32.052Z</time>
      </trkpt>
      <trkpt lat="42.57776" lon="2.04581">
        <ele>2178</ele>
        <time>2020-07-21T08:26:33.052Z</time>
      </trkpt>
      <trkpt lat="42.57777" lon="2.04579">
        <ele>2179</ele>
        <time>2020-07-21T08:26:34.052Z</time>
      </trkpt>
      <trkpt lat="42.57777" lon="2.04578">
        <ele>2179</ele>
        <time>2020-07-21T08:26:35.052Z</time>
      </trkpt>
      <trkpt lat="42.57777" lon="2.04576">
        <ele>2180</ele>
        <time>2020-07-21T08:26:36.052Z</time>
      </trkpt>
      <trkpt lat="42.57777" lon="2.04575">
        <ele>2181</ele>
        <time>2020-07-21T08:26:37.052Z</time>
      </trkpt>
      <trkpt lat="42.57777" lon="2.04573">
        <ele>2181</ele>
        <time>2020-07-21T08:26:38.052Z</time>
      </trkpt>
      <trkpt lat="42.57776" lon="2.04572">
        <ele>2182</ele>
        <time>2020-07-21T08:26:39.052Z</time>
      </trkpt>
      <trkpt lat="42.57776" lon="2.04571">
        <ele>2183</ele>
        <time>2020-07-21T08:26:40.052Z</time>
      </trkpt>
      <trkpt lat="42.57776" lon="2.04569">
        <ele>2184</ele>
        <time>2020-07-21T08:26:41.052Z</time>
      </trkpt>
      <trkpt lat="42.57775" lon="2.04568">
        <ele>2184</ele>
        <time>2020-07-21T08:26:42.052Z</time>
      </trkpt>
      <trkpt lat="42.57775" lon="2.04567">
        <ele>2183</ele>
        <time>2020-07-21T08:26:43.052Z</time>
      </trkpt>
      <trkpt lat="42.57775" lon="2.04566">
        <ele>2184</ele>
        <time>2020-07-21T08:26:44.052Z</time>
      </trkpt>
      <trkpt lat="42.57774" lon="2.04564">
        <ele>2185</ele>
        <time>2020-07-21T08:26:45.052Z</time>
      </trkpt>
      <trkpt lat="42.57774" lon="2.04563">
        <ele>2185</ele>
        <time>2020-07-21T08:26:46.052Z</time>
      </trkpt>
      <trkpt lat="42.57773" lon="2.04562">
        <ele>2185</ele>
        <time>2020-07-21T08:26:47.052Z</time>
      </trkpt>
      <trkpt lat="42.57772" lon="2.04561">
        <ele>2185</ele>
        <time>2020-07-21T08:26:48.052Z</time>
      </trkpt>
      <trkpt lat="42.57772" lon="2.04559">
        <ele>2186</ele>
        <time>2020-07-21T08:26:49.052Z</time>
      </trkpt>
      <trkpt lat="42.57772" lon="2.04557">
        <ele>2186</ele>
        <time>2020-07-21T08:26:50.071Z</time>
      </trkpt>
      <trkpt lat="42.57771" lon="2.04557">
        <ele>2186</ele>
        <time>2020-07-21T08:26:51.071Z</time>
      </trkpt>
      <trkpt lat="42.5777" lon="2.04556">
        <ele>2185</ele>
        <time>2020-07-21T08:26:52.071Z</time>
      </trkpt>
      <trkpt lat="42.5777" lon="2.04555">
        <ele>2185</ele>
        <time>2020-07-21T08:26:53.071Z</time>
      </trkpt>
      <trkpt lat="42.57769" lon="2.04554">
        <ele>2185</ele>
        <time>2020-07-21T08:26:54.071Z</time>
      </trkpt>
      <trkpt lat="42.57768" lon="2.04553">
        <ele>2186</ele>
        <time>2020-07-21T08:26:55.071Z</time>
      </trkpt>
      <trkpt lat="42.57767" lon="2.04551">
        <ele>2187</ele>
        <time>2020-07-21T08:26:56.071Z</time>
      </trkpt>
      <trkpt lat="42.57766" lon="2.04549">
        <ele>2187</ele>
        <time>2020-07-21T08:26:57.071Z</time>
      </trkpt>
      <trkpt lat="42.57764" lon="2.04547">
        <ele>2187</ele>
        <time>2020-07-21T08:26:58.071Z</time>
      </trkpt>
      <trkpt lat="42.57763" lon="2.04545">
        <ele>2187</ele>
        <time>2020-07-21T08:26:59.071Z</time>
      </trkpt>
      <trkpt lat="42.57761" lon="2.04543">
        <ele>2188</ele>
        <time>2020-07-21T08:27:00.071Z</time>
      </trkpt>
      <trkpt lat="42.57759" lon="2.04542">
        <ele>2188</ele>
        <time>2020-07-21T08:27:01.071Z</time>
      </trkpt>
      <trkpt lat="42.57757" lon="2.0454">
        <ele>2188</ele>
        <time>2020-07-21T08:27:02.071Z</time>
      </trkpt>
      <trkpt lat="42.57755" lon="2.04539">
        <ele>2188</ele>
        <time>2020-07-21T08:27:03.071Z</time>
      </trkpt>
      <trkpt lat="42.57754" lon="2.04538">
        <ele>2188</ele>
        <time>2020-07-21T08:27:04.071Z</time>
      </trkpt>
      <trkpt lat="42.57752" lon="2.04536">
        <ele>2189</ele>
        <time>2020-07-21T08:27:05.071Z</time>
      </trkpt>
      <trkpt lat="42.57751" lon="2.04536">
        <ele>2189</ele>
        <time>2020-07-21T08:27:06.071Z</time>
      </trkpt>
      <trkpt lat="42.57749" lon="2.04535">
        <ele>2190</ele>
        <time>2020-07-21T08:27:07.071Z</time>
      </trkpt>
      <trkpt lat="42.57748" lon="2.04524">
        <ele>2190</ele>
        <time>2020-07-21T08:27:08.028Z</time>
      </trkpt>
      <trkpt lat="42.57748" lon="2.04524">
        <ele>2190</ele>
        <time>2020-07-21T08:27:09.028Z</time>
      </trkpt>
      <trkpt lat="42.57747" lon="2.04523">
        <ele>2190</ele>
        <time>2020-07-21T08:27:10.028Z</time>
      </trkpt>
      <trkpt lat="42.57746" lon="2.04521">
        <ele>2190</ele>
        <time>2020-07-21T08:27:11.028Z</time>
      </trkpt>
      <trkpt lat="42.57746" lon="2.04518">
        <ele>2190</ele>
        <time>2020-07-21T08:27:12.028Z</time>
      </trkpt>
      <trkpt lat="42.57745" lon="2.04516">
        <ele>2189</ele>
        <time>2020-07-21T08:27:13.028Z</time>
      </trkpt>
      <trkpt lat="42.57744" lon="2.04513">
        <ele>2189</ele>
        <time>2020-07-21T08:27:14.028Z</time>
      </trkpt>
      <trkpt lat="42.57744" lon="2.0451">
        <ele>2189</ele>
        <time>2020-07-21T08:27:15.028Z</time>
      </trkpt>
      <trkpt lat="42.57743" lon="2.04507">
        <ele>2188</ele>
        <time>2020-07-21T08:27:16.028Z</time>
      </trkpt>
      <trkpt lat="42.57743" lon="2.04504">
        <ele>2188</ele>
        <time>2020-07-21T08:27:17.028Z</time>
      </trkpt>
      <trkpt lat="42.57743" lon="2.04501">
        <ele>2188</ele>
        <time>2020-07-21T08:27:18.028Z</time>
      </trkpt>
      <trkpt lat="42.57742" lon="2.04498">
        <ele>2188</ele>
        <time>2020-07-21T08:27:19.028Z</time>
      </trkpt>
      <trkpt lat="42.57742" lon="2.04495">
        <ele>2188</ele>
        <time>2020-07-21T08:27:20.028Z</time>
      </trkpt>
      <trkpt lat="42.57742" lon="2.04492">
        <ele>2188</ele>
        <time>2020-07-21T08:27:21.028Z</time>
      </trkpt>
      <trkpt lat="42.57742" lon="2.04489">
        <ele>2188</ele>
        <time>2020-07-21T08:27:22.028Z</time>
      </trkpt>
      <trkpt lat="42.57741" lon="2.04486">
        <ele>2188</ele>
        <time>2020-07-21T08:27:23.028Z</time>
      </trkpt>
      <trkpt lat="42.5774" lon="2.04484">
        <ele>2187</ele>
        <time>2020-07-21T08:27:24.028Z</time>
      </trkpt>
      <trkpt lat="42.5774" lon="2.04481">
        <ele>2187</ele>
        <time>2020-07-21T08:27:25.028Z</time>
      </trkpt>
      <trkpt lat="42.57739" lon="2.04478">
        <ele>2187</ele>
        <time>2020-07-21T08:27:26.028Z</time>
      </trkpt>
      <trkpt lat="42.57738" lon="2.04476">
        <ele>2189</ele>
        <time>2020-07-21T08:27:27.028Z</time>
      </trkpt>
      <trkpt lat="42.57736" lon="2.04473">
        <ele>2190</ele>
        <time>2020-07-21T08:27:28.028Z</time>
      </trkpt>
      <trkpt lat="42.57736" lon="2.0447">
        <ele>2190</ele>
        <time>2020-07-21T08:27:29.028Z</time>
      </trkpt>
      <trkpt lat="42.57735" lon="2.04468">
        <ele>2190</ele>
        <time>2020-07-21T08:27:30.028Z</time>
      </trkpt>
      <trkpt lat="42.57734" lon="2.04465">
        <ele>2191</ele>
        <time>2020-07-21T08:27:31.028Z</time>
      </trkpt>
      <trkpt lat="42.57734" lon="2.04462">
        <ele>2192</ele>
        <time>2020-07-21T08:27:32.028Z</time>
      </trkpt>
      <trkpt lat="42.57733" lon="2.0446">
        <ele>2192</ele>
        <time>2020-07-21T08:27:33.028Z</time>
      </trkpt>
      <trkpt lat="42.57732" lon="2.04457">
        <ele>2193</ele>
        <time>2020-07-21T08:27:34.028Z</time>
      </trkpt>
      <trkpt lat="42.57732" lon="2.04454">
        <ele>2193</ele>
        <time>2020-07-21T08:27:35.028Z</time>
      </trkpt>
      <trkpt lat="42.57732" lon="2.04452">
        <ele>2193</ele>
        <time>2020-07-21T08:27:36.028Z</time>
      </trkpt>
      <trkpt lat="42.57731" lon="2.04449">
        <ele>2193</ele>
        <time>2020-07-21T08:27:37.028Z</time>
      </trkpt>
      <trkpt lat="42.57731" lon="2.04446">
        <ele>2193</ele>
        <time>2020-07-21T08:27:38.028Z</time>
      </trkpt>
      <trkpt lat="42.57731" lon="2.04444">
        <ele>2195</ele>
        <time>2020-07-21T08:27:39.028Z</time>
      </trkpt>
      <trkpt lat="42.57731" lon="2.04441">
        <ele>2195</ele>
        <time>2020-07-21T08:27:40.028Z</time>
      </trkpt>
      <trkpt lat="42.5773" lon="2.04438">
        <ele>2196</ele>
        <time>2020-07-21T08:27:41.028Z</time>
      </trkpt>
      <trkpt lat="42.5773" lon="2.04435">
        <ele>2197</ele>
        <time>2020-07-21T08:27:42.028Z</time>
      </trkpt>
      <trkpt lat="42.57729" lon="2.04432">
        <ele>2197</ele>
        <time>2020-07-21T08:27:43.028Z</time>
      </trkpt>
      <trkpt lat="42.57728" lon="2.04429">
        <ele>2198</ele>
        <time>2020-07-21T08:27:44.028Z</time>
      </trkpt>
      <trkpt lat="42.57728" lon="2.04426">
        <ele>2198</ele>
        <time>2020-07-21T08:27:45.028Z</time>
      </trkpt>
      <trkpt lat="42.57727" lon="2.04423">
        <ele>2198</ele>
        <time>2020-07-21T08:27:46.028Z</time>
      </trkpt>
      <trkpt lat="42.57727" lon="2.04421">
        <ele>2198</ele>
        <time>2020-07-21T08:27:47.028Z</time>
      </trkpt>
      <trkpt lat="42.57727" lon="2.04418">
        <ele>2198</ele>
        <time>2020-07-21T08:27:48.028Z</time>
      </trkpt>
      <trkpt lat="42.57726" lon="2.04415">
        <ele>2199</ele>
        <time>2020-07-21T08:27:49.028Z</time>
      </trkpt>
      <trkpt lat="42.57726" lon="2.04412">
        <ele>2199</ele>
        <time>2020-07-21T08:27:50.028Z</time>
      </trkpt>
      <trkpt lat="42.57725" lon="2.04409">
        <ele>2199</ele>
        <time>2020-07-21T08:27:51.028Z</time>
      </trkpt>
      <trkpt lat="42.57725" lon="2.04406">
        <ele>2201</ele>
        <time>2020-07-21T08:27:52.028Z</time>
      </trkpt>
      <trkpt lat="42.57725" lon="2.04404">
        <ele>2202</ele>
        <time>2020-07-21T08:27:53.028Z</time>
      </trkpt>
      <trkpt lat="42.57726" lon="2.04401">
        <ele>2202</ele>
        <time>2020-07-21T08:27:54.028Z</time>
      </trkpt>
      <trkpt lat="42.57726" lon="2.044">
        <ele>2203</ele>
        <time>2020-07-21T08:27:55.028Z</time>
      </trkpt>
      <trkpt lat="42.57726" lon="2.04397">
        <ele>2203</ele>
        <time>2020-07-21T08:27:56.028Z</time>
      </trkpt>
      <trkpt lat="42.57726" lon="2.04395">
        <ele>2204</ele>
        <time>2020-07-21T08:27:57.028Z</time>
      </trkpt>
      <trkpt lat="42.57726" lon="2.04393">
        <ele>2205</ele>
        <time>2020-07-21T08:27:58.028Z</time>
      </trkpt>
      <trkpt lat="42.57725" lon="2.04391">
        <ele>2205</ele>
        <time>2020-07-21T08:27:59.028Z</time>
      </trkpt>
      <trkpt lat="42.57725" lon="2.04389">
        <ele>2206</ele>
        <time>2020-07-21T08:28:00.028Z</time>
      </trkpt>
      <trkpt lat="42.57725" lon="2.04388">
        <ele>2205</ele>
        <time>2020-07-21T08:28:01.028Z</time>
      </trkpt>
      <trkpt lat="42.57725" lon="2.04386">
        <ele>2206</ele>
        <time>2020-07-21T08:28:02.028Z</time>
      </trkpt>
      <trkpt lat="42.57725" lon="2.04384">
        <ele>2206</ele>
        <time>2020-07-21T08:28:03.028Z</time>
      </trkpt>
      <trkpt lat="42.57725" lon="2.04383">
        <ele>2207</ele>
        <time>2020-07-21T08:28:04.028Z</time>
      </trkpt>
      <trkpt lat="42.57724" lon="2.04381">
        <ele>2207</ele>
        <time>2020-07-21T08:28:05.028Z</time>
      </trkpt>
      <trkpt lat="42.57724" lon="2.0438">
        <ele>2207</ele>
        <time>2020-07-21T08:28:06.028Z</time>
      </trkpt>
      <trkpt lat="42.57724" lon="2.04378">
        <ele>2207</ele>
        <time>2020-07-21T08:28:07.028Z</time>
      </trkpt>
      <trkpt lat="42.57723" lon="2.04377">
        <ele>2207</ele>
        <time>2020-07-21T08:28:08.028Z</time>
      </trkpt>
      <trkpt lat="42.57723" lon="2.04376">
        <ele>2207</ele>
        <time>2020-07-21T08:28:09.028Z</time>
      </trkpt>
      <trkpt lat="42.57723" lon="2.04374">
        <ele>2208</ele>
        <time>2020-07-21T08:28:10.028Z</time>
      </trkpt>
      <trkpt lat="42.57723" lon="2.04373">
        <ele>2207</ele>
        <time>2020-07-21T08:28:11.028Z</time>
      </trkpt>
      <trkpt lat="42.57723" lon="2.04371">
        <ele>2207</ele>
        <time>2020-07-21T08:28:12.028Z</time>
      </trkpt>
      <trkpt lat="42.57722" lon="2.04369">
        <ele>2208</ele>
        <time>2020-07-21T08:28:13.028Z</time>
      </trkpt>
      <trkpt lat="42.57722" lon="2.04368">
        <ele>2208</ele>
        <time>2020-07-21T08:28:14.028Z</time>
      </trkpt>
      <trkpt lat="42.57721" lon="2.04366">
        <ele>2208</ele>
        <time>2020-07-21T08:28:15.028Z</time>
      </trkpt>
      <trkpt lat="42.57721" lon="2.04364">
        <ele>2208</ele>
        <time>2020-07-21T08:28:16.028Z</time>
      </trkpt>
      <trkpt lat="42.5772" lon="2.04362">
        <ele>2209</ele>
        <time>2020-07-21T08:28:17.028Z</time>
      </trkpt>
      <trkpt lat="42.5772" lon="2.0436">
        <ele>2208</ele>
        <time>2020-07-21T08:28:18.028Z</time>
      </trkpt>
      <trkpt lat="42.57719" lon="2.04358">
        <ele>2209</ele>
        <time>2020-07-21T08:28:19.028Z</time>
      </trkpt>
      <trkpt lat="42.57719" lon="2.04357">
        <ele>2209</ele>
        <time>2020-07-21T08:28:20.028Z</time>
      </trkpt>
      <trkpt lat="42.57718" lon="2.04355">
        <ele>2210</ele>
        <time>2020-07-21T08:28:21.028Z</time>
      </trkpt>
      <trkpt lat="42.57718" lon="2.04353">
        <ele>2211</ele>
        <time>2020-07-21T08:28:22.028Z</time>
      </trkpt>
      <trkpt lat="42.57717" lon="2.04351">
        <ele>2211</ele>
        <time>2020-07-21T08:28:23.028Z</time>
      </trkpt>
      <trkpt lat="42.57717" lon="2.0435">
        <ele>2211</ele>
        <time>2020-07-21T08:28:24.028Z</time>
      </trkpt>
      <trkpt lat="42.57717" lon="2.04348">
        <ele>2211</ele>
        <time>2020-07-21T08:28:25.028Z</time>
      </trkpt>
      <trkpt lat="42.57716" lon="2.04347">
        <ele>2212</ele>
        <time>2020-07-21T08:28:26.028Z</time>
      </trkpt>
      <trkpt lat="42.57716" lon="2.04345">
        <ele>2212</ele>
        <time>2020-07-21T08:28:27.028Z</time>
      </trkpt>
      <trkpt lat="42.57716" lon="2.04343">
        <ele>2213</ele>
        <time>2020-07-21T08:28:28.028Z</time>
      </trkpt>
      <trkpt lat="42.57715" lon="2.04341">
        <ele>2214</ele>
        <time>2020-07-21T08:28:29.028Z</time>
      </trkpt>
      <trkpt lat="42.57715" lon="2.04339">
        <ele>2214</ele>
        <time>2020-07-21T08:28:30.028Z</time>
      </trkpt>
      <trkpt lat="42.57714" lon="2.04337">
        <ele>2215</ele>
        <time>2020-07-21T08:28:31.028Z</time>
      </trkpt>
      <trkpt lat="42.57714" lon="2.04335">
        <ele>2215</ele>
        <time>2020-07-21T08:28:32.028Z</time>
      </trkpt>
      <trkpt lat="42.57713" lon="2.04332">
        <ele>2216</ele>
        <time>2020-07-21T08:28:33.028Z</time>
      </trkpt>
      <trkpt lat="42.57713" lon="2.0433">
        <ele>2217</ele>
        <time>2020-07-21T08:28:34.028Z</time>
      </trkpt>
      <trkpt lat="42.57713" lon="2.04328">
        <ele>2217</ele>
        <time>2020-07-21T08:28:35.028Z</time>
      </trkpt>
      <trkpt lat="42.57713" lon="2.04326">
        <ele>2218</ele>
        <time>2020-07-21T08:28:36.028Z</time>
      </trkpt>
      <trkpt lat="42.57713" lon="2.04323">
        <ele>2218</ele>
        <time>2020-07-21T08:28:37.028Z</time>
      </trkpt>
      <trkpt lat="42.57712" lon="2.04321">
        <ele>2219</ele>
        <time>2020-07-21T08:28:38.028Z</time>
      </trkpt>
      <trkpt lat="42.57712" lon="2.04318">
        <ele>2220</ele>
        <time>2020-07-21T08:28:39.028Z</time>
      </trkpt>
      <trkpt lat="42.57711" lon="2.04316">
        <ele>2221</ele>
        <time>2020-07-21T08:28:40.028Z</time>
      </trkpt>
      <trkpt lat="42.5771" lon="2.04313">
        <ele>2221</ele>
        <time>2020-07-21T08:28:41.028Z</time>
      </trkpt>
      <trkpt lat="42.5771" lon="2.04311">
        <ele>2220</ele>
        <time>2020-07-21T08:28:42.028Z</time>
      </trkpt>
      <trkpt lat="42.57709" lon="2.04308">
        <ele>2221</ele>
        <time>2020-07-21T08:28:43.028Z</time>
      </trkpt>
      <trkpt lat="42.57709" lon="2.04306">
        <ele>2221</ele>
        <time>2020-07-21T08:28:44.028Z</time>
      </trkpt>
      <trkpt lat="42.57708" lon="2.04305">
        <ele>2223</ele>
        <time>2020-07-21T08:28:45.028Z</time>
      </trkpt>
      <trkpt lat="42.57707" lon="2.04303">
        <ele>2223</ele>
        <time>2020-07-21T08:28:46.028Z</time>
      </trkpt>
      <trkpt lat="42.57706" lon="2.04301">
        <ele>2224</ele>
        <time>2020-07-21T08:28:47.028Z</time>
      </trkpt>
      <trkpt lat="42.57705" lon="2.043">
        <ele>2223</ele>
        <time>2020-07-21T08:28:48.028Z</time>
      </trkpt>
      <trkpt lat="42.57705" lon="2.04298">
        <ele>2224</ele>
        <time>2020-07-21T08:28:49.028Z</time>
      </trkpt>
      <trkpt lat="42.57705" lon="2.04297">
        <ele>2225</ele>
        <time>2020-07-21T08:28:50.028Z</time>
      </trkpt>
      <trkpt lat="42.57704" lon="2.04296">
        <ele>2225</ele>
        <time>2020-07-21T08:28:51.028Z</time>
      </trkpt>
      <trkpt lat="42.57704" lon="2.04295">
        <ele>2224</ele>
        <time>2020-07-21T08:28:52.028Z</time>
      </trkpt>
      <trkpt lat="42.57703" lon="2.04293">
        <ele>2224</ele>
        <time>2020-07-21T08:28:53.028Z</time>
      </trkpt>
      <trkpt lat="42.57703" lon="2.04291">
        <ele>2225</ele>
        <time>2020-07-21T08:28:54.028Z</time>
      </trkpt>
      <trkpt lat="42.57703" lon="2.0429">
        <ele>2225</ele>
        <time>2020-07-21T08:28:55.028Z</time>
      </trkpt>
      <trkpt lat="42.57702" lon="2.04289">
        <ele>2225</ele>
        <time>2020-07-21T08:28:56.028Z</time>
      </trkpt>
      <trkpt lat="42.57702" lon="2.04287">
        <ele>2225</ele>
        <time>2020-07-21T08:28:57.028Z</time>
      </trkpt>
      <trkpt lat="42.57702" lon="2.04286">
        <ele>2224</ele>
        <time>2020-07-21T08:28:58.028Z</time>
      </trkpt>
      <trkpt lat="42.57702" lon="2.04284">
        <ele>2224</ele>
        <time>2020-07-21T08:28:59.028Z</time>
      </trkpt>
      <trkpt lat="42.57702" lon="2.04283">
        <ele>2224</ele>
        <time>2020-07-21T08:29:00.028Z</time>
      </trkpt>
      <trkpt lat="42.57701" lon="2.04282">
        <ele>2225</ele>
        <time>2020-07-21T08:29:01.028Z</time>
      </trkpt>
      <trkpt lat="42.57701" lon="2.0428">
        <ele>2224</ele>
        <time>2020-07-21T08:29:02.028Z</time>
      </trkpt>
      <trkpt lat="42.577" lon="2.04279">
        <ele>2225</ele>
        <time>2020-07-21T08:29:03.028Z</time>
      </trkpt>
      <trkpt lat="42.57699" lon="2.04277">
        <ele>2225</ele>
        <time>2020-07-21T08:29:04.028Z</time>
      </trkpt>
      <trkpt lat="42.57699" lon="2.04275">
        <ele>2226</ele>
        <time>2020-07-21T08:29:05.028Z</time>
      </trkpt>
      <trkpt lat="42.57699" lon="2.04274">
        <ele>2225</ele>
        <time>2020-07-21T08:29:06.028Z</time>
      </trkpt>
      <trkpt lat="42.57698" lon="2.04273">
        <ele>2226</ele>
        <time>2020-07-21T08:29:07.028Z</time>
      </trkpt>
      <trkpt lat="42.57698" lon="2.04272">
        <ele>2225</ele>
        <time>2020-07-21T08:29:08.028Z</time>
      </trkpt>
      <trkpt lat="42.57697" lon="2.04271">
        <ele>2225</ele>
        <time>2020-07-21T08:29:09.028Z</time>
      </trkpt>
      <trkpt lat="42.57697" lon="2.04269">
        <ele>2225</ele>
        <time>2020-07-21T08:29:10.028Z</time>
      </trkpt>
      <trkpt lat="42.57697" lon="2.04267">
        <ele>2226</ele>
        <time>2020-07-21T08:29:11.028Z</time>
      </trkpt>
      <trkpt lat="42.57696" lon="2.04265">
        <ele>2226</ele>
        <time>2020-07-21T08:29:12.028Z</time>
      </trkpt>
      <trkpt lat="42.57696" lon="2.04264">
        <ele>2226</ele>
        <time>2020-07-21T08:29:13.028Z</time>
      </trkpt>
      <trkpt lat="42.57696" lon="2.04263">
        <ele>2226</ele>
        <time>2020-07-21T08:29:14.028Z</time>
      </trkpt>
      <trkpt lat="42.57695" lon="2.04262">
        <ele>2226</ele>
        <time>2020-07-21T08:29:15.028Z</time>
      </trkpt>
      <trkpt lat="42.57695" lon="2.0426">
        <ele>2227</ele>
        <time>2020-07-21T08:29:16.028Z</time>
      </trkpt>
      <trkpt lat="42.57695" lon="2.04259">
        <ele>2227</ele>
        <time>2020-07-21T08:29:17.028Z</time>
      </trkpt>
      <trkpt lat="42.57694" lon="2.04257">
        <ele>2228</ele>
        <time>2020-07-21T08:29:18.028Z</time>
      </trkpt>
      <trkpt lat="42.57694" lon="2.04256">
        <ele>2228</ele>
        <time>2020-07-21T08:29:19.028Z</time>
      </trkpt>
      <trkpt lat="42.57693" lon="2.04255">
        <ele>2229</ele>
        <time>2020-07-21T08:29:20.028Z</time>
      </trkpt>
      <trkpt lat="42.57693" lon="2.04254">
        <ele>2229</ele>
        <time>2020-07-21T08:29:21.028Z</time>
      </trkpt>
      <trkpt lat="42.57693" lon="2.04252">
        <ele>2230</ele>
        <time>2020-07-21T08:29:22.028Z</time>
      </trkpt>
      <trkpt lat="42.57693" lon="2.04251">
        <ele>2231</ele>
        <time>2020-07-21T08:29:23.028Z</time>
      </trkpt>
      <trkpt lat="42.57692" lon="2.04249">
        <ele>2231</ele>
        <time>2020-07-21T08:29:24.028Z</time>
      </trkpt>
      <trkpt lat="42.57692" lon="2.04248">
        <ele>2232</ele>
        <time>2020-07-21T08:29:25.028Z</time>
      </trkpt>
      <trkpt lat="42.57692" lon="2.04247">
        <ele>2232</ele>
        <time>2020-07-21T08:29:26.028Z</time>
      </trkpt>
      <trkpt lat="42.57692" lon="2.04245">
        <ele>2233</ele>
        <time>2020-07-21T08:29:27.028Z</time>
      </trkpt>
      <trkpt lat="42.57691" lon="2.04244">
        <ele>2233</ele>
        <time>2020-07-21T08:29:28.028Z</time>
      </trkpt>
      <trkpt lat="42.57691" lon="2.04243">
        <ele>2233</ele>
        <time>2020-07-21T08:29:29.028Z</time>
      </trkpt>
      <trkpt lat="42.57691" lon="2.04241">
        <ele>2234</ele>
        <time>2020-07-21T08:29:30.028Z</time>
      </trkpt>
      <trkpt lat="42.57691" lon="2.0424">
        <ele>2233</ele>
        <time>2020-07-21T08:29:31.028Z</time>
      </trkpt>
      <trkpt lat="42.5769" lon="2.04239">
        <ele>2234</ele>
        <time>2020-07-21T08:29:32.028Z</time>
      </trkpt>
      <trkpt lat="42.5769" lon="2.04237">
        <ele>2234</ele>
        <time>2020-07-21T08:29:33.028Z</time>
      </trkpt>
      <trkpt lat="42.5769" lon="2.04236">
        <ele>2235</ele>
        <time>2020-07-21T08:29:34.028Z</time>
      </trkpt>
      <trkpt lat="42.5769" lon="2.04234">
        <ele>2236</ele>
        <time>2020-07-21T08:29:35.028Z</time>
      </trkpt>
      <trkpt lat="42.57689" lon="2.04233">
        <ele>2236</ele>
        <time>2020-07-21T08:29:36.028Z</time>
      </trkpt>
      <trkpt lat="42.57689" lon="2.04231">
        <ele>2237</ele>
        <time>2020-07-21T08:29:37.028Z</time>
      </trkpt>
      <trkpt lat="42.57689" lon="2.0423">
        <ele>2238</ele>
        <time>2020-07-21T08:29:38.028Z</time>
      </trkpt>
      <trkpt lat="42.57688" lon="2.04229">
        <ele>2238</ele>
        <time>2020-07-21T08:29:39.028Z</time>
      </trkpt>
      <trkpt lat="42.57688" lon="2.04227">
        <ele>2238</ele>
        <time>2020-07-21T08:29:40.028Z</time>
      </trkpt>
      <trkpt lat="42.57687" lon="2.04225">
        <ele>2238</ele>
        <time>2020-07-21T08:29:41.028Z</time>
      </trkpt>
      <trkpt lat="42.57687" lon="2.04223">
        <ele>2239</ele>
        <time>2020-07-21T08:29:42.028Z</time>
      </trkpt>
      <trkpt lat="42.57686" lon="2.04222">
        <ele>2241</ele>
        <time>2020-07-21T08:29:43.028Z</time>
      </trkpt>
      <trkpt lat="42.57686" lon="2.0422">
        <ele>2241</ele>
        <time>2020-07-21T08:29:44.028Z</time>
      </trkpt>
      <trkpt lat="42.57685" lon="2.04219">
        <ele>2241</ele>
        <time>2020-07-21T08:29:45.028Z</time>
      </trkpt>
      <trkpt lat="42.57685" lon="2.04217">
        <ele>2241</ele>
        <time>2020-07-21T08:29:46.028Z</time>
      </trkpt>
      <trkpt lat="42.57685" lon="2.04216">
        <ele>2241</ele>
        <time>2020-07-21T08:29:47.028Z</time>
      </trkpt>
      <trkpt lat="42.57685" lon="2.04215">
        <ele>2242</ele>
        <time>2020-07-21T08:29:48.028Z</time>
      </trkpt>
      <trkpt lat="42.57684" lon="2.04213">
        <ele>2242</ele>
        <time>2020-07-21T08:29:49.028Z</time>
      </trkpt>
      <trkpt lat="42.57684" lon="2.04212">
        <ele>2243</ele>
        <time>2020-07-21T08:29:50.028Z</time>
      </trkpt>
      <trkpt lat="42.57683" lon="2.0421">
        <ele>2244</ele>
        <time>2020-07-21T08:29:51.028Z</time>
      </trkpt>
      <trkpt lat="42.57683" lon="2.04208">
        <ele>2245</ele>
        <time>2020-07-21T08:29:52.028Z</time>
      </trkpt>
      <trkpt lat="42.57683" lon="2.04207">
        <ele>2245</ele>
        <time>2020-07-21T08:29:53.028Z</time>
      </trkpt>
      <trkpt lat="42.57682" lon="2.04205">
        <ele>2246</ele>
        <time>2020-07-21T08:29:54.028Z</time>
      </trkpt>
      <trkpt lat="42.57682" lon="2.04204">
        <ele>2246</ele>
        <time>2020-07-21T08:29:55.028Z</time>
      </trkpt>
      <trkpt lat="42.57681" lon="2.04203">
        <ele>2246</ele>
        <time>2020-07-21T08:29:56.028Z</time>
      </trkpt>
      <trkpt lat="42.57681" lon="2.04201">
        <ele>2246</ele>
        <time>2020-07-21T08:29:57.028Z</time>
      </trkpt>
      <trkpt lat="42.57681" lon="2.04199">
        <ele>2246</ele>
        <time>2020-07-21T08:29:58.028Z</time>
      </trkpt>
      <trkpt lat="42.57681" lon="2.04198">
        <ele>2246</ele>
        <time>2020-07-21T08:29:59.028Z</time>
      </trkpt>
      <trkpt lat="42.5768" lon="2.04196">
        <ele>2246</ele>
        <time>2020-07-21T08:30:00.028Z</time>
      </trkpt>
      <trkpt lat="42.5768" lon="2.04195">
        <ele>2246</ele>
        <time>2020-07-21T08:30:01.028Z</time>
      </trkpt>
      <trkpt lat="42.5768" lon="2.04194">
        <ele>2247</ele>
        <time>2020-07-21T08:30:02.028Z</time>
      </trkpt>
      <trkpt lat="42.5768" lon="2.04192">
        <ele>2248</ele>
        <time>2020-07-21T08:30:03.028Z</time>
      </trkpt>
      <trkpt lat="42.5768" lon="2.04191">
        <ele>2249</ele>
        <time>2020-07-21T08:30:04.028Z</time>
      </trkpt>
      <trkpt lat="42.57679" lon="2.0419">
        <ele>2249</ele>
        <time>2020-07-21T08:30:05.028Z</time>
      </trkpt>
      <trkpt lat="42.57679" lon="2.04188">
        <ele>2249</ele>
        <time>2020-07-21T08:30:06.028Z</time>
      </trkpt>
      <trkpt lat="42.57678" lon="2.04187">
        <ele>2250</ele>
        <time>2020-07-21T08:30:07.028Z</time>
      </trkpt>
      <trkpt lat="42.57678" lon="2.04185">
        <ele>2250</ele>
        <time>2020-07-21T08:30:08.028Z</time>
      </trkpt>
      <trkpt lat="42.57678" lon="2.04184">
        <ele>2251</ele>
        <time>2020-07-21T08:30:09.028Z</time>
      </trkpt>
      <trkpt lat="42.57677" lon="2.04183">
        <ele>2250</ele>
        <time>2020-07-21T08:30:10.028Z</time>
      </trkpt>
      <trkpt lat="42.57677" lon="2.04181">
        <ele>2250</ele>
        <time>2020-07-21T08:30:11.028Z</time>
      </trkpt>
      <trkpt lat="42.57677" lon="2.04179">
        <ele>2251</ele>
        <time>2020-07-21T08:30:12.028Z</time>
      </trkpt>
      <trkpt lat="42.57677" lon="2.04178">
        <ele>2252</ele>
        <time>2020-07-21T08:30:13.028Z</time>
      </trkpt>
      <trkpt lat="42.57677" lon="2.04176">
        <ele>2252</ele>
        <time>2020-07-21T08:30:14.028Z</time>
      </trkpt>
      <trkpt lat="42.57677" lon="2.04174">
        <ele>2253</ele>
        <time>2020-07-21T08:30:15.028Z</time>
      </trkpt>
      <trkpt lat="42.57676" lon="2.04173">
        <ele>2253</ele>
        <time>2020-07-21T08:30:16.028Z</time>
      </trkpt>
      <trkpt lat="42.57676" lon="2.04171">
        <ele>2253</ele>
        <time>2020-07-21T08:30:17.028Z</time>
      </trkpt>
      <trkpt lat="42.57676" lon="2.04169">
        <ele>2252</ele>
        <time>2020-07-21T08:30:18.028Z</time>
      </trkpt>
      <trkpt lat="42.57676" lon="2.04168">
        <ele>2252</ele>
        <time>2020-07-21T08:30:19.028Z</time>
      </trkpt>
      <trkpt lat="42.57677" lon="2.04166">
        <ele>2251</ele>
        <time>2020-07-21T08:30:20.028Z</time>
      </trkpt>
      <trkpt lat="42.57677" lon="2.04164">
        <ele>2252</ele>
        <time>2020-07-21T08:30:21.028Z</time>
      </trkpt>
      <trkpt lat="42.57677" lon="2.04162">
        <ele>2252</ele>
        <time>2020-07-21T08:30:22.028Z</time>
      </trkpt>
      <trkpt lat="42.57677" lon="2.04161">
        <ele>2251</ele>
        <time>2020-07-21T08:30:23.028Z</time>
      </trkpt>
      <trkpt lat="42.57676" lon="2.04159">
        <ele>2251</ele>
        <time>2020-07-21T08:30:24.028Z</time>
      </trkpt>
      <trkpt lat="42.57676" lon="2.04157">
        <ele>2252</ele>
        <time>2020-07-21T08:30:25.028Z</time>
      </trkpt>
      <trkpt lat="42.57676" lon="2.04156">
        <ele>2253</ele>
        <time>2020-07-21T08:30:26.028Z</time>
      </trkpt>
      <trkpt lat="42.57676" lon="2.04154">
        <ele>2254</ele>
        <time>2020-07-21T08:30:27.028Z</time>
      </trkpt>
      <trkpt lat="42.57677" lon="2.04153">
        <ele>2254</ele>
        <time>2020-07-21T08:30:28.028Z</time>
      </trkpt>
      <trkpt lat="42.57677" lon="2.04151">
        <ele>2254</ele>
        <time>2020-07-21T08:30:29.028Z</time>
      </trkpt>
      <trkpt lat="42.57677" lon="2.0415">
        <ele>2254</ele>
        <time>2020-07-21T08:30:30.028Z</time>
      </trkpt>
      <trkpt lat="42.57676" lon="2.04148">
        <ele>2255</ele>
        <time>2020-07-21T08:30:31.028Z</time>
      </trkpt>
      <trkpt lat="42.57676" lon="2.04147">
        <ele>2255</ele>
        <time>2020-07-21T08:30:32.028Z</time>
      </trkpt>
      <trkpt lat="42.57676" lon="2.04145">
        <ele>2257</ele>
        <time>2020-07-21T08:30:33.028Z</time>
      </trkpt>
      <trkpt lat="42.57676" lon="2.04144">
        <ele>2257</ele>
        <time>2020-07-21T08:30:34.028Z</time>
      </trkpt>
      <trkpt lat="42.57676" lon="2.04141">
        <ele>2257</ele>
        <time>2020-07-21T08:30:35.028Z</time>
      </trkpt>
      <trkpt lat="42.57676" lon="2.0414">
        <ele>2257</ele>
        <time>2020-07-21T08:30:36.028Z</time>
      </trkpt>
      <trkpt lat="42.57677" lon="2.04138">
        <ele>2258</ele>
        <time>2020-07-21T08:30:37.028Z</time>
      </trkpt>
      <trkpt lat="42.57677" lon="2.04136">
        <ele>2258</ele>
        <time>2020-07-21T08:30:38.028Z</time>
      </trkpt>
      <trkpt lat="42.57677" lon="2.04134">
        <ele>2258</ele>
        <time>2020-07-21T08:30:39.028Z</time>
      </trkpt>
      <trkpt lat="42.57677" lon="2.04133">
        <ele>2259</ele>
        <time>2020-07-21T08:30:40.028Z</time>
      </trkpt>
      <trkpt lat="42.57677" lon="2.04131">
        <ele>2260</ele>
        <time>2020-07-21T08:30:41.028Z</time>
      </trkpt>
      <trkpt lat="42.57677" lon="2.0413">
        <ele>2260</ele>
        <time>2020-07-21T08:30:42.028Z</time>
      </trkpt>
      <trkpt lat="42.57677" lon="2.04129">
        <ele>2260</ele>
        <time>2020-07-21T08:30:43.028Z</time>
      </trkpt>
      <trkpt lat="42.57677" lon="2.04127">
        <ele>2260</ele>
        <time>2020-07-21T08:30:44.028Z</time>
      </trkpt>
      <trkpt lat="42.57677" lon="2.04126">
        <ele>2260</ele>
        <time>2020-07-21T08:30:45.028Z</time>
      </trkpt>
      <trkpt lat="42.57677" lon="2.04124">
        <ele>2260</ele>
        <time>2020-07-21T08:30:46.028Z</time>
      </trkpt>
      <trkpt lat="42.57677" lon="2.04123">
        <ele>2260</ele>
        <time>2020-07-21T08:30:47.028Z</time>
      </trkpt>
      <trkpt lat="42.57677" lon="2.04121">
        <ele>2261</ele>
        <time>2020-07-21T08:30:48.028Z</time>
      </trkpt>
      <trkpt lat="42.57677" lon="2.0412">
        <ele>2261</ele>
        <time>2020-07-21T08:30:49.028Z</time>
      </trkpt>
      <trkpt lat="42.57677" lon="2.04118">
        <ele>2261</ele>
        <time>2020-07-21T08:30:50.028Z</time>
      </trkpt>
      <trkpt lat="42.57677" lon="2.04117">
        <ele>2261</ele>
        <time>2020-07-21T08:30:51.028Z</time>
      </trkpt>
      <trkpt lat="42.57678" lon="2.04115">
        <ele>2262</ele>
        <time>2020-07-21T08:30:52.028Z</time>
      </trkpt>
      <trkpt lat="42.57678" lon="2.04114">
        <ele>2262</ele>
        <time>2020-07-21T08:30:53.028Z</time>
      </trkpt>
      <trkpt lat="42.57678" lon="2.04113">
        <ele>2262</ele>
        <time>2020-07-21T08:30:54.028Z</time>
      </trkpt>
      <trkpt lat="42.57678" lon="2.04112">
        <ele>2262</ele>
        <time>2020-07-21T08:30:55.028Z</time>
      </trkpt>
      <trkpt lat="42.57678" lon="2.04111">
        <ele>2262</ele>
        <time>2020-07-21T08:30:56.028Z</time>
      </trkpt>
      <trkpt lat="42.57678" lon="2.04109">
        <ele>2263</ele>
        <time>2020-07-21T08:30:57.028Z</time>
      </trkpt>
      <trkpt lat="42.57678" lon="2.04108">
        <ele>2263</ele>
        <time>2020-07-21T08:30:58.028Z</time>
      </trkpt>
      <trkpt lat="42.57678" lon="2.04107">
        <ele>2264</ele>
        <time>2020-07-21T08:30:59.028Z</time>
      </trkpt>
      <trkpt lat="42.57677" lon="2.04105">
        <ele>2265</ele>
        <time>2020-07-21T08:31:00.028Z</time>
      </trkpt>
      <trkpt lat="42.57677" lon="2.04103">
        <ele>2265</ele>
        <time>2020-07-21T08:31:01.028Z</time>
      </trkpt>
      <trkpt lat="42.57677" lon="2.04102">
        <ele>2265</ele>
        <time>2020-07-21T08:31:02.028Z</time>
      </trkpt>
      <trkpt lat="42.57677" lon="2.041">
        <ele>2265</ele>
        <time>2020-07-21T08:31:03.028Z</time>
      </trkpt>
      <trkpt lat="42.57678" lon="2.04098">
        <ele>2266</ele>
        <time>2020-07-21T08:31:04.028Z</time>
      </trkpt>
      <trkpt lat="42.57678" lon="2.04097">
        <ele>2266</ele>
        <time>2020-07-21T08:31:05.028Z</time>
      </trkpt>
      <trkpt lat="42.57677" lon="2.04095">
        <ele>2266</ele>
        <time>2020-07-21T08:31:06.028Z</time>
      </trkpt>
      <trkpt lat="42.57677" lon="2.04093">
        <ele>2266</ele>
        <time>2020-07-21T08:31:07.028Z</time>
      </trkpt>
      <trkpt lat="42.57678" lon="2.04091">
        <ele>2266</ele>
        <time>2020-07-21T08:31:08.028Z</time>
      </trkpt>
      <trkpt lat="42.57678" lon="2.0409">
        <ele>2266</ele>
        <time>2020-07-21T08:31:09.028Z</time>
      </trkpt>
      <trkpt lat="42.57678" lon="2.04088">
        <ele>2266</ele>
        <time>2020-07-21T08:31:10.028Z</time>
      </trkpt>
      <trkpt lat="42.57678" lon="2.04087">
        <ele>2266</ele>
        <time>2020-07-21T08:31:11.028Z</time>
      </trkpt>
      <trkpt lat="42.57678" lon="2.04085">
        <ele>2267</ele>
        <time>2020-07-21T08:31:12.028Z</time>
      </trkpt>
      <trkpt lat="42.57678" lon="2.04084">
        <ele>2267</ele>
        <time>2020-07-21T08:31:13.028Z</time>
      </trkpt>
      <trkpt lat="42.57678" lon="2.04082">
        <ele>2267</ele>
        <time>2020-07-21T08:31:14.028Z</time>
      </trkpt>
      <trkpt lat="42.57678" lon="2.04081">
        <ele>2268</ele>
        <time>2020-07-21T08:31:15.028Z</time>
      </trkpt>
      <trkpt lat="42.57678" lon="2.04079">
        <ele>2268</ele>
        <time>2020-07-21T08:31:16.028Z</time>
      </trkpt>
      <trkpt lat="42.57678" lon="2.04078">
        <ele>2267</ele>
        <time>2020-07-21T08:31:17.028Z</time>
      </trkpt>
      <trkpt lat="42.57679" lon="2.04077">
        <ele>2267</ele>
        <time>2020-07-21T08:31:18.028Z</time>
      </trkpt>
      <trkpt lat="42.57679" lon="2.04075">
        <ele>2267</ele>
        <time>2020-07-21T08:31:19.028Z</time>
      </trkpt>
      <trkpt lat="42.57679" lon="2.04074">
        <ele>2267</ele>
        <time>2020-07-21T08:31:20.028Z</time>
      </trkpt>
      <trkpt lat="42.5768" lon="2.04072">
        <ele>2267</ele>
        <time>2020-07-21T08:31:21.028Z</time>
      </trkpt>
      <trkpt lat="42.5768" lon="2.04071">
        <ele>2266</ele>
        <time>2020-07-21T08:31:22.028Z</time>
      </trkpt>
      <trkpt lat="42.5768" lon="2.0407">
        <ele>2266</ele>
        <time>2020-07-21T08:31:23.028Z</time>
      </trkpt>
      <trkpt lat="42.5768" lon="2.04069">
        <ele>2266</ele>
        <time>2020-07-21T08:31:24.028Z</time>
      </trkpt>
      <trkpt lat="42.5768" lon="2.04067">
        <ele>2267</ele>
        <time>2020-07-21T08:31:25.028Z</time>
      </trkpt>
      <trkpt lat="42.5768" lon="2.04065">
        <ele>2268</ele>
        <time>2020-07-21T08:31:26.028Z</time>
      </trkpt>
      <trkpt lat="42.5768" lon="2.04063">
        <ele>2268</ele>
        <time>2020-07-21T08:31:27.028Z</time>
      </trkpt>
      <trkpt lat="42.57681" lon="2.04062">
        <ele>2268</ele>
        <time>2020-07-21T08:31:28.028Z</time>
      </trkpt>
      <trkpt lat="42.57681" lon="2.0406">
        <ele>2268</ele>
        <time>2020-07-21T08:31:29.028Z</time>
      </trkpt>
      <trkpt lat="42.57681" lon="2.04059">
        <ele>2269</ele>
        <time>2020-07-21T08:31:30.028Z</time>
      </trkpt>
      <trkpt lat="42.57682" lon="2.04057">
        <ele>2270</ele>
        <time>2020-07-21T08:31:31.028Z</time>
      </trkpt>
      <trkpt lat="42.57682" lon="2.04055">
        <ele>2270</ele>
        <time>2020-07-21T08:31:32.028Z</time>
      </trkpt>
      <trkpt lat="42.57683" lon="2.04054">
        <ele>2271</ele>
        <time>2020-07-21T08:31:33.028Z</time>
      </trkpt>
      <trkpt lat="42.57683" lon="2.04052">
        <ele>2272</ele>
        <time>2020-07-21T08:31:34.028Z</time>
      </trkpt>
      <trkpt lat="42.57683" lon="2.0405">
        <ele>2271</ele>
        <time>2020-07-21T08:31:35.028Z</time>
      </trkpt>
      <trkpt lat="42.57683" lon="2.04049">
        <ele>2273</ele>
        <time>2020-07-21T08:31:36.028Z</time>
      </trkpt>
      <trkpt lat="42.57683" lon="2.04047">
        <ele>2273</ele>
        <time>2020-07-21T08:31:37.028Z</time>
      </trkpt>
      <trkpt lat="42.57683" lon="2.04046">
        <ele>2273</ele>
        <time>2020-07-21T08:31:38.028Z</time>
      </trkpt>
      <trkpt lat="42.57683" lon="2.04044">
        <ele>2274</ele>
        <time>2020-07-21T08:31:39.028Z</time>
      </trkpt>
      <trkpt lat="42.57683" lon="2.04043">
        <ele>2274</ele>
        <time>2020-07-21T08:31:40.028Z</time>
      </trkpt>
      <trkpt lat="42.57684" lon="2.04041">
        <ele>2274</ele>
        <time>2020-07-21T08:31:41.028Z</time>
      </trkpt>
      <trkpt lat="42.57682" lon="2.04036">
        <ele>2276</ele>
        <time>2020-07-21T08:31:42.094Z</time>
      </trkpt>
      <trkpt lat="42.57682" lon="2.04036">
        <ele>2276</ele>
        <time>2020-07-21T08:31:43.094Z</time>
      </trkpt>
      <trkpt lat="42.57681" lon="2.04035">
        <ele>2276</ele>
        <time>2020-07-21T08:31:44.094Z</time>
      </trkpt>
      <trkpt lat="42.57679" lon="2.04035">
        <ele>2276</ele>
        <time>2020-07-21T08:31:45.094Z</time>
      </trkpt>
      <trkpt lat="42.57677" lon="2.04035">
        <ele>2276</ele>
        <time>2020-07-21T08:31:46.094Z</time>
      </trkpt>
      <trkpt lat="42.57675" lon="2.04035">
        <ele>2276</ele>
        <time>2020-07-21T08:31:47.094Z</time>
      </trkpt>
      <trkpt lat="42.57673" lon="2.04037">
        <ele>2276</ele>
        <time>2020-07-21T08:31:48.094Z</time>
      </trkpt>
      <trkpt lat="42.57671" lon="2.04038">
        <ele>2276</ele>
        <time>2020-07-21T08:31:49.094Z</time>
      </trkpt>
      <trkpt lat="42.5767" lon="2.0404">
        <ele>2276</ele>
        <time>2020-07-21T08:31:50.094Z</time>
      </trkpt>
      <trkpt lat="42.57668" lon="2.04043">
        <ele>2276</ele>
        <time>2020-07-21T08:31:51.094Z</time>
      </trkpt>
      <trkpt lat="42.57667" lon="2.04045">
        <ele>2276</ele>
        <time>2020-07-21T08:31:52.094Z</time>
      </trkpt>
      <trkpt lat="42.57666" lon="2.04048">
        <ele>2276</ele>
        <time>2020-07-21T08:31:53.094Z</time>
      </trkpt>
      <trkpt lat="42.57665" lon="2.04051">
        <ele>2276</ele>
        <time>2020-07-21T08:31:54.094Z</time>
      </trkpt>
      <trkpt lat="42.57664" lon="2.04054">
        <ele>2276</ele>
        <time>2020-07-21T08:31:55.094Z</time>
      </trkpt>
      <trkpt lat="42.57663" lon="2.04057">
        <ele>2277</ele>
        <time>2020-07-21T08:31:56.094Z</time>
      </trkpt>
      <trkpt lat="42.57662" lon="2.0406">
        <ele>2277</ele>
        <time>2020-07-21T08:31:57.094Z</time>
      </trkpt>
      <trkpt lat="42.5766" lon="2.04064">
        <ele>2278</ele>
        <time>2020-07-21T08:31:58.094Z</time>
      </trkpt>
      <trkpt lat="42.57659" lon="2.04067">
        <ele>2278</ele>
        <time>2020-07-21T08:31:59.094Z</time>
      </trkpt>
      <trkpt lat="42.57657" lon="2.0407">
        <ele>2278</ele>
        <time>2020-07-21T08:32:00.094Z</time>
      </trkpt>
      <trkpt lat="42.57656" lon="2.04073">
        <ele>2279</ele>
        <time>2020-07-21T08:32:01.094Z</time>
      </trkpt>
      <trkpt lat="42.57654" lon="2.04076">
        <ele>2280</ele>
        <time>2020-07-21T08:32:02.094Z</time>
      </trkpt>
      <trkpt lat="42.57653" lon="2.0408">
        <ele>2280</ele>
        <time>2020-07-21T08:32:03.094Z</time>
      </trkpt>
      <trkpt lat="42.57651" lon="2.04084">
        <ele>2280</ele>
        <time>2020-07-21T08:32:04.094Z</time>
      </trkpt>
      <trkpt lat="42.57649" lon="2.04087">
        <ele>2280</ele>
        <time>2020-07-21T08:32:05.094Z</time>
      </trkpt>
      <trkpt lat="42.57648" lon="2.04091">
        <ele>2280</ele>
        <time>2020-07-21T08:32:06.094Z</time>
      </trkpt>
      <trkpt lat="42.57646" lon="2.04094">
        <ele>2281</ele>
        <time>2020-07-21T08:32:07.094Z</time>
      </trkpt>
      <trkpt lat="42.57644" lon="2.04097">
        <ele>2281</ele>
        <time>2020-07-21T08:32:08.094Z</time>
      </trkpt>
      <trkpt lat="42.57643" lon="2.041">
        <ele>2282</ele>
        <time>2020-07-21T08:32:09.094Z</time>
      </trkpt>
      <trkpt lat="42.57641" lon="2.04103">
        <ele>2282</ele>
        <time>2020-07-21T08:32:10.094Z</time>
      </trkpt>
      <trkpt lat="42.57639" lon="2.04106">
        <ele>2282</ele>
        <time>2020-07-21T08:32:11.094Z</time>
      </trkpt>
      <trkpt lat="42.57638" lon="2.04109">
        <ele>2282</ele>
        <time>2020-07-21T08:32:12.094Z</time>
      </trkpt>
      <trkpt lat="42.57636" lon="2.04112">
        <ele>2282</ele>
        <time>2020-07-21T08:32:13.094Z</time>
      </trkpt>
      <trkpt lat="42.57634" lon="2.04115">
        <ele>2282</ele>
        <time>2020-07-21T08:32:14.094Z</time>
      </trkpt>
      <trkpt lat="42.57632" lon="2.04117">
        <ele>2283</ele>
        <time>2020-07-21T08:32:15.094Z</time>
      </trkpt>
      <trkpt lat="42.5763" lon="2.0412">
        <ele>2283</ele>
        <time>2020-07-21T08:32:16.094Z</time>
      </trkpt>
      <trkpt lat="42.57629" lon="2.04122">
        <ele>2282</ele>
        <time>2020-07-21T08:32:17.094Z</time>
      </trkpt>
      <trkpt lat="42.57627" lon="2.04124">
        <ele>2283</ele>
        <time>2020-07-21T08:32:18.094Z</time>
      </trkpt>
      <trkpt lat="42.57625" lon="2.04127">
        <ele>2284</ele>
        <time>2020-07-21T08:32:19.094Z</time>
      </trkpt>
      <trkpt lat="42.57623" lon="2.04129">
        <ele>2284</ele>
        <time>2020-07-21T08:32:20.094Z</time>
      </trkpt>
      <trkpt lat="42.57621" lon="2.04131">
        <ele>2285</ele>
        <time>2020-07-21T08:32:21.094Z</time>
      </trkpt>
      <trkpt lat="42.57618" lon="2.04132">
        <ele>2285</ele>
        <time>2020-07-21T08:32:22.094Z</time>
      </trkpt>
      <trkpt lat="42.57615" lon="2.04132">
        <ele>2286</ele>
        <time>2020-07-21T08:32:23.094Z</time>
      </trkpt>
      <trkpt lat="42.57613" lon="2.04133">
        <ele>2286</ele>
        <time>2020-07-21T08:32:24.094Z</time>
      </trkpt>
      <trkpt lat="42.57611" lon="2.04133">
        <ele>2287</ele>
        <time>2020-07-21T08:32:25.094Z</time>
      </trkpt>
      <trkpt lat="42.57608" lon="2.04134">
        <ele>2287</ele>
        <time>2020-07-21T08:32:26.094Z</time>
      </trkpt>
      <trkpt lat="42.57606" lon="2.04134">
        <ele>2287</ele>
        <time>2020-07-21T08:32:27.094Z</time>
      </trkpt>
      <trkpt lat="42.57604" lon="2.04135">
        <ele>2288</ele>
        <time>2020-07-21T08:32:28.094Z</time>
      </trkpt>
      <trkpt lat="42.57601" lon="2.04135">
        <ele>2288</ele>
        <time>2020-07-21T08:32:29.094Z</time>
      </trkpt>
      <trkpt lat="42.57598" lon="2.04135">
        <ele>2289</ele>
        <time>2020-07-21T08:32:30.094Z</time>
      </trkpt>
      <trkpt lat="42.57596" lon="2.04136">
        <ele>2289</ele>
        <time>2020-07-21T08:32:31.094Z</time>
      </trkpt>
      <trkpt lat="42.57593" lon="2.04136">
        <ele>2289</ele>
        <time>2020-07-21T08:32:32.094Z</time>
      </trkpt>
      <trkpt lat="42.57591" lon="2.04137">
        <ele>2289</ele>
        <time>2020-07-21T08:32:33.094Z</time>
      </trkpt>
      <trkpt lat="42.57588" lon="2.04137">
        <ele>2289</ele>
        <time>2020-07-21T08:32:34.094Z</time>
      </trkpt>
      <trkpt lat="42.57586" lon="2.04138">
        <ele>2289</ele>
        <time>2020-07-21T08:32:35.094Z</time>
      </trkpt>
      <trkpt lat="42.57584" lon="2.04139">
        <ele>2290</ele>
        <time>2020-07-21T08:32:36.094Z</time>
      </trkpt>
      <trkpt lat="42.57581" lon="2.04141">
        <ele>2289</ele>
        <time>2020-07-21T08:32:37.094Z</time>
      </trkpt>
      <trkpt lat="42.57579" lon="2.04142">
        <ele>2290</ele>
        <time>2020-07-21T08:32:38.094Z</time>
      </trkpt>
      <trkpt lat="42.57577" lon="2.04144">
        <ele>2290</ele>
        <time>2020-07-21T08:32:39.094Z</time>
      </trkpt>
      <trkpt lat="42.57575" lon="2.04145">
        <ele>2290</ele>
        <time>2020-07-21T08:32:40.094Z</time>
      </trkpt>
      <trkpt lat="42.57572" lon="2.04146">
        <ele>2291</ele>
        <time>2020-07-21T08:32:41.094Z</time>
      </trkpt>
      <trkpt lat="42.5757" lon="2.04147">
        <ele>2291</ele>
        <time>2020-07-21T08:32:42.094Z</time>
      </trkpt>
      <trkpt lat="42.57568" lon="2.04148">
        <ele>2291</ele>
        <time>2020-07-21T08:32:43.094Z</time>
      </trkpt>
      <trkpt lat="42.57565" lon="2.04149">
        <ele>2291</ele>
        <time>2020-07-21T08:32:44.094Z</time>
      </trkpt>
      <trkpt lat="42.57563" lon="2.0415">
        <ele>2292</ele>
        <time>2020-07-21T08:32:45.094Z</time>
      </trkpt>
      <trkpt lat="42.5756" lon="2.0415">
        <ele>2292</ele>
        <time>2020-07-21T08:32:46.094Z</time>
      </trkpt>
      <trkpt lat="42.57558" lon="2.04151">
        <ele>2292</ele>
        <time>2020-07-21T08:32:47.094Z</time>
      </trkpt>
      <trkpt lat="42.57556" lon="2.04152">
        <ele>2292</ele>
        <time>2020-07-21T08:32:48.094Z</time>
      </trkpt>
      <trkpt lat="42.57554" lon="2.04152">
        <ele>2292</ele>
        <time>2020-07-21T08:32:49.094Z</time>
      </trkpt>
      <trkpt lat="42.57552" lon="2.04153">
        <ele>2292</ele>
        <time>2020-07-21T08:32:50.094Z</time>
      </trkpt>
      <trkpt lat="42.57549" lon="2.04153">
        <ele>2293</ele>
        <time>2020-07-21T08:32:51.094Z</time>
      </trkpt>
      <trkpt lat="42.57547" lon="2.04154">
        <ele>2293</ele>
        <time>2020-07-21T08:32:52.094Z</time>
      </trkpt>
      <trkpt lat="42.57545" lon="2.04155">
        <ele>2294</ele>
        <time>2020-07-21T08:32:53.094Z</time>
      </trkpt>
      <trkpt lat="42.57542" lon="2.04155">
        <ele>2294</ele>
        <time>2020-07-21T08:32:54.094Z</time>
      </trkpt>
      <trkpt lat="42.5754" lon="2.04156">
        <ele>2295</ele>
        <time>2020-07-21T08:32:55.094Z</time>
      </trkpt>
      <trkpt lat="42.57538" lon="2.04157">
        <ele>2295</ele>
        <time>2020-07-21T08:32:56.094Z</time>
      </trkpt>
      <trkpt lat="42.57535" lon="2.04158">
        <ele>2296</ele>
        <time>2020-07-21T08:32:57.094Z</time>
      </trkpt>
      <trkpt lat="42.57533" lon="2.04159">
        <ele>2296</ele>
        <time>2020-07-21T08:32:58.094Z</time>
      </trkpt>
      <trkpt lat="42.57531" lon="2.0416">
        <ele>2297</ele>
        <time>2020-07-21T08:32:59.094Z</time>
      </trkpt>
      <trkpt lat="42.57528" lon="2.04161">
        <ele>2297</ele>
        <time>2020-07-21T08:33:00.094Z</time>
      </trkpt>
      <trkpt lat="42.57526" lon="2.04162">
        <ele>2297</ele>
        <time>2020-07-21T08:33:01.094Z</time>
      </trkpt>
      <trkpt lat="42.57524" lon="2.04162">
        <ele>2297</ele>
        <time>2020-07-21T08:33:02.094Z</time>
      </trkpt>
      <trkpt lat="42.57521" lon="2.04163">
        <ele>2297</ele>
        <time>2020-07-21T08:33:03.094Z</time>
      </trkpt>
      <trkpt lat="42.57519" lon="2.04163">
        <ele>2297</ele>
        <time>2020-07-21T08:33:04.094Z</time>
      </trkpt>
      <trkpt lat="42.57517" lon="2.04163">
        <ele>2297</ele>
        <time>2020-07-21T08:33:05.094Z</time>
      </trkpt>
      <trkpt lat="42.57515" lon="2.04164">
        <ele>2298</ele>
        <time>2020-07-21T08:33:06.094Z</time>
      </trkpt>
      <trkpt lat="42.57512" lon="2.04165">
        <ele>2298</ele>
        <time>2020-07-21T08:33:07.094Z</time>
      </trkpt>
      <trkpt lat="42.5751" lon="2.04166">
        <ele>2299</ele>
        <time>2020-07-21T08:33:08.094Z</time>
      </trkpt>
      <trkpt lat="42.57508" lon="2.04167">
        <ele>2299</ele>
        <time>2020-07-21T08:33:09.094Z</time>
      </trkpt>
      <trkpt lat="42.57505" lon="2.04167">
        <ele>2299</ele>
        <time>2020-07-21T08:33:10.094Z</time>
      </trkpt>
      <trkpt lat="42.57503" lon="2.04168">
        <ele>2299</ele>
        <time>2020-07-21T08:33:11.094Z</time>
      </trkpt>
      <trkpt lat="42.57501" lon="2.04168">
        <ele>2299</ele>
        <time>2020-07-21T08:33:12.094Z</time>
      </trkpt>
      <trkpt lat="42.57499" lon="2.04169">
        <ele>2300</ele>
        <time>2020-07-21T08:33:13.094Z</time>
      </trkpt>
      <trkpt lat="42.57497" lon="2.04169">
        <ele>2300</ele>
        <time>2020-07-21T08:33:14.094Z</time>
      </trkpt>
      <trkpt lat="42.57494" lon="2.0417">
        <ele>2301</ele>
        <time>2020-07-21T08:33:15.094Z</time>
      </trkpt>
      <trkpt lat="42.57492" lon="2.0417">
        <ele>2302</ele>
        <time>2020-07-21T08:33:16.094Z</time>
      </trkpt>
      <trkpt lat="42.5749" lon="2.0417">
        <ele>2303</ele>
        <time>2020-07-21T08:33:17.094Z</time>
      </trkpt>
      <trkpt lat="42.57487" lon="2.04169">
        <ele>2304</ele>
        <time>2020-07-21T08:33:18.094Z</time>
      </trkpt>
      <trkpt lat="42.57485" lon="2.04169">
        <ele>2304</ele>
        <time>2020-07-21T08:33:19.094Z</time>
      </trkpt>
      <trkpt lat="42.57483" lon="2.04168">
        <ele>2304</ele>
        <time>2020-07-21T08:33:20.094Z</time>
      </trkpt>
      <trkpt lat="42.57481" lon="2.04168">
        <ele>2305</ele>
        <time>2020-07-21T08:33:21.094Z</time>
      </trkpt>
      <trkpt lat="42.57479" lon="2.04167">
        <ele>2305</ele>
        <time>2020-07-21T08:33:22.094Z</time>
      </trkpt>
      <trkpt lat="42.57477" lon="2.04167">
        <ele>2305</ele>
        <time>2020-07-21T08:33:23.094Z</time>
      </trkpt>
      <trkpt lat="42.57476" lon="2.04167">
        <ele>2306</ele>
        <time>2020-07-21T08:33:24.094Z</time>
      </trkpt>
      <trkpt lat="42.57474" lon="2.04166">
        <ele>2307</ele>
        <time>2020-07-21T08:33:25.094Z</time>
      </trkpt>
      <trkpt lat="42.57472" lon="2.04166">
        <ele>2307</ele>
        <time>2020-07-21T08:33:26.094Z</time>
      </trkpt>
      <trkpt lat="42.5747" lon="2.04166">
        <ele>2308</ele>
        <time>2020-07-21T08:33:27.094Z</time>
      </trkpt>
      <trkpt lat="42.57469" lon="2.04165">
        <ele>2308</ele>
        <time>2020-07-21T08:33:28.094Z</time>
      </trkpt>
      <trkpt lat="42.57467" lon="2.04164">
        <ele>2308</ele>
        <time>2020-07-21T08:33:29.094Z</time>
      </trkpt>
      <trkpt lat="42.57466" lon="2.04163">
        <ele>2309</ele>
        <time>2020-07-21T08:33:30.094Z</time>
      </trkpt>
      <trkpt lat="42.57465" lon="2.04163">
        <ele>2309</ele>
        <time>2020-07-21T08:33:31.094Z</time>
      </trkpt>
      <trkpt lat="42.57463" lon="2.04162">
        <ele>2310</ele>
        <time>2020-07-21T08:33:32.094Z</time>
      </trkpt>
      <trkpt lat="42.57462" lon="2.04161">
        <ele>2311</ele>
        <time>2020-07-21T08:33:33.094Z</time>
      </trkpt>
      <trkpt lat="42.5746" lon="2.0416">
        <ele>2311</ele>
        <time>2020-07-21T08:33:34.094Z</time>
      </trkpt>
      <trkpt lat="42.57459" lon="2.04159">
        <ele>2312</ele>
        <time>2020-07-21T08:33:35.094Z</time>
      </trkpt>
      <trkpt lat="42.57457" lon="2.04158">
        <ele>2312</ele>
        <time>2020-07-21T08:33:36.094Z</time>
      </trkpt>
      <trkpt lat="42.57455" lon="2.04158">
        <ele>2312</ele>
        <time>2020-07-21T08:33:37.094Z</time>
      </trkpt>
      <trkpt lat="42.57453" lon="2.04157">
        <ele>2313</ele>
        <time>2020-07-21T08:33:38.094Z</time>
      </trkpt>
      <trkpt lat="42.57452" lon="2.04157">
        <ele>2313</ele>
        <time>2020-07-21T08:33:39.094Z</time>
      </trkpt>
      <trkpt lat="42.5745" lon="2.04157">
        <ele>2313</ele>
        <time>2020-07-21T08:33:40.094Z</time>
      </trkpt>
      <trkpt lat="42.57449" lon="2.04158">
        <ele>2314</ele>
        <time>2020-07-21T08:33:41.094Z</time>
      </trkpt>
      <trkpt lat="42.57447" lon="2.04157">
        <ele>2315</ele>
        <time>2020-07-21T08:33:42.094Z</time>
      </trkpt>
      <trkpt lat="42.57446" lon="2.04157">
        <ele>2315</ele>
        <time>2020-07-21T08:33:43.094Z</time>
      </trkpt>
      <trkpt lat="42.57444" lon="2.04156">
        <ele>2315</ele>
        <time>2020-07-21T08:33:44.094Z</time>
      </trkpt>
      <trkpt lat="42.57443" lon="2.04155">
        <ele>2316</ele>
        <time>2020-07-21T08:33:45.094Z</time>
      </trkpt>
      <trkpt lat="42.57441" lon="2.04154">
        <ele>2316</ele>
        <time>2020-07-21T08:33:46.094Z</time>
      </trkpt>
      <trkpt lat="42.57439" lon="2.04153">
        <ele>2316</ele>
        <time>2020-07-21T08:33:47.094Z</time>
      </trkpt>
      <trkpt lat="42.57438" lon="2.04152">
        <ele>2317</ele>
        <time>2020-07-21T08:33:48.094Z</time>
      </trkpt>
      <trkpt lat="42.57436" lon="2.04151">
        <ele>2317</ele>
        <time>2020-07-21T08:33:49.094Z</time>
      </trkpt>
      <trkpt lat="42.57435" lon="2.0415">
        <ele>2318</ele>
        <time>2020-07-21T08:33:50.094Z</time>
      </trkpt>
      <trkpt lat="42.57433" lon="2.04148">
        <ele>2319</ele>
        <time>2020-07-21T08:33:51.094Z</time>
      </trkpt>
      <trkpt lat="42.57432" lon="2.04147">
        <ele>2319</ele>
        <time>2020-07-21T08:33:52.094Z</time>
      </trkpt>
      <trkpt lat="42.5743" lon="2.04146">
        <ele>2320</ele>
        <time>2020-07-21T08:33:53.094Z</time>
      </trkpt>
      <trkpt lat="42.57428" lon="2.04145">
        <ele>2320</ele>
        <time>2020-07-21T08:33:54.094Z</time>
      </trkpt>
      <trkpt lat="42.57427" lon="2.04144">
        <ele>2321</ele>
        <time>2020-07-21T08:33:55.094Z</time>
      </trkpt>
      <trkpt lat="42.57426" lon="2.04143">
        <ele>2321</ele>
        <time>2020-07-21T08:33:56.094Z</time>
      </trkpt>
      <trkpt lat="42.57424" lon="2.04141">
        <ele>2322</ele>
        <time>2020-07-21T08:33:57.094Z</time>
      </trkpt>
      <trkpt lat="42.57422" lon="2.0414">
        <ele>2322</ele>
        <time>2020-07-21T08:33:58.094Z</time>
      </trkpt>
      <trkpt lat="42.57421" lon="2.04138">
        <ele>2322</ele>
        <time>2020-07-21T08:33:59.094Z</time>
      </trkpt>
      <trkpt lat="42.5742" lon="2.04135">
        <ele>2321</ele>
        <time>2020-07-21T08:34:00.094Z</time>
      </trkpt>
      <trkpt lat="42.57419" lon="2.04132">
        <ele>2321</ele>
        <time>2020-07-21T08:34:01.094Z</time>
      </trkpt>
      <trkpt lat="42.57418" lon="2.04128">
        <ele>2322</ele>
        <time>2020-07-21T08:34:02.094Z</time>
      </trkpt>
      <trkpt lat="42.57418" lon="2.04126">
        <ele>2322</ele>
        <time>2020-07-21T08:34:03.094Z</time>
      </trkpt>
      <trkpt lat="42.57418" lon="2.04123">
        <ele>2322</ele>
        <time>2020-07-21T08:34:04.094Z</time>
      </trkpt>
      <trkpt lat="42.57418" lon="2.04121">
        <ele>2322</ele>
        <time>2020-07-21T08:34:05.094Z</time>
      </trkpt>
      <trkpt lat="42.57418" lon="2.04119">
        <ele>2322</ele>
        <time>2020-07-21T08:34:06.094Z</time>
      </trkpt>
      <trkpt lat="42.57418" lon="2.04117">
        <ele>2324</ele>
        <time>2020-07-21T08:34:07.094Z</time>
      </trkpt>
      <trkpt lat="42.57418" lon="2.04114">
        <ele>2323</ele>
        <time>2020-07-21T08:34:08.094Z</time>
      </trkpt>
      <trkpt lat="42.57418" lon="2.04112">
        <ele>2324</ele>
        <time>2020-07-21T08:34:09.094Z</time>
      </trkpt>
      <trkpt lat="42.57418" lon="2.0411">
        <ele>2324</ele>
        <time>2020-07-21T08:34:10.094Z</time>
      </trkpt>
      <trkpt lat="42.57417" lon="2.04107">
        <ele>2324</ele>
        <time>2020-07-21T08:34:11.094Z</time>
      </trkpt>
      <trkpt lat="42.57417" lon="2.04104">
        <ele>2325</ele>
        <time>2020-07-21T08:34:12.094Z</time>
      </trkpt>
      <trkpt lat="42.57417" lon="2.04102">
        <ele>2326</ele>
        <time>2020-07-21T08:34:13.094Z</time>
      </trkpt>
      <trkpt lat="42.57417" lon="2.04099">
        <ele>2326</ele>
        <time>2020-07-21T08:34:14.094Z</time>
      </trkpt>
      <trkpt lat="42.57417" lon="2.04096">
        <ele>2326</ele>
        <time>2020-07-21T08:34:15.094Z</time>
      </trkpt>
      <trkpt lat="42.57418" lon="2.04093">
        <ele>2326</ele>
        <time>2020-07-21T08:34:16.094Z</time>
      </trkpt>
      <trkpt lat="42.57418" lon="2.0409">
        <ele>2326</ele>
        <time>2020-07-21T08:34:17.094Z</time>
      </trkpt>
      <trkpt lat="42.57418" lon="2.04087">
        <ele>2327</ele>
        <time>2020-07-21T08:34:18.094Z</time>
      </trkpt>
      <trkpt lat="42.57419" lon="2.04084">
        <ele>2327</ele>
        <time>2020-07-21T08:34:19.094Z</time>
      </trkpt>
      <trkpt lat="42.57419" lon="2.04081">
        <ele>2327</ele>
        <time>2020-07-21T08:34:20.094Z</time>
      </trkpt>
      <trkpt lat="42.57419" lon="2.04078">
        <ele>2327</ele>
        <time>2020-07-21T08:34:21.094Z</time>
      </trkpt>
      <trkpt lat="42.57419" lon="2.04075">
        <ele>2327</ele>
        <time>2020-07-21T08:34:22.094Z</time>
      </trkpt>
      <trkpt lat="42.5742" lon="2.04072">
        <ele>2328</ele>
        <time>2020-07-21T08:34:23.094Z</time>
      </trkpt>
      <trkpt lat="42.5742" lon="2.04069">
        <ele>2328</ele>
        <time>2020-07-21T08:34:24.094Z</time>
      </trkpt>
      <trkpt lat="42.57419" lon="2.04067">
        <ele>2328</ele>
        <time>2020-07-21T08:34:25.094Z</time>
      </trkpt>
      <trkpt lat="42.57419" lon="2.04064">
        <ele>2328</ele>
        <time>2020-07-21T08:34:26.094Z</time>
      </trkpt>
      <trkpt lat="42.57419" lon="2.04061">
        <ele>2328</ele>
        <time>2020-07-21T08:34:27.094Z</time>
      </trkpt>
      <trkpt lat="42.57418" lon="2.04059">
        <ele>2328</ele>
        <time>2020-07-21T08:34:28.094Z</time>
      </trkpt>
      <trkpt lat="42.57417" lon="2.04056">
        <ele>2329</ele>
        <time>2020-07-21T08:34:29.094Z</time>
      </trkpt>
      <trkpt lat="42.57416" lon="2.04054">
        <ele>2329</ele>
        <time>2020-07-21T08:34:30.094Z</time>
      </trkpt>
      <trkpt lat="42.57414" lon="2.04051">
        <ele>2329</ele>
        <time>2020-07-21T08:34:31.094Z</time>
      </trkpt>
      <trkpt lat="42.57412" lon="2.0405">
        <ele>2330</ele>
        <time>2020-07-21T08:34:32.094Z</time>
      </trkpt>
      <trkpt lat="42.57411" lon="2.04048">
        <ele>2330</ele>
        <time>2020-07-21T08:34:33.094Z</time>
      </trkpt>
      <trkpt lat="42.57409" lon="2.04046">
        <ele>2330</ele>
        <time>2020-07-21T08:34:34.094Z</time>
      </trkpt>
      <trkpt lat="42.57408" lon="2.04045">
        <ele>2330</ele>
        <time>2020-07-21T08:34:35.094Z</time>
      </trkpt>
      <trkpt lat="42.57406" lon="2.04044">
        <ele>2331</ele>
        <time>2020-07-21T08:34:36.094Z</time>
      </trkpt>
      <trkpt lat="42.57371" lon="2.04096">
        <ele>2330</ele>
        <time>2020-07-21T08:34:37.102Z</time>
      </trkpt>
      <trkpt lat="42.57371" lon="2.04096">
        <ele>2330</ele>
        <time>2020-07-21T08:34:38.102Z</time>
      </trkpt>
      <trkpt lat="42.57371" lon="2.04096">
        <ele>2330</ele>
        <time>2020-07-21T08:34:39.102Z</time>
      </trkpt>
      <trkpt lat="42.57371" lon="2.04096">
        <ele>2330</ele>
        <time>2020-07-21T08:34:40.102Z</time>
      </trkpt>
      <trkpt lat="42.57371" lon="2.04096">
        <ele>2330</ele>
        <time>2020-07-21T08:34:41.102Z</time>
      </trkpt>
      <trkpt lat="42.57371" lon="2.04096">
        <ele>2330</ele>
        <time>2020-07-21T08:34:42.102Z</time>
      </trkpt>
      <trkpt lat="42.57371" lon="2.04096">
        <ele>2330</ele>
        <time>2020-07-21T08:34:43.102Z</time>
      </trkpt>
      <trkpt lat="42.57371" lon="2.04096">
        <ele>2330</ele>
        <time>2020-07-21T08:34:44.102Z</time>
      </trkpt>
      <trkpt lat="42.57371" lon="2.04096">
        <ele>2330</ele>
        <time>2020-07-21T08:34:45.102Z</time>
      </trkpt>
      <trkpt lat="42.57342" lon="2.04209">
        <ele>2314</ele>
        <time>2020-07-21T08:34:46.013Z</time>
      </trkpt>
      <trkpt lat="42.57344" lon="2.04208">
        <ele>2314</ele>
        <time>2020-07-21T08:34:47.013Z</time>
      </trkpt>
      <trkpt lat="42.57345" lon="2.04207">
        <ele>2315</ele>
        <time>2020-07-21T08:34:48.013Z</time>
      </trkpt>
      <trkpt lat="42.57347" lon="2.04205">
        <ele>2314</ele>
        <time>2020-07-21T08:34:49.013Z</time>
      </trkpt>
      <trkpt lat="42.57349" lon="2.04203">
        <ele>2314</ele>
        <time>2020-07-21T08:34:50.013Z</time>
      </trkpt>
      <trkpt lat="42.57352" lon="2.042">
        <ele>2314</ele>
        <time>2020-07-21T08:34:51.013Z</time>
      </trkpt>
      <trkpt lat="42.57354" lon="2.04198">
        <ele>2314</ele>
        <time>2020-07-21T08:34:52.013Z</time>
      </trkpt>
      <trkpt lat="42.57357" lon="2.04195">
        <ele>2315</ele>
        <time>2020-07-21T08:34:53.013Z</time>
      </trkpt>
      <trkpt lat="42.57359" lon="2.04192">
        <ele>2315</ele>
        <time>2020-07-21T08:34:54.013Z</time>
      </trkpt>
      <trkpt lat="42.57361" lon="2.0419">
        <ele>2315</ele>
        <time>2020-07-21T08:34:55.013Z</time>
      </trkpt>
      <trkpt lat="42.57362" lon="2.04188">
        <ele>2315</ele>
        <time>2020-07-21T08:34:56.013Z</time>
      </trkpt>
      <trkpt lat="42.57364" lon="2.04186">
        <ele>2315</ele>
        <time>2020-07-21T08:34:57.013Z</time>
      </trkpt>
      <trkpt lat="42.57366" lon="2.04184">
        <ele>2315</ele>
        <time>2020-07-21T08:34:58.013Z</time>
      </trkpt>
      <trkpt lat="42.57368" lon="2.04181">
        <ele>2315</ele>
        <time>2020-07-21T08:34:59.013Z</time>
      </trkpt>
      <trkpt lat="42.5737" lon="2.04179">
        <ele>2315</ele>
        <time>2020-07-21T08:35:00.013Z</time>
      </trkpt>
      <trkpt lat="42.57372" lon="2.04177">
        <ele>2315</ele>
        <time>2020-07-21T08:35:01.013Z</time>
      </trkpt>
      <trkpt lat="42.57373" lon="2.04175">
        <ele>2315</ele>
        <time>2020-07-21T08:35:02.013Z</time>
      </trkpt>
      <trkpt lat="42.57375" lon="2.04173">
        <ele>2315</ele>
        <time>2020-07-21T08:35:03.013Z</time>
      </trkpt>
      <trkpt lat="42.57377" lon="2.0417">
        <ele>2314</ele>
        <time>2020-07-21T08:35:04.013Z</time>
      </trkpt>
      <trkpt lat="42.57379" lon="2.04168">
        <ele>2314</ele>
        <time>2020-07-21T08:35:05.013Z</time>
      </trkpt>
      <trkpt lat="42.5738" lon="2.04165">
        <ele>2314</ele>
        <time>2020-07-21T08:35:06.013Z</time>
      </trkpt>
      <trkpt lat="42.57382" lon="2.04163">
        <ele>2314</ele>
        <time>2020-07-21T08:35:07.013Z</time>
      </trkpt>
      <trkpt lat="42.57384" lon="2.0416">
        <ele>2314</ele>
        <time>2020-07-21T08:35:08.013Z</time>
      </trkpt>
      <trkpt lat="42.57386" lon="2.04158">
        <ele>2314</ele>
        <time>2020-07-21T08:35:09.013Z</time>
      </trkpt>
      <trkpt lat="42.57388" lon="2.04155">
        <ele>2314</ele>
        <time>2020-07-21T08:35:10.013Z</time>
      </trkpt>
      <trkpt lat="42.5739" lon="2.04153">
        <ele>2314</ele>
        <time>2020-07-21T08:35:11.013Z</time>
      </trkpt>
      <trkpt lat="42.57392" lon="2.04151">
        <ele>2314</ele>
        <time>2020-07-21T08:35:12.013Z</time>
      </trkpt>
      <trkpt lat="42.57394" lon="2.04148">
        <ele>2314</ele>
        <time>2020-07-21T08:35:13.013Z</time>
      </trkpt>
      <trkpt lat="42.57396" lon="2.04146">
        <ele>2314</ele>
        <time>2020-07-21T08:35:14.013Z</time>
      </trkpt>
      <trkpt lat="42.57398" lon="2.04145">
        <ele>2314</ele>
        <time>2020-07-21T08:35:15.013Z</time>
      </trkpt>
      <trkpt lat="42.57401" lon="2.04143">
        <ele>2315</ele>
        <time>2020-07-21T08:35:16.013Z</time>
      </trkpt>
      <trkpt lat="42.57403" lon="2.04141">
        <ele>2315</ele>
        <time>2020-07-21T08:35:17.013Z</time>
      </trkpt>
      <trkpt lat="42.57406" lon="2.0414">
        <ele>2314</ele>
        <time>2020-07-21T08:35:18.013Z</time>
      </trkpt>
      <trkpt lat="42.57408" lon="2.04138">
        <ele>2314</ele>
        <time>2020-07-21T08:35:19.013Z</time>
      </trkpt>
      <trkpt lat="42.57411" lon="2.04137">
        <ele>2314</ele>
        <time>2020-07-21T08:35:20.013Z</time>
      </trkpt>
      <trkpt lat="42.57414" lon="2.04135">
        <ele>2314</ele>
        <time>2020-07-21T08:35:21.013Z</time>
      </trkpt>
      <trkpt lat="42.57416" lon="2.04134">
        <ele>2314</ele>
        <time>2020-07-21T08:35:22.013Z</time>
      </trkpt>
      <trkpt lat="42.57419" lon="2.04132">
        <ele>2314</ele>
        <time>2020-07-21T08:35:23.013Z</time>
      </trkpt>
      <trkpt lat="42.57421" lon="2.0413">
        <ele>2315</ele>
        <time>2020-07-21T08:35:24.013Z</time>
      </trkpt>
      <trkpt lat="42.57423" lon="2.04127">
        <ele>2316</ele>
        <time>2020-07-21T08:35:25.013Z</time>
      </trkpt>
      <trkpt lat="42.57425" lon="2.04125">
        <ele>2316</ele>
        <time>2020-07-21T08:35:26.013Z</time>
      </trkpt>
      <trkpt lat="42.57426" lon="2.04122">
        <ele>2317</ele>
        <time>2020-07-21T08:35:27.013Z</time>
      </trkpt>
      <trkpt lat="42.57428" lon="2.04118">
        <ele>2318</ele>
        <time>2020-07-21T08:35:28.013Z</time>
      </trkpt>
      <trkpt lat="42.57429" lon="2.04115">
        <ele>2318</ele>
        <time>2020-07-21T08:35:29.013Z</time>
      </trkpt>
      <trkpt lat="42.5743" lon="2.04112">
        <ele>2318</ele>
        <time>2020-07-21T08:35:30.013Z</time>
      </trkpt>
      <trkpt lat="42.5743" lon="2.04109">
        <ele>2318</ele>
        <time>2020-07-21T08:35:31.013Z</time>
      </trkpt>
      <trkpt lat="42.57431" lon="2.04106">
        <ele>2318</ele>
        <time>2020-07-21T08:35:32.013Z</time>
      </trkpt>
      <trkpt lat="42.57431" lon="2.04103">
        <ele>2318</ele>
        <time>2020-07-21T08:35:33.013Z</time>
      </trkpt>
      <trkpt lat="42.57432" lon="2.041">
        <ele>2317</ele>
        <time>2020-07-21T08:35:34.013Z</time>
      </trkpt>
      <trkpt lat="42.57433" lon="2.04096">
        <ele>2318</ele>
        <time>2020-07-21T08:35:35.013Z</time>
      </trkpt>
      <trkpt lat="42.57434" lon="2.04093">
        <ele>2319</ele>
        <time>2020-07-21T08:35:36.013Z</time>
      </trkpt>
      <trkpt lat="42.57435" lon="2.0409">
        <ele>2320</ele>
        <time>2020-07-21T08:35:37.013Z</time>
      </trkpt>
      <trkpt lat="42.57435" lon="2.04087">
        <ele>2320</ele>
        <time>2020-07-21T08:35:38.013Z</time>
      </trkpt>
      <trkpt lat="42.57436" lon="2.04084">
        <ele>2320</ele>
        <time>2020-07-21T08:35:39.013Z</time>
      </trkpt>
      <trkpt lat="42.57437" lon="2.04081">
        <ele>2321</ele>
        <time>2020-07-21T08:35:40.013Z</time>
      </trkpt>
      <trkpt lat="42.57437" lon="2.04077">
        <ele>2321</ele>
        <time>2020-07-21T08:35:41.013Z</time>
      </trkpt>
      <trkpt lat="42.57438" lon="2.04074">
        <ele>2321</ele>
        <time>2020-07-21T08:35:42.013Z</time>
      </trkpt>
      <trkpt lat="42.57439" lon="2.0407">
        <ele>2321</ele>
        <time>2020-07-21T08:35:43.013Z</time>
      </trkpt>
      <trkpt lat="42.57439" lon="2.04067">
        <ele>2321</ele>
        <time>2020-07-21T08:35:44.013Z</time>
      </trkpt>
      <trkpt lat="42.5744" lon="2.04064">
        <ele>2322</ele>
        <time>2020-07-21T08:35:45.013Z</time>
      </trkpt>
      <trkpt lat="42.5744" lon="2.0406">
        <ele>2322</ele>
        <time>2020-07-21T08:35:46.013Z</time>
      </trkpt>
      <trkpt lat="42.57441" lon="2.04057">
        <ele>2322</ele>
        <time>2020-07-21T08:35:47.013Z</time>
      </trkpt>
      <trkpt lat="42.57442" lon="2.04054">
        <ele>2323</ele>
        <time>2020-07-21T08:35:48.013Z</time>
      </trkpt>
      <trkpt lat="42.57442" lon="2.0405">
        <ele>2323</ele>
        <time>2020-07-21T08:35:49.013Z</time>
      </trkpt>
      <trkpt lat="42.57443" lon="2.04047">
        <ele>2323</ele>
        <time>2020-07-21T08:35:50.013Z</time>
      </trkpt>
      <trkpt lat="42.57443" lon="2.04043">
        <ele>2323</ele>
        <time>2020-07-21T08:35:51.013Z</time>
      </trkpt>
      <trkpt lat="42.57443" lon="2.0404">
        <ele>2323</ele>
        <time>2020-07-21T08:35:52.013Z</time>
      </trkpt>
      <trkpt lat="42.57444" lon="2.04036">
        <ele>2323</ele>
        <time>2020-07-21T08:35:53.013Z</time>
      </trkpt>
      <trkpt lat="42.57444" lon="2.04032">
        <ele>2324</ele>
        <time>2020-07-21T08:35:54.013Z</time>
      </trkpt>
      <trkpt lat="42.57444" lon="2.04029">
        <ele>2324</ele>
        <time>2020-07-21T08:35:55.013Z</time>
      </trkpt>
      <trkpt lat="42.57444" lon="2.04025">
        <ele>2324</ele>
        <time>2020-07-21T08:35:56.013Z</time>
      </trkpt>
      <trkpt lat="42.57445" lon="2.04021">
        <ele>2324</ele>
        <time>2020-07-21T08:35:57.013Z</time>
      </trkpt>
      <trkpt lat="42.57445" lon="2.04018">
        <ele>2324</ele>
        <time>2020-07-21T08:35:58.013Z</time>
      </trkpt>
      <trkpt lat="42.57444" lon="2.04014">
        <ele>2324</ele>
        <time>2020-07-21T08:35:59.013Z</time>
      </trkpt>
      <trkpt lat="42.57444" lon="2.0401">
        <ele>2323</ele>
        <time>2020-07-21T08:36:00.013Z</time>
      </trkpt>
      <trkpt lat="42.57443" lon="2.04006">
        <ele>2323</ele>
        <time>2020-07-21T08:36:01.013Z</time>
      </trkpt>
      <trkpt lat="42.57442" lon="2.04001">
        <ele>2323</ele>
        <time>2020-07-21T08:36:02.013Z</time>
      </trkpt>
      <trkpt lat="42.57442" lon="2.03997">
        <ele>2323</ele>
        <time>2020-07-21T08:36:03.013Z</time>
      </trkpt>
      <trkpt lat="42.57441" lon="2.03993">
        <ele>2323</ele>
        <time>2020-07-21T08:36:04.013Z</time>
      </trkpt>
      <trkpt lat="42.57441" lon="2.03989">
        <ele>2323</ele>
        <time>2020-07-21T08:36:05.013Z</time>
      </trkpt>
      <trkpt lat="42.57441" lon="2.03985">
        <ele>2323</ele>
        <time>2020-07-21T08:36:06.013Z</time>
      </trkpt>
      <trkpt lat="42.57441" lon="2.03981">
        <ele>2323</ele>
        <time>2020-07-21T08:36:07.013Z</time>
      </trkpt>
      <trkpt lat="42.57441" lon="2.03977">
        <ele>2322</ele>
        <time>2020-07-21T08:36:08.013Z</time>
      </trkpt>
      <trkpt lat="42.57442" lon="2.03973">
        <ele>2322</ele>
        <time>2020-07-21T08:36:09.013Z</time>
      </trkpt>
      <trkpt lat="42.57442" lon="2.03969">
        <ele>2322</ele>
        <time>2020-07-21T08:36:10.013Z</time>
      </trkpt>
      <trkpt lat="42.57443" lon="2.03965">
        <ele>2322</ele>
        <time>2020-07-21T08:36:11.013Z</time>
      </trkpt>
      <trkpt lat="42.57443" lon="2.03961">
        <ele>2322</ele>
        <time>2020-07-21T08:36:12.013Z</time>
      </trkpt>
      <trkpt lat="42.57444" lon="2.03956">
        <ele>2322</ele>
        <time>2020-07-21T08:36:13.013Z</time>
      </trkpt>
      <trkpt lat="42.57444" lon="2.03952">
        <ele>2321</ele>
        <time>2020-07-21T08:36:14.013Z</time>
      </trkpt>
      <trkpt lat="42.57444" lon="2.03948">
        <ele>2321</ele>
        <time>2020-07-21T08:36:15.013Z</time>
      </trkpt>
      <trkpt lat="42.57444" lon="2.03944">
        <ele>2321</ele>
        <time>2020-07-21T08:36:16.013Z</time>
      </trkpt>
      <trkpt lat="42.57445" lon="2.0394">
        <ele>2321</ele>
        <time>2020-07-21T08:36:17.013Z</time>
      </trkpt>
      <trkpt lat="42.57445" lon="2.03935">
        <ele>2321</ele>
        <time>2020-07-21T08:36:18.013Z</time>
      </trkpt>
      <trkpt lat="42.57446" lon="2.03932">
        <ele>2321</ele>
        <time>2020-07-21T08:36:19.013Z</time>
      </trkpt>
      <trkpt lat="42.57448" lon="2.03928">
        <ele>2321</ele>
        <time>2020-07-21T08:36:20.013Z</time>
      </trkpt>
      <trkpt lat="42.57449" lon="2.03924">
        <ele>2322</ele>
        <time>2020-07-21T08:36:21.013Z</time>
      </trkpt>
      <trkpt lat="42.57451" lon="2.03921">
        <ele>2322</ele>
        <time>2020-07-21T08:36:22.013Z</time>
      </trkpt>
      <trkpt lat="42.57453" lon="2.03918">
        <ele>2322</ele>
        <time>2020-07-21T08:36:23.013Z</time>
      </trkpt>
      <trkpt lat="42.57455" lon="2.03915">
        <ele>2322</ele>
        <time>2020-07-21T08:36:24.013Z</time>
      </trkpt>
      <trkpt lat="42.57457" lon="2.03911">
        <ele>2322</ele>
        <time>2020-07-21T08:36:25.013Z</time>
      </trkpt>
      <trkpt lat="42.57458" lon="2.03908">
        <ele>2322</ele>
        <time>2020-07-21T08:36:26.013Z</time>
      </trkpt>
      <trkpt lat="42.5746" lon="2.03904">
        <ele>2322</ele>
        <time>2020-07-21T08:36:27.013Z</time>
      </trkpt>
      <trkpt lat="42.57461" lon="2.03901">
        <ele>2321</ele>
        <time>2020-07-21T08:36:28.013Z</time>
      </trkpt>
      <trkpt lat="42.57462" lon="2.03897">
        <ele>2322</ele>
        <time>2020-07-21T08:36:29.013Z</time>
      </trkpt>
      <trkpt lat="42.57463" lon="2.03893">
        <ele>2322</ele>
        <time>2020-07-21T08:36:30.013Z</time>
      </trkpt>
      <trkpt lat="42.57463" lon="2.03889">
        <ele>2322</ele>
        <time>2020-07-21T08:36:31.013Z</time>
      </trkpt>
      <trkpt lat="42.57464" lon="2.03885">
        <ele>2322</ele>
        <time>2020-07-21T08:36:32.013Z</time>
      </trkpt>
      <trkpt lat="42.57464" lon="2.03881">
        <ele>2322</ele>
        <time>2020-07-21T08:36:33.013Z</time>
      </trkpt>
      <trkpt lat="42.57464" lon="2.03877">
        <ele>2322</ele>
        <time>2020-07-21T08:36:34.013Z</time>
      </trkpt>
      <trkpt lat="42.57465" lon="2.03872">
        <ele>2322</ele>
        <time>2020-07-21T08:36:35.013Z</time>
      </trkpt>
      <trkpt lat="42.57465" lon="2.03868">
        <ele>2322</ele>
        <time>2020-07-21T08:36:36.013Z</time>
      </trkpt>
      <trkpt lat="42.57465" lon="2.03864">
        <ele>2321</ele>
        <time>2020-07-21T08:36:37.013Z</time>
      </trkpt>
      <trkpt lat="42.57466" lon="2.03859">
        <ele>2322</ele>
        <time>2020-07-21T08:36:38.013Z</time>
      </trkpt>
      <trkpt lat="42.57466" lon="2.03855">
        <ele>2321</ele>
        <time>2020-07-21T08:36:39.013Z</time>
      </trkpt>
      <trkpt lat="42.57467" lon="2.03851">
        <ele>2322</ele>
        <time>2020-07-21T08:36:40.013Z</time>
      </trkpt>
      <trkpt lat="42.57468" lon="2.03847">
        <ele>2321</ele>
        <time>2020-07-21T08:36:41.013Z</time>
      </trkpt>
      <trkpt lat="42.57469" lon="2.03843">
        <ele>2322</ele>
        <time>2020-07-21T08:36:42.013Z</time>
      </trkpt>
      <trkpt lat="42.5747" lon="2.03839">
        <ele>2323</ele>
        <time>2020-07-21T08:36:43.013Z</time>
      </trkpt>
      <trkpt lat="42.57471" lon="2.03835">
        <ele>2323</ele>
        <time>2020-07-21T08:36:44.013Z</time>
      </trkpt>
      <trkpt lat="42.57473" lon="2.03832">
        <ele>2322</ele>
        <time>2020-07-21T08:36:45.013Z</time>
      </trkpt>
      <trkpt lat="42.57474" lon="2.03828">
        <ele>2323</ele>
        <time>2020-07-21T08:36:46.013Z</time>
      </trkpt>
      <trkpt lat="42.57476" lon="2.03825">
        <ele>2323</ele>
        <time>2020-07-21T08:36:47.013Z</time>
      </trkpt>
      <trkpt lat="42.57477" lon="2.03822">
        <ele>2323</ele>
        <time>2020-07-21T08:36:48.013Z</time>
      </trkpt>
      <trkpt lat="42.57479" lon="2.03818">
        <ele>2322</ele>
        <time>2020-07-21T08:36:49.013Z</time>
      </trkpt>
      <trkpt lat="42.57481" lon="2.03815">
        <ele>2322</ele>
        <time>2020-07-21T08:36:50.013Z</time>
      </trkpt>
      <trkpt lat="42.57482" lon="2.03812">
        <ele>2322</ele>
        <time>2020-07-21T08:36:51.013Z</time>
      </trkpt>
      <trkpt lat="42.57484" lon="2.03809">
        <ele>2323</ele>
        <time>2020-07-21T08:36:52.013Z</time>
      </trkpt>
      <trkpt lat="42.57486" lon="2.03806">
        <ele>2323</ele>
        <time>2020-07-21T08:36:53.013Z</time>
      </trkpt>
      <trkpt lat="42.57488" lon="2.03803">
        <ele>2323</ele>
        <time>2020-07-21T08:36:54.013Z</time>
      </trkpt>
      <trkpt lat="42.5749" lon="2.038">
        <ele>2323</ele>
        <time>2020-07-21T08:36:55.013Z</time>
      </trkpt>
      <trkpt lat="42.57492" lon="2.03797">
        <ele>2323</ele>
        <time>2020-07-21T08:36:56.013Z</time>
      </trkpt>
      <trkpt lat="42.57495" lon="2.03794">
        <ele>2323</ele>
        <time>2020-07-21T08:36:57.013Z</time>
      </trkpt>
      <trkpt lat="42.57497" lon="2.03791">
        <ele>2323</ele>
        <time>2020-07-21T08:36:58.013Z</time>
      </trkpt>
      <trkpt lat="42.57499" lon="2.03788">
        <ele>2323</ele>
        <time>2020-07-21T08:36:59.013Z</time>
      </trkpt>
      <trkpt lat="42.57501" lon="2.03785">
        <ele>2323</ele>
        <time>2020-07-21T08:37:00.013Z</time>
      </trkpt>
      <trkpt lat="42.57503" lon="2.03782">
        <ele>2323</ele>
        <time>2020-07-21T08:37:01.013Z</time>
      </trkpt>
      <trkpt lat="42.57505" lon="2.03779">
        <ele>2323</ele>
        <time>2020-07-21T08:37:02.013Z</time>
      </trkpt>
      <trkpt lat="42.57507" lon="2.03776">
        <ele>2323</ele>
        <time>2020-07-21T08:37:03.013Z</time>
      </trkpt>
      <trkpt lat="42.57509" lon="2.03773">
        <ele>2323</ele>
        <time>2020-07-21T08:37:04.013Z</time>
      </trkpt>
      <trkpt lat="42.57511" lon="2.0377">
        <ele>2323</ele>
        <time>2020-07-21T08:37:05.013Z</time>
      </trkpt>
      <trkpt lat="42.57513" lon="2.03767">
        <ele>2323</ele>
        <time>2020-07-21T08:37:06.013Z</time>
      </trkpt>
      <trkpt lat="42.57515" lon="2.03764">
        <ele>2323</ele>
        <time>2020-07-21T08:37:07.013Z</time>
      </trkpt>
      <trkpt lat="42.57517" lon="2.0376">
        <ele>2324</ele>
        <time>2020-07-21T08:37:08.013Z</time>
      </trkpt>
      <trkpt lat="42.57519" lon="2.03757">
        <ele>2324</ele>
        <time>2020-07-21T08:37:09.013Z</time>
      </trkpt>
      <trkpt lat="42.57521" lon="2.03753">
        <ele>2324</ele>
        <time>2020-07-21T08:37:10.013Z</time>
      </trkpt>
      <trkpt lat="42.57523" lon="2.0375">
        <ele>2324</ele>
        <time>2020-07-21T08:37:11.013Z</time>
      </trkpt>
      <trkpt lat="42.57525" lon="2.03746">
        <ele>2324</ele>
        <time>2020-07-21T08:37:12.013Z</time>
      </trkpt>
      <trkpt lat="42.57527" lon="2.03742">
        <ele>2323</ele>
        <time>2020-07-21T08:37:13.013Z</time>
      </trkpt>
      <trkpt lat="42.57529" lon="2.03739">
        <ele>2323</ele>
        <time>2020-07-21T08:37:14.013Z</time>
      </trkpt>
      <trkpt lat="42.57531" lon="2.03735">
        <ele>2323</ele>
        <time>2020-07-21T08:37:15.013Z</time>
      </trkpt>
      <trkpt lat="42.57533" lon="2.03732">
        <ele>2324</ele>
        <time>2020-07-21T08:37:16.013Z</time>
      </trkpt>
      <trkpt lat="42.57534" lon="2.03729">
        <ele>2323</ele>
        <time>2020-07-21T08:37:17.013Z</time>
      </trkpt>
      <trkpt lat="42.57536" lon="2.03725">
        <ele>2323</ele>
        <time>2020-07-21T08:37:18.013Z</time>
      </trkpt>
      <trkpt lat="42.57538" lon="2.03722">
        <ele>2323</ele>
        <time>2020-07-21T08:37:19.013Z</time>
      </trkpt>
      <trkpt lat="42.5754" lon="2.03719">
        <ele>2323</ele>
        <time>2020-07-21T08:37:20.013Z</time>
      </trkpt>
      <trkpt lat="42.57542" lon="2.03715">
        <ele>2323</ele>
        <time>2020-07-21T08:37:21.013Z</time>
      </trkpt>
      <trkpt lat="42.57544" lon="2.03712">
        <ele>2323</ele>
        <time>2020-07-21T08:37:22.013Z</time>
      </trkpt>
      <trkpt lat="42.57546" lon="2.03709">
        <ele>2322</ele>
        <time>2020-07-21T08:37:23.013Z</time>
      </trkpt>
      <trkpt lat="42.57548" lon="2.03705">
        <ele>2322</ele>
        <time>2020-07-21T08:37:24.013Z</time>
      </trkpt>
      <trkpt lat="42.5755" lon="2.03702">
        <ele>2322</ele>
        <time>2020-07-21T08:37:25.013Z</time>
      </trkpt>
      <trkpt lat="42.57552" lon="2.03699">
        <ele>2323</ele>
        <time>2020-07-21T08:37:26.013Z</time>
      </trkpt>
      <trkpt lat="42.57554" lon="2.03696">
        <ele>2322</ele>
        <time>2020-07-21T08:37:27.013Z</time>
      </trkpt>
      <trkpt lat="42.57556" lon="2.03693">
        <ele>2323</ele>
        <time>2020-07-21T08:37:28.013Z</time>
      </trkpt>
      <trkpt lat="42.57557" lon="2.0369">
        <ele>2323</ele>
        <time>2020-07-21T08:37:29.013Z</time>
      </trkpt>
      <trkpt lat="42.5756" lon="2.03687">
        <ele>2323</ele>
        <time>2020-07-21T08:37:30.013Z</time>
      </trkpt>
      <trkpt lat="42.57562" lon="2.03684">
        <ele>2323</ele>
        <time>2020-07-21T08:37:31.013Z</time>
      </trkpt>
      <trkpt lat="42.57564" lon="2.03681">
        <ele>2323</ele>
        <time>2020-07-21T08:37:32.013Z</time>
      </trkpt>
      <trkpt lat="42.57566" lon="2.03678">
        <ele>2323</ele>
        <time>2020-07-21T08:37:33.013Z</time>
      </trkpt>
      <trkpt lat="42.57569" lon="2.03676">
        <ele>2323</ele>
        <time>2020-07-21T08:37:34.013Z</time>
      </trkpt>
      <trkpt lat="42.57571" lon="2.03673">
        <ele>2323</ele>
        <time>2020-07-21T08:37:35.013Z</time>
      </trkpt>
      <trkpt lat="42.57574" lon="2.03671">
        <ele>2323</ele>
        <time>2020-07-21T08:37:36.013Z</time>
      </trkpt>
      <trkpt lat="42.57577" lon="2.0367">
        <ele>2324</ele>
        <time>2020-07-21T08:37:37.013Z</time>
      </trkpt>
      <trkpt lat="42.5758" lon="2.03668">
        <ele>2324</ele>
        <time>2020-07-21T08:37:38.013Z</time>
      </trkpt>
      <trkpt lat="42.57583" lon="2.03666">
        <ele>2324</ele>
        <time>2020-07-21T08:37:39.013Z</time>
      </trkpt>
      <trkpt lat="42.57586" lon="2.03665">
        <ele>2324</ele>
        <time>2020-07-21T08:37:40.013Z</time>
      </trkpt>
      <trkpt lat="42.57589" lon="2.03663">
        <ele>2324</ele>
        <time>2020-07-21T08:37:41.013Z</time>
      </trkpt>
      <trkpt lat="42.57592" lon="2.03662">
        <ele>2324</ele>
        <time>2020-07-21T08:37:42.013Z</time>
      </trkpt>
      <trkpt lat="42.57595" lon="2.0366">
        <ele>2325</ele>
        <time>2020-07-21T08:37:43.013Z</time>
      </trkpt>
      <trkpt lat="42.57598" lon="2.03658">
        <ele>2324</ele>
        <time>2020-07-21T08:37:44.013Z</time>
      </trkpt>
      <trkpt lat="42.57601" lon="2.03656">
        <ele>2324</ele>
        <time>2020-07-21T08:37:45.013Z</time>
      </trkpt>
      <trkpt lat="42.57603" lon="2.03654">
        <ele>2324</ele>
        <time>2020-07-21T08:37:46.013Z</time>
      </trkpt>
      <trkpt lat="42.57606" lon="2.03652">
        <ele>2324</ele>
        <time>2020-07-21T08:37:47.013Z</time>
      </trkpt>
      <trkpt lat="42.57609" lon="2.03649">
        <ele>2324</ele>
        <time>2020-07-21T08:37:48.013Z</time>
      </trkpt>
      <trkpt lat="42.57611" lon="2.03646">
        <ele>2324</ele>
        <time>2020-07-21T08:37:49.013Z</time>
      </trkpt>
      <trkpt lat="42.57613" lon="2.03643">
        <ele>2324</ele>
        <time>2020-07-21T08:37:50.013Z</time>
      </trkpt>
      <trkpt lat="42.57615" lon="2.0364">
        <ele>2324</ele>
        <time>2020-07-21T08:37:51.013Z</time>
      </trkpt>
      <trkpt lat="42.57617" lon="2.03637">
        <ele>2324</ele>
        <time>2020-07-21T08:37:52.013Z</time>
      </trkpt>
      <trkpt lat="42.57619" lon="2.03634">
        <ele>2324</ele>
        <time>2020-07-21T08:37:53.013Z</time>
      </trkpt>
      <trkpt lat="42.57621" lon="2.0363">
        <ele>2324</ele>
        <time>2020-07-21T08:37:54.013Z</time>
      </trkpt>
      <trkpt lat="42.57622" lon="2.03626">
        <ele>2324</ele>
        <time>2020-07-21T08:37:55.013Z</time>
      </trkpt>
      <trkpt lat="42.57624" lon="2.03622">
        <ele>2324</ele>
        <time>2020-07-21T08:37:56.013Z</time>
      </trkpt>
      <trkpt lat="42.57626" lon="2.03619">
        <ele>2324</ele>
        <time>2020-07-21T08:37:57.013Z</time>
      </trkpt>
      <trkpt lat="42.57628" lon="2.03616">
        <ele>2324</ele>
        <time>2020-07-21T08:37:58.013Z</time>
      </trkpt>
      <trkpt lat="42.5763" lon="2.03613">
        <ele>2324</ele>
        <time>2020-07-21T08:37:59.013Z</time>
      </trkpt>
      <trkpt lat="42.57633" lon="2.0361">
        <ele>2324</ele>
        <time>2020-07-21T08:38:00.013Z</time>
      </trkpt>
      <trkpt lat="42.57635" lon="2.03608">
        <ele>2324</ele>
        <time>2020-07-21T08:38:01.013Z</time>
      </trkpt>
      <trkpt lat="42.57637" lon="2.03605">
        <ele>2324</ele>
        <time>2020-07-21T08:38:02.013Z</time>
      </trkpt>
      <trkpt lat="42.5764" lon="2.03603">
        <ele>2324</ele>
        <time>2020-07-21T08:38:03.013Z</time>
      </trkpt>
      <trkpt lat="42.57643" lon="2.036">
        <ele>2324</ele>
        <time>2020-07-21T08:38:04.013Z</time>
      </trkpt>
      <trkpt lat="42.57645" lon="2.03598">
        <ele>2324</ele>
        <time>2020-07-21T08:38:05.013Z</time>
      </trkpt>
      <trkpt lat="42.57648" lon="2.03595">
        <ele>2324</ele>
        <time>2020-07-21T08:38:06.013Z</time>
      </trkpt>
      <trkpt lat="42.5765" lon="2.03593">
        <ele>2325</ele>
        <time>2020-07-21T08:38:07.013Z</time>
      </trkpt>
      <trkpt lat="42.57653" lon="2.0359">
        <ele>2325</ele>
        <time>2020-07-21T08:38:08.013Z</time>
      </trkpt>
      <trkpt lat="42.57656" lon="2.03588">
        <ele>2325</ele>
        <time>2020-07-21T08:38:09.013Z</time>
      </trkpt>
      <trkpt lat="42.57659" lon="2.03586">
        <ele>2325</ele>
        <time>2020-07-21T08:38:10.013Z</time>
      </trkpt>
      <trkpt lat="42.57661" lon="2.03584">
        <ele>2325</ele>
        <time>2020-07-21T08:38:11.013Z</time>
      </trkpt>
      <trkpt lat="42.57664" lon="2.03582">
        <ele>2325</ele>
        <time>2020-07-21T08:38:12.013Z</time>
      </trkpt>
      <trkpt lat="42.57667" lon="2.0358">
        <ele>2325</ele>
        <time>2020-07-21T08:38:13.013Z</time>
      </trkpt>
      <trkpt lat="42.5767" lon="2.03578">
        <ele>2326</ele>
        <time>2020-07-21T08:38:14.013Z</time>
      </trkpt>
      <trkpt lat="42.57672" lon="2.03575">
        <ele>2326</ele>
        <time>2020-07-21T08:38:15.013Z</time>
      </trkpt>
      <trkpt lat="42.57675" lon="2.03573">
        <ele>2326</ele>
        <time>2020-07-21T08:38:16.013Z</time>
      </trkpt>
      <trkpt lat="42.57677" lon="2.03571">
        <ele>2325</ele>
        <time>2020-07-21T08:38:17.013Z</time>
      </trkpt>
      <trkpt lat="42.5768" lon="2.03569">
        <ele>2325</ele>
        <time>2020-07-21T08:38:18.013Z</time>
      </trkpt>
      <trkpt lat="42.57682" lon="2.03567">
        <ele>2325</ele>
        <time>2020-07-21T08:38:19.013Z</time>
      </trkpt>
      <trkpt lat="42.57685" lon="2.03565">
        <ele>2325</ele>
        <time>2020-07-21T08:38:20.013Z</time>
      </trkpt>
      <trkpt lat="42.57687" lon="2.03563">
        <ele>2325</ele>
        <time>2020-07-21T08:38:21.013Z</time>
      </trkpt>
      <trkpt lat="42.57689" lon="2.03561">
        <ele>2326</ele>
        <time>2020-07-21T08:38:22.013Z</time>
      </trkpt>
      <trkpt lat="42.57691" lon="2.03558">
        <ele>2326</ele>
        <time>2020-07-21T08:38:23.013Z</time>
      </trkpt>
      <trkpt lat="42.57692" lon="2.03556">
        <ele>2326</ele>
        <time>2020-07-21T08:38:24.013Z</time>
      </trkpt>
      <trkpt lat="42.57693" lon="2.03553">
        <ele>2326</ele>
        <time>2020-07-21T08:38:25.013Z</time>
      </trkpt>
      <trkpt lat="42.57694" lon="2.0355">
        <ele>2326</ele>
        <time>2020-07-21T08:38:26.013Z</time>
      </trkpt>
      <trkpt lat="42.57694" lon="2.03546">
        <ele>2326</ele>
        <time>2020-07-21T08:38:27.013Z</time>
      </trkpt>
      <trkpt lat="42.57693" lon="2.03543">
        <ele>2326</ele>
        <time>2020-07-21T08:38:28.013Z</time>
      </trkpt>
      <trkpt lat="42.57693" lon="2.0354">
        <ele>2327</ele>
        <time>2020-07-21T08:38:29.013Z</time>
      </trkpt>
      <trkpt lat="42.57693" lon="2.03536">
        <ele>2327</ele>
        <time>2020-07-21T08:38:30.013Z</time>
      </trkpt>
      <trkpt lat="42.57692" lon="2.03533">
        <ele>2327</ele>
        <time>2020-07-21T08:38:31.013Z</time>
      </trkpt>
      <trkpt lat="42.57692" lon="2.03529">
        <ele>2327</ele>
        <time>2020-07-21T08:38:32.013Z</time>
      </trkpt>
      <trkpt lat="42.57692" lon="2.03526">
        <ele>2328</ele>
        <time>2020-07-21T08:38:33.013Z</time>
      </trkpt>
      <trkpt lat="42.57692" lon="2.03522">
        <ele>2328</ele>
        <time>2020-07-21T08:38:34.013Z</time>
      </trkpt>
      <trkpt lat="42.57693" lon="2.03519">
        <ele>2328</ele>
        <time>2020-07-21T08:38:35.013Z</time>
      </trkpt>
      <trkpt lat="42.57694" lon="2.03516">
        <ele>2328</ele>
        <time>2020-07-21T08:38:36.013Z</time>
      </trkpt>
      <trkpt lat="42.57695" lon="2.03513">
        <ele>2329</ele>
        <time>2020-07-21T08:38:37.013Z</time>
      </trkpt>
      <trkpt lat="42.57696" lon="2.0351">
        <ele>2329</ele>
        <time>2020-07-21T08:38:38.013Z</time>
      </trkpt>
      <trkpt lat="42.57697" lon="2.03507">
        <ele>2329</ele>
        <time>2020-07-21T08:38:39.013Z</time>
      </trkpt>
      <trkpt lat="42.57699" lon="2.03504">
        <ele>2329</ele>
        <time>2020-07-21T08:38:40.013Z</time>
      </trkpt>
      <trkpt lat="42.577" lon="2.03501">
        <ele>2329</ele>
        <time>2020-07-21T08:38:41.013Z</time>
      </trkpt>
      <trkpt lat="42.57702" lon="2.03498">
        <ele>2329</ele>
        <time>2020-07-21T08:38:42.013Z</time>
      </trkpt>
      <trkpt lat="42.57703" lon="2.03495">
        <ele>2329</ele>
        <time>2020-07-21T08:38:43.013Z</time>
      </trkpt>
      <trkpt lat="42.57705" lon="2.03492">
        <ele>2330</ele>
        <time>2020-07-21T08:38:44.013Z</time>
      </trkpt>
      <trkpt lat="42.57707" lon="2.0349">
        <ele>2331</ele>
        <time>2020-07-21T08:38:45.013Z</time>
      </trkpt>
      <trkpt lat="42.5771" lon="2.03487">
        <ele>2331</ele>
        <time>2020-07-21T08:38:46.013Z</time>
      </trkpt>
      <trkpt lat="42.57712" lon="2.03485">
        <ele>2331</ele>
        <time>2020-07-21T08:38:47.013Z</time>
      </trkpt>
      <trkpt lat="42.57715" lon="2.03484">
        <ele>2331</ele>
        <time>2020-07-21T08:38:48.013Z</time>
      </trkpt>
      <trkpt lat="42.57718" lon="2.03483">
        <ele>2331</ele>
        <time>2020-07-21T08:38:49.013Z</time>
      </trkpt>
      <trkpt lat="42.57721" lon="2.03483">
        <ele>2331</ele>
        <time>2020-07-21T08:38:50.013Z</time>
      </trkpt>
      <trkpt lat="42.57724" lon="2.03482">
        <ele>2331</ele>
        <time>2020-07-21T08:38:51.013Z</time>
      </trkpt>
      <trkpt lat="42.57727" lon="2.03482">
        <ele>2331</ele>
        <time>2020-07-21T08:38:52.013Z</time>
      </trkpt>
      <trkpt lat="42.5773" lon="2.03481">
        <ele>2331</ele>
        <time>2020-07-21T08:38:53.013Z</time>
      </trkpt>
      <trkpt lat="42.57733" lon="2.03481">
        <ele>2331</ele>
        <time>2020-07-21T08:38:54.013Z</time>
      </trkpt>
      <trkpt lat="42.57736" lon="2.0348">
        <ele>2331</ele>
        <time>2020-07-21T08:38:55.013Z</time>
      </trkpt>
      <trkpt lat="42.57739" lon="2.03479">
        <ele>2331</ele>
        <time>2020-07-21T08:38:56.013Z</time>
      </trkpt>
      <trkpt lat="42.57742" lon="2.03478">
        <ele>2332</ele>
        <time>2020-07-21T08:38:57.013Z</time>
      </trkpt>
      <trkpt lat="42.57745" lon="2.03476">
        <ele>2332</ele>
        <time>2020-07-21T08:38:58.013Z</time>
      </trkpt>
      <trkpt lat="42.57748" lon="2.03475">
        <ele>2332</ele>
        <time>2020-07-21T08:38:59.013Z</time>
      </trkpt>
      <trkpt lat="42.5775" lon="2.03473">
        <ele>2332</ele>
        <time>2020-07-21T08:39:00.013Z</time>
      </trkpt>
      <trkpt lat="42.57753" lon="2.03472">
        <ele>2332</ele>
        <time>2020-07-21T08:39:01.013Z</time>
      </trkpt>
      <trkpt lat="42.57755" lon="2.0347">
        <ele>2332</ele>
        <time>2020-07-21T08:39:02.013Z</time>
      </trkpt>
      <trkpt lat="42.57758" lon="2.03468">
        <ele>2332</ele>
        <time>2020-07-21T08:39:03.013Z</time>
      </trkpt>
      <trkpt lat="42.5776" lon="2.03466">
        <ele>2332</ele>
        <time>2020-07-21T08:39:04.013Z</time>
      </trkpt>
      <trkpt lat="42.57762" lon="2.03464">
        <ele>2332</ele>
        <time>2020-07-21T08:39:05.013Z</time>
      </trkpt>
      <trkpt lat="42.57764" lon="2.03462">
        <ele>2332</ele>
        <time>2020-07-21T08:39:06.013Z</time>
      </trkpt>
      <trkpt lat="42.57765" lon="2.0346">
        <ele>2332</ele>
        <time>2020-07-21T08:39:07.013Z</time>
      </trkpt>
      <trkpt lat="42.57767" lon="2.03458">
        <ele>2332</ele>
        <time>2020-07-21T08:39:08.013Z</time>
      </trkpt>
      <trkpt lat="42.57768" lon="2.03455">
        <ele>2331</ele>
        <time>2020-07-21T08:39:09.013Z</time>
      </trkpt>
      <trkpt lat="42.57769" lon="2.03453">
        <ele>2331</ele>
        <time>2020-07-21T08:39:10.013Z</time>
      </trkpt>
      <trkpt lat="42.5777" lon="2.0345">
        <ele>2332</ele>
        <time>2020-07-21T08:39:11.013Z</time>
      </trkpt>
      <trkpt lat="42.57771" lon="2.03447">
        <ele>2332</ele>
        <time>2020-07-21T08:39:12.013Z</time>
      </trkpt>
      <trkpt lat="42.57772" lon="2.03444">
        <ele>2332</ele>
        <time>2020-07-21T08:39:13.013Z</time>
      </trkpt>
      <trkpt lat="42.57773" lon="2.03442">
        <ele>2333</ele>
        <time>2020-07-21T08:39:14.013Z</time>
      </trkpt>
      <trkpt lat="42.57775" lon="2.03439">
        <ele>2333</ele>
        <time>2020-07-21T08:39:15.013Z</time>
      </trkpt>
      <trkpt lat="42.57776" lon="2.03436">
        <ele>2334</ele>
        <time>2020-07-21T08:39:16.013Z</time>
      </trkpt>
      <trkpt lat="42.57777" lon="2.03433">
        <ele>2335</ele>
        <time>2020-07-21T08:39:17.013Z</time>
      </trkpt>
      <trkpt lat="42.57778" lon="2.0343">
        <ele>2335</ele>
        <time>2020-07-21T08:39:18.013Z</time>
      </trkpt>
      <trkpt lat="42.57778" lon="2.03427">
        <ele>2335</ele>
        <time>2020-07-21T08:39:19.013Z</time>
      </trkpt>
      <trkpt lat="42.57779" lon="2.03424">
        <ele>2335</ele>
        <time>2020-07-21T08:39:20.013Z</time>
      </trkpt>
      <trkpt lat="42.5778" lon="2.03422">
        <ele>2336</ele>
        <time>2020-07-21T08:39:21.013Z</time>
      </trkpt>
      <trkpt lat="42.57781" lon="2.03419">
        <ele>2336</ele>
        <time>2020-07-21T08:39:22.013Z</time>
      </trkpt>
      <trkpt lat="42.57782" lon="2.03416">
        <ele>2336</ele>
        <time>2020-07-21T08:39:23.013Z</time>
      </trkpt>
      <trkpt lat="42.57782" lon="2.03413">
        <ele>2337</ele>
        <time>2020-07-21T08:39:24.013Z</time>
      </trkpt>
      <trkpt lat="42.57783" lon="2.0341">
        <ele>2337</ele>
        <time>2020-07-21T08:39:25.013Z</time>
      </trkpt>
      <trkpt lat="42.57784" lon="2.03408">
        <ele>2338</ele>
        <time>2020-07-21T08:39:26.013Z</time>
      </trkpt>
      <trkpt lat="42.57784" lon="2.03405">
        <ele>2338</ele>
        <time>2020-07-21T08:39:27.013Z</time>
      </trkpt>
      <trkpt lat="42.57785" lon="2.03403">
        <ele>2340</ele>
        <time>2020-07-21T08:39:28.013Z</time>
      </trkpt>
      <trkpt lat="42.57786" lon="2.034">
        <ele>2340</ele>
        <time>2020-07-21T08:39:29.013Z</time>
      </trkpt>
      <trkpt lat="42.57787" lon="2.03398">
        <ele>2341</ele>
        <time>2020-07-21T08:39:30.013Z</time>
      </trkpt>
      <trkpt lat="42.57788" lon="2.03396">
        <ele>2342</ele>
        <time>2020-07-21T08:39:31.013Z</time>
      </trkpt>
      <trkpt lat="42.57789" lon="2.03394">
        <ele>2342</ele>
        <time>2020-07-21T08:39:32.013Z</time>
      </trkpt>
      <trkpt lat="42.5779" lon="2.03392">
        <ele>2342</ele>
        <time>2020-07-21T08:39:33.013Z</time>
      </trkpt>
      <trkpt lat="42.57791" lon="2.0339">
        <ele>2343</ele>
        <time>2020-07-21T08:39:34.013Z</time>
      </trkpt>
      <trkpt lat="42.57793" lon="2.03388">
        <ele>2343</ele>
        <time>2020-07-21T08:39:35.013Z</time>
      </trkpt>
      <trkpt lat="42.57794" lon="2.03385">
        <ele>2343</ele>
        <time>2020-07-21T08:39:36.013Z</time>
      </trkpt>
      <trkpt lat="42.57796" lon="2.03383">
        <ele>2344</ele>
        <time>2020-07-21T08:39:37.013Z</time>
      </trkpt>
      <trkpt lat="42.57797" lon="2.03381">
        <ele>2343</ele>
        <time>2020-07-21T08:39:38.013Z</time>
      </trkpt>
      <trkpt lat="42.57798" lon="2.03378">
        <ele>2344</ele>
        <time>2020-07-21T08:39:39.013Z</time>
      </trkpt>
      <trkpt lat="42.57799" lon="2.03376">
        <ele>2345</ele>
        <time>2020-07-21T08:39:40.013Z</time>
      </trkpt>
      <trkpt lat="42.578" lon="2.03374">
        <ele>2345</ele>
        <time>2020-07-21T08:39:41.013Z</time>
      </trkpt>
      <trkpt lat="42.57801" lon="2.03371">
        <ele>2345</ele>
        <time>2020-07-21T08:39:42.013Z</time>
      </trkpt>
      <trkpt lat="42.57803" lon="2.03369">
        <ele>2345</ele>
        <time>2020-07-21T08:39:43.013Z</time>
      </trkpt>
      <trkpt lat="42.57804" lon="2.03366">
        <ele>2346</ele>
        <time>2020-07-21T08:39:44.013Z</time>
      </trkpt>
      <trkpt lat="42.57805" lon="2.03363">
        <ele>2346</ele>
        <time>2020-07-21T08:39:45.013Z</time>
      </trkpt>
      <trkpt lat="42.57806" lon="2.0336">
        <ele>2346</ele>
        <time>2020-07-21T08:39:46.013Z</time>
      </trkpt>
      <trkpt lat="42.57807" lon="2.03357">
        <ele>2347</ele>
        <time>2020-07-21T08:39:47.013Z</time>
      </trkpt>
      <trkpt lat="42.57808" lon="2.03354">
        <ele>2347</ele>
        <time>2020-07-21T08:39:48.013Z</time>
      </trkpt>
      <trkpt lat="42.5781" lon="2.03351">
        <ele>2347</ele>
        <time>2020-07-21T08:39:49.013Z</time>
      </trkpt>
      <trkpt lat="42.57811" lon="2.03348">
        <ele>2348</ele>
        <time>2020-07-21T08:39:50.013Z</time>
      </trkpt>
      <trkpt lat="42.57812" lon="2.03345">
        <ele>2348</ele>
        <time>2020-07-21T08:39:51.013Z</time>
      </trkpt>
      <trkpt lat="42.57813" lon="2.03342">
        <ele>2348</ele>
        <time>2020-07-21T08:39:52.013Z</time>
      </trkpt>
      <trkpt lat="42.57814" lon="2.03339">
        <ele>2349</ele>
        <time>2020-07-21T08:39:53.013Z</time>
      </trkpt>
      <trkpt lat="42.57815" lon="2.03337">
        <ele>2350</ele>
        <time>2020-07-21T08:39:54.013Z</time>
      </trkpt>
      <trkpt lat="42.57816" lon="2.03334">
        <ele>2350</ele>
        <time>2020-07-21T08:39:55.013Z</time>
      </trkpt>
      <trkpt lat="42.57817" lon="2.03331">
        <ele>2350</ele>
        <time>2020-07-21T08:39:56.013Z</time>
      </trkpt>
      <trkpt lat="42.57817" lon="2.03329">
        <ele>2350</ele>
        <time>2020-07-21T08:39:57.013Z</time>
      </trkpt>
      <trkpt lat="42.57818" lon="2.03326">
        <ele>2351</ele>
        <time>2020-07-21T08:39:58.013Z</time>
      </trkpt>
      <trkpt lat="42.57819" lon="2.03323">
        <ele>2352</ele>
        <time>2020-07-21T08:39:59.013Z</time>
      </trkpt>
      <trkpt lat="42.5782" lon="2.0332">
        <ele>2351</ele>
        <time>2020-07-21T08:40:00.013Z</time>
      </trkpt>
      <trkpt lat="42.57822" lon="2.03318">
        <ele>2351</ele>
        <time>2020-07-21T08:40:01.013Z</time>
      </trkpt>
      <trkpt lat="42.57823" lon="2.03315">
        <ele>2351</ele>
        <time>2020-07-21T08:40:02.013Z</time>
      </trkpt>
      <trkpt lat="42.57824" lon="2.03312">
        <ele>2351</ele>
        <time>2020-07-21T08:40:03.013Z</time>
      </trkpt>
      <trkpt lat="42.57825" lon="2.03309">
        <ele>2351</ele>
        <time>2020-07-21T08:40:04.013Z</time>
      </trkpt>
      <trkpt lat="42.57827" lon="2.03306">
        <ele>2352</ele>
        <time>2020-07-21T08:40:05.013Z</time>
      </trkpt>
      <trkpt lat="42.57828" lon="2.03304">
        <ele>2352</ele>
        <time>2020-07-21T08:40:06.013Z</time>
      </trkpt>
      <trkpt lat="42.5783" lon="2.03301">
        <ele>2352</ele>
        <time>2020-07-21T08:40:07.013Z</time>
      </trkpt>
      <trkpt lat="42.57832" lon="2.03298">
        <ele>2352</ele>
        <time>2020-07-21T08:40:08.013Z</time>
      </trkpt>
      <trkpt lat="42.57833" lon="2.03295">
        <ele>2352</ele>
        <time>2020-07-21T08:40:09.013Z</time>
      </trkpt>
      <trkpt lat="42.57835" lon="2.03292">
        <ele>2352</ele>
        <time>2020-07-21T08:40:10.013Z</time>
      </trkpt>
      <trkpt lat="42.57837" lon="2.0329">
        <ele>2352</ele>
        <time>2020-07-21T08:40:11.013Z</time>
      </trkpt>
      <trkpt lat="42.57839" lon="2.03287">
        <ele>2352</ele>
        <time>2020-07-21T08:40:12.013Z</time>
      </trkpt>
      <trkpt lat="42.57841" lon="2.03285">
        <ele>2352</ele>
        <time>2020-07-21T08:40:13.013Z</time>
      </trkpt>
      <trkpt lat="42.57843" lon="2.03282">
        <ele>2352</ele>
        <time>2020-07-21T08:40:14.013Z</time>
      </trkpt>
      <trkpt lat="42.57845" lon="2.0328">
        <ele>2352</ele>
        <time>2020-07-21T08:40:15.013Z</time>
      </trkpt>
      <trkpt lat="42.57847" lon="2.03277">
        <ele>2353</ele>
        <time>2020-07-21T08:40:16.013Z</time>
      </trkpt>
      <trkpt lat="42.57849" lon="2.03275">
        <ele>2354</ele>
        <time>2020-07-21T08:40:17.013Z</time>
      </trkpt>
      <trkpt lat="42.57851" lon="2.03272">
        <ele>2354</ele>
        <time>2020-07-21T08:40:18.013Z</time>
      </trkpt>
      <trkpt lat="42.57853" lon="2.0327">
        <ele>2354</ele>
        <time>2020-07-21T08:40:19.013Z</time>
      </trkpt>
      <trkpt lat="42.57855" lon="2.03267">
        <ele>2354</ele>
        <time>2020-07-21T08:40:20.013Z</time>
      </trkpt>
      <trkpt lat="42.57857" lon="2.03264">
        <ele>2354</ele>
        <time>2020-07-21T08:40:21.013Z</time>
      </trkpt>
      <trkpt lat="42.57859" lon="2.03261">
        <ele>2355</ele>
        <time>2020-07-21T08:40:22.013Z</time>
      </trkpt>
      <trkpt lat="42.5786" lon="2.03258">
        <ele>2354</ele>
        <time>2020-07-21T08:40:23.013Z</time>
      </trkpt>
      <trkpt lat="42.57862" lon="2.03255">
        <ele>2354</ele>
        <time>2020-07-21T08:40:24.013Z</time>
      </trkpt>
      <trkpt lat="42.57864" lon="2.03251">
        <ele>2354</ele>
        <time>2020-07-21T08:40:25.013Z</time>
      </trkpt>
      <trkpt lat="42.57866" lon="2.03248">
        <ele>2355</ele>
        <time>2020-07-21T08:40:26.013Z</time>
      </trkpt>
      <trkpt lat="42.57868" lon="2.03245">
        <ele>2356</ele>
        <time>2020-07-21T08:40:27.013Z</time>
      </trkpt>
      <trkpt lat="42.57871" lon="2.03242">
        <ele>2356</ele>
        <time>2020-07-21T08:40:28.013Z</time>
      </trkpt>
      <trkpt lat="42.57873" lon="2.0324">
        <ele>2357</ele>
        <time>2020-07-21T08:40:29.013Z</time>
      </trkpt>
      <trkpt lat="42.57876" lon="2.03237">
        <ele>2357</ele>
        <time>2020-07-21T08:40:30.013Z</time>
      </trkpt>
      <trkpt lat="42.57878" lon="2.03236">
        <ele>2358</ele>
        <time>2020-07-21T08:40:31.013Z</time>
      </trkpt>
      <trkpt lat="42.57881" lon="2.03234">
        <ele>2359</ele>
        <time>2020-07-21T08:40:32.013Z</time>
      </trkpt>
      <trkpt lat="42.57883" lon="2.03232">
        <ele>2359</ele>
        <time>2020-07-21T08:40:33.013Z</time>
      </trkpt>
      <trkpt lat="42.57886" lon="2.03231">
        <ele>2359</ele>
        <time>2020-07-21T08:40:34.013Z</time>
      </trkpt>
      <trkpt lat="42.57889" lon="2.0323">
        <ele>2359</ele>
        <time>2020-07-21T08:40:35.013Z</time>
      </trkpt>
      <trkpt lat="42.57891" lon="2.03228">
        <ele>2360</ele>
        <time>2020-07-21T08:40:36.013Z</time>
      </trkpt>
      <trkpt lat="42.57894" lon="2.03227">
        <ele>2360</ele>
        <time>2020-07-21T08:40:37.013Z</time>
      </trkpt>
      <trkpt lat="42.57896" lon="2.03226">
        <ele>2360</ele>
        <time>2020-07-21T08:40:38.013Z</time>
      </trkpt>
      <trkpt lat="42.57899" lon="2.03224">
        <ele>2360</ele>
        <time>2020-07-21T08:40:39.013Z</time>
      </trkpt>
      <trkpt lat="42.57902" lon="2.03224">
        <ele>2360</ele>
        <time>2020-07-21T08:40:40.013Z</time>
      </trkpt>
      <trkpt lat="42.57904" lon="2.03223">
        <ele>2361</ele>
        <time>2020-07-21T08:40:41.013Z</time>
      </trkpt>
      <trkpt lat="42.57907" lon="2.03222">
        <ele>2361</ele>
        <time>2020-07-21T08:40:42.013Z</time>
      </trkpt>
      <trkpt lat="42.57917" lon="2.03218">
        <ele>2359</ele>
        <time>2020-07-21T08:40:43.079Z</time>
      </trkpt>
      <trkpt lat="42.57918" lon="2.03218">
        <ele>2359</ele>
        <time>2020-07-21T08:40:44.079Z</time>
      </trkpt>
      <trkpt lat="42.57918" lon="2.03216">
        <ele>2359</ele>
        <time>2020-07-21T08:40:45.079Z</time>
      </trkpt>
      <trkpt lat="42.57919" lon="2.03213">
        <ele>2359</ele>
        <time>2020-07-21T08:40:46.079Z</time>
      </trkpt>
      <trkpt lat="42.57919" lon="2.0321">
        <ele>2360</ele>
        <time>2020-07-21T08:40:47.079Z</time>
      </trkpt>
      <trkpt lat="42.5792" lon="2.03207">
        <ele>2360</ele>
        <time>2020-07-21T08:40:48.079Z</time>
      </trkpt>
      <trkpt lat="42.57921" lon="2.03204">
        <ele>2361</ele>
        <time>2020-07-21T08:40:49.079Z</time>
      </trkpt>
      <trkpt lat="42.57922" lon="2.03202">
        <ele>2361</ele>
        <time>2020-07-21T08:40:50.079Z</time>
      </trkpt>
      <trkpt lat="42.57922" lon="2.03199">
        <ele>2361</ele>
        <time>2020-07-21T08:40:51.079Z</time>
      </trkpt>
      <trkpt lat="42.57923" lon="2.03196">
        <ele>2361</ele>
        <time>2020-07-21T08:40:52.079Z</time>
      </trkpt>
      <trkpt lat="42.57916" lon="2.0322">
        <ele>2357</ele>
        <time>2020-07-21T08:40:53.114Z</time>
      </trkpt>
      <trkpt lat="42.57916" lon="2.0322">
        <ele>2357</ele>
        <time>2020-07-21T08:40:54.114Z</time>
      </trkpt>
      <trkpt lat="42.57916" lon="2.03219">
        <ele>2357</ele>
        <time>2020-07-21T08:40:55.114Z</time>
      </trkpt>
      <trkpt lat="42.57914" lon="2.03218">
        <ele>2357</ele>
        <time>2020-07-21T08:40:56.114Z</time>
      </trkpt>
      <trkpt lat="42.57912" lon="2.03215">
        <ele>2357</ele>
        <time>2020-07-21T08:40:57.114Z</time>
      </trkpt>
      <trkpt lat="42.5791" lon="2.03213">
        <ele>2357</ele>
        <time>2020-07-21T08:40:58.114Z</time>
      </trkpt>
      <trkpt lat="42.57908" lon="2.0321">
        <ele>2358</ele>
        <time>2020-07-21T08:40:59.114Z</time>
      </trkpt>
      <trkpt lat="42.57906" lon="2.03207">
        <ele>2357</ele>
        <time>2020-07-21T08:41:00.114Z</time>
      </trkpt>
      <trkpt lat="42.57904" lon="2.03205">
        <ele>2358</ele>
        <time>2020-07-21T08:41:01.114Z</time>
      </trkpt>
      <trkpt lat="42.57902" lon="2.03203">
        <ele>2358</ele>
        <time>2020-07-21T08:41:02.114Z</time>
      </trkpt>
      <trkpt lat="42.57899" lon="2.03201">
        <ele>2358</ele>
        <time>2020-07-21T08:41:03.114Z</time>
      </trkpt>
      <trkpt lat="42.57897" lon="2.03199">
        <ele>2359</ele>
        <time>2020-07-21T08:41:04.114Z</time>
      </trkpt>
      <trkpt lat="42.57895" lon="2.03197">
        <ele>2359</ele>
        <time>2020-07-21T08:41:05.114Z</time>
      </trkpt>
      <trkpt lat="42.57893" lon="2.03194">
        <ele>2359</ele>
        <time>2020-07-21T08:41:06.114Z</time>
      </trkpt>
      <trkpt lat="42.57891" lon="2.03192">
        <ele>2360</ele>
        <time>2020-07-21T08:41:07.114Z</time>
      </trkpt>
      <trkpt lat="42.5789" lon="2.0319">
        <ele>2360</ele>
        <time>2020-07-21T08:41:08.114Z</time>
      </trkpt>
      <trkpt lat="42.57888" lon="2.03188">
        <ele>2360</ele>
        <time>2020-07-21T08:41:09.114Z</time>
      </trkpt>
      <trkpt lat="42.57886" lon="2.03186">
        <ele>2360</ele>
        <time>2020-07-21T08:41:10.114Z</time>
      </trkpt>
      <trkpt lat="42.57884" lon="2.03184">
        <ele>2360</ele>
        <time>2020-07-21T08:41:11.114Z</time>
      </trkpt>
      <trkpt lat="42.57883" lon="2.03182">
        <ele>2360</ele>
        <time>2020-07-21T08:41:12.114Z</time>
      </trkpt>
      <trkpt lat="42.57882" lon="2.03179">
        <ele>2360</ele>
        <time>2020-07-21T08:41:13.114Z</time>
      </trkpt>
      <trkpt lat="42.57881" lon="2.03177">
        <ele>2360</ele>
        <time>2020-07-21T08:41:14.114Z</time>
      </trkpt>
      <trkpt lat="42.57879" lon="2.03174">
        <ele>2360</ele>
        <time>2020-07-21T08:41:15.114Z</time>
      </trkpt>
      <trkpt lat="42.57877" lon="2.03172">
        <ele>2359</ele>
        <time>2020-07-21T08:41:16.114Z</time>
      </trkpt>
      <trkpt lat="42.57874" lon="2.03171">
        <ele>2359</ele>
        <time>2020-07-21T08:41:17.114Z</time>
      </trkpt>
      <trkpt lat="42.57871" lon="2.03169">
        <ele>2360</ele>
        <time>2020-07-21T08:41:18.114Z</time>
      </trkpt>
      <trkpt lat="42.57869" lon="2.03168">
        <ele>2361</ele>
        <time>2020-07-21T08:41:19.114Z</time>
      </trkpt>
      <trkpt lat="42.57866" lon="2.03167">
        <ele>2361</ele>
        <time>2020-07-21T08:41:20.114Z</time>
      </trkpt>
      <trkpt lat="42.57864" lon="2.03166">
        <ele>2361</ele>
        <time>2020-07-21T08:41:21.114Z</time>
      </trkpt>
      <trkpt lat="42.57862" lon="2.03164">
        <ele>2361</ele>
        <time>2020-07-21T08:41:22.114Z</time>
      </trkpt>
      <trkpt lat="42.57859" lon="2.03163">
        <ele>2361</ele>
        <time>2020-07-21T08:41:23.114Z</time>
      </trkpt>
      <trkpt lat="42.57857" lon="2.03163">
        <ele>2362</ele>
        <time>2020-07-21T08:41:24.114Z</time>
      </trkpt>
      <trkpt lat="42.57854" lon="2.03163">
        <ele>2362</ele>
        <time>2020-07-21T08:41:25.114Z</time>
      </trkpt>
      <trkpt lat="42.57851" lon="2.03163">
        <ele>2363</ele>
        <time>2020-07-21T08:41:26.114Z</time>
      </trkpt>
      <trkpt lat="42.57849" lon="2.03163">
        <ele>2362</ele>
        <time>2020-07-21T08:41:27.114Z</time>
      </trkpt>
      <trkpt lat="42.57846" lon="2.03163">
        <ele>2363</ele>
        <time>2020-07-21T08:41:28.114Z</time>
      </trkpt>
      <trkpt lat="42.57844" lon="2.03164">
        <ele>2362</ele>
        <time>2020-07-21T08:41:29.114Z</time>
      </trkpt>
      <trkpt lat="42.57842" lon="2.03163">
        <ele>2362</ele>
        <time>2020-07-21T08:41:30.114Z</time>
      </trkpt>
      <trkpt lat="42.57839" lon="2.03163">
        <ele>2362</ele>
        <time>2020-07-21T08:41:31.114Z</time>
      </trkpt>
      <trkpt lat="42.57837" lon="2.03162">
        <ele>2362</ele>
        <time>2020-07-21T08:41:32.114Z</time>
      </trkpt>
      <trkpt lat="42.57835" lon="2.0316">
        <ele>2362</ele>
        <time>2020-07-21T08:41:33.114Z</time>
      </trkpt>
      <trkpt lat="42.57833" lon="2.03158">
        <ele>2363</ele>
        <time>2020-07-21T08:41:34.114Z</time>
      </trkpt>
      <trkpt lat="42.57831" lon="2.03156">
        <ele>2363</ele>
        <time>2020-07-21T08:41:35.114Z</time>
      </trkpt>
      <trkpt lat="42.57829" lon="2.03153">
        <ele>2363</ele>
        <time>2020-07-21T08:41:36.114Z</time>
      </trkpt>
      <trkpt lat="42.57827" lon="2.03151">
        <ele>2363</ele>
        <time>2020-07-21T08:41:37.114Z</time>
      </trkpt>
      <trkpt lat="42.57825" lon="2.03149">
        <ele>2364</ele>
        <time>2020-07-21T08:41:38.114Z</time>
      </trkpt>
      <trkpt lat="42.57822" lon="2.03147">
        <ele>2365</ele>
        <time>2020-07-21T08:41:39.114Z</time>
      </trkpt>
      <trkpt lat="42.5782" lon="2.03145">
        <ele>2365</ele>
        <time>2020-07-21T08:41:40.114Z</time>
      </trkpt>
      <trkpt lat="42.57818" lon="2.03142">
        <ele>2365</ele>
        <time>2020-07-21T08:41:41.114Z</time>
      </trkpt>
      <trkpt lat="42.57816" lon="2.0314">
        <ele>2365</ele>
        <time>2020-07-21T08:41:42.114Z</time>
      </trkpt>
      <trkpt lat="42.57814" lon="2.03137">
        <ele>2366</ele>
        <time>2020-07-21T08:41:43.114Z</time>
      </trkpt>
      <trkpt lat="42.57812" lon="2.03135">
        <ele>2367</ele>
        <time>2020-07-21T08:41:44.114Z</time>
      </trkpt>
      <trkpt lat="42.5781" lon="2.03133">
        <ele>2367</ele>
        <time>2020-07-21T08:41:45.114Z</time>
      </trkpt>
      <trkpt lat="42.57807" lon="2.0313">
        <ele>2367</ele>
        <time>2020-07-21T08:41:46.114Z</time>
      </trkpt>
      <trkpt lat="42.57805" lon="2.03128">
        <ele>2367</ele>
        <time>2020-07-21T08:41:47.114Z</time>
      </trkpt>
      <trkpt lat="42.57804" lon="2.03125">
        <ele>2367</ele>
        <time>2020-07-21T08:41:48.114Z</time>
      </trkpt>
      <trkpt lat="42.57802" lon="2.03122">
        <ele>2368</ele>
        <time>2020-07-21T08:41:49.114Z</time>
      </trkpt>
      <trkpt lat="42.578" lon="2.03119">
        <ele>2368</ele>
        <time>2020-07-21T08:41:50.114Z</time>
      </trkpt>
      <trkpt lat="42.57798" lon="2.03116">
        <ele>2369</ele>
        <time>2020-07-21T08:41:51.114Z</time>
      </trkpt>
      <trkpt lat="42.57796" lon="2.03113">
        <ele>2369</ele>
        <time>2020-07-21T08:41:52.114Z</time>
      </trkpt>
      <trkpt lat="42.57794" lon="2.0311">
        <ele>2369</ele>
        <time>2020-07-21T08:41:53.114Z</time>
      </trkpt>
      <trkpt lat="42.57792" lon="2.03107">
        <ele>2369</ele>
        <time>2020-07-21T08:41:54.114Z</time>
      </trkpt>
      <trkpt lat="42.5779" lon="2.03104">
        <ele>2369</ele>
        <time>2020-07-21T08:41:55.114Z</time>
      </trkpt>
      <trkpt lat="42.57789" lon="2.03101">
        <ele>2369</ele>
        <time>2020-07-21T08:41:56.114Z</time>
      </trkpt>
      <trkpt lat="42.57787" lon="2.03098">
        <ele>2369</ele>
        <time>2020-07-21T08:41:57.114Z</time>
      </trkpt>
      <trkpt lat="42.57785" lon="2.03096">
        <ele>2369</ele>
        <time>2020-07-21T08:41:58.114Z</time>
      </trkpt>
      <trkpt lat="42.57784" lon="2.03093">
        <ele>2369</ele>
        <time>2020-07-21T08:41:59.114Z</time>
      </trkpt>
      <trkpt lat="42.57782" lon="2.0309">
        <ele>2369</ele>
        <time>2020-07-21T08:42:00.114Z</time>
      </trkpt>
      <trkpt lat="42.5778" lon="2.03087">
        <ele>2369</ele>
        <time>2020-07-21T08:42:01.114Z</time>
      </trkpt>
      <trkpt lat="42.57778" lon="2.03084">
        <ele>2370</ele>
        <time>2020-07-21T08:42:02.114Z</time>
      </trkpt>
      <trkpt lat="42.57776" lon="2.03082">
        <ele>2370</ele>
        <time>2020-07-21T08:42:03.114Z</time>
      </trkpt>
      <trkpt lat="42.57774" lon="2.03079">
        <ele>2370</ele>
        <time>2020-07-21T08:42:04.114Z</time>
      </trkpt>
      <trkpt lat="42.57773" lon="2.03075">
        <ele>2370</ele>
        <time>2020-07-21T08:42:05.114Z</time>
      </trkpt>
      <trkpt lat="42.57771" lon="2.03073">
        <ele>2370</ele>
        <time>2020-07-21T08:42:06.114Z</time>
      </trkpt>
      <trkpt lat="42.57769" lon="2.0307">
        <ele>2370</ele>
        <time>2020-07-21T08:42:07.114Z</time>
      </trkpt>
      <trkpt lat="42.57767" lon="2.03068">
        <ele>2370</ele>
        <time>2020-07-21T08:42:08.114Z</time>
      </trkpt>
      <trkpt lat="42.57765" lon="2.03065">
        <ele>2370</ele>
        <time>2020-07-21T08:42:09.114Z</time>
      </trkpt>
      <trkpt lat="42.57764" lon="2.03063">
        <ele>2371</ele>
        <time>2020-07-21T08:42:10.114Z</time>
      </trkpt>
      <trkpt lat="42.57762" lon="2.03061">
        <ele>2372</ele>
        <time>2020-07-21T08:42:11.114Z</time>
      </trkpt>
      <trkpt lat="42.57761" lon="2.03058">
        <ele>2372</ele>
        <time>2020-07-21T08:42:12.114Z</time>
      </trkpt>
      <trkpt lat="42.5776" lon="2.03055">
        <ele>2372</ele>
        <time>2020-07-21T08:42:13.114Z</time>
      </trkpt>
      <trkpt lat="42.57759" lon="2.03052">
        <ele>2372</ele>
        <time>2020-07-21T08:42:14.114Z</time>
      </trkpt>
      <trkpt lat="42.57758" lon="2.03049">
        <ele>2372</ele>
        <time>2020-07-21T08:42:15.114Z</time>
      </trkpt>
      <trkpt lat="42.57756" lon="2.03046">
        <ele>2373</ele>
        <time>2020-07-21T08:42:16.114Z</time>
      </trkpt>
      <trkpt lat="42.57754" lon="2.03042">
        <ele>2373</ele>
        <time>2020-07-21T08:42:17.114Z</time>
      </trkpt>
      <trkpt lat="42.57753" lon="2.0304">
        <ele>2374</ele>
        <time>2020-07-21T08:42:18.114Z</time>
      </trkpt>
      <trkpt lat="42.57751" lon="2.03037">
        <ele>2374</ele>
        <time>2020-07-21T08:42:19.114Z</time>
      </trkpt>
      <trkpt lat="42.5775" lon="2.03033">
        <ele>2374</ele>
        <time>2020-07-21T08:42:20.114Z</time>
      </trkpt>
      <trkpt lat="42.57749" lon="2.0303">
        <ele>2374</ele>
        <time>2020-07-21T08:42:21.114Z</time>
      </trkpt>
      <trkpt lat="42.57749" lon="2.03026">
        <ele>2374</ele>
        <time>2020-07-21T08:42:22.114Z</time>
      </trkpt>
      <trkpt lat="42.57748" lon="2.03023">
        <ele>2375</ele>
        <time>2020-07-21T08:42:23.114Z</time>
      </trkpt>
      <trkpt lat="42.57747" lon="2.0302">
        <ele>2376</ele>
        <time>2020-07-21T08:42:24.114Z</time>
      </trkpt>
      <trkpt lat="42.57749" lon="2.03029">
        <ele>2372</ele>
        <time>2020-07-21T08:42:25.071Z</time>
      </trkpt>
      <trkpt lat="42.57749" lon="2.03029">
        <ele>2372</ele>
        <time>2020-07-21T08:42:26.071Z</time>
      </trkpt>
      <trkpt lat="42.57749" lon="2.03029">
        <ele>2372</ele>
        <time>2020-07-21T08:42:27.071Z</time>
      </trkpt>
      <trkpt lat="42.57749" lon="2.03029">
        <ele>2372</ele>
        <time>2020-07-21T08:42:28.071Z</time>
      </trkpt>
      <trkpt lat="42.57749" lon="2.03029">
        <ele>2373</ele>
        <time>2020-07-21T08:42:29.071Z</time>
      </trkpt>
      <trkpt lat="42.57749" lon="2.03029">
        <ele>2373</ele>
        <time>2020-07-21T08:42:30.071Z</time>
      </trkpt>
      <trkpt lat="42.57749" lon="2.0303">
        <ele>2373</ele>
        <time>2020-07-21T08:42:31.071Z</time>
      </trkpt>
      <trkpt lat="42.5775" lon="2.03032">
        <ele>2372</ele>
        <time>2020-07-21T08:42:32.071Z</time>
      </trkpt>
      <trkpt lat="42.5775" lon="2.03035">
        <ele>2372</ele>
        <time>2020-07-21T08:42:33.071Z</time>
      </trkpt>
      <trkpt lat="42.57751" lon="2.03038">
        <ele>2372</ele>
        <time>2020-07-21T08:42:34.071Z</time>
      </trkpt>
      <trkpt lat="42.57751" lon="2.03042">
        <ele>2372</ele>
        <time>2020-07-21T08:42:35.071Z</time>
      </trkpt>
      <trkpt lat="42.57752" lon="2.03046">
        <ele>2372</ele>
        <time>2020-07-21T08:42:36.071Z</time>
      </trkpt>
      <trkpt lat="42.57752" lon="2.0305">
        <ele>2371</ele>
        <time>2020-07-21T08:42:37.071Z</time>
      </trkpt>
      <trkpt lat="42.57753" lon="2.03054">
        <ele>2371</ele>
        <time>2020-07-21T08:42:38.071Z</time>
      </trkpt>
      <trkpt lat="42.57754" lon="2.03058">
        <ele>2371</ele>
        <time>2020-07-21T08:42:39.071Z</time>
      </trkpt>
      <trkpt lat="42.57755" lon="2.03062">
        <ele>2371</ele>
        <time>2020-07-21T08:42:40.071Z</time>
      </trkpt>
      <trkpt lat="42.57756" lon="2.03065">
        <ele>2371</ele>
        <time>2020-07-21T08:42:41.071Z</time>
      </trkpt>
      <trkpt lat="42.57757" lon="2.03069">
        <ele>2371</ele>
        <time>2020-07-21T08:42:42.071Z</time>
      </trkpt>
      <trkpt lat="42.57758" lon="2.03073">
        <ele>2371</ele>
        <time>2020-07-21T08:42:43.071Z</time>
      </trkpt>
      <trkpt lat="42.57759" lon="2.03078">
        <ele>2371</ele>
        <time>2020-07-21T08:42:44.071Z</time>
      </trkpt>
      <trkpt lat="42.5776" lon="2.03082">
        <ele>2370</ele>
        <time>2020-07-21T08:42:45.071Z</time>
      </trkpt>
      <trkpt lat="42.5776" lon="2.03086">
        <ele>2370</ele>
        <time>2020-07-21T08:42:46.071Z</time>
      </trkpt>
      <trkpt lat="42.57761" lon="2.0309">
        <ele>2369</ele>
        <time>2020-07-21T08:42:47.071Z</time>
      </trkpt>
      <trkpt lat="42.57761" lon="2.03094">
        <ele>2369</ele>
        <time>2020-07-21T08:42:48.071Z</time>
      </trkpt>
      <trkpt lat="42.57761" lon="2.03098">
        <ele>2369</ele>
        <time>2020-07-21T08:42:49.071Z</time>
      </trkpt>
      <trkpt lat="42.5776" lon="2.03102">
        <ele>2369</ele>
        <time>2020-07-21T08:42:50.071Z</time>
      </trkpt>
      <trkpt lat="42.5776" lon="2.03106">
        <ele>2368</ele>
        <time>2020-07-21T08:42:51.071Z</time>
      </trkpt>
      <trkpt lat="42.57759" lon="2.0311">
        <ele>2368</ele>
        <time>2020-07-21T08:42:52.071Z</time>
      </trkpt>
      <trkpt lat="42.57759" lon="2.03114">
        <ele>2368</ele>
        <time>2020-07-21T08:42:53.071Z</time>
      </trkpt>
      <trkpt lat="42.57758" lon="2.03118">
        <ele>2368</ele>
        <time>2020-07-21T08:42:54.071Z</time>
      </trkpt>
      <trkpt lat="42.57758" lon="2.03122">
        <ele>2368</ele>
        <time>2020-07-21T08:42:55.071Z</time>
      </trkpt>
      <trkpt lat="42.57757" lon="2.03126">
        <ele>2368</ele>
        <time>2020-07-21T08:42:56.071Z</time>
      </trkpt>
      <trkpt lat="42.57756" lon="2.0313">
        <ele>2368</ele>
        <time>2020-07-21T08:42:57.071Z</time>
      </trkpt>
      <trkpt lat="42.57756" lon="2.03134">
        <ele>2368</ele>
        <time>2020-07-21T08:42:58.071Z</time>
      </trkpt>
      <trkpt lat="42.57755" lon="2.03138">
        <ele>2368</ele>
        <time>2020-07-21T08:42:59.071Z</time>
      </trkpt>
      <trkpt lat="42.57754" lon="2.03142">
        <ele>2368</ele>
        <time>2020-07-21T08:43:00.071Z</time>
      </trkpt>
      <trkpt lat="42.57753" lon="2.03146">
        <ele>2368</ele>
        <time>2020-07-21T08:43:01.071Z</time>
      </trkpt>
      <trkpt lat="42.57752" lon="2.03151">
        <ele>2368</ele>
        <time>2020-07-21T08:43:02.071Z</time>
      </trkpt>
      <trkpt lat="42.5775" lon="2.03155">
        <ele>2368</ele>
        <time>2020-07-21T08:43:03.071Z</time>
      </trkpt>
      <trkpt lat="42.57749" lon="2.03159">
        <ele>2368</ele>
        <time>2020-07-21T08:43:04.071Z</time>
      </trkpt>
      <trkpt lat="42.57747" lon="2.03163">
        <ele>2367</ele>
        <time>2020-07-21T08:43:05.071Z</time>
      </trkpt>
      <trkpt lat="42.57746" lon="2.03167">
        <ele>2367</ele>
        <time>2020-07-21T08:43:06.071Z</time>
      </trkpt>
      <trkpt lat="42.57745" lon="2.0317">
        <ele>2367</ele>
        <time>2020-07-21T08:43:07.071Z</time>
      </trkpt>
      <trkpt lat="42.57743" lon="2.03174">
        <ele>2366</ele>
        <time>2020-07-21T08:43:08.071Z</time>
      </trkpt>
      <trkpt lat="42.57741" lon="2.03177">
        <ele>2367</ele>
        <time>2020-07-21T08:43:09.071Z</time>
      </trkpt>
      <trkpt lat="42.5774" lon="2.03181">
        <ele>2366</ele>
        <time>2020-07-21T08:43:10.071Z</time>
      </trkpt>
      <trkpt lat="42.57738" lon="2.03185">
        <ele>2366</ele>
        <time>2020-07-21T08:43:11.071Z</time>
      </trkpt>
      <trkpt lat="42.57736" lon="2.03188">
        <ele>2365</ele>
        <time>2020-07-21T08:43:12.071Z</time>
      </trkpt>
      <trkpt lat="42.57735" lon="2.03192">
        <ele>2365</ele>
        <time>2020-07-21T08:43:13.071Z</time>
      </trkpt>
      <trkpt lat="42.57733" lon="2.03196">
        <ele>2364</ele>
        <time>2020-07-21T08:43:14.071Z</time>
      </trkpt>
      <trkpt lat="42.57731" lon="2.03199">
        <ele>2364</ele>
        <time>2020-07-21T08:43:15.071Z</time>
      </trkpt>
      <trkpt lat="42.5773" lon="2.03203">
        <ele>2364</ele>
        <time>2020-07-21T08:43:16.071Z</time>
      </trkpt>
      <trkpt lat="42.57728" lon="2.03207">
        <ele>2364</ele>
        <time>2020-07-21T08:43:17.071Z</time>
      </trkpt>
      <trkpt lat="42.57726" lon="2.03211">
        <ele>2364</ele>
        <time>2020-07-21T08:43:18.071Z</time>
      </trkpt>
      <trkpt lat="42.57724" lon="2.03215">
        <ele>2364</ele>
        <time>2020-07-21T08:43:19.071Z</time>
      </trkpt>
      <trkpt lat="42.57722" lon="2.03219">
        <ele>2363</ele>
        <time>2020-07-21T08:43:20.071Z</time>
      </trkpt>
      <trkpt lat="42.57721" lon="2.03222">
        <ele>2363</ele>
        <time>2020-07-21T08:43:21.071Z</time>
      </trkpt>
      <trkpt lat="42.57719" lon="2.03226">
        <ele>2363</ele>
        <time>2020-07-21T08:43:22.071Z</time>
      </trkpt>
      <trkpt lat="42.57717" lon="2.0323">
        <ele>2363</ele>
        <time>2020-07-21T08:43:23.071Z</time>
      </trkpt>
      <trkpt lat="42.57716" lon="2.03234">
        <ele>2363</ele>
        <time>2020-07-21T08:43:24.071Z</time>
      </trkpt>
      <trkpt lat="42.57714" lon="2.03238">
        <ele>2362</ele>
        <time>2020-07-21T08:43:25.071Z</time>
      </trkpt>
      <trkpt lat="42.57712" lon="2.03241">
        <ele>2361</ele>
        <time>2020-07-21T08:43:26.071Z</time>
      </trkpt>
      <trkpt lat="42.5771" lon="2.03245">
        <ele>2361</ele>
        <time>2020-07-21T08:43:27.071Z</time>
      </trkpt>
      <trkpt lat="42.57709" lon="2.03249">
        <ele>2361</ele>
        <time>2020-07-21T08:43:28.071Z</time>
      </trkpt>
      <trkpt lat="42.57707" lon="2.03253">
        <ele>2361</ele>
        <time>2020-07-21T08:43:29.071Z</time>
      </trkpt>
      <trkpt lat="42.57706" lon="2.03257">
        <ele>2360</ele>
        <time>2020-07-21T08:43:30.071Z</time>
      </trkpt>
      <trkpt lat="42.57705" lon="2.03261">
        <ele>2359</ele>
        <time>2020-07-21T08:43:31.071Z</time>
      </trkpt>
      <trkpt lat="42.57704" lon="2.03265">
        <ele>2359</ele>
        <time>2020-07-21T08:43:32.071Z</time>
      </trkpt>
      <trkpt lat="42.57703" lon="2.03269">
        <ele>2359</ele>
        <time>2020-07-21T08:43:33.071Z</time>
      </trkpt>
      <trkpt lat="42.57702" lon="2.03273">
        <ele>2358</ele>
        <time>2020-07-21T08:43:34.071Z</time>
      </trkpt>
      <trkpt lat="42.577" lon="2.03277">
        <ele>2358</ele>
        <time>2020-07-21T08:43:35.071Z</time>
      </trkpt>
      <trkpt lat="42.57699" lon="2.03281">
        <ele>2357</ele>
        <time>2020-07-21T08:43:36.071Z</time>
      </trkpt>
      <trkpt lat="42.57697" lon="2.03285">
        <ele>2356</ele>
        <time>2020-07-21T08:43:37.071Z</time>
      </trkpt>
      <trkpt lat="42.57696" lon="2.03289">
        <ele>2355</ele>
        <time>2020-07-21T08:43:38.071Z</time>
      </trkpt>
      <trkpt lat="42.57694" lon="2.03293">
        <ele>2355</ele>
        <time>2020-07-21T08:43:39.071Z</time>
      </trkpt>
      <trkpt lat="42.57693" lon="2.03296">
        <ele>2355</ele>
        <time>2020-07-21T08:43:40.071Z</time>
      </trkpt>
      <trkpt lat="42.57691" lon="2.033">
        <ele>2354</ele>
        <time>2020-07-21T08:43:41.071Z</time>
      </trkpt>
      <trkpt lat="42.5769" lon="2.03304">
        <ele>2353</ele>
        <time>2020-07-21T08:43:42.071Z</time>
      </trkpt>
      <trkpt lat="42.57688" lon="2.03308">
        <ele>2353</ele>
        <time>2020-07-21T08:43:43.071Z</time>
      </trkpt>
      <trkpt lat="42.57686" lon="2.03312">
        <ele>2352</ele>
        <time>2020-07-21T08:43:44.071Z</time>
      </trkpt>
      <trkpt lat="42.57683" lon="2.03316">
        <ele>2352</ele>
        <time>2020-07-21T08:43:45.071Z</time>
      </trkpt>
      <trkpt lat="42.57681" lon="2.03319">
        <ele>2352</ele>
        <time>2020-07-21T08:43:46.071Z</time>
      </trkpt>
      <trkpt lat="42.57679" lon="2.03323">
        <ele>2352</ele>
        <time>2020-07-21T08:43:47.071Z</time>
      </trkpt>
      <trkpt lat="42.57677" lon="2.03326">
        <ele>2352</ele>
        <time>2020-07-21T08:43:48.071Z</time>
      </trkpt>
      <trkpt lat="42.57675" lon="2.0333">
        <ele>2351</ele>
        <time>2020-07-21T08:43:49.071Z</time>
      </trkpt>
      <trkpt lat="42.57673" lon="2.03333">
        <ele>2351</ele>
        <time>2020-07-21T08:43:50.071Z</time>
      </trkpt>
      <trkpt lat="42.57671" lon="2.03337">
        <ele>2351</ele>
        <time>2020-07-21T08:43:51.071Z</time>
      </trkpt>
      <trkpt lat="42.5767" lon="2.03341">
        <ele>2350</ele>
        <time>2020-07-21T08:43:52.071Z</time>
      </trkpt>
      <trkpt lat="42.57668" lon="2.03345">
        <ele>2350</ele>
        <time>2020-07-21T08:43:53.071Z</time>
      </trkpt>
      <trkpt lat="42.57666" lon="2.03348">
        <ele>2349</ele>
        <time>2020-07-21T08:43:54.071Z</time>
      </trkpt>
      <trkpt lat="42.57664" lon="2.03352">
        <ele>2349</ele>
        <time>2020-07-21T08:43:55.071Z</time>
      </trkpt>
      <trkpt lat="42.57663" lon="2.03355">
        <ele>2349</ele>
        <time>2020-07-21T08:43:56.071Z</time>
      </trkpt>
      <trkpt lat="42.57661" lon="2.03359">
        <ele>2348</ele>
        <time>2020-07-21T08:43:57.071Z</time>
      </trkpt>
      <trkpt lat="42.57659" lon="2.03363">
        <ele>2348</ele>
        <time>2020-07-21T08:43:58.071Z</time>
      </trkpt>
      <trkpt lat="42.57658" lon="2.03367">
        <ele>2348</ele>
        <time>2020-07-21T08:43:59.071Z</time>
      </trkpt>
      <trkpt lat="42.57656" lon="2.03371">
        <ele>2347</ele>
        <time>2020-07-21T08:44:00.071Z</time>
      </trkpt>
      <trkpt lat="42.57654" lon="2.03375">
        <ele>2346</ele>
        <time>2020-07-21T08:44:01.071Z</time>
      </trkpt>
      <trkpt lat="42.57652" lon="2.03378">
        <ele>2345</ele>
        <time>2020-07-21T08:44:02.071Z</time>
      </trkpt>
      <trkpt lat="42.5765" lon="2.03381">
        <ele>2344</ele>
        <time>2020-07-21T08:44:03.071Z</time>
      </trkpt>
      <trkpt lat="42.57647" lon="2.03384">
        <ele>2343</ele>
        <time>2020-07-21T08:44:04.071Z</time>
      </trkpt>
      <trkpt lat="42.57645" lon="2.03387">
        <ele>2342</ele>
        <time>2020-07-21T08:44:05.071Z</time>
      </trkpt>
      <trkpt lat="42.57642" lon="2.0339">
        <ele>2342</ele>
        <time>2020-07-21T08:44:06.071Z</time>
      </trkpt>
      <trkpt lat="42.57639" lon="2.03393">
        <ele>2341</ele>
        <time>2020-07-21T08:44:07.071Z</time>
      </trkpt>
      <trkpt lat="42.57637" lon="2.03396">
        <ele>2340</ele>
        <time>2020-07-21T08:44:08.071Z</time>
      </trkpt>
      <trkpt lat="42.57634" lon="2.03399">
        <ele>2340</ele>
        <time>2020-07-21T08:44:09.071Z</time>
      </trkpt>
      <trkpt lat="42.57632" lon="2.03403">
        <ele>2340</ele>
        <time>2020-07-21T08:44:10.071Z</time>
      </trkpt>
      <trkpt lat="42.5763" lon="2.03407">
        <ele>2340</ele>
        <time>2020-07-21T08:44:11.071Z</time>
      </trkpt>
      <trkpt lat="42.57629" lon="2.03411">
        <ele>2339</ele>
        <time>2020-07-21T08:44:12.071Z</time>
      </trkpt>
      <trkpt lat="42.57627" lon="2.03415">
        <ele>2339</ele>
        <time>2020-07-21T08:44:13.071Z</time>
      </trkpt>
      <trkpt lat="42.57626" lon="2.03419">
        <ele>2339</ele>
        <time>2020-07-21T08:44:14.071Z</time>
      </trkpt>
      <trkpt lat="42.57624" lon="2.03423">
        <ele>2339</ele>
        <time>2020-07-21T08:44:15.071Z</time>
      </trkpt>
      <trkpt lat="42.57623" lon="2.03428">
        <ele>2339</ele>
        <time>2020-07-21T08:44:16.071Z</time>
      </trkpt>
      <trkpt lat="42.57621" lon="2.03432">
        <ele>2339</ele>
        <time>2020-07-21T08:44:17.071Z</time>
      </trkpt>
      <trkpt lat="42.57619" lon="2.03436">
        <ele>2339</ele>
        <time>2020-07-21T08:44:18.071Z</time>
      </trkpt>
      <trkpt lat="42.57618" lon="2.0344">
        <ele>2338</ele>
        <time>2020-07-21T08:44:19.071Z</time>
      </trkpt>
      <trkpt lat="42.57617" lon="2.03445">
        <ele>2337</ele>
        <time>2020-07-21T08:44:20.071Z</time>
      </trkpt>
      <trkpt lat="42.57616" lon="2.03449">
        <ele>2337</ele>
        <time>2020-07-21T08:44:21.071Z</time>
      </trkpt>
      <trkpt lat="42.57614" lon="2.03453">
        <ele>2338</ele>
        <time>2020-07-21T08:44:22.071Z</time>
      </trkpt>
      <trkpt lat="42.57613" lon="2.03457">
        <ele>2337</ele>
        <time>2020-07-21T08:44:23.071Z</time>
      </trkpt>
      <trkpt lat="42.57612" lon="2.03462">
        <ele>2337</ele>
        <time>2020-07-21T08:44:24.071Z</time>
      </trkpt>
      <trkpt lat="42.57611" lon="2.03466">
        <ele>2338</ele>
        <time>2020-07-21T08:44:25.071Z</time>
      </trkpt>
      <trkpt lat="42.5761" lon="2.03471">
        <ele>2337</ele>
        <time>2020-07-21T08:44:26.071Z</time>
      </trkpt>
      <trkpt lat="42.57609" lon="2.03475">
        <ele>2337</ele>
        <time>2020-07-21T08:44:27.071Z</time>
      </trkpt>
      <trkpt lat="42.57608" lon="2.0348">
        <ele>2337</ele>
        <time>2020-07-21T08:44:28.071Z</time>
      </trkpt>
      <trkpt lat="42.57607" lon="2.03484">
        <ele>2335</ele>
        <time>2020-07-21T08:44:29.071Z</time>
      </trkpt>
      <trkpt lat="42.57607" lon="2.03488">
        <ele>2335</ele>
        <time>2020-07-21T08:44:30.071Z</time>
      </trkpt>
      <trkpt lat="42.57606" lon="2.03493">
        <ele>2334</ele>
        <time>2020-07-21T08:44:31.071Z</time>
      </trkpt>
      <trkpt lat="42.57606" lon="2.03497">
        <ele>2334</ele>
        <time>2020-07-21T08:44:32.071Z</time>
      </trkpt>
      <trkpt lat="42.57606" lon="2.03501">
        <ele>2333</ele>
        <time>2020-07-21T08:44:33.071Z</time>
      </trkpt>
      <trkpt lat="42.57606" lon="2.03506">
        <ele>2333</ele>
        <time>2020-07-21T08:44:34.071Z</time>
      </trkpt>
      <trkpt lat="42.57606" lon="2.0351">
        <ele>2332</ele>
        <time>2020-07-21T08:44:35.071Z</time>
      </trkpt>
      <trkpt lat="42.57606" lon="2.03515">
        <ele>2332</ele>
        <time>2020-07-21T08:44:36.071Z</time>
      </trkpt>
      <trkpt lat="42.57605" lon="2.03519">
        <ele>2331</ele>
        <time>2020-07-21T08:44:37.071Z</time>
      </trkpt>
      <trkpt lat="42.57605" lon="2.03524">
        <ele>2330</ele>
        <time>2020-07-21T08:44:38.071Z</time>
      </trkpt>
      <trkpt lat="42.57605" lon="2.03528">
        <ele>2330</ele>
        <time>2020-07-21T08:44:39.071Z</time>
      </trkpt>
      <trkpt lat="42.57604" lon="2.03533">
        <ele>2329</ele>
        <time>2020-07-21T08:44:40.071Z</time>
      </trkpt>
      <trkpt lat="42.57603" lon="2.03537">
        <ele>2329</ele>
        <time>2020-07-21T08:44:41.071Z</time>
      </trkpt>
      <trkpt lat="42.57603" lon="2.03541">
        <ele>2328</ele>
        <time>2020-07-21T08:44:42.071Z</time>
      </trkpt>
      <trkpt lat="42.57602" lon="2.03546">
        <ele>2328</ele>
        <time>2020-07-21T08:44:43.071Z</time>
      </trkpt>
      <trkpt lat="42.57601" lon="2.0355">
        <ele>2328</ele>
        <time>2020-07-21T08:44:44.071Z</time>
      </trkpt>
      <trkpt lat="42.57599" lon="2.03555">
        <ele>2328</ele>
        <time>2020-07-21T08:44:45.071Z</time>
      </trkpt>
      <trkpt lat="42.57598" lon="2.03559">
        <ele>2328</ele>
        <time>2020-07-21T08:44:46.071Z</time>
      </trkpt>
      <trkpt lat="42.57596" lon="2.03563">
        <ele>2328</ele>
        <time>2020-07-21T08:44:47.071Z</time>
      </trkpt>
      <trkpt lat="42.57595" lon="2.03567">
        <ele>2328</ele>
        <time>2020-07-21T08:44:48.071Z</time>
      </trkpt>
      <trkpt lat="42.57594" lon="2.03571">
        <ele>2328</ele>
        <time>2020-07-21T08:44:49.071Z</time>
      </trkpt>
      <trkpt lat="42.57593" lon="2.03575">
        <ele>2327</ele>
        <time>2020-07-21T08:44:50.071Z</time>
      </trkpt>
      <trkpt lat="42.57591" lon="2.0358">
        <ele>2327</ele>
        <time>2020-07-21T08:44:51.071Z</time>
      </trkpt>
      <trkpt lat="42.5759" lon="2.03584">
        <ele>2327</ele>
        <time>2020-07-21T08:44:52.071Z</time>
      </trkpt>
      <trkpt lat="42.57589" lon="2.03588">
        <ele>2327</ele>
        <time>2020-07-21T08:44:53.071Z</time>
      </trkpt>
      <trkpt lat="42.57588" lon="2.03593">
        <ele>2327</ele>
        <time>2020-07-21T08:44:54.071Z</time>
      </trkpt>
      <trkpt lat="42.57587" lon="2.03597">
        <ele>2327</ele>
        <time>2020-07-21T08:44:55.071Z</time>
      </trkpt>
      <trkpt lat="42.57585" lon="2.03601">
        <ele>2327</ele>
        <time>2020-07-21T08:44:56.071Z</time>
      </trkpt>
      <trkpt lat="42.57584" lon="2.03605">
        <ele>2327</ele>
        <time>2020-07-21T08:44:57.071Z</time>
      </trkpt>
      <trkpt lat="42.57582" lon="2.0361">
        <ele>2326</ele>
        <time>2020-07-21T08:44:58.071Z</time>
      </trkpt>
      <trkpt lat="42.5758" lon="2.03614">
        <ele>2327</ele>
        <time>2020-07-21T08:44:59.071Z</time>
      </trkpt>
      <trkpt lat="42.57579" lon="2.03619">
        <ele>2326</ele>
        <time>2020-07-21T08:45:00.071Z</time>
      </trkpt>
      <trkpt lat="42.57577" lon="2.03623">
        <ele>2326</ele>
        <time>2020-07-21T08:45:01.071Z</time>
      </trkpt>
      <trkpt lat="42.57576" lon="2.03627">
        <ele>2326</ele>
        <time>2020-07-21T08:45:02.071Z</time>
      </trkpt>
      <trkpt lat="42.57575" lon="2.03631">
        <ele>2326</ele>
        <time>2020-07-21T08:45:03.071Z</time>
      </trkpt>
      <trkpt lat="42.57574" lon="2.03635">
        <ele>2326</ele>
        <time>2020-07-21T08:45:04.071Z</time>
      </trkpt>
      <trkpt lat="42.57573" lon="2.03639">
        <ele>2326</ele>
        <time>2020-07-21T08:45:05.071Z</time>
      </trkpt>
      <trkpt lat="42.57572" lon="2.03643">
        <ele>2326</ele>
        <time>2020-07-21T08:45:06.071Z</time>
      </trkpt>
      <trkpt lat="42.57571" lon="2.03647">
        <ele>2326</ele>
        <time>2020-07-21T08:45:07.071Z</time>
      </trkpt>
      <trkpt lat="42.5757" lon="2.03652">
        <ele>2326</ele>
        <time>2020-07-21T08:45:08.071Z</time>
      </trkpt>
      <trkpt lat="42.57568" lon="2.03656">
        <ele>2326</ele>
        <time>2020-07-21T08:45:09.071Z</time>
      </trkpt>
      <trkpt lat="42.57567" lon="2.0366">
        <ele>2326</ele>
        <time>2020-07-21T08:45:10.071Z</time>
      </trkpt>
      <trkpt lat="42.57566" lon="2.03664">
        <ele>2325</ele>
        <time>2020-07-21T08:45:11.071Z</time>
      </trkpt>
      <trkpt lat="42.57565" lon="2.03668">
        <ele>2325</ele>
        <time>2020-07-21T08:45:12.071Z</time>
      </trkpt>
      <trkpt lat="42.57564" lon="2.03671">
        <ele>2326</ele>
        <time>2020-07-21T08:45:13.071Z</time>
      </trkpt>
      <trkpt lat="42.5756" lon="2.03693">
        <ele>2324</ele>
        <time>2020-07-21T08:45:14.028Z</time>
      </trkpt>
      <trkpt lat="42.57559" lon="2.03693">
        <ele>2324</ele>
        <time>2020-07-21T08:45:15.028Z</time>
      </trkpt>
      <trkpt lat="42.57557" lon="2.03693">
        <ele>2324</ele>
        <time>2020-07-21T08:45:16.028Z</time>
      </trkpt>
      <trkpt lat="42.57556" lon="2.03695">
        <ele>2324</ele>
        <time>2020-07-21T08:45:17.028Z</time>
      </trkpt>
      <trkpt lat="42.57554" lon="2.03696">
        <ele>2323</ele>
        <time>2020-07-21T08:45:18.028Z</time>
      </trkpt>
      <trkpt lat="42.57553" lon="2.03699">
        <ele>2323</ele>
        <time>2020-07-21T08:45:19.028Z</time>
      </trkpt>
      <trkpt lat="42.57551" lon="2.03701">
        <ele>2323</ele>
        <time>2020-07-21T08:45:20.028Z</time>
      </trkpt>
      <trkpt lat="42.57549" lon="2.03705">
        <ele>2323</ele>
        <time>2020-07-21T08:45:21.028Z</time>
      </trkpt>
      <trkpt lat="42.57547" lon="2.03708">
        <ele>2323</ele>
        <time>2020-07-21T08:45:22.028Z</time>
      </trkpt>
      <trkpt lat="42.57545" lon="2.03712">
        <ele>2323</ele>
        <time>2020-07-21T08:45:23.028Z</time>
      </trkpt>
      <trkpt lat="42.57543" lon="2.03715">
        <ele>2323</ele>
        <time>2020-07-21T08:45:24.028Z</time>
      </trkpt>
      <trkpt lat="42.57541" lon="2.03719">
        <ele>2322</ele>
        <time>2020-07-21T08:45:25.028Z</time>
      </trkpt>
      <trkpt lat="42.57539" lon="2.03722">
        <ele>2322</ele>
        <time>2020-07-21T08:45:26.028Z</time>
      </trkpt>
      <trkpt lat="42.57537" lon="2.03726">
        <ele>2322</ele>
        <time>2020-07-21T08:45:27.028Z</time>
      </trkpt>
      <trkpt lat="42.57536" lon="2.0373">
        <ele>2322</ele>
        <time>2020-07-21T08:45:28.028Z</time>
      </trkpt>
      <trkpt lat="42.57534" lon="2.03734">
        <ele>2322</ele>
        <time>2020-07-21T08:45:29.028Z</time>
      </trkpt>
      <trkpt lat="42.57532" lon="2.03738">
        <ele>2322</ele>
        <time>2020-07-21T08:45:30.028Z</time>
      </trkpt>
      <trkpt lat="42.5753" lon="2.03742">
        <ele>2322</ele>
        <time>2020-07-21T08:45:31.028Z</time>
      </trkpt>
      <trkpt lat="42.57528" lon="2.03746">
        <ele>2322</ele>
        <time>2020-07-21T08:45:32.028Z</time>
      </trkpt>
      <trkpt lat="42.57526" lon="2.03749">
        <ele>2322</ele>
        <time>2020-07-21T08:45:33.028Z</time>
      </trkpt>
      <trkpt lat="42.57524" lon="2.03753">
        <ele>2322</ele>
        <time>2020-07-21T08:45:34.028Z</time>
      </trkpt>
      <trkpt lat="42.57522" lon="2.03756">
        <ele>2322</ele>
        <time>2020-07-21T08:45:35.028Z</time>
      </trkpt>
      <trkpt lat="42.5752" lon="2.0376">
        <ele>2322</ele>
        <time>2020-07-21T08:45:36.028Z</time>
      </trkpt>
      <trkpt lat="42.57518" lon="2.03763">
        <ele>2322</ele>
        <time>2020-07-21T08:45:37.028Z</time>
      </trkpt>
      <trkpt lat="42.57515" lon="2.03767">
        <ele>2322</ele>
        <time>2020-07-21T08:45:38.028Z</time>
      </trkpt>
      <trkpt lat="42.57513" lon="2.0377">
        <ele>2322</ele>
        <time>2020-07-21T08:45:39.028Z</time>
      </trkpt>
      <trkpt lat="42.57511" lon="2.03774">
        <ele>2322</ele>
        <time>2020-07-21T08:45:40.028Z</time>
      </trkpt>
      <trkpt lat="42.57509" lon="2.03777">
        <ele>2322</ele>
        <time>2020-07-21T08:45:41.028Z</time>
      </trkpt>
      <trkpt lat="42.57507" lon="2.03781">
        <ele>2322</ele>
        <time>2020-07-21T08:45:42.028Z</time>
      </trkpt>
      <trkpt lat="42.57504" lon="2.03784">
        <ele>2321</ele>
        <time>2020-07-21T08:45:43.028Z</time>
      </trkpt>
      <trkpt lat="42.57502" lon="2.03788">
        <ele>2321</ele>
        <time>2020-07-21T08:45:44.028Z</time>
      </trkpt>
      <trkpt lat="42.575" lon="2.03791">
        <ele>2321</ele>
        <time>2020-07-21T08:45:45.028Z</time>
      </trkpt>
      <trkpt lat="42.57498" lon="2.03795">
        <ele>2321</ele>
        <time>2020-07-21T08:45:46.028Z</time>
      </trkpt>
      <trkpt lat="42.57495" lon="2.03798">
        <ele>2322</ele>
        <time>2020-07-21T08:45:47.028Z</time>
      </trkpt>
      <trkpt lat="42.57493" lon="2.03801">
        <ele>2322</ele>
        <time>2020-07-21T08:45:48.028Z</time>
      </trkpt>
      <trkpt lat="42.57491" lon="2.03804">
        <ele>2322</ele>
        <time>2020-07-21T08:45:49.028Z</time>
      </trkpt>
      <trkpt lat="42.57489" lon="2.03808">
        <ele>2322</ele>
        <time>2020-07-21T08:45:50.028Z</time>
      </trkpt>
      <trkpt lat="42.57486" lon="2.03811">
        <ele>2322</ele>
        <time>2020-07-21T08:45:51.028Z</time>
      </trkpt>
      <trkpt lat="42.57484" lon="2.03814">
        <ele>2322</ele>
        <time>2020-07-21T08:45:52.028Z</time>
      </trkpt>
      <trkpt lat="42.57482" lon="2.03818">
        <ele>2322</ele>
        <time>2020-07-21T08:45:53.028Z</time>
      </trkpt>
      <trkpt lat="42.5748" lon="2.03821">
        <ele>2321</ele>
        <time>2020-07-21T08:45:54.028Z</time>
      </trkpt>
      <trkpt lat="42.57479" lon="2.03825">
        <ele>2321</ele>
        <time>2020-07-21T08:45:55.028Z</time>
      </trkpt>
      <trkpt lat="42.57477" lon="2.03828">
        <ele>2322</ele>
        <time>2020-07-21T08:45:56.028Z</time>
      </trkpt>
      <trkpt lat="42.57475" lon="2.03832">
        <ele>2322</ele>
        <time>2020-07-21T08:45:57.028Z</time>
      </trkpt>
      <trkpt lat="42.57473" lon="2.03836">
        <ele>2321</ele>
        <time>2020-07-21T08:45:58.028Z</time>
      </trkpt>
      <trkpt lat="42.57472" lon="2.0384">
        <ele>2321</ele>
        <time>2020-07-21T08:45:59.028Z</time>
      </trkpt>
      <trkpt lat="42.5747" lon="2.03844">
        <ele>2321</ele>
        <time>2020-07-21T08:46:00.028Z</time>
      </trkpt>
      <trkpt lat="42.57469" lon="2.03848">
        <ele>2321</ele>
        <time>2020-07-21T08:46:01.028Z</time>
      </trkpt>
      <trkpt lat="42.57468" lon="2.03852">
        <ele>2321</ele>
        <time>2020-07-21T08:46:02.028Z</time>
      </trkpt>
      <trkpt lat="42.57467" lon="2.03856">
        <ele>2321</ele>
        <time>2020-07-21T08:46:03.028Z</time>
      </trkpt>
      <trkpt lat="42.57467" lon="2.03861">
        <ele>2321</ele>
        <time>2020-07-21T08:46:04.028Z</time>
      </trkpt>
      <trkpt lat="42.57466" lon="2.03865">
        <ele>2321</ele>
        <time>2020-07-21T08:46:05.028Z</time>
      </trkpt>
      <trkpt lat="42.57466" lon="2.03869">
        <ele>2321</ele>
        <time>2020-07-21T08:46:06.028Z</time>
      </trkpt>
      <trkpt lat="42.57465" lon="2.03874">
        <ele>2322</ele>
        <time>2020-07-21T08:46:07.028Z</time>
      </trkpt>
      <trkpt lat="42.57465" lon="2.03878">
        <ele>2322</ele>
        <time>2020-07-21T08:46:08.028Z</time>
      </trkpt>
      <trkpt lat="42.57465" lon="2.03882">
        <ele>2322</ele>
        <time>2020-07-21T08:46:09.028Z</time>
      </trkpt>
      <trkpt lat="42.57464" lon="2.03887">
        <ele>2323</ele>
        <time>2020-07-21T08:46:10.028Z</time>
      </trkpt>
      <trkpt lat="42.57463" lon="2.03891">
        <ele>2323</ele>
        <time>2020-07-21T08:46:11.028Z</time>
      </trkpt>
      <trkpt lat="42.57463" lon="2.03896">
        <ele>2323</ele>
        <time>2020-07-21T08:46:12.028Z</time>
      </trkpt>
      <trkpt lat="42.57462" lon="2.039">
        <ele>2323</ele>
        <time>2020-07-21T08:46:13.028Z</time>
      </trkpt>
      <trkpt lat="42.57461" lon="2.03904">
        <ele>2323</ele>
        <time>2020-07-21T08:46:14.028Z</time>
      </trkpt>
      <trkpt lat="42.5746" lon="2.03908">
        <ele>2322</ele>
        <time>2020-07-21T08:46:15.028Z</time>
      </trkpt>
      <trkpt lat="42.57458" lon="2.03912">
        <ele>2322</ele>
        <time>2020-07-21T08:46:16.028Z</time>
      </trkpt>
      <trkpt lat="42.57456" lon="2.03915">
        <ele>2322</ele>
        <time>2020-07-21T08:46:17.028Z</time>
      </trkpt>
      <trkpt lat="42.57454" lon="2.03918">
        <ele>2321</ele>
        <time>2020-07-21T08:46:18.028Z</time>
      </trkpt>
      <trkpt lat="42.57451" lon="2.03922">
        <ele>2322</ele>
        <time>2020-07-21T08:46:19.028Z</time>
      </trkpt>
      <trkpt lat="42.57449" lon="2.03925">
        <ele>2321</ele>
        <time>2020-07-21T08:46:20.028Z</time>
      </trkpt>
      <trkpt lat="42.57447" lon="2.03929">
        <ele>2321</ele>
        <time>2020-07-21T08:46:21.028Z</time>
      </trkpt>
      <trkpt lat="42.57445" lon="2.03933">
        <ele>2321</ele>
        <time>2020-07-21T08:46:22.028Z</time>
      </trkpt>
      <trkpt lat="42.57444" lon="2.03938">
        <ele>2321</ele>
        <time>2020-07-21T08:46:23.028Z</time>
      </trkpt>
      <trkpt lat="42.57443" lon="2.03942">
        <ele>2321</ele>
        <time>2020-07-21T08:46:24.028Z</time>
      </trkpt>
      <trkpt lat="42.57443" lon="2.03946">
        <ele>2321</ele>
        <time>2020-07-21T08:46:25.028Z</time>
      </trkpt>
      <trkpt lat="42.57442" lon="2.03951">
        <ele>2322</ele>
        <time>2020-07-21T08:46:26.028Z</time>
      </trkpt>
      <trkpt lat="42.57442" lon="2.03955">
        <ele>2322</ele>
        <time>2020-07-21T08:46:27.028Z</time>
      </trkpt>
      <trkpt lat="42.57442" lon="2.0396">
        <ele>2323</ele>
        <time>2020-07-21T08:46:28.028Z</time>
      </trkpt>
      <trkpt lat="42.57442" lon="2.03964">
        <ele>2323</ele>
        <time>2020-07-21T08:46:29.028Z</time>
      </trkpt>
      <trkpt lat="42.57441" lon="2.03969">
        <ele>2324</ele>
        <time>2020-07-21T08:46:30.028Z</time>
      </trkpt>
      <trkpt lat="42.57441" lon="2.03973">
        <ele>2324</ele>
        <time>2020-07-21T08:46:31.028Z</time>
      </trkpt>
      <trkpt lat="42.5744" lon="2.03977">
        <ele>2324</ele>
        <time>2020-07-21T08:46:32.028Z</time>
      </trkpt>
      <trkpt lat="42.57439" lon="2.03981">
        <ele>2325</ele>
        <time>2020-07-21T08:46:33.028Z</time>
      </trkpt>
      <trkpt lat="42.57438" lon="2.03985">
        <ele>2325</ele>
        <time>2020-07-21T08:46:34.028Z</time>
      </trkpt>
      <trkpt lat="42.57438" lon="2.03989">
        <ele>2325</ele>
        <time>2020-07-21T08:46:35.028Z</time>
      </trkpt>
      <trkpt lat="42.57437" lon="2.03993">
        <ele>2325</ele>
        <time>2020-07-21T08:46:36.028Z</time>
      </trkpt>
      <trkpt lat="42.57436" lon="2.03997">
        <ele>2325</ele>
        <time>2020-07-21T08:46:37.028Z</time>
      </trkpt>
      <trkpt lat="42.57436" lon="2.04001">
        <ele>2325</ele>
        <time>2020-07-21T08:46:38.028Z</time>
      </trkpt>
      <trkpt lat="42.57435" lon="2.04004">
        <ele>2325</ele>
        <time>2020-07-21T08:46:39.028Z</time>
      </trkpt>
      <trkpt lat="42.57434" lon="2.04008">
        <ele>2325</ele>
        <time>2020-07-21T08:46:40.028Z</time>
      </trkpt>
      <trkpt lat="42.57434" lon="2.04012">
        <ele>2325</ele>
        <time>2020-07-21T08:46:41.028Z</time>
      </trkpt>
      <trkpt lat="42.57434" lon="2.04015">
        <ele>2325</ele>
        <time>2020-07-21T08:46:42.028Z</time>
      </trkpt>
      <trkpt lat="42.57434" lon="2.04019">
        <ele>2325</ele>
        <time>2020-07-21T08:46:43.028Z</time>
      </trkpt>
      <trkpt lat="42.57433" lon="2.04023">
        <ele>2325</ele>
        <time>2020-07-21T08:46:44.028Z</time>
      </trkpt>
      <trkpt lat="42.57433" lon="2.04027">
        <ele>2325</ele>
        <time>2020-07-21T08:46:45.028Z</time>
      </trkpt>
      <trkpt lat="42.57432" lon="2.04032">
        <ele>2326</ele>
        <time>2020-07-21T08:46:46.028Z</time>
      </trkpt>
      <trkpt lat="42.57431" lon="2.04036">
        <ele>2326</ele>
        <time>2020-07-21T08:46:47.028Z</time>
      </trkpt>
      <trkpt lat="42.57431" lon="2.0404">
        <ele>2326</ele>
        <time>2020-07-21T08:46:48.028Z</time>
      </trkpt>
      <trkpt lat="42.57431" lon="2.04045">
        <ele>2326</ele>
        <time>2020-07-21T08:46:49.028Z</time>
      </trkpt>
      <trkpt lat="42.5743" lon="2.04049">
        <ele>2326</ele>
        <time>2020-07-21T08:46:50.028Z</time>
      </trkpt>
      <trkpt lat="42.5743" lon="2.04053">
        <ele>2326</ele>
        <time>2020-07-21T08:46:51.028Z</time>
      </trkpt>
      <trkpt lat="42.57429" lon="2.04057">
        <ele>2326</ele>
        <time>2020-07-21T08:46:52.028Z</time>
      </trkpt>
      <trkpt lat="42.57429" lon="2.04062">
        <ele>2326</ele>
        <time>2020-07-21T08:46:53.028Z</time>
      </trkpt>
      <trkpt lat="42.57428" lon="2.04066">
        <ele>2325</ele>
        <time>2020-07-21T08:46:54.028Z</time>
      </trkpt>
      <trkpt lat="42.57427" lon="2.04071">
        <ele>2325</ele>
        <time>2020-07-21T08:46:55.028Z</time>
      </trkpt>
      <trkpt lat="42.57426" lon="2.04075">
        <ele>2325</ele>
        <time>2020-07-21T08:46:56.028Z</time>
      </trkpt>
      <trkpt lat="42.57426" lon="2.0408">
        <ele>2324</ele>
        <time>2020-07-21T08:46:57.028Z</time>
      </trkpt>
      <trkpt lat="42.57425" lon="2.04084">
        <ele>2324</ele>
        <time>2020-07-21T08:46:58.028Z</time>
      </trkpt>
      <trkpt lat="42.57424" lon="2.04088">
        <ele>2323</ele>
        <time>2020-07-21T08:46:59.028Z</time>
      </trkpt>
      <trkpt lat="42.57423" lon="2.04092">
        <ele>2323</ele>
        <time>2020-07-21T08:47:00.028Z</time>
      </trkpt>
      <trkpt lat="42.57423" lon="2.04096">
        <ele>2322</ele>
        <time>2020-07-21T08:47:01.028Z</time>
      </trkpt>
      <trkpt lat="42.57422" lon="2.04101">
        <ele>2322</ele>
        <time>2020-07-21T08:47:02.028Z</time>
      </trkpt>
      <trkpt lat="42.57421" lon="2.04105">
        <ele>2322</ele>
        <time>2020-07-21T08:47:03.028Z</time>
      </trkpt>
      <trkpt lat="42.57421" lon="2.04109">
        <ele>2322</ele>
        <time>2020-07-21T08:47:04.028Z</time>
      </trkpt>
      <trkpt lat="42.5742" lon="2.04114">
        <ele>2322</ele>
        <time>2020-07-21T08:47:05.028Z</time>
      </trkpt>
      <trkpt lat="42.57419" lon="2.04118">
        <ele>2321</ele>
        <time>2020-07-21T08:47:06.028Z</time>
      </trkpt>
      <trkpt lat="42.57418" lon="2.04122">
        <ele>2320</ele>
        <time>2020-07-21T08:47:07.028Z</time>
      </trkpt>
      <trkpt lat="42.57417" lon="2.04126">
        <ele>2319</ele>
        <time>2020-07-21T08:47:08.028Z</time>
      </trkpt>
      <trkpt lat="42.57415" lon="2.0413">
        <ele>2319</ele>
        <time>2020-07-21T08:47:09.028Z</time>
      </trkpt>
      <trkpt lat="42.57413" lon="2.04134">
        <ele>2319</ele>
        <time>2020-07-21T08:47:10.028Z</time>
      </trkpt>
      <trkpt lat="42.57411" lon="2.04137">
        <ele>2319</ele>
        <time>2020-07-21T08:47:11.028Z</time>
      </trkpt>
      <trkpt lat="42.57408" lon="2.04139">
        <ele>2319</ele>
        <time>2020-07-21T08:47:12.028Z</time>
      </trkpt>
      <trkpt lat="42.57405" lon="2.04141">
        <ele>2319</ele>
        <time>2020-07-21T08:47:13.028Z</time>
      </trkpt>
      <trkpt lat="42.57402" lon="2.04143">
        <ele>2319</ele>
        <time>2020-07-21T08:47:14.028Z</time>
      </trkpt>
      <trkpt lat="42.574" lon="2.04145">
        <ele>2319</ele>
        <time>2020-07-21T08:47:15.028Z</time>
      </trkpt>
      <trkpt lat="42.57397" lon="2.04147">
        <ele>2319</ele>
        <time>2020-07-21T08:47:16.028Z</time>
      </trkpt>
      <trkpt lat="42.57395" lon="2.04149">
        <ele>2319</ele>
        <time>2020-07-21T08:47:17.028Z</time>
      </trkpt>
      <trkpt lat="42.57392" lon="2.04152">
        <ele>2318</ele>
        <time>2020-07-21T08:47:18.028Z</time>
      </trkpt>
      <trkpt lat="42.5739" lon="2.04155">
        <ele>2317</ele>
        <time>2020-07-21T08:47:19.028Z</time>
      </trkpt>
      <trkpt lat="42.57388" lon="2.04159">
        <ele>2317</ele>
        <time>2020-07-21T08:47:20.028Z</time>
      </trkpt>
      <trkpt lat="42.57387" lon="2.04163">
        <ele>2317</ele>
        <time>2020-07-21T08:47:21.028Z</time>
      </trkpt>
      <trkpt lat="42.57385" lon="2.04167">
        <ele>2317</ele>
        <time>2020-07-21T08:47:22.028Z</time>
      </trkpt>
      <trkpt lat="42.57384" lon="2.04171">
        <ele>2318</ele>
        <time>2020-07-21T08:47:23.028Z</time>
      </trkpt>
      <trkpt lat="42.57383" lon="2.04175">
        <ele>2317</ele>
        <time>2020-07-21T08:47:24.028Z</time>
      </trkpt>
      <trkpt lat="42.57382" lon="2.04179">
        <ele>2317</ele>
        <time>2020-07-21T08:47:25.028Z</time>
      </trkpt>
      <trkpt lat="42.57381" lon="2.04183">
        <ele>2316</ele>
        <time>2020-07-21T08:47:26.028Z</time>
      </trkpt>
      <trkpt lat="42.5738" lon="2.04187">
        <ele>2315</ele>
        <time>2020-07-21T08:47:27.028Z</time>
      </trkpt>
      <trkpt lat="42.5738" lon="2.04191">
        <ele>2314</ele>
        <time>2020-07-21T08:47:28.028Z</time>
      </trkpt>
      <trkpt lat="42.57379" lon="2.04196">
        <ele>2313</ele>
        <time>2020-07-21T08:47:29.028Z</time>
      </trkpt>
      <trkpt lat="42.57378" lon="2.042">
        <ele>2312</ele>
        <time>2020-07-21T08:47:30.028Z</time>
      </trkpt>
      <trkpt lat="42.57377" lon="2.04204">
        <ele>2313</ele>
        <time>2020-07-21T08:47:31.028Z</time>
      </trkpt>
      <trkpt lat="42.57377" lon="2.04209">
        <ele>2312</ele>
        <time>2020-07-21T08:47:32.028Z</time>
      </trkpt>
      <trkpt lat="42.57377" lon="2.04213">
        <ele>2310</ele>
        <time>2020-07-21T08:47:33.028Z</time>
      </trkpt>
      <trkpt lat="42.57377" lon="2.04218">
        <ele>2309</ele>
        <time>2020-07-21T08:47:34.028Z</time>
      </trkpt>
      <trkpt lat="42.57377" lon="2.04222">
        <ele>2309</ele>
        <time>2020-07-21T08:47:35.028Z</time>
      </trkpt>
      <trkpt lat="42.57377" lon="2.04226">
        <ele>2309</ele>
        <time>2020-07-21T08:47:36.028Z</time>
      </trkpt>
      <trkpt lat="42.57377" lon="2.04231">
        <ele>2308</ele>
        <time>2020-07-21T08:47:37.028Z</time>
      </trkpt>
      <trkpt lat="42.57377" lon="2.04235">
        <ele>2308</ele>
        <time>2020-07-21T08:47:38.028Z</time>
      </trkpt>
      <trkpt lat="42.57376" lon="2.0424">
        <ele>2308</ele>
        <time>2020-07-21T08:47:39.028Z</time>
      </trkpt>
      <trkpt lat="42.57375" lon="2.04244">
        <ele>2307</ele>
        <time>2020-07-21T08:47:40.028Z</time>
      </trkpt>
      <trkpt lat="42.57374" lon="2.04248">
        <ele>2307</ele>
        <time>2020-07-21T08:47:41.028Z</time>
      </trkpt>
      <trkpt lat="42.57373" lon="2.04253">
        <ele>2307</ele>
        <time>2020-07-21T08:47:42.028Z</time>
      </trkpt>
      <trkpt lat="42.57372" lon="2.04257">
        <ele>2306</ele>
        <time>2020-07-21T08:47:43.028Z</time>
      </trkpt>
      <trkpt lat="42.5737" lon="2.04261">
        <ele>2306</ele>
        <time>2020-07-21T08:47:44.028Z</time>
      </trkpt>
      <trkpt lat="42.57368" lon="2.04265">
        <ele>2305</ele>
        <time>2020-07-21T08:47:45.028Z</time>
      </trkpt>
      <trkpt lat="42.57366" lon="2.04269">
        <ele>2305</ele>
        <time>2020-07-21T08:47:46.028Z</time>
      </trkpt>
      <trkpt lat="42.57364" lon="2.04273">
        <ele>2305</ele>
        <time>2020-07-21T08:47:47.028Z</time>
      </trkpt>
      <trkpt lat="42.57361" lon="2.04276">
        <ele>2306</ele>
        <time>2020-07-21T08:47:48.028Z</time>
      </trkpt>
      <trkpt lat="42.57358" lon="2.04278">
        <ele>2305</ele>
        <time>2020-07-21T08:47:49.028Z</time>
      </trkpt>
      <trkpt lat="42.57356" lon="2.0428">
        <ele>2305</ele>
        <time>2020-07-21T08:47:50.028Z</time>
      </trkpt>
      <trkpt lat="42.57353" lon="2.04282">
        <ele>2304</ele>
        <time>2020-07-21T08:47:51.028Z</time>
      </trkpt>
      <trkpt lat="42.57351" lon="2.04284">
        <ele>2304</ele>
        <time>2020-07-21T08:47:52.028Z</time>
      </trkpt>
      <trkpt lat="42.57348" lon="2.04285">
        <ele>2304</ele>
        <time>2020-07-21T08:47:53.028Z</time>
      </trkpt>
      <trkpt lat="42.57345" lon="2.04287">
        <ele>2303</ele>
        <time>2020-07-21T08:47:54.028Z</time>
      </trkpt>
      <trkpt lat="42.57343" lon="2.04288">
        <ele>2303</ele>
        <time>2020-07-21T08:47:55.028Z</time>
      </trkpt>
      <trkpt lat="42.57341" lon="2.0429">
        <ele>2301</ele>
        <time>2020-07-21T08:47:56.028Z</time>
      </trkpt>
      <trkpt lat="42.57339" lon="2.04292">
        <ele>2300</ele>
        <time>2020-07-21T08:47:57.028Z</time>
      </trkpt>
      <trkpt lat="42.57337" lon="2.04294">
        <ele>2300</ele>
        <time>2020-07-21T08:47:58.028Z</time>
      </trkpt>
      <trkpt lat="42.57335" lon="2.04297">
        <ele>2300</ele>
        <time>2020-07-21T08:47:59.028Z</time>
      </trkpt>
      <trkpt lat="42.57334" lon="2.04299">
        <ele>2299</ele>
        <time>2020-07-21T08:48:00.028Z</time>
      </trkpt>
      <trkpt lat="42.57333" lon="2.04302">
        <ele>2298</ele>
        <time>2020-07-21T08:48:01.028Z</time>
      </trkpt>
      <trkpt lat="42.57332" lon="2.04304">
        <ele>2298</ele>
        <time>2020-07-21T08:48:02.028Z</time>
      </trkpt>
      <trkpt lat="42.57332" lon="2.04307">
        <ele>2297</ele>
        <time>2020-07-21T08:48:03.028Z</time>
      </trkpt>
      <trkpt lat="42.57332" lon="2.04311">
        <ele>2296</ele>
        <time>2020-07-21T08:48:04.028Z</time>
      </trkpt>
      <trkpt lat="42.57332" lon="2.04314">
        <ele>2296</ele>
        <time>2020-07-21T08:48:05.028Z</time>
      </trkpt>
      <trkpt lat="42.57332" lon="2.04317">
        <ele>2296</ele>
        <time>2020-07-21T08:48:06.028Z</time>
      </trkpt>
      <trkpt lat="42.57331" lon="2.0432">
        <ele>2295</ele>
        <time>2020-07-21T08:48:07.028Z</time>
      </trkpt>
      <trkpt lat="42.57332" lon="2.04323">
        <ele>2295</ele>
        <time>2020-07-21T08:48:08.028Z</time>
      </trkpt>
      <trkpt lat="42.57332" lon="2.04327">
        <ele>2294</ele>
        <time>2020-07-21T08:48:09.028Z</time>
      </trkpt>
      <trkpt lat="42.57332" lon="2.0433">
        <ele>2293</ele>
        <time>2020-07-21T08:48:10.028Z</time>
      </trkpt>
      <trkpt lat="42.57333" lon="2.04333">
        <ele>2292</ele>
        <time>2020-07-21T08:48:11.028Z</time>
      </trkpt>
      <trkpt lat="42.57333" lon="2.04337">
        <ele>2291</ele>
        <time>2020-07-21T08:48:12.028Z</time>
      </trkpt>
      <trkpt lat="42.57332" lon="2.04341">
        <ele>2291</ele>
        <time>2020-07-21T08:48:13.028Z</time>
      </trkpt>
      <trkpt lat="42.57332" lon="2.04344">
        <ele>2291</ele>
        <time>2020-07-21T08:48:14.028Z</time>
      </trkpt>
      <trkpt lat="42.57332" lon="2.04347">
        <ele>2290</ele>
        <time>2020-07-21T08:48:15.028Z</time>
      </trkpt>
      <trkpt lat="42.57331" lon="2.04351">
        <ele>2289</ele>
        <time>2020-07-21T08:48:16.028Z</time>
      </trkpt>
      <trkpt lat="42.57331" lon="2.04354">
        <ele>2289</ele>
        <time>2020-07-21T08:48:17.028Z</time>
      </trkpt>
      <trkpt lat="42.5733" lon="2.04358">
        <ele>2288</ele>
        <time>2020-07-21T08:48:18.028Z</time>
      </trkpt>
      <trkpt lat="42.5733" lon="2.04361">
        <ele>2287</ele>
        <time>2020-07-21T08:48:19.028Z</time>
      </trkpt>
      <trkpt lat="42.57327" lon="2.04364">
        <ele>2286</ele>
        <time>2020-07-21T08:48:20.028Z</time>
      </trkpt>
      <trkpt lat="42.57325" lon="2.04366">
        <ele>2285</ele>
        <time>2020-07-21T08:48:21.028Z</time>
      </trkpt>
      <trkpt lat="42.57323" lon="2.04367">
        <ele>2283</ele>
        <time>2020-07-21T08:48:22.028Z</time>
      </trkpt>
      <trkpt lat="42.5732" lon="2.04368">
        <ele>2283</ele>
        <time>2020-07-21T08:48:23.028Z</time>
      </trkpt>
      <trkpt lat="42.57318" lon="2.0437">
        <ele>2283</ele>
        <time>2020-07-21T08:48:24.028Z</time>
      </trkpt>
      <trkpt lat="42.57315" lon="2.0437">
        <ele>2281</ele>
        <time>2020-07-21T08:48:25.028Z</time>
      </trkpt>
      <trkpt lat="42.57312" lon="2.04371">
        <ele>2281</ele>
        <time>2020-07-21T08:48:26.028Z</time>
      </trkpt>
      <trkpt lat="42.57309" lon="2.04372">
        <ele>2280</ele>
        <time>2020-07-21T08:48:27.028Z</time>
      </trkpt>
      <trkpt lat="42.57307" lon="2.04373">
        <ele>2280</ele>
        <time>2020-07-21T08:48:28.028Z</time>
      </trkpt>
      <trkpt lat="42.57304" lon="2.04374">
        <ele>2279</ele>
        <time>2020-07-21T08:48:29.028Z</time>
      </trkpt>
      <trkpt lat="42.57302" lon="2.04375">
        <ele>2278</ele>
        <time>2020-07-21T08:48:30.028Z</time>
      </trkpt>
      <trkpt lat="42.573" lon="2.04376">
        <ele>2278</ele>
        <time>2020-07-21T08:48:31.028Z</time>
      </trkpt>
      <trkpt lat="42.57297" lon="2.04377">
        <ele>2277</ele>
        <time>2020-07-21T08:48:32.028Z</time>
      </trkpt>
      <trkpt lat="42.57295" lon="2.04378">
        <ele>2276</ele>
        <time>2020-07-21T08:48:33.028Z</time>
      </trkpt>
      <trkpt lat="42.57292" lon="2.04379">
        <ele>2276</ele>
        <time>2020-07-21T08:48:34.028Z</time>
      </trkpt>
      <trkpt lat="42.5729" lon="2.0438">
        <ele>2275</ele>
        <time>2020-07-21T08:48:35.028Z</time>
      </trkpt>
      <trkpt lat="42.57289" lon="2.04381">
        <ele>2272</ele>
        <time>2020-07-21T08:48:36.028Z</time>
      </trkpt>
      <trkpt lat="42.57288" lon="2.04383">
        <ele>2272</ele>
        <time>2020-07-21T08:48:37.028Z</time>
      </trkpt>
      <trkpt lat="42.57287" lon="2.04386">
        <ele>2271</ele>
        <time>2020-07-21T08:48:38.028Z</time>
      </trkpt>
      <trkpt lat="42.57286" lon="2.04388">
        <ele>2270</ele>
        <time>2020-07-21T08:48:39.028Z</time>
      </trkpt>
      <trkpt lat="42.57285" lon="2.0439">
        <ele>2269</ele>
        <time>2020-07-21T08:48:40.028Z</time>
      </trkpt>
      <trkpt lat="42.57284" lon="2.04392">
        <ele>2268</ele>
        <time>2020-07-21T08:48:41.028Z</time>
      </trkpt>
      <trkpt lat="42.57283" lon="2.04394">
        <ele>2268</ele>
        <time>2020-07-21T08:48:42.028Z</time>
      </trkpt>
      <trkpt lat="42.57282" lon="2.04396">
        <ele>2268</ele>
        <time>2020-07-21T08:48:43.028Z</time>
      </trkpt>
      <trkpt lat="42.57281" lon="2.04398">
        <ele>2267</ele>
        <time>2020-07-21T08:48:44.028Z</time>
      </trkpt>
      <trkpt lat="42.5728" lon="2.04399">
        <ele>2267</ele>
        <time>2020-07-21T08:48:45.028Z</time>
      </trkpt>
      <trkpt lat="42.57279" lon="2.044">
        <ele>2266</ele>
        <time>2020-07-21T08:48:46.028Z</time>
      </trkpt>
      <trkpt lat="42.57278" lon="2.04401">
        <ele>2266</ele>
        <time>2020-07-21T08:48:47.028Z</time>
      </trkpt>
      <trkpt lat="42.57277" lon="2.04403">
        <ele>2265</ele>
        <time>2020-07-21T08:48:48.028Z</time>
      </trkpt>
      <trkpt lat="42.57276" lon="2.04405">
        <ele>2265</ele>
        <time>2020-07-21T08:48:49.028Z</time>
      </trkpt>
      <trkpt lat="42.57276" lon="2.04408">
        <ele>2264</ele>
        <time>2020-07-21T08:48:50.028Z</time>
      </trkpt>
      <trkpt lat="42.57275" lon="2.04411">
        <ele>2263</ele>
        <time>2020-07-21T08:48:51.028Z</time>
      </trkpt>
      <trkpt lat="42.57274" lon="2.04414">
        <ele>2262</ele>
        <time>2020-07-21T08:48:52.028Z</time>
      </trkpt>
      <trkpt lat="42.57273" lon="2.04416">
        <ele>2262</ele>
        <time>2020-07-21T08:48:53.028Z</time>
      </trkpt>
      <trkpt lat="42.57272" lon="2.04419">
        <ele>2261</ele>
        <time>2020-07-21T08:48:54.028Z</time>
      </trkpt>
      <trkpt lat="42.57271" lon="2.04422">
        <ele>2260</ele>
        <time>2020-07-21T08:48:55.028Z</time>
      </trkpt>
      <trkpt lat="42.57269" lon="2.04424">
        <ele>2259</ele>
        <time>2020-07-21T08:48:56.028Z</time>
      </trkpt>
      <trkpt lat="42.57267" lon="2.04425">
        <ele>2258</ele>
        <time>2020-07-21T08:48:57.028Z</time>
      </trkpt>
      <trkpt lat="42.57264" lon="2.04426">
        <ele>2258</ele>
        <time>2020-07-21T08:48:58.028Z</time>
      </trkpt>
      <trkpt lat="42.57262" lon="2.04427">
        <ele>2257</ele>
        <time>2020-07-21T08:48:59.028Z</time>
      </trkpt>
      <trkpt lat="42.57259" lon="2.04427">
        <ele>2257</ele>
        <time>2020-07-21T08:49:00.028Z</time>
      </trkpt>
      <trkpt lat="42.57257" lon="2.04428">
        <ele>2257</ele>
        <time>2020-07-21T08:49:01.028Z</time>
      </trkpt>
      <trkpt lat="42.57255" lon="2.04429">
        <ele>2255</ele>
        <time>2020-07-21T08:49:02.028Z</time>
      </trkpt>
      <trkpt lat="42.57253" lon="2.0443">
        <ele>2254</ele>
        <time>2020-07-21T08:49:03.028Z</time>
      </trkpt>
      <trkpt lat="42.57252" lon="2.04432">
        <ele>2253</ele>
        <time>2020-07-21T08:49:04.028Z</time>
      </trkpt>
      <trkpt lat="42.5725" lon="2.04434">
        <ele>2252</ele>
        <time>2020-07-21T08:49:05.028Z</time>
      </trkpt>
      <trkpt lat="42.57249" lon="2.04437">
        <ele>2252</ele>
        <time>2020-07-21T08:49:06.028Z</time>
      </trkpt>
      <trkpt lat="42.57248" lon="2.04439">
        <ele>2252</ele>
        <time>2020-07-21T08:49:07.028Z</time>
      </trkpt>
      <trkpt lat="42.57247" lon="2.04443">
        <ele>2251</ele>
        <time>2020-07-21T08:49:08.028Z</time>
      </trkpt>
      <trkpt lat="42.57246" lon="2.04446">
        <ele>2251</ele>
        <time>2020-07-21T08:49:09.028Z</time>
      </trkpt>
      <trkpt lat="42.57245" lon="2.04449">
        <ele>2250</ele>
        <time>2020-07-21T08:49:10.028Z</time>
      </trkpt>
      <trkpt lat="42.57244" lon="2.04453">
        <ele>2250</ele>
        <time>2020-07-21T08:49:11.028Z</time>
      </trkpt>
      <trkpt lat="42.57243" lon="2.04456">
        <ele>2249</ele>
        <time>2020-07-21T08:49:12.028Z</time>
      </trkpt>
      <trkpt lat="42.57242" lon="2.04459">
        <ele>2249</ele>
        <time>2020-07-21T08:49:13.028Z</time>
      </trkpt>
      <trkpt lat="42.57241" lon="2.04462">
        <ele>2248</ele>
        <time>2020-07-21T08:49:14.028Z</time>
      </trkpt>
      <trkpt lat="42.5724" lon="2.04464">
        <ele>2247</ele>
        <time>2020-07-21T08:49:15.028Z</time>
      </trkpt>
      <trkpt lat="42.57238" lon="2.04467">
        <ele>2246</ele>
        <time>2020-07-21T08:49:16.028Z</time>
      </trkpt>
      <trkpt lat="42.57237" lon="2.0447">
        <ele>2246</ele>
        <time>2020-07-21T08:49:17.028Z</time>
      </trkpt>
      <trkpt lat="42.57235" lon="2.04473">
        <ele>2245</ele>
        <time>2020-07-21T08:49:18.028Z</time>
      </trkpt>
      <trkpt lat="42.57232" lon="2.04475">
        <ele>2244</ele>
        <time>2020-07-21T08:49:19.028Z</time>
      </trkpt>
      <trkpt lat="42.5723" lon="2.04478">
        <ele>2243</ele>
        <time>2020-07-21T08:49:20.028Z</time>
      </trkpt>
      <trkpt lat="42.57228" lon="2.0448">
        <ele>2243</ele>
        <time>2020-07-21T08:49:21.028Z</time>
      </trkpt>
      <trkpt lat="42.57226" lon="2.04483">
        <ele>2243</ele>
        <time>2020-07-21T08:49:22.028Z</time>
      </trkpt>
      <trkpt lat="42.57224" lon="2.04486">
        <ele>2242</ele>
        <time>2020-07-21T08:49:23.028Z</time>
      </trkpt>
      <trkpt lat="42.57221" lon="2.04489">
        <ele>2241</ele>
        <time>2020-07-21T08:49:24.028Z</time>
      </trkpt>
      <trkpt lat="42.57218" lon="2.04492">
        <ele>2242</ele>
        <time>2020-07-21T08:49:25.028Z</time>
      </trkpt>
      <trkpt lat="42.57216" lon="2.04494">
        <ele>2242</ele>
        <time>2020-07-21T08:49:26.028Z</time>
      </trkpt>
      <trkpt lat="42.57213" lon="2.04496">
        <ele>2241</ele>
        <time>2020-07-21T08:49:27.028Z</time>
      </trkpt>
      <trkpt lat="42.57211" lon="2.04498">
        <ele>2242</ele>
        <time>2020-07-21T08:49:28.028Z</time>
      </trkpt>
      <trkpt lat="42.57208" lon="2.045">
        <ele>2242</ele>
        <time>2020-07-21T08:49:29.028Z</time>
      </trkpt>
      <trkpt lat="42.57199" lon="2.04507">
        <ele>2243</ele>
        <time>2020-07-21T08:49:30.016Z</time>
      </trkpt>
      <trkpt lat="42.57199" lon="2.04507">
        <ele>2243</ele>
        <time>2020-07-21T08:49:31.016Z</time>
      </trkpt>
      <trkpt lat="42.57198" lon="2.04507">
        <ele>2243</ele>
        <time>2020-07-21T08:49:32.016Z</time>
      </trkpt>
      <trkpt lat="42.57196" lon="2.04507">
        <ele>2244</ele>
        <time>2020-07-21T08:49:33.016Z</time>
      </trkpt>
      <trkpt lat="42.57194" lon="2.04507">
        <ele>2243</ele>
        <time>2020-07-21T08:49:34.016Z</time>
      </trkpt>
      <trkpt lat="42.57191" lon="2.04508">
        <ele>2243</ele>
        <time>2020-07-21T08:49:35.016Z</time>
      </trkpt>
      <trkpt lat="42.57188" lon="2.04508">
        <ele>2243</ele>
        <time>2020-07-21T08:49:36.016Z</time>
      </trkpt>
      <trkpt lat="42.57185" lon="2.04509">
        <ele>2242</ele>
        <time>2020-07-21T08:49:37.016Z</time>
      </trkpt>
      <trkpt lat="42.57182" lon="2.0451">
        <ele>2242</ele>
        <time>2020-07-21T08:49:38.016Z</time>
      </trkpt>
      <trkpt lat="42.57179" lon="2.04511">
        <ele>2241</ele>
        <time>2020-07-21T08:49:39.016Z</time>
      </trkpt>
      <trkpt lat="42.57176" lon="2.04512">
        <ele>2241</ele>
        <time>2020-07-21T08:49:40.016Z</time>
      </trkpt>
      <trkpt lat="42.57173" lon="2.04512">
        <ele>2241</ele>
        <time>2020-07-21T08:49:41.016Z</time>
      </trkpt>
      <trkpt lat="42.5717" lon="2.04512">
        <ele>2239</ele>
        <time>2020-07-21T08:49:42.016Z</time>
      </trkpt>
      <trkpt lat="42.57167" lon="2.04511">
        <ele>2238</ele>
        <time>2020-07-21T08:49:43.016Z</time>
      </trkpt>
      <trkpt lat="42.57164" lon="2.04509">
        <ele>2237</ele>
        <time>2020-07-21T08:49:44.016Z</time>
      </trkpt>
      <trkpt lat="42.57161" lon="2.04507">
        <ele>2236</ele>
        <time>2020-07-21T08:49:45.016Z</time>
      </trkpt>
      <trkpt lat="42.57158" lon="2.04505">
        <ele>2235</ele>
        <time>2020-07-21T08:49:46.016Z</time>
      </trkpt>
      <trkpt lat="42.57156" lon="2.04504">
        <ele>2234</ele>
        <time>2020-07-21T08:49:47.016Z</time>
      </trkpt>
      <trkpt lat="42.57153" lon="2.04503">
        <ele>2233</ele>
        <time>2020-07-21T08:49:48.016Z</time>
      </trkpt>
      <trkpt lat="42.5715" lon="2.04502">
        <ele>2233</ele>
        <time>2020-07-21T08:49:49.016Z</time>
      </trkpt>
      <trkpt lat="42.57147" lon="2.04502">
        <ele>2232</ele>
        <time>2020-07-21T08:49:50.016Z</time>
      </trkpt>
      <trkpt lat="42.57144" lon="2.04501">
        <ele>2231</ele>
        <time>2020-07-21T08:49:51.016Z</time>
      </trkpt>
      <trkpt lat="42.57141" lon="2.04498">
        <ele>2231</ele>
        <time>2020-07-21T08:49:52.016Z</time>
      </trkpt>
      <trkpt lat="42.57139" lon="2.04496">
        <ele>2230</ele>
        <time>2020-07-21T08:49:53.016Z</time>
      </trkpt>
      <trkpt lat="42.57136" lon="2.04494">
        <ele>2229</ele>
        <time>2020-07-21T08:49:54.016Z</time>
      </trkpt>
      <trkpt lat="42.57134" lon="2.04492">
        <ele>2228</ele>
        <time>2020-07-21T08:49:55.016Z</time>
      </trkpt>
      <trkpt lat="42.57132" lon="2.0449">
        <ele>2227</ele>
        <time>2020-07-21T08:49:56.016Z</time>
      </trkpt>
      <trkpt lat="42.57129" lon="2.04488">
        <ele>2226</ele>
        <time>2020-07-21T08:49:57.016Z</time>
      </trkpt>
      <trkpt lat="42.57127" lon="2.04487">
        <ele>2226</ele>
        <time>2020-07-21T08:49:58.016Z</time>
      </trkpt>
      <trkpt lat="42.57124" lon="2.04485">
        <ele>2225</ele>
        <time>2020-07-21T08:49:59.016Z</time>
      </trkpt>
      <trkpt lat="42.57122" lon="2.04483">
        <ele>2224</ele>
        <time>2020-07-21T08:50:00.016Z</time>
      </trkpt>
      <trkpt lat="42.57119" lon="2.04481">
        <ele>2224</ele>
        <time>2020-07-21T08:50:01.016Z</time>
      </trkpt>
      <trkpt lat="42.57115" lon="2.0448">
        <ele>2224</ele>
        <time>2020-07-21T08:50:02.016Z</time>
      </trkpt>
      <trkpt lat="42.57112" lon="2.0448">
        <ele>2223</ele>
        <time>2020-07-21T08:50:03.016Z</time>
      </trkpt>
      <trkpt lat="42.57109" lon="2.04481">
        <ele>2220</ele>
        <time>2020-07-21T08:50:04.016Z</time>
      </trkpt>
      <trkpt lat="42.57107" lon="2.04482">
        <ele>2219</ele>
        <time>2020-07-21T08:50:05.016Z</time>
      </trkpt>
      <trkpt lat="42.57104" lon="2.04484">
        <ele>2218</ele>
        <time>2020-07-21T08:50:06.016Z</time>
      </trkpt>
      <trkpt lat="42.57102" lon="2.04487">
        <ele>2218</ele>
        <time>2020-07-21T08:50:07.016Z</time>
      </trkpt>
      <trkpt lat="42.571" lon="2.04489">
        <ele>2217</ele>
        <time>2020-07-21T08:50:08.016Z</time>
      </trkpt>
      <trkpt lat="42.57098" lon="2.04491">
        <ele>2216</ele>
        <time>2020-07-21T08:50:09.016Z</time>
      </trkpt>
      <trkpt lat="42.57096" lon="2.04494">
        <ele>2216</ele>
        <time>2020-07-21T08:50:10.016Z</time>
      </trkpt>
      <trkpt lat="42.57094" lon="2.04495">
        <ele>2217</ele>
        <time>2020-07-21T08:50:11.016Z</time>
      </trkpt>
      <trkpt lat="42.57094" lon="2.04497">
        <ele>2218</ele>
        <time>2020-07-21T08:50:12.016Z</time>
      </trkpt>
      <trkpt lat="42.57094" lon="2.04498">
        <ele>2219</ele>
        <time>2020-07-21T08:50:13.016Z</time>
      </trkpt>
      <trkpt lat="42.57093" lon="2.04498">
        <ele>2219</ele>
        <time>2020-07-21T08:50:14.016Z</time>
      </trkpt>
      <trkpt lat="42.57094" lon="2.04499">
        <ele>2219</ele>
        <time>2020-07-21T08:50:15.016Z</time>
      </trkpt>
      <trkpt lat="42.57093" lon="2.045">
        <ele>2220</ele>
        <time>2020-07-21T08:50:16.016Z</time>
      </trkpt>
      <trkpt lat="42.57093" lon="2.045">
        <ele>2220</ele>
        <time>2020-07-21T08:50:17.016Z</time>
      </trkpt>
      <trkpt lat="42.57093" lon="2.04501">
        <ele>2219</ele>
        <time>2020-07-21T08:50:18.016Z</time>
      </trkpt>
      <trkpt lat="42.57091" lon="2.04502">
        <ele>2220</ele>
        <time>2020-07-21T08:50:19.016Z</time>
      </trkpt>
      <trkpt lat="42.5709" lon="2.04504">
        <ele>2219</ele>
        <time>2020-07-21T08:50:20.016Z</time>
      </trkpt>
      <trkpt lat="42.57088" lon="2.04507">
        <ele>2219</ele>
        <time>2020-07-21T08:50:21.016Z</time>
      </trkpt>
      <trkpt lat="42.57086" lon="2.04511">
        <ele>2219</ele>
        <time>2020-07-21T08:50:22.016Z</time>
      </trkpt>
      <trkpt lat="42.57085" lon="2.04515">
        <ele>2218</ele>
        <time>2020-07-21T08:50:23.016Z</time>
      </trkpt>
      <trkpt lat="42.57083" lon="2.04519">
        <ele>2217</ele>
        <time>2020-07-21T08:50:24.016Z</time>
      </trkpt>
      <trkpt lat="42.57082" lon="2.04524">
        <ele>2216</ele>
        <time>2020-07-21T08:50:25.016Z</time>
      </trkpt>
      <trkpt lat="42.57081" lon="2.04528">
        <ele>2216</ele>
        <time>2020-07-21T08:50:26.016Z</time>
      </trkpt>
      <trkpt lat="42.57079" lon="2.04533">
        <ele>2216</ele>
        <time>2020-07-21T08:50:27.016Z</time>
      </trkpt>
      <trkpt lat="42.57078" lon="2.04537">
        <ele>2215</ele>
        <time>2020-07-21T08:50:28.016Z</time>
      </trkpt>
      <trkpt lat="42.57077" lon="2.04542">
        <ele>2215</ele>
        <time>2020-07-21T08:50:29.016Z</time>
      </trkpt>
      <trkpt lat="42.57077" lon="2.04546">
        <ele>2215</ele>
        <time>2020-07-21T08:50:30.016Z</time>
      </trkpt>
      <trkpt lat="42.57076" lon="2.0455">
        <ele>2214</ele>
        <time>2020-07-21T08:50:31.016Z</time>
      </trkpt>
      <trkpt lat="42.57076" lon="2.04554">
        <ele>2213</ele>
        <time>2020-07-21T08:50:32.016Z</time>
      </trkpt>
      <trkpt lat="42.57075" lon="2.04558">
        <ele>2212</ele>
        <time>2020-07-21T08:50:33.016Z</time>
      </trkpt>
      <trkpt lat="42.57074" lon="2.04562">
        <ele>2212</ele>
        <time>2020-07-21T08:50:34.016Z</time>
      </trkpt>
      <trkpt lat="42.57074" lon="2.04566">
        <ele>2212</ele>
        <time>2020-07-21T08:50:35.016Z</time>
      </trkpt>
      <trkpt lat="42.57073" lon="2.04571">
        <ele>2210</ele>
        <time>2020-07-21T08:50:36.016Z</time>
      </trkpt>
      <trkpt lat="42.57073" lon="2.04576">
        <ele>2210</ele>
        <time>2020-07-21T08:50:37.016Z</time>
      </trkpt>
      <trkpt lat="42.57072" lon="2.0458">
        <ele>2210</ele>
        <time>2020-07-21T08:50:38.016Z</time>
      </trkpt>
      <trkpt lat="42.57072" lon="2.04584">
        <ele>2209</ele>
        <time>2020-07-21T08:50:39.016Z</time>
      </trkpt>
      <trkpt lat="42.57071" lon="2.04588">
        <ele>2208</ele>
        <time>2020-07-21T08:50:40.016Z</time>
      </trkpt>
      <trkpt lat="42.57071" lon="2.04593">
        <ele>2208</ele>
        <time>2020-07-21T08:50:41.016Z</time>
      </trkpt>
      <trkpt lat="42.57071" lon="2.04597">
        <ele>2207</ele>
        <time>2020-07-21T08:50:42.016Z</time>
      </trkpt>
      <trkpt lat="42.57072" lon="2.04601">
        <ele>2207</ele>
        <time>2020-07-21T08:50:43.016Z</time>
      </trkpt>
      <trkpt lat="42.57072" lon="2.04605">
        <ele>2206</ele>
        <time>2020-07-21T08:50:44.016Z</time>
      </trkpt>
      <trkpt lat="42.57073" lon="2.04609">
        <ele>2205</ele>
        <time>2020-07-21T08:50:45.016Z</time>
      </trkpt>
      <trkpt lat="42.57072" lon="2.04613">
        <ele>2205</ele>
        <time>2020-07-21T08:50:46.016Z</time>
      </trkpt>
      <trkpt lat="42.57071" lon="2.04617">
        <ele>2204</ele>
        <time>2020-07-21T08:50:47.016Z</time>
      </trkpt>
      <trkpt lat="42.5707" lon="2.04621">
        <ele>2204</ele>
        <time>2020-07-21T08:50:48.016Z</time>
      </trkpt>
      <trkpt lat="42.57068" lon="2.04624">
        <ele>2203</ele>
        <time>2020-07-21T08:50:49.016Z</time>
      </trkpt>
      <trkpt lat="42.57066" lon="2.04628">
        <ele>2202</ele>
        <time>2020-07-21T08:50:50.016Z</time>
      </trkpt>
      <trkpt lat="42.57065" lon="2.04631">
        <ele>2202</ele>
        <time>2020-07-21T08:50:51.016Z</time>
      </trkpt>
      <trkpt lat="42.57064" lon="2.04635">
        <ele>2201</ele>
        <time>2020-07-21T08:50:52.016Z</time>
      </trkpt>
      <trkpt lat="42.57063" lon="2.04639">
        <ele>2201</ele>
        <time>2020-07-21T08:50:53.016Z</time>
      </trkpt>
      <trkpt lat="42.57063" lon="2.04643">
        <ele>2200</ele>
        <time>2020-07-21T08:50:54.016Z</time>
      </trkpt>
      <trkpt lat="42.57063" lon="2.04646">
        <ele>2200</ele>
        <time>2020-07-21T08:50:55.016Z</time>
      </trkpt>
      <trkpt lat="42.57063" lon="2.0465">
        <ele>2199</ele>
        <time>2020-07-21T08:50:56.016Z</time>
      </trkpt>
      <trkpt lat="42.57062" lon="2.04653">
        <ele>2198</ele>
        <time>2020-07-21T08:50:57.016Z</time>
      </trkpt>
      <trkpt lat="42.57062" lon="2.04657">
        <ele>2198</ele>
        <time>2020-07-21T08:50:58.016Z</time>
      </trkpt>
      <trkpt lat="42.57061" lon="2.0466">
        <ele>2198</ele>
        <time>2020-07-21T08:50:59.016Z</time>
      </trkpt>
      <trkpt lat="42.57061" lon="2.04663">
        <ele>2197</ele>
        <time>2020-07-21T08:51:00.016Z</time>
      </trkpt>
      <trkpt lat="42.5706" lon="2.04667">
        <ele>2196</ele>
        <time>2020-07-21T08:51:01.016Z</time>
      </trkpt>
      <trkpt lat="42.5706" lon="2.0467">
        <ele>2195</ele>
        <time>2020-07-21T08:51:02.016Z</time>
      </trkpt>
      <trkpt lat="42.5706" lon="2.04674">
        <ele>2194</ele>
        <time>2020-07-21T08:51:03.016Z</time>
      </trkpt>
      <trkpt lat="42.5706" lon="2.04677">
        <ele>2193</ele>
        <time>2020-07-21T08:51:04.016Z</time>
      </trkpt>
      <trkpt lat="42.5706" lon="2.0468">
        <ele>2192</ele>
        <time>2020-07-21T08:51:05.016Z</time>
      </trkpt>
      <trkpt lat="42.5706" lon="2.04683">
        <ele>2191</ele>
        <time>2020-07-21T08:51:06.016Z</time>
      </trkpt>
      <trkpt lat="42.5706" lon="2.04687">
        <ele>2191</ele>
        <time>2020-07-21T08:51:07.016Z</time>
      </trkpt>
      <trkpt lat="42.5706" lon="2.0469">
        <ele>2190</ele>
        <time>2020-07-21T08:51:08.016Z</time>
      </trkpt>
      <trkpt lat="42.57061" lon="2.04694">
        <ele>2189</ele>
        <time>2020-07-21T08:51:09.016Z</time>
      </trkpt>
      <trkpt lat="42.5706" lon="2.04697">
        <ele>2189</ele>
        <time>2020-07-21T08:51:10.016Z</time>
      </trkpt>
      <trkpt lat="42.5706" lon="2.047">
        <ele>2188</ele>
        <time>2020-07-21T08:51:11.016Z</time>
      </trkpt>
      <trkpt lat="42.57059" lon="2.04703">
        <ele>2188</ele>
        <time>2020-07-21T08:51:12.016Z</time>
      </trkpt>
      <trkpt lat="42.57057" lon="2.04706">
        <ele>2187</ele>
        <time>2020-07-21T08:51:13.016Z</time>
      </trkpt>
      <trkpt lat="42.57055" lon="2.04708">
        <ele>2185</ele>
        <time>2020-07-21T08:51:14.016Z</time>
      </trkpt>
      <trkpt lat="42.57053" lon="2.0471">
        <ele>2185</ele>
        <time>2020-07-21T08:51:15.016Z</time>
      </trkpt>
      <trkpt lat="42.57052" lon="2.04712">
        <ele>2184</ele>
        <time>2020-07-21T08:51:16.016Z</time>
      </trkpt>
      <trkpt lat="42.57051" lon="2.04715">
        <ele>2183</ele>
        <time>2020-07-21T08:51:17.016Z</time>
      </trkpt>
      <trkpt lat="42.5705" lon="2.04718">
        <ele>2182</ele>
        <time>2020-07-21T08:51:18.016Z</time>
      </trkpt>
      <trkpt lat="42.5705" lon="2.04721">
        <ele>2182</ele>
        <time>2020-07-21T08:51:19.016Z</time>
      </trkpt>
      <trkpt lat="42.5705" lon="2.04725">
        <ele>2181</ele>
        <time>2020-07-21T08:51:20.016Z</time>
      </trkpt>
      <trkpt lat="42.5705" lon="2.04729">
        <ele>2180</ele>
        <time>2020-07-21T08:51:21.016Z</time>
      </trkpt>
      <trkpt lat="42.57051" lon="2.04734">
        <ele>2180</ele>
        <time>2020-07-21T08:51:22.016Z</time>
      </trkpt>
      <trkpt lat="42.5705" lon="2.04737">
        <ele>2179</ele>
        <time>2020-07-21T08:51:23.016Z</time>
      </trkpt>
      <trkpt lat="42.5705" lon="2.04741">
        <ele>2179</ele>
        <time>2020-07-21T08:51:24.016Z</time>
      </trkpt>
      <trkpt lat="42.5705" lon="2.04744">
        <ele>2178</ele>
        <time>2020-07-21T08:51:25.016Z</time>
      </trkpt>
      <trkpt lat="42.57049" lon="2.04747">
        <ele>2178</ele>
        <time>2020-07-21T08:51:26.016Z</time>
      </trkpt>
      <trkpt lat="42.57049" lon="2.0475">
        <ele>2178</ele>
        <time>2020-07-21T08:51:27.016Z</time>
      </trkpt>
      <trkpt lat="42.57048" lon="2.04754">
        <ele>2177</ele>
        <time>2020-07-21T08:51:28.016Z</time>
      </trkpt>
      <trkpt lat="42.57047" lon="2.04757">
        <ele>2177</ele>
        <time>2020-07-21T08:51:29.016Z</time>
      </trkpt>
      <trkpt lat="42.57046" lon="2.0476">
        <ele>2176</ele>
        <time>2020-07-21T08:51:30.016Z</time>
      </trkpt>
      <trkpt lat="42.57045" lon="2.04763">
        <ele>2176</ele>
        <time>2020-07-21T08:51:31.016Z</time>
      </trkpt>
      <trkpt lat="42.57044" lon="2.04767">
        <ele>2175</ele>
        <time>2020-07-21T08:51:32.016Z</time>
      </trkpt>
      <trkpt lat="42.57043" lon="2.0477">
        <ele>2175</ele>
        <time>2020-07-21T08:51:33.016Z</time>
      </trkpt>
      <trkpt lat="42.57042" lon="2.04773">
        <ele>2173</ele>
        <time>2020-07-21T08:51:34.016Z</time>
      </trkpt>
      <trkpt lat="42.5704" lon="2.04774">
        <ele>2172</ele>
        <time>2020-07-21T08:51:35.016Z</time>
      </trkpt>
      <trkpt lat="42.57038" lon="2.04774">
        <ele>2171</ele>
        <time>2020-07-21T08:51:36.016Z</time>
      </trkpt>
      <trkpt lat="42.57035" lon="2.04775">
        <ele>2169</ele>
        <time>2020-07-21T08:51:37.016Z</time>
      </trkpt>
      <trkpt lat="42.57034" lon="2.04776">
        <ele>2168</ele>
        <time>2020-07-21T08:51:38.016Z</time>
      </trkpt>
      <trkpt lat="42.57033" lon="2.04778">
        <ele>2167</ele>
        <time>2020-07-21T08:51:39.016Z</time>
      </trkpt>
      <trkpt lat="42.57032" lon="2.04781">
        <ele>2167</ele>
        <time>2020-07-21T08:51:40.016Z</time>
      </trkpt>
      <trkpt lat="42.57032" lon="2.04784">
        <ele>2166</ele>
        <time>2020-07-21T08:51:41.016Z</time>
      </trkpt>
      <trkpt lat="42.57032" lon="2.04788">
        <ele>2164</ele>
        <time>2020-07-21T08:51:42.016Z</time>
      </trkpt>
      <trkpt lat="42.57032" lon="2.04791">
        <ele>2163</ele>
        <time>2020-07-21T08:51:43.016Z</time>
      </trkpt>
      <trkpt lat="42.57032" lon="2.04795">
        <ele>2163</ele>
        <time>2020-07-21T08:51:44.016Z</time>
      </trkpt>
      <trkpt lat="42.57031" lon="2.04799">
        <ele>2162</ele>
        <time>2020-07-21T08:51:45.016Z</time>
      </trkpt>
      <trkpt lat="42.57029" lon="2.04801">
        <ele>2161</ele>
        <time>2020-07-21T08:51:46.016Z</time>
      </trkpt>
      <trkpt lat="42.57026" lon="2.04803">
        <ele>2161</ele>
        <time>2020-07-21T08:51:47.016Z</time>
      </trkpt>
      <trkpt lat="42.57024" lon="2.04805">
        <ele>2160</ele>
        <time>2020-07-21T08:51:48.016Z</time>
      </trkpt>
      <trkpt lat="42.57023" lon="2.04808">
        <ele>2158</ele>
        <time>2020-07-21T08:51:49.016Z</time>
      </trkpt>
      <trkpt lat="42.57022" lon="2.04811">
        <ele>2157</ele>
        <time>2020-07-21T08:51:50.016Z</time>
      </trkpt>
      <trkpt lat="42.57021" lon="2.04814">
        <ele>2157</ele>
        <time>2020-07-21T08:51:51.016Z</time>
      </trkpt>
      <trkpt lat="42.57018" lon="2.04817">
        <ele>2157</ele>
        <time>2020-07-21T08:51:52.016Z</time>
      </trkpt>
      <trkpt lat="42.57015" lon="2.04819">
        <ele>2157</ele>
        <time>2020-07-21T08:51:53.016Z</time>
      </trkpt>
      <trkpt lat="42.57012" lon="2.0482">
        <ele>2155</ele>
        <time>2020-07-21T08:51:54.016Z</time>
      </trkpt>
      <trkpt lat="42.5701" lon="2.0482">
        <ele>2154</ele>
        <time>2020-07-21T08:51:55.016Z</time>
      </trkpt>
      <trkpt lat="42.57008" lon="2.04821">
        <ele>2154</ele>
        <time>2020-07-21T08:51:56.016Z</time>
      </trkpt>
      <trkpt lat="42.57005" lon="2.04823">
        <ele>2153</ele>
        <time>2020-07-21T08:51:57.016Z</time>
      </trkpt>
      <trkpt lat="42.57004" lon="2.04825">
        <ele>2152</ele>
        <time>2020-07-21T08:51:58.016Z</time>
      </trkpt>
      <trkpt lat="42.57002" lon="2.04827">
        <ele>2151</ele>
        <time>2020-07-21T08:51:59.016Z</time>
      </trkpt>
      <trkpt lat="42.57002" lon="2.0483">
        <ele>2150</ele>
        <time>2020-07-21T08:52:00.016Z</time>
      </trkpt>
      <trkpt lat="42.57001" lon="2.04834">
        <ele>2149</ele>
        <time>2020-07-21T08:52:01.016Z</time>
      </trkpt>
      <trkpt lat="42.57002" lon="2.04839">
        <ele>2150</ele>
        <time>2020-07-21T08:52:02.016Z</time>
      </trkpt>
      <trkpt lat="42.57002" lon="2.04843">
        <ele>2149</ele>
        <time>2020-07-21T08:52:03.016Z</time>
      </trkpt>
      <trkpt lat="42.57002" lon="2.04848">
        <ele>2149</ele>
        <time>2020-07-21T08:52:04.016Z</time>
      </trkpt>
      <trkpt lat="42.57003" lon="2.04852">
        <ele>2148</ele>
        <time>2020-07-21T08:52:05.016Z</time>
      </trkpt>
      <trkpt lat="42.57003" lon="2.04856">
        <ele>2147</ele>
        <time>2020-07-21T08:52:06.016Z</time>
      </trkpt>
      <trkpt lat="42.57004" lon="2.04861">
        <ele>2146</ele>
        <time>2020-07-21T08:52:07.016Z</time>
      </trkpt>
      <trkpt lat="42.57004" lon="2.04865">
        <ele>2146</ele>
        <time>2020-07-21T08:52:08.016Z</time>
      </trkpt>
      <trkpt lat="42.57005" lon="2.0487">
        <ele>2145</ele>
        <time>2020-07-21T08:52:09.016Z</time>
      </trkpt>
      <trkpt lat="42.57005" lon="2.04875">
        <ele>2145</ele>
        <time>2020-07-21T08:52:10.016Z</time>
      </trkpt>
      <trkpt lat="42.57006" lon="2.04879">
        <ele>2144</ele>
        <time>2020-07-21T08:52:11.016Z</time>
      </trkpt>
      <trkpt lat="42.57006" lon="2.04884">
        <ele>2143</ele>
        <time>2020-07-21T08:52:12.016Z</time>
      </trkpt>
      <trkpt lat="42.57007" lon="2.04888">
        <ele>2142</ele>
        <time>2020-07-21T08:52:13.016Z</time>
      </trkpt>
      <trkpt lat="42.57007" lon="2.04892">
        <ele>2141</ele>
        <time>2020-07-21T08:52:14.016Z</time>
      </trkpt>
      <trkpt lat="42.57007" lon="2.04896">
        <ele>2141</ele>
        <time>2020-07-21T08:52:15.016Z</time>
      </trkpt>
      <trkpt lat="42.57008" lon="2.04901">
        <ele>2140</ele>
        <time>2020-07-21T08:52:16.016Z</time>
      </trkpt>
      <trkpt lat="42.57009" lon="2.04905">
        <ele>2139</ele>
        <time>2020-07-21T08:52:17.016Z</time>
      </trkpt>
      <trkpt lat="42.57009" lon="2.04909">
        <ele>2139</ele>
        <time>2020-07-21T08:52:18.016Z</time>
      </trkpt>
      <trkpt lat="42.57009" lon="2.04914">
        <ele>2138</ele>
        <time>2020-07-21T08:52:19.016Z</time>
      </trkpt>
      <trkpt lat="42.57009" lon="2.04919">
        <ele>2138</ele>
        <time>2020-07-21T08:52:20.016Z</time>
      </trkpt>
      <trkpt lat="42.5701" lon="2.04923">
        <ele>2137</ele>
        <time>2020-07-21T08:52:21.016Z</time>
      </trkpt>
      <trkpt lat="42.5701" lon="2.04928">
        <ele>2136</ele>
        <time>2020-07-21T08:52:22.016Z</time>
      </trkpt>
      <trkpt lat="42.5701" lon="2.04932">
        <ele>2135</ele>
        <time>2020-07-21T08:52:23.016Z</time>
      </trkpt>
      <trkpt lat="42.57011" lon="2.04937">
        <ele>2134</ele>
        <time>2020-07-21T08:52:24.016Z</time>
      </trkpt>
      <trkpt lat="42.57011" lon="2.04941">
        <ele>2133</ele>
        <time>2020-07-21T08:52:25.016Z</time>
      </trkpt>
      <trkpt lat="42.57012" lon="2.04945">
        <ele>2132</ele>
        <time>2020-07-21T08:52:26.016Z</time>
      </trkpt>
      <trkpt lat="42.57012" lon="2.04949">
        <ele>2130</ele>
        <time>2020-07-21T08:52:27.016Z</time>
      </trkpt>
      <trkpt lat="42.57012" lon="2.04954">
        <ele>2130</ele>
        <time>2020-07-21T08:52:28.016Z</time>
      </trkpt>
      <trkpt lat="42.57012" lon="2.04958">
        <ele>2129</ele>
        <time>2020-07-21T08:52:29.016Z</time>
      </trkpt>
      <trkpt lat="42.57012" lon="2.04963">
        <ele>2128</ele>
        <time>2020-07-21T08:52:30.016Z</time>
      </trkpt>
      <trkpt lat="42.57013" lon="2.04968">
        <ele>2127</ele>
        <time>2020-07-21T08:52:31.016Z</time>
      </trkpt>
      <trkpt lat="42.57013" lon="2.04972">
        <ele>2127</ele>
        <time>2020-07-21T08:52:32.016Z</time>
      </trkpt>
      <trkpt lat="42.57014" lon="2.04977">
        <ele>2127</ele>
        <time>2020-07-21T08:52:33.016Z</time>
      </trkpt>
      <trkpt lat="42.57015" lon="2.04981">
        <ele>2127</ele>
        <time>2020-07-21T08:52:34.016Z</time>
      </trkpt>
      <trkpt lat="42.57016" lon="2.04985">
        <ele>2127</ele>
        <time>2020-07-21T08:52:35.016Z</time>
      </trkpt>
      <trkpt lat="42.57016" lon="2.0499">
        <ele>2127</ele>
        <time>2020-07-21T08:52:36.016Z</time>
      </trkpt>
      <trkpt lat="42.57014" lon="2.04992">
        <ele>2126</ele>
        <time>2020-07-21T08:52:37.035Z</time>
      </trkpt>
      <trkpt lat="42.57014" lon="2.04993">
        <ele>2125</ele>
        <time>2020-07-21T08:52:38.035Z</time>
      </trkpt>
      <trkpt lat="42.57015" lon="2.04994">
        <ele>2125</ele>
        <time>2020-07-21T08:52:39.035Z</time>
      </trkpt>
      <trkpt lat="42.57015" lon="2.04996">
        <ele>2124</ele>
        <time>2020-07-21T08:52:40.035Z</time>
      </trkpt>
      <trkpt lat="42.57014" lon="2.04999">
        <ele>2124</ele>
        <time>2020-07-21T08:52:41.035Z</time>
      </trkpt>
      <trkpt lat="42.57012" lon="2.05003">
        <ele>2123</ele>
        <time>2020-07-21T08:52:42.035Z</time>
      </trkpt>
      <trkpt lat="42.5701" lon="2.05006">
        <ele>2122</ele>
        <time>2020-07-21T08:52:43.035Z</time>
      </trkpt>
      <trkpt lat="42.57008" lon="2.05008">
        <ele>2120</ele>
        <time>2020-07-21T08:52:44.035Z</time>
      </trkpt>
      <trkpt lat="42.57005" lon="2.0501">
        <ele>2119</ele>
        <time>2020-07-21T08:52:45.035Z</time>
      </trkpt>
      <trkpt lat="42.57003" lon="2.05012">
        <ele>2119</ele>
        <time>2020-07-21T08:52:46.035Z</time>
      </trkpt>
      <trkpt lat="42.57" lon="2.05014">
        <ele>2118</ele>
        <time>2020-07-21T08:52:47.035Z</time>
      </trkpt>
      <trkpt lat="42.56998" lon="2.05017">
        <ele>2117</ele>
        <time>2020-07-21T08:52:48.035Z</time>
      </trkpt>
      <trkpt lat="42.56997" lon="2.05021">
        <ele>2116</ele>
        <time>2020-07-21T08:52:49.035Z</time>
      </trkpt>
      <trkpt lat="42.56996" lon="2.05024">
        <ele>2115</ele>
        <time>2020-07-21T08:52:50.035Z</time>
      </trkpt>
      <trkpt lat="42.56995" lon="2.05029">
        <ele>2114</ele>
        <time>2020-07-21T08:52:51.035Z</time>
      </trkpt>
      <trkpt lat="42.56994" lon="2.05033">
        <ele>2113</ele>
        <time>2020-07-21T08:52:52.035Z</time>
      </trkpt>
      <trkpt lat="42.56993" lon="2.05037">
        <ele>2113</ele>
        <time>2020-07-21T08:52:53.035Z</time>
      </trkpt>
      <trkpt lat="42.56993" lon="2.05041">
        <ele>2112</ele>
        <time>2020-07-21T08:52:54.035Z</time>
      </trkpt>
      <trkpt lat="42.56992" lon="2.05045">
        <ele>2111</ele>
        <time>2020-07-21T08:52:55.035Z</time>
      </trkpt>
      <trkpt lat="42.56991" lon="2.05049">
        <ele>2110</ele>
        <time>2020-07-21T08:52:56.035Z</time>
      </trkpt>
      <trkpt lat="42.5699" lon="2.05054">
        <ele>2110</ele>
        <time>2020-07-21T08:52:57.035Z</time>
      </trkpt>
      <trkpt lat="42.56989" lon="2.05058">
        <ele>2110</ele>
        <time>2020-07-21T08:52:58.035Z</time>
      </trkpt>
      <trkpt lat="42.56988" lon="2.05062">
        <ele>2109</ele>
        <time>2020-07-21T08:52:59.035Z</time>
      </trkpt>
      <trkpt lat="42.56987" lon="2.05067">
        <ele>2110</ele>
        <time>2020-07-21T08:53:00.035Z</time>
      </trkpt>
      <trkpt lat="42.56986" lon="2.05071">
        <ele>2110</ele>
        <time>2020-07-21T08:53:01.035Z</time>
      </trkpt>
      <trkpt lat="42.56985" lon="2.05075">
        <ele>2110</ele>
        <time>2020-07-21T08:53:02.035Z</time>
      </trkpt>
      <trkpt lat="42.56984" lon="2.05079">
        <ele>2109</ele>
        <time>2020-07-21T08:53:03.035Z</time>
      </trkpt>
      <trkpt lat="42.56983" lon="2.05083">
        <ele>2109</ele>
        <time>2020-07-21T08:53:04.035Z</time>
      </trkpt>
      <trkpt lat="42.56981" lon="2.05087">
        <ele>2109</ele>
        <time>2020-07-21T08:53:05.035Z</time>
      </trkpt>
      <trkpt lat="42.5698" lon="2.05091">
        <ele>2109</ele>
        <time>2020-07-21T08:53:06.035Z</time>
      </trkpt>
      <trkpt lat="42.56978" lon="2.05095">
        <ele>2109</ele>
        <time>2020-07-21T08:53:07.035Z</time>
      </trkpt>
      <trkpt lat="42.56977" lon="2.051">
        <ele>2109</ele>
        <time>2020-07-21T08:53:08.035Z</time>
      </trkpt>
      <trkpt lat="42.56975" lon="2.05104">
        <ele>2109</ele>
        <time>2020-07-21T08:53:09.035Z</time>
      </trkpt>
      <trkpt lat="42.56974" lon="2.05108">
        <ele>2109</ele>
        <time>2020-07-21T08:53:10.035Z</time>
      </trkpt>
      <trkpt lat="42.56972" lon="2.05112">
        <ele>2109</ele>
        <time>2020-07-21T08:53:11.035Z</time>
      </trkpt>
      <trkpt lat="42.5697" lon="2.05116">
        <ele>2110</ele>
        <time>2020-07-21T08:53:12.035Z</time>
      </trkpt>
      <trkpt lat="42.56969" lon="2.05119">
        <ele>2110</ele>
        <time>2020-07-21T08:53:13.035Z</time>
      </trkpt>
      <trkpt lat="42.56967" lon="2.05123">
        <ele>2110</ele>
        <time>2020-07-21T08:53:14.035Z</time>
      </trkpt>
      <trkpt lat="42.56965" lon="2.05127">
        <ele>2110</ele>
        <time>2020-07-21T08:53:15.035Z</time>
      </trkpt>
      <trkpt lat="42.56964" lon="2.05132">
        <ele>2109</ele>
        <time>2020-07-21T08:53:16.035Z</time>
      </trkpt>
      <trkpt lat="42.56962" lon="2.05136">
        <ele>2109</ele>
        <time>2020-07-21T08:53:17.035Z</time>
      </trkpt>
      <trkpt lat="42.56961" lon="2.0514">
        <ele>2109</ele>
        <time>2020-07-21T08:53:18.035Z</time>
      </trkpt>
      <trkpt lat="42.56959" lon="2.05144">
        <ele>2110</ele>
        <time>2020-07-21T08:53:19.035Z</time>
      </trkpt>
      <trkpt lat="42.56957" lon="2.05147">
        <ele>2109</ele>
        <time>2020-07-21T08:53:20.035Z</time>
      </trkpt>
      <trkpt lat="42.56955" lon="2.05149">
        <ele>2109</ele>
        <time>2020-07-21T08:53:21.035Z</time>
      </trkpt>
      <trkpt lat="42.56952" lon="2.05151">
        <ele>2108</ele>
        <time>2020-07-21T08:53:22.035Z</time>
      </trkpt>
      <trkpt lat="42.5695" lon="2.05153">
        <ele>2107</ele>
        <time>2020-07-21T08:53:23.035Z</time>
      </trkpt>
      <trkpt lat="42.56947" lon="2.05155">
        <ele>2107</ele>
        <time>2020-07-21T08:53:24.035Z</time>
      </trkpt>
      <trkpt lat="42.56945" lon="2.05156">
        <ele>2107</ele>
        <time>2020-07-21T08:53:25.035Z</time>
      </trkpt>
      <trkpt lat="42.56943" lon="2.05159">
        <ele>2107</ele>
        <time>2020-07-21T08:53:26.035Z</time>
      </trkpt>
      <trkpt lat="42.5694" lon="2.05175">
        <ele>2109</ele>
        <time>2020-07-21T08:53:27.043Z</time>
      </trkpt>
      <trkpt lat="42.5694" lon="2.05174">
        <ele>2110</ele>
        <time>2020-07-21T08:53:28.043Z</time>
      </trkpt>
      <trkpt lat="42.56939" lon="2.05173">
        <ele>2110</ele>
        <time>2020-07-21T08:53:29.043Z</time>
      </trkpt>
      <trkpt lat="42.56938" lon="2.05171">
        <ele>2108</ele>
        <time>2020-07-21T08:53:30.043Z</time>
      </trkpt>
      <trkpt lat="42.56937" lon="2.05169">
        <ele>2108</ele>
        <time>2020-07-21T08:53:31.043Z</time>
      </trkpt>
      <trkpt lat="42.56935" lon="2.05166">
        <ele>2108</ele>
        <time>2020-07-21T08:53:32.043Z</time>
      </trkpt>
      <trkpt lat="42.56933" lon="2.05162">
        <ele>2108</ele>
        <time>2020-07-21T08:53:33.043Z</time>
      </trkpt>
      <trkpt lat="42.56931" lon="2.05159">
        <ele>2107</ele>
        <time>2020-07-21T08:53:34.043Z</time>
      </trkpt>
      <trkpt lat="42.56928" lon="2.05155">
        <ele>2107</ele>
        <time>2020-07-21T08:53:35.043Z</time>
      </trkpt>
      <trkpt lat="42.56926" lon="2.05151">
        <ele>2106</ele>
        <time>2020-07-21T08:53:36.043Z</time>
      </trkpt>
      <trkpt lat="42.56924" lon="2.05148">
        <ele>2106</ele>
        <time>2020-07-21T08:53:37.043Z</time>
      </trkpt>
      <trkpt lat="42.56921" lon="2.05144">
        <ele>2106</ele>
        <time>2020-07-21T08:53:38.043Z</time>
      </trkpt>
      <trkpt lat="42.56919" lon="2.05141">
        <ele>2105</ele>
        <time>2020-07-21T08:53:39.043Z</time>
      </trkpt>
      <trkpt lat="42.56917" lon="2.05138">
        <ele>2105</ele>
        <time>2020-07-21T08:53:40.043Z</time>
      </trkpt>
      <trkpt lat="42.56915" lon="2.05135">
        <ele>2105</ele>
        <time>2020-07-21T08:53:41.043Z</time>
      </trkpt>
      <trkpt lat="42.56912" lon="2.05132">
        <ele>2105</ele>
        <time>2020-07-21T08:53:42.043Z</time>
      </trkpt>
      <trkpt lat="42.5691" lon="2.05128">
        <ele>2105</ele>
        <time>2020-07-21T08:53:43.043Z</time>
      </trkpt>
      <trkpt lat="42.56907" lon="2.05125">
        <ele>2104</ele>
        <time>2020-07-21T08:53:44.043Z</time>
      </trkpt>
      <trkpt lat="42.56905" lon="2.05122">
        <ele>2104</ele>
        <time>2020-07-21T08:53:45.043Z</time>
      </trkpt>
      <trkpt lat="42.56902" lon="2.05118">
        <ele>2103</ele>
        <time>2020-07-21T08:53:46.043Z</time>
      </trkpt>
      <trkpt lat="42.56899" lon="2.05115">
        <ele>2103</ele>
        <time>2020-07-21T08:53:47.043Z</time>
      </trkpt>
      <trkpt lat="42.56897" lon="2.05112">
        <ele>2103</ele>
        <time>2020-07-21T08:53:48.043Z</time>
      </trkpt>
      <trkpt lat="42.56894" lon="2.05109">
        <ele>2103</ele>
        <time>2020-07-21T08:53:49.043Z</time>
      </trkpt>
      <trkpt lat="42.56891" lon="2.05105">
        <ele>2102</ele>
        <time>2020-07-21T08:53:50.043Z</time>
      </trkpt>
      <trkpt lat="42.56889" lon="2.05102">
        <ele>2102</ele>
        <time>2020-07-21T08:53:51.043Z</time>
      </trkpt>
      <trkpt lat="42.56886" lon="2.05099">
        <ele>2101</ele>
        <time>2020-07-21T08:53:52.043Z</time>
      </trkpt>
      <trkpt lat="42.56883" lon="2.05096">
        <ele>2101</ele>
        <time>2020-07-21T08:53:53.043Z</time>
      </trkpt>
      <trkpt lat="42.5688" lon="2.05092">
        <ele>2100</ele>
        <time>2020-07-21T08:53:54.043Z</time>
      </trkpt>
      <trkpt lat="42.56878" lon="2.05089">
        <ele>2100</ele>
        <time>2020-07-21T08:53:55.043Z</time>
      </trkpt>
      <trkpt lat="42.56875" lon="2.05086">
        <ele>2100</ele>
        <time>2020-07-21T08:53:56.043Z</time>
      </trkpt>
      <trkpt lat="42.56873" lon="2.05082">
        <ele>2100</ele>
        <time>2020-07-21T08:53:57.043Z</time>
      </trkpt>
      <trkpt lat="42.5687" lon="2.05079">
        <ele>2099</ele>
        <time>2020-07-21T08:53:58.043Z</time>
      </trkpt>
      <trkpt lat="42.56867" lon="2.05076">
        <ele>2099</ele>
        <time>2020-07-21T08:53:59.043Z</time>
      </trkpt>
      <trkpt lat="42.56865" lon="2.05072">
        <ele>2099</ele>
        <time>2020-07-21T08:54:00.043Z</time>
      </trkpt>
      <trkpt lat="42.56862" lon="2.05069">
        <ele>2099</ele>
        <time>2020-07-21T08:54:01.043Z</time>
      </trkpt>
      <trkpt lat="42.5686" lon="2.05066">
        <ele>2098</ele>
        <time>2020-07-21T08:54:02.043Z</time>
      </trkpt>
      <trkpt lat="42.56857" lon="2.05062">
        <ele>2098</ele>
        <time>2020-07-21T08:54:03.043Z</time>
      </trkpt>
      <trkpt lat="42.56855" lon="2.05059">
        <ele>2098</ele>
        <time>2020-07-21T08:54:04.043Z</time>
      </trkpt>
      <trkpt lat="42.56852" lon="2.05055">
        <ele>2098</ele>
        <time>2020-07-21T08:54:05.043Z</time>
      </trkpt>
      <trkpt lat="42.5685" lon="2.05052">
        <ele>2098</ele>
        <time>2020-07-21T08:54:06.043Z</time>
      </trkpt>
      <trkpt lat="42.56847" lon="2.05048">
        <ele>2098</ele>
        <time>2020-07-21T08:54:07.043Z</time>
      </trkpt>
      <trkpt lat="42.56845" lon="2.05045">
        <ele>2098</ele>
        <time>2020-07-21T08:54:08.043Z</time>
      </trkpt>
      <trkpt lat="42.56842" lon="2.05041">
        <ele>2098</ele>
        <time>2020-07-21T08:54:09.043Z</time>
      </trkpt>
      <trkpt lat="42.5684" lon="2.05038">
        <ele>2097</ele>
        <time>2020-07-21T08:54:10.043Z</time>
      </trkpt>
      <trkpt lat="42.56837" lon="2.05034">
        <ele>2097</ele>
        <time>2020-07-21T08:54:11.043Z</time>
      </trkpt>
      <trkpt lat="42.56835" lon="2.05031">
        <ele>2096</ele>
        <time>2020-07-21T08:54:12.043Z</time>
      </trkpt>
      <trkpt lat="42.56832" lon="2.05027">
        <ele>2096</ele>
        <time>2020-07-21T08:54:13.043Z</time>
      </trkpt>
      <trkpt lat="42.5683" lon="2.05024">
        <ele>2096</ele>
        <time>2020-07-21T08:54:14.043Z</time>
      </trkpt>
      <trkpt lat="42.56828" lon="2.0502">
        <ele>2096</ele>
        <time>2020-07-21T08:54:15.043Z</time>
      </trkpt>
      <trkpt lat="42.56826" lon="2.05016">
        <ele>2096</ele>
        <time>2020-07-21T08:54:16.043Z</time>
      </trkpt>
      <trkpt lat="42.56824" lon="2.05012">
        <ele>2096</ele>
        <time>2020-07-21T08:54:17.043Z</time>
      </trkpt>
      <trkpt lat="42.56822" lon="2.05009">
        <ele>2097</ele>
        <time>2020-07-21T08:54:18.043Z</time>
      </trkpt>
      <trkpt lat="42.5682" lon="2.05005">
        <ele>2096</ele>
        <time>2020-07-21T08:54:19.043Z</time>
      </trkpt>
      <trkpt lat="42.56818" lon="2.05">
        <ele>2096</ele>
        <time>2020-07-21T08:54:20.043Z</time>
      </trkpt>
      <trkpt lat="42.56817" lon="2.04996">
        <ele>2096</ele>
        <time>2020-07-21T08:54:21.043Z</time>
      </trkpt>
      <trkpt lat="42.56815" lon="2.04993">
        <ele>2096</ele>
        <time>2020-07-21T08:54:22.043Z</time>
      </trkpt>
      <trkpt lat="42.56813" lon="2.04989">
        <ele>2096</ele>
        <time>2020-07-21T08:54:23.043Z</time>
      </trkpt>
      <trkpt lat="42.56811" lon="2.04986">
        <ele>2096</ele>
        <time>2020-07-21T08:54:24.043Z</time>
      </trkpt>
      <trkpt lat="42.56809" lon="2.04983">
        <ele>2096</ele>
        <time>2020-07-21T08:54:25.043Z</time>
      </trkpt>
      <trkpt lat="42.56806" lon="2.04979">
        <ele>2095</ele>
        <time>2020-07-21T08:54:26.043Z</time>
      </trkpt>
      <trkpt lat="42.56804" lon="2.04976">
        <ele>2095</ele>
        <time>2020-07-21T08:54:27.043Z</time>
      </trkpt>
      <trkpt lat="42.56802" lon="2.04973">
        <ele>2095</ele>
        <time>2020-07-21T08:54:28.043Z</time>
      </trkpt>
      <trkpt lat="42.56799" lon="2.0497">
        <ele>2094</ele>
        <time>2020-07-21T08:54:29.043Z</time>
      </trkpt>
      <trkpt lat="42.56796" lon="2.04967">
        <ele>2093</ele>
        <time>2020-07-21T08:54:30.043Z</time>
      </trkpt>
      <trkpt lat="42.56793" lon="2.04964">
        <ele>2093</ele>
        <time>2020-07-21T08:54:31.043Z</time>
      </trkpt>
      <trkpt lat="42.5679" lon="2.04961">
        <ele>2093</ele>
        <time>2020-07-21T08:54:32.043Z</time>
      </trkpt>
      <trkpt lat="42.56787" lon="2.04959">
        <ele>2094</ele>
        <time>2020-07-21T08:54:33.043Z</time>
      </trkpt>
      <trkpt lat="42.56783" lon="2.04957">
        <ele>2094</ele>
        <time>2020-07-21T08:54:34.043Z</time>
      </trkpt>
      <trkpt lat="42.5678" lon="2.04956">
        <ele>2093</ele>
        <time>2020-07-21T08:54:35.043Z</time>
      </trkpt>
      <trkpt lat="42.56776" lon="2.04956">
        <ele>2093</ele>
        <time>2020-07-21T08:54:36.043Z</time>
      </trkpt>
      <trkpt lat="42.56773" lon="2.04956">
        <ele>2092</ele>
        <time>2020-07-21T08:54:37.043Z</time>
      </trkpt>
      <trkpt lat="42.5677" lon="2.04956">
        <ele>2092</ele>
        <time>2020-07-21T08:54:38.043Z</time>
      </trkpt>
      <trkpt lat="42.56767" lon="2.04956">
        <ele>2091</ele>
        <time>2020-07-21T08:54:39.043Z</time>
      </trkpt>
      <trkpt lat="42.56764" lon="2.04956">
        <ele>2091</ele>
        <time>2020-07-21T08:54:40.043Z</time>
      </trkpt>
      <trkpt lat="42.5676" lon="2.04956">
        <ele>2091</ele>
        <time>2020-07-21T08:54:41.043Z</time>
      </trkpt>
      <trkpt lat="42.56757" lon="2.04954">
        <ele>2091</ele>
        <time>2020-07-21T08:54:42.043Z</time>
      </trkpt>
      <trkpt lat="42.56753" lon="2.04953">
        <ele>2090</ele>
        <time>2020-07-21T08:54:43.043Z</time>
      </trkpt>
      <trkpt lat="42.5675" lon="2.04951">
        <ele>2090</ele>
        <time>2020-07-21T08:54:44.043Z</time>
      </trkpt>
      <trkpt lat="42.56747" lon="2.04949">
        <ele>2089</ele>
        <time>2020-07-21T08:54:45.043Z</time>
      </trkpt>
      <trkpt lat="42.56743" lon="2.04948">
        <ele>2089</ele>
        <time>2020-07-21T08:54:46.043Z</time>
      </trkpt>
      <trkpt lat="42.5674" lon="2.04947">
        <ele>2089</ele>
        <time>2020-07-21T08:54:47.043Z</time>
      </trkpt>
      <trkpt lat="42.56736" lon="2.04946">
        <ele>2088</ele>
        <time>2020-07-21T08:54:48.043Z</time>
      </trkpt>
      <trkpt lat="42.56733" lon="2.04946">
        <ele>2088</ele>
        <time>2020-07-21T08:54:49.043Z</time>
      </trkpt>
      <trkpt lat="42.56729" lon="2.04945">
        <ele>2088</ele>
        <time>2020-07-21T08:54:50.043Z</time>
      </trkpt>
      <trkpt lat="42.56726" lon="2.04945">
        <ele>2087</ele>
        <time>2020-07-21T08:54:51.043Z</time>
      </trkpt>
      <trkpt lat="42.56722" lon="2.04945">
        <ele>2087</ele>
        <time>2020-07-21T08:54:52.043Z</time>
      </trkpt>
      <trkpt lat="42.56719" lon="2.04945">
        <ele>2087</ele>
        <time>2020-07-21T08:54:53.043Z</time>
      </trkpt>
      <trkpt lat="42.56715" lon="2.04946">
        <ele>2086</ele>
        <time>2020-07-21T08:54:54.043Z</time>
      </trkpt>
      <trkpt lat="42.56711" lon="2.04946">
        <ele>2086</ele>
        <time>2020-07-21T08:54:55.043Z</time>
      </trkpt>
      <trkpt lat="42.56708" lon="2.04946">
        <ele>2085</ele>
        <time>2020-07-21T08:54:56.043Z</time>
      </trkpt>
      <trkpt lat="42.56704" lon="2.04945">
        <ele>2084</ele>
        <time>2020-07-21T08:54:57.043Z</time>
      </trkpt>
      <trkpt lat="42.56701" lon="2.04944">
        <ele>2085</ele>
        <time>2020-07-21T08:54:58.043Z</time>
      </trkpt>
      <trkpt lat="42.56697" lon="2.04943">
        <ele>2084</ele>
        <time>2020-07-21T08:54:59.043Z</time>
      </trkpt>
      <trkpt lat="42.56694" lon="2.04942">
        <ele>2083</ele>
        <time>2020-07-21T08:55:00.043Z</time>
      </trkpt>
      <trkpt lat="42.5669" lon="2.04941">
        <ele>2083</ele>
        <time>2020-07-21T08:55:01.043Z</time>
      </trkpt>
      <trkpt lat="42.56687" lon="2.0494">
        <ele>2082</ele>
        <time>2020-07-21T08:55:02.043Z</time>
      </trkpt>
      <trkpt lat="42.56684" lon="2.0494">
        <ele>2081</ele>
        <time>2020-07-21T08:55:03.043Z</time>
      </trkpt>
      <trkpt lat="42.56681" lon="2.04941">
        <ele>2080</ele>
        <time>2020-07-21T08:55:04.043Z</time>
      </trkpt>
      <trkpt lat="42.56678" lon="2.04942">
        <ele>2077</ele>
        <time>2020-07-21T08:55:05.043Z</time>
      </trkpt>
      <trkpt lat="42.56675" lon="2.04943">
        <ele>2075</ele>
        <time>2020-07-21T08:55:06.043Z</time>
      </trkpt>
      <trkpt lat="42.56672" lon="2.04945">
        <ele>2075</ele>
        <time>2020-07-21T08:55:07.043Z</time>
      </trkpt>
      <trkpt lat="42.56669" lon="2.04946">
        <ele>2074</ele>
        <time>2020-07-21T08:55:08.043Z</time>
      </trkpt>
      <trkpt lat="42.56666" lon="2.04948">
        <ele>2073</ele>
        <time>2020-07-21T08:55:09.043Z</time>
      </trkpt>
      <trkpt lat="42.56663" lon="2.04949">
        <ele>2072</ele>
        <time>2020-07-21T08:55:10.043Z</time>
      </trkpt>
      <trkpt lat="42.56659" lon="2.0495">
        <ele>2070</ele>
        <time>2020-07-21T08:55:11.043Z</time>
      </trkpt>
      <trkpt lat="42.56656" lon="2.0495">
        <ele>2069</ele>
        <time>2020-07-21T08:55:12.043Z</time>
      </trkpt>
      <trkpt lat="42.56653" lon="2.0495">
        <ele>2068</ele>
        <time>2020-07-21T08:55:13.043Z</time>
      </trkpt>
      <trkpt lat="42.5665" lon="2.0495">
        <ele>2068</ele>
        <time>2020-07-21T08:55:14.043Z</time>
      </trkpt>
      <trkpt lat="42.56646" lon="2.04948">
        <ele>2068</ele>
        <time>2020-07-21T08:55:15.043Z</time>
      </trkpt>
      <trkpt lat="42.56643" lon="2.04947">
        <ele>2067</ele>
        <time>2020-07-21T08:55:16.043Z</time>
      </trkpt>
      <trkpt lat="42.56639" lon="2.04947">
        <ele>2067</ele>
        <time>2020-07-21T08:55:17.043Z</time>
      </trkpt>
      <trkpt lat="42.56636" lon="2.04947">
        <ele>2066</ele>
        <time>2020-07-21T08:55:18.043Z</time>
      </trkpt>
      <trkpt lat="42.56633" lon="2.04948">
        <ele>2065</ele>
        <time>2020-07-21T08:55:19.043Z</time>
      </trkpt>
      <trkpt lat="42.56631" lon="2.04951">
        <ele>2061</ele>
        <time>2020-07-21T08:55:20.043Z</time>
      </trkpt>
      <trkpt lat="42.56629" lon="2.04955">
        <ele>2059</ele>
        <time>2020-07-21T08:55:21.043Z</time>
      </trkpt>
      <trkpt lat="42.56627" lon="2.04959">
        <ele>2059</ele>
        <time>2020-07-21T08:55:22.043Z</time>
      </trkpt>
      <trkpt lat="42.56625" lon="2.04963">
        <ele>2058</ele>
        <time>2020-07-21T08:55:23.043Z</time>
      </trkpt>
      <trkpt lat="42.56623" lon="2.04968">
        <ele>2058</ele>
        <time>2020-07-21T08:55:24.043Z</time>
      </trkpt>
      <trkpt lat="42.56622" lon="2.04972">
        <ele>2058</ele>
        <time>2020-07-21T08:55:25.043Z</time>
      </trkpt>
      <trkpt lat="42.56621" lon="2.04976">
        <ele>2058</ele>
        <time>2020-07-21T08:55:26.043Z</time>
      </trkpt>
      <trkpt lat="42.56619" lon="2.0498">
        <ele>2058</ele>
        <time>2020-07-21T08:55:27.043Z</time>
      </trkpt>
      <trkpt lat="42.56617" lon="2.04983">
        <ele>2058</ele>
        <time>2020-07-21T08:55:28.043Z</time>
      </trkpt>
      <trkpt lat="42.56614" lon="2.04985">
        <ele>2058</ele>
        <time>2020-07-21T08:55:29.043Z</time>
      </trkpt>
      <trkpt lat="42.56611" lon="2.04987">
        <ele>2057</ele>
        <time>2020-07-21T08:55:30.043Z</time>
      </trkpt>
      <trkpt lat="42.56608" lon="2.04989">
        <ele>2056</ele>
        <time>2020-07-21T08:55:31.043Z</time>
      </trkpt>
      <trkpt lat="42.56605" lon="2.0499">
        <ele>2055</ele>
        <time>2020-07-21T08:55:32.043Z</time>
      </trkpt>
      <trkpt lat="42.56602" lon="2.04992">
        <ele>2055</ele>
        <time>2020-07-21T08:55:33.043Z</time>
      </trkpt>
      <trkpt lat="42.56598" lon="2.04994">
        <ele>2055</ele>
        <time>2020-07-21T08:55:34.043Z</time>
      </trkpt>
      <trkpt lat="42.56595" lon="2.04996">
        <ele>2055</ele>
        <time>2020-07-21T08:55:35.043Z</time>
      </trkpt>
      <trkpt lat="42.56592" lon="2.04999">
        <ele>2054</ele>
        <time>2020-07-21T08:55:36.043Z</time>
      </trkpt>
      <trkpt lat="42.56589" lon="2.05002">
        <ele>2055</ele>
        <time>2020-07-21T08:55:37.043Z</time>
      </trkpt>
      <trkpt lat="42.56587" lon="2.05005">
        <ele>2054</ele>
        <time>2020-07-21T08:55:38.043Z</time>
      </trkpt>
      <trkpt lat="42.56584" lon="2.05009">
        <ele>2054</ele>
        <time>2020-07-21T08:55:39.043Z</time>
      </trkpt>
      <trkpt lat="42.56582" lon="2.05012">
        <ele>2054</ele>
        <time>2020-07-21T08:55:40.043Z</time>
      </trkpt>
      <trkpt lat="42.5658" lon="2.05016">
        <ele>2054</ele>
        <time>2020-07-21T08:55:41.043Z</time>
      </trkpt>
      <trkpt lat="42.56579" lon="2.05021">
        <ele>2054</ele>
        <time>2020-07-21T08:55:42.043Z</time>
      </trkpt>
      <trkpt lat="42.56576" lon="2.05025">
        <ele>2053</ele>
        <time>2020-07-21T08:55:43.043Z</time>
      </trkpt>
      <trkpt lat="42.56574" lon="2.05028">
        <ele>2053</ele>
        <time>2020-07-21T08:55:44.043Z</time>
      </trkpt>
      <trkpt lat="42.56572" lon="2.05032">
        <ele>2052</ele>
        <time>2020-07-21T08:55:45.043Z</time>
      </trkpt>
      <trkpt lat="42.56569" lon="2.05035">
        <ele>2052</ele>
        <time>2020-07-21T08:55:46.043Z</time>
      </trkpt>
      <trkpt lat="42.56567" lon="2.05039">
        <ele>2052</ele>
        <time>2020-07-21T08:55:47.043Z</time>
      </trkpt>
      <trkpt lat="42.56565" lon="2.05043">
        <ele>2051</ele>
        <time>2020-07-21T08:55:48.043Z</time>
      </trkpt>
      <trkpt lat="42.56563" lon="2.05047">
        <ele>2051</ele>
        <time>2020-07-21T08:55:49.043Z</time>
      </trkpt>
      <trkpt lat="42.5656" lon="2.05052">
        <ele>2052</ele>
        <time>2020-07-21T08:55:50.043Z</time>
      </trkpt>
      <trkpt lat="42.56558" lon="2.05056">
        <ele>2052</ele>
        <time>2020-07-21T08:55:51.043Z</time>
      </trkpt>
      <trkpt lat="42.56556" lon="2.0506">
        <ele>2053</ele>
        <time>2020-07-21T08:55:52.043Z</time>
      </trkpt>
      <trkpt lat="42.56554" lon="2.05064">
        <ele>2053</ele>
        <time>2020-07-21T08:55:53.043Z</time>
      </trkpt>
      <trkpt lat="42.56553" lon="2.05069">
        <ele>2053</ele>
        <time>2020-07-21T08:55:54.043Z</time>
      </trkpt>
      <trkpt lat="42.56551" lon="2.05073">
        <ele>2052</ele>
        <time>2020-07-21T08:55:55.043Z</time>
      </trkpt>
      <trkpt lat="42.56549" lon="2.05077">
        <ele>2052</ele>
        <time>2020-07-21T08:55:56.043Z</time>
      </trkpt>
      <trkpt lat="42.56547" lon="2.05082">
        <ele>2053</ele>
        <time>2020-07-21T08:55:57.043Z</time>
      </trkpt>
      <trkpt lat="42.56546" lon="2.05086">
        <ele>2052</ele>
        <time>2020-07-21T08:55:58.043Z</time>
      </trkpt>
      <trkpt lat="42.56544" lon="2.05091">
        <ele>2051</ele>
        <time>2020-07-21T08:55:59.043Z</time>
      </trkpt>
      <trkpt lat="42.56542" lon="2.05095">
        <ele>2051</ele>
        <time>2020-07-21T08:56:00.043Z</time>
      </trkpt>
      <trkpt lat="42.5654" lon="2.05098">
        <ele>2051</ele>
        <time>2020-07-21T08:56:01.043Z</time>
      </trkpt>
      <trkpt lat="42.56537" lon="2.05102">
        <ele>2052</ele>
        <time>2020-07-21T08:56:02.043Z</time>
      </trkpt>
      <trkpt lat="42.56535" lon="2.05106">
        <ele>2052</ele>
        <time>2020-07-21T08:56:03.043Z</time>
      </trkpt>
      <trkpt lat="42.56533" lon="2.0511">
        <ele>2051</ele>
        <time>2020-07-21T08:56:04.043Z</time>
      </trkpt>
      <trkpt lat="42.5653" lon="2.05114">
        <ele>2051</ele>
        <time>2020-07-21T08:56:05.043Z</time>
      </trkpt>
      <trkpt lat="42.56528" lon="2.05118">
        <ele>2051</ele>
        <time>2020-07-21T08:56:06.043Z</time>
      </trkpt>
      <trkpt lat="42.56526" lon="2.05122">
        <ele>2051</ele>
        <time>2020-07-21T08:56:07.043Z</time>
      </trkpt>
      <trkpt lat="42.56524" lon="2.05125">
        <ele>2051</ele>
        <time>2020-07-21T08:56:08.043Z</time>
      </trkpt>
      <trkpt lat="42.56521" lon="2.05129">
        <ele>2050</ele>
        <time>2020-07-21T08:56:09.043Z</time>
      </trkpt>
      <trkpt lat="42.56519" lon="2.05132">
        <ele>2049</ele>
        <time>2020-07-21T08:56:10.043Z</time>
      </trkpt>
      <trkpt lat="42.56516" lon="2.05135">
        <ele>2048</ele>
        <time>2020-07-21T08:56:11.043Z</time>
      </trkpt>
      <trkpt lat="42.56513" lon="2.05137">
        <ele>2047</ele>
        <time>2020-07-21T08:56:12.043Z</time>
      </trkpt>
      <trkpt lat="42.56511" lon="2.05139">
        <ele>2046</ele>
        <time>2020-07-21T08:56:13.043Z</time>
      </trkpt>
      <trkpt lat="42.56508" lon="2.05142">
        <ele>2045</ele>
        <time>2020-07-21T08:56:14.043Z</time>
      </trkpt>
      <trkpt lat="42.56505" lon="2.05145">
        <ele>2044</ele>
        <time>2020-07-21T08:56:15.043Z</time>
      </trkpt>
      <trkpt lat="42.56501" lon="2.05148">
        <ele>2045</ele>
        <time>2020-07-21T08:56:16.043Z</time>
      </trkpt>
      <trkpt lat="42.56498" lon="2.0515">
        <ele>2045</ele>
        <time>2020-07-21T08:56:17.043Z</time>
      </trkpt>
      <trkpt lat="42.56495" lon="2.05153">
        <ele>2044</ele>
        <time>2020-07-21T08:56:18.043Z</time>
      </trkpt>
      <trkpt lat="42.56492" lon="2.05155">
        <ele>2043</ele>
        <time>2020-07-21T08:56:19.043Z</time>
      </trkpt>
      <trkpt lat="42.56488" lon="2.05156">
        <ele>2042</ele>
        <time>2020-07-21T08:56:20.043Z</time>
      </trkpt>
      <trkpt lat="42.56485" lon="2.05159">
        <ele>2042</ele>
        <time>2020-07-21T08:56:21.043Z</time>
      </trkpt>
      <trkpt lat="42.56482" lon="2.05161">
        <ele>2041</ele>
        <time>2020-07-21T08:56:22.043Z</time>
      </trkpt>
      <trkpt lat="42.56479" lon="2.05163">
        <ele>2042</ele>
        <time>2020-07-21T08:56:23.043Z</time>
      </trkpt>
      <trkpt lat="42.56475" lon="2.05166">
        <ele>2042</ele>
        <time>2020-07-21T08:56:24.043Z</time>
      </trkpt>
      <trkpt lat="42.56472" lon="2.05167">
        <ele>2041</ele>
        <time>2020-07-21T08:56:25.043Z</time>
      </trkpt>
      <trkpt lat="42.56468" lon="2.05169">
        <ele>2040</ele>
        <time>2020-07-21T08:56:26.043Z</time>
      </trkpt>
      <trkpt lat="42.56464" lon="2.05171">
        <ele>2039</ele>
        <time>2020-07-21T08:56:27.043Z</time>
      </trkpt>
      <trkpt lat="42.56461" lon="2.05173">
        <ele>2038</ele>
        <time>2020-07-21T08:56:28.043Z</time>
      </trkpt>
      <trkpt lat="42.56457" lon="2.05175">
        <ele>2037</ele>
        <time>2020-07-21T08:56:29.043Z</time>
      </trkpt>
      <trkpt lat="42.56454" lon="2.05177">
        <ele>2037</ele>
        <time>2020-07-21T08:56:30.043Z</time>
      </trkpt>
      <trkpt lat="42.56451" lon="2.05179">
        <ele>2037</ele>
        <time>2020-07-21T08:56:31.043Z</time>
      </trkpt>
      <trkpt lat="42.56448" lon="2.05182">
        <ele>2036</ele>
        <time>2020-07-21T08:56:32.043Z</time>
      </trkpt>
      <trkpt lat="42.56444" lon="2.05184">
        <ele>2036</ele>
        <time>2020-07-21T08:56:33.043Z</time>
      </trkpt>
      <trkpt lat="42.56441" lon="2.05186">
        <ele>2036</ele>
        <time>2020-07-21T08:56:34.043Z</time>
      </trkpt>
      <trkpt lat="42.56438" lon="2.05189">
        <ele>2036</ele>
        <time>2020-07-21T08:56:35.043Z</time>
      </trkpt>
      <trkpt lat="42.56435" lon="2.05191">
        <ele>2035</ele>
        <time>2020-07-21T08:56:36.043Z</time>
      </trkpt>
      <trkpt lat="42.56432" lon="2.05194">
        <ele>2035</ele>
        <time>2020-07-21T08:56:37.043Z</time>
      </trkpt>
      <trkpt lat="42.56429" lon="2.05197">
        <ele>2034</ele>
        <time>2020-07-21T08:56:38.043Z</time>
      </trkpt>
      <trkpt lat="42.56426" lon="2.052">
        <ele>2034</ele>
        <time>2020-07-21T08:56:39.043Z</time>
      </trkpt>
      <trkpt lat="42.56423" lon="2.05204">
        <ele>2034</ele>
        <time>2020-07-21T08:56:40.043Z</time>
      </trkpt>
      <trkpt lat="42.5642" lon="2.05207">
        <ele>2033</ele>
        <time>2020-07-21T08:56:41.043Z</time>
      </trkpt>
      <trkpt lat="42.56418" lon="2.05211">
        <ele>2033</ele>
        <time>2020-07-21T08:56:42.043Z</time>
      </trkpt>
      <trkpt lat="42.56416" lon="2.05215">
        <ele>2032</ele>
        <time>2020-07-21T08:56:43.043Z</time>
      </trkpt>
      <trkpt lat="42.56414" lon="2.05219">
        <ele>2032</ele>
        <time>2020-07-21T08:56:44.043Z</time>
      </trkpt>
      <trkpt lat="42.56412" lon="2.05223">
        <ele>2031</ele>
        <time>2020-07-21T08:56:45.043Z</time>
      </trkpt>
      <trkpt lat="42.56409" lon="2.05227">
        <ele>2030</ele>
        <time>2020-07-21T08:56:46.043Z</time>
      </trkpt>
      <trkpt lat="42.56407" lon="2.0523">
        <ele>2030</ele>
        <time>2020-07-21T08:56:47.043Z</time>
      </trkpt>
      <trkpt lat="42.56405" lon="2.05234">
        <ele>2030</ele>
        <time>2020-07-21T08:56:48.043Z</time>
      </trkpt>
      <trkpt lat="42.56402" lon="2.05237">
        <ele>2030</ele>
        <time>2020-07-21T08:56:49.043Z</time>
      </trkpt>
      <trkpt lat="42.564" lon="2.05241">
        <ele>2030</ele>
        <time>2020-07-21T08:56:50.043Z</time>
      </trkpt>
      <trkpt lat="42.56397" lon="2.05244">
        <ele>2031</ele>
        <time>2020-07-21T08:56:51.043Z</time>
      </trkpt>
      <trkpt lat="42.56394" lon="2.05248">
        <ele>2031</ele>
        <time>2020-07-21T08:56:52.043Z</time>
      </trkpt>
      <trkpt lat="42.56392" lon="2.05251">
        <ele>2031</ele>
        <time>2020-07-21T08:56:53.043Z</time>
      </trkpt>
      <trkpt lat="42.56389" lon="2.05255">
        <ele>2031</ele>
        <time>2020-07-21T08:56:54.043Z</time>
      </trkpt>
      <trkpt lat="42.56387" lon="2.05259">
        <ele>2031</ele>
        <time>2020-07-21T08:56:55.043Z</time>
      </trkpt>
      <trkpt lat="42.56385" lon="2.05263">
        <ele>2031</ele>
        <time>2020-07-21T08:56:56.043Z</time>
      </trkpt>
      <trkpt lat="42.56383" lon="2.05267">
        <ele>2029</ele>
        <time>2020-07-21T08:56:57.043Z</time>
      </trkpt>
      <trkpt lat="42.56382" lon="2.05271">
        <ele>2029</ele>
        <time>2020-07-21T08:56:58.043Z</time>
      </trkpt>
      <trkpt lat="42.56381" lon="2.05276">
        <ele>2029</ele>
        <time>2020-07-21T08:56:59.043Z</time>
      </trkpt>
      <trkpt lat="42.5638" lon="2.0528">
        <ele>2029</ele>
        <time>2020-07-21T08:57:00.043Z</time>
      </trkpt>
      <trkpt lat="42.56378" lon="2.05285">
        <ele>2029</ele>
        <time>2020-07-21T08:57:01.043Z</time>
      </trkpt>
      <trkpt lat="42.56377" lon="2.05289">
        <ele>2028</ele>
        <time>2020-07-21T08:57:02.043Z</time>
      </trkpt>
      <trkpt lat="42.56375" lon="2.05294">
        <ele>2028</ele>
        <time>2020-07-21T08:57:03.043Z</time>
      </trkpt>
      <trkpt lat="42.56374" lon="2.05299">
        <ele>2028</ele>
        <time>2020-07-21T08:57:04.043Z</time>
      </trkpt>
      <trkpt lat="42.56372" lon="2.05304">
        <ele>2027</ele>
        <time>2020-07-21T08:57:05.043Z</time>
      </trkpt>
      <trkpt lat="42.56371" lon="2.05309">
        <ele>2028</ele>
        <time>2020-07-21T08:57:06.043Z</time>
      </trkpt>
      <trkpt lat="42.5637" lon="2.05314">
        <ele>2028</ele>
        <time>2020-07-21T08:57:07.043Z</time>
      </trkpt>
      <trkpt lat="42.56369" lon="2.05318">
        <ele>2027</ele>
        <time>2020-07-21T08:57:08.043Z</time>
      </trkpt>
      <trkpt lat="42.56367" lon="2.05323">
        <ele>2027</ele>
        <time>2020-07-21T08:57:09.043Z</time>
      </trkpt>
      <trkpt lat="42.56366" lon="2.05327">
        <ele>2027</ele>
        <time>2020-07-21T08:57:10.043Z</time>
      </trkpt>
      <trkpt lat="42.56364" lon="2.05332">
        <ele>2026</ele>
        <time>2020-07-21T08:57:11.043Z</time>
      </trkpt>
      <trkpt lat="42.56363" lon="2.05336">
        <ele>2027</ele>
        <time>2020-07-21T08:57:12.043Z</time>
      </trkpt>
      <trkpt lat="42.56362" lon="2.05341">
        <ele>2027</ele>
        <time>2020-07-21T08:57:13.043Z</time>
      </trkpt>
      <trkpt lat="42.56361" lon="2.05346">
        <ele>2026</ele>
        <time>2020-07-21T08:57:14.043Z</time>
      </trkpt>
      <trkpt lat="42.5636" lon="2.05351">
        <ele>2026</ele>
        <time>2020-07-21T08:57:15.043Z</time>
      </trkpt>
      <trkpt lat="42.56359" lon="2.05355">
        <ele>2026</ele>
        <time>2020-07-21T08:57:16.043Z</time>
      </trkpt>
      <trkpt lat="42.56359" lon="2.0536">
        <ele>2025</ele>
        <time>2020-07-21T08:57:17.043Z</time>
      </trkpt>
      <trkpt lat="42.56358" lon="2.05365">
        <ele>2025</ele>
        <time>2020-07-21T08:57:18.043Z</time>
      </trkpt>
      <trkpt lat="42.56357" lon="2.0537">
        <ele>2024</ele>
        <time>2020-07-21T08:57:19.043Z</time>
      </trkpt>
      <trkpt lat="42.56356" lon="2.05374">
        <ele>2025</ele>
        <time>2020-07-21T08:57:20.043Z</time>
      </trkpt>
      <trkpt lat="42.56355" lon="2.05379">
        <ele>2024</ele>
        <time>2020-07-21T08:57:21.043Z</time>
      </trkpt>
      <trkpt lat="42.56354" lon="2.05384">
        <ele>2024</ele>
        <time>2020-07-21T08:57:22.043Z</time>
      </trkpt>
      <trkpt lat="42.56353" lon="2.05388">
        <ele>2024</ele>
        <time>2020-07-21T08:57:23.043Z</time>
      </trkpt>
      <trkpt lat="42.56351" lon="2.05393">
        <ele>2024</ele>
        <time>2020-07-21T08:57:24.043Z</time>
      </trkpt>
      <trkpt lat="42.56349" lon="2.05397">
        <ele>2024</ele>
        <time>2020-07-21T08:57:25.043Z</time>
      </trkpt>
      <trkpt lat="42.56348" lon="2.05401">
        <ele>2024</ele>
        <time>2020-07-21T08:57:26.043Z</time>
      </trkpt>
      <trkpt lat="42.56346" lon="2.05405">
        <ele>2023</ele>
        <time>2020-07-21T08:57:27.043Z</time>
      </trkpt>
      <trkpt lat="42.56344" lon="2.05409">
        <ele>2024</ele>
        <time>2020-07-21T08:57:28.043Z</time>
      </trkpt>
      <trkpt lat="42.56342" lon="2.05413">
        <ele>2023</ele>
        <time>2020-07-21T08:57:29.043Z</time>
      </trkpt>
      <trkpt lat="42.56341" lon="2.05417">
        <ele>2022</ele>
        <time>2020-07-21T08:57:30.043Z</time>
      </trkpt>
      <trkpt lat="42.56339" lon="2.05421">
        <ele>2022</ele>
        <time>2020-07-21T08:57:31.043Z</time>
      </trkpt>
      <trkpt lat="42.56337" lon="2.05426">
        <ele>2021</ele>
        <time>2020-07-21T08:57:32.043Z</time>
      </trkpt>
      <trkpt lat="42.56336" lon="2.0543">
        <ele>2021</ele>
        <time>2020-07-21T08:57:33.043Z</time>
      </trkpt>
      <trkpt lat="42.56334" lon="2.05435">
        <ele>2020</ele>
        <time>2020-07-21T08:57:34.043Z</time>
      </trkpt>
      <trkpt lat="42.56332" lon="2.05439">
        <ele>2020</ele>
        <time>2020-07-21T08:57:35.043Z</time>
      </trkpt>
      <trkpt lat="42.5633" lon="2.05444">
        <ele>2019</ele>
        <time>2020-07-21T08:57:36.043Z</time>
      </trkpt>
      <trkpt lat="42.56329" lon="2.05448">
        <ele>2019</ele>
        <time>2020-07-21T08:57:37.043Z</time>
      </trkpt>
      <trkpt lat="42.56327" lon="2.05453">
        <ele>2018</ele>
        <time>2020-07-21T08:57:38.043Z</time>
      </trkpt>
      <trkpt lat="42.56325" lon="2.05458">
        <ele>2018</ele>
        <time>2020-07-21T08:57:39.043Z</time>
      </trkpt>
      <trkpt lat="42.56323" lon="2.05463">
        <ele>2017</ele>
        <time>2020-07-21T08:57:40.043Z</time>
      </trkpt>
      <trkpt lat="42.56321" lon="2.05467">
        <ele>2017</ele>
        <time>2020-07-21T08:57:41.043Z</time>
      </trkpt>
      <trkpt lat="42.56319" lon="2.05471">
        <ele>2017</ele>
        <time>2020-07-21T08:57:42.043Z</time>
      </trkpt>
      <trkpt lat="42.56316" lon="2.05475">
        <ele>2018</ele>
        <time>2020-07-21T08:57:43.043Z</time>
      </trkpt>
      <trkpt lat="42.56312" lon="2.05478">
        <ele>2018</ele>
        <time>2020-07-21T08:57:44.043Z</time>
      </trkpt>
      <trkpt lat="42.56309" lon="2.05481">
        <ele>2017</ele>
        <time>2020-07-21T08:57:45.043Z</time>
      </trkpt>
      <trkpt lat="42.56306" lon="2.05483">
        <ele>2016</ele>
        <time>2020-07-21T08:57:46.043Z</time>
      </trkpt>
      <trkpt lat="42.56303" lon="2.05486">
        <ele>2015</ele>
        <time>2020-07-21T08:57:47.043Z</time>
      </trkpt>
      <trkpt lat="42.56299" lon="2.05487">
        <ele>2014</ele>
        <time>2020-07-21T08:57:48.043Z</time>
      </trkpt>
      <trkpt lat="42.56296" lon="2.05489">
        <ele>2013</ele>
        <time>2020-07-21T08:57:49.043Z</time>
      </trkpt>
      <trkpt lat="42.56292" lon="2.0549">
        <ele>2011</ele>
        <time>2020-07-21T08:57:50.043Z</time>
      </trkpt>
      <trkpt lat="42.56289" lon="2.05492">
        <ele>2011</ele>
        <time>2020-07-21T08:57:51.043Z</time>
      </trkpt>
      <trkpt lat="42.56285" lon="2.05494">
        <ele>2011</ele>
        <time>2020-07-21T08:57:52.043Z</time>
      </trkpt>
      <trkpt lat="42.56282" lon="2.05496">
        <ele>2010</ele>
        <time>2020-07-21T08:57:53.043Z</time>
      </trkpt>
      <trkpt lat="42.56278" lon="2.05498">
        <ele>2010</ele>
        <time>2020-07-21T08:57:54.043Z</time>
      </trkpt>
      <trkpt lat="42.56275" lon="2.05501">
        <ele>2010</ele>
        <time>2020-07-21T08:57:55.043Z</time>
      </trkpt>
      <trkpt lat="42.56273" lon="2.05504">
        <ele>2009</ele>
        <time>2020-07-21T08:57:56.043Z</time>
      </trkpt>
      <trkpt lat="42.5627" lon="2.05507">
        <ele>2009</ele>
        <time>2020-07-21T08:57:57.043Z</time>
      </trkpt>
      <trkpt lat="42.56267" lon="2.0551">
        <ele>2009</ele>
        <time>2020-07-21T08:57:58.043Z</time>
      </trkpt>
      <trkpt lat="42.56264" lon="2.05513">
        <ele>2009</ele>
        <time>2020-07-21T08:57:59.043Z</time>
      </trkpt>
      <trkpt lat="42.56261" lon="2.05517">
        <ele>2009</ele>
        <time>2020-07-21T08:58:00.043Z</time>
      </trkpt>
      <trkpt lat="42.56259" lon="2.05521">
        <ele>2009</ele>
        <time>2020-07-21T08:58:01.043Z</time>
      </trkpt>
      <trkpt lat="42.56256" lon="2.05524">
        <ele>2008</ele>
        <time>2020-07-21T08:58:02.043Z</time>
      </trkpt>
      <trkpt lat="42.56253" lon="2.05527">
        <ele>2008</ele>
        <time>2020-07-21T08:58:03.043Z</time>
      </trkpt>
      <trkpt lat="42.5625" lon="2.05531">
        <ele>2008</ele>
        <time>2020-07-21T08:58:04.043Z</time>
      </trkpt>
      <trkpt lat="42.56248" lon="2.05534">
        <ele>2007</ele>
        <time>2020-07-21T08:58:05.043Z</time>
      </trkpt>
      <trkpt lat="42.56245" lon="2.05538">
        <ele>2007</ele>
        <time>2020-07-21T08:58:06.043Z</time>
      </trkpt>
      <trkpt lat="42.56243" lon="2.05541">
        <ele>2007</ele>
        <time>2020-07-21T08:58:07.043Z</time>
      </trkpt>
      <trkpt lat="42.56241" lon="2.05544">
        <ele>2006</ele>
        <time>2020-07-21T08:58:08.043Z</time>
      </trkpt>
      <trkpt lat="42.56238" lon="2.05548">
        <ele>2006</ele>
        <time>2020-07-21T08:58:09.043Z</time>
      </trkpt>
      <trkpt lat="42.56236" lon="2.05551">
        <ele>2006</ele>
        <time>2020-07-21T08:58:10.043Z</time>
      </trkpt>
      <trkpt lat="42.56233" lon="2.05555">
        <ele>2006</ele>
        <time>2020-07-21T08:58:11.043Z</time>
      </trkpt>
      <trkpt lat="42.56231" lon="2.05558">
        <ele>2006</ele>
        <time>2020-07-21T08:58:12.043Z</time>
      </trkpt>
      <trkpt lat="42.56228" lon="2.05561">
        <ele>2005</ele>
        <time>2020-07-21T08:58:13.043Z</time>
      </trkpt>
      <trkpt lat="42.56226" lon="2.05564">
        <ele>2005</ele>
        <time>2020-07-21T08:58:14.043Z</time>
      </trkpt>
      <trkpt lat="42.56223" lon="2.05567">
        <ele>2005</ele>
        <time>2020-07-21T08:58:15.043Z</time>
      </trkpt>
      <trkpt lat="42.5622" lon="2.05571">
        <ele>2005</ele>
        <time>2020-07-21T08:58:16.043Z</time>
      </trkpt>
      <trkpt lat="42.56217" lon="2.05574">
        <ele>2004</ele>
        <time>2020-07-21T08:58:17.043Z</time>
      </trkpt>
      <trkpt lat="42.56215" lon="2.05577">
        <ele>2003</ele>
        <time>2020-07-21T08:58:18.043Z</time>
      </trkpt>
      <trkpt lat="42.56212" lon="2.05579">
        <ele>2003</ele>
        <time>2020-07-21T08:58:19.043Z</time>
      </trkpt>
      <trkpt lat="42.56209" lon="2.05582">
        <ele>2002</ele>
        <time>2020-07-21T08:58:20.043Z</time>
      </trkpt>
      <trkpt lat="42.56206" lon="2.05585">
        <ele>2002</ele>
        <time>2020-07-21T08:58:21.043Z</time>
      </trkpt>
      <trkpt lat="42.56203" lon="2.05587">
        <ele>2001</ele>
        <time>2020-07-21T08:58:22.043Z</time>
      </trkpt>
      <trkpt lat="42.562" lon="2.0559">
        <ele>2000</ele>
        <time>2020-07-21T08:58:23.043Z</time>
      </trkpt>
      <trkpt lat="42.56197" lon="2.05593">
        <ele>1999</ele>
        <time>2020-07-21T08:58:24.043Z</time>
      </trkpt>
      <trkpt lat="42.56194" lon="2.05596">
        <ele>1998</ele>
        <time>2020-07-21T08:58:25.043Z</time>
      </trkpt>
      <trkpt lat="42.5619" lon="2.05599">
        <ele>1998</ele>
        <time>2020-07-21T08:58:26.043Z</time>
      </trkpt>
      <trkpt lat="42.56187" lon="2.05601">
        <ele>1998</ele>
        <time>2020-07-21T08:58:27.043Z</time>
      </trkpt>
      <trkpt lat="42.56184" lon="2.05604">
        <ele>1997</ele>
        <time>2020-07-21T08:58:28.043Z</time>
      </trkpt>
      <trkpt lat="42.56181" lon="2.05607">
        <ele>1996</ele>
        <time>2020-07-21T08:58:29.043Z</time>
      </trkpt>
      <trkpt lat="42.56178" lon="2.0561">
        <ele>1996</ele>
        <time>2020-07-21T08:58:30.043Z</time>
      </trkpt>
      <trkpt lat="42.56176" lon="2.05612">
        <ele>1995</ele>
        <time>2020-07-21T08:58:31.043Z</time>
      </trkpt>
      <trkpt lat="42.56173" lon="2.05615">
        <ele>1995</ele>
        <time>2020-07-21T08:58:32.043Z</time>
      </trkpt>
      <trkpt lat="42.5617" lon="2.05618">
        <ele>1995</ele>
        <time>2020-07-21T08:58:33.043Z</time>
      </trkpt>
      <trkpt lat="42.56167" lon="2.05622">
        <ele>1995</ele>
        <time>2020-07-21T08:58:34.043Z</time>
      </trkpt>
      <trkpt lat="42.56164" lon="2.05625">
        <ele>1995</ele>
        <time>2020-07-21T08:58:35.043Z</time>
      </trkpt>
      <trkpt lat="42.56161" lon="2.05628">
        <ele>1995</ele>
        <time>2020-07-21T08:58:36.043Z</time>
      </trkpt>
      <trkpt lat="42.56158" lon="2.0563">
        <ele>1994</ele>
        <time>2020-07-21T08:58:37.043Z</time>
      </trkpt>
      <trkpt lat="42.56155" lon="2.05633">
        <ele>1994</ele>
        <time>2020-07-21T08:58:38.043Z</time>
      </trkpt>
      <trkpt lat="42.56152" lon="2.05636">
        <ele>1994</ele>
        <time>2020-07-21T08:58:39.043Z</time>
      </trkpt>
      <trkpt lat="42.5615" lon="2.05639">
        <ele>1993</ele>
        <time>2020-07-21T08:58:40.043Z</time>
      </trkpt>
      <trkpt lat="42.56148" lon="2.05643">
        <ele>1993</ele>
        <time>2020-07-21T08:58:41.043Z</time>
      </trkpt>
      <trkpt lat="42.56146" lon="2.05647">
        <ele>1993</ele>
        <time>2020-07-21T08:58:42.043Z</time>
      </trkpt>
      <trkpt lat="42.56146" lon="2.05652">
        <ele>1992</ele>
        <time>2020-07-21T08:58:43.043Z</time>
      </trkpt>
      <trkpt lat="42.56145" lon="2.05656">
        <ele>1992</ele>
        <time>2020-07-21T08:58:44.043Z</time>
      </trkpt>
      <trkpt lat="42.56145" lon="2.05661">
        <ele>1991</ele>
        <time>2020-07-21T08:58:45.043Z</time>
      </trkpt>
      <trkpt lat="42.56145" lon="2.05666">
        <ele>1991</ele>
        <time>2020-07-21T08:58:46.043Z</time>
      </trkpt>
      <trkpt lat="42.56144" lon="2.05671">
        <ele>1991</ele>
        <time>2020-07-21T08:58:47.043Z</time>
      </trkpt>
      <trkpt lat="42.56144" lon="2.05675">
        <ele>1991</ele>
        <time>2020-07-21T08:58:48.043Z</time>
      </trkpt>
      <trkpt lat="42.56143" lon="2.0568">
        <ele>1990</ele>
        <time>2020-07-21T08:58:49.043Z</time>
      </trkpt>
      <trkpt lat="42.56143" lon="2.05685">
        <ele>1989</ele>
        <time>2020-07-21T08:58:50.043Z</time>
      </trkpt>
      <trkpt lat="42.56142" lon="2.0569">
        <ele>1989</ele>
        <time>2020-07-21T08:58:51.043Z</time>
      </trkpt>
      <trkpt lat="42.56142" lon="2.05695">
        <ele>1989</ele>
        <time>2020-07-21T08:58:52.043Z</time>
      </trkpt>
      <trkpt lat="42.56141" lon="2.05699">
        <ele>1988</ele>
        <time>2020-07-21T08:58:53.043Z</time>
      </trkpt>
      <trkpt lat="42.56141" lon="2.05704">
        <ele>1987</ele>
        <time>2020-07-21T08:58:54.043Z</time>
      </trkpt>
      <trkpt lat="42.5614" lon="2.05708">
        <ele>1987</ele>
        <time>2020-07-21T08:58:55.043Z</time>
      </trkpt>
      <trkpt lat="42.56139" lon="2.05713">
        <ele>1986</ele>
        <time>2020-07-21T08:58:56.043Z</time>
      </trkpt>
      <trkpt lat="42.56138" lon="2.05717">
        <ele>1986</ele>
        <time>2020-07-21T08:58:57.043Z</time>
      </trkpt>
      <trkpt lat="42.56138" lon="2.05721">
        <ele>1986</ele>
        <time>2020-07-21T08:58:58.043Z</time>
      </trkpt>
      <trkpt lat="42.56137" lon="2.05726">
        <ele>1986</ele>
        <time>2020-07-21T08:58:59.043Z</time>
      </trkpt>
      <trkpt lat="42.56137" lon="2.0573">
        <ele>1986</ele>
        <time>2020-07-21T08:59:00.043Z</time>
      </trkpt>
      <trkpt lat="42.56136" lon="2.05735">
        <ele>1985</ele>
        <time>2020-07-21T08:59:01.043Z</time>
      </trkpt>
      <trkpt lat="42.56136" lon="2.0574">
        <ele>1985</ele>
        <time>2020-07-21T08:59:02.043Z</time>
      </trkpt>
      <trkpt lat="42.56134" lon="2.05744">
        <ele>1985</ele>
        <time>2020-07-21T08:59:03.043Z</time>
      </trkpt>
      <trkpt lat="42.56133" lon="2.05749">
        <ele>1984</ele>
        <time>2020-07-21T08:59:04.043Z</time>
      </trkpt>
      <trkpt lat="42.56133" lon="2.05753">
        <ele>1983</ele>
        <time>2020-07-21T08:59:05.043Z</time>
      </trkpt>
      <trkpt lat="42.56132" lon="2.05757">
        <ele>1983</ele>
        <time>2020-07-21T08:59:06.043Z</time>
      </trkpt>
      <trkpt lat="42.56132" lon="2.05762">
        <ele>1982</ele>
        <time>2020-07-21T08:59:07.043Z</time>
      </trkpt>
      <trkpt lat="42.56131" lon="2.05766">
        <ele>1982</ele>
        <time>2020-07-21T08:59:08.043Z</time>
      </trkpt>
      <trkpt lat="42.56131" lon="2.05771">
        <ele>1981</ele>
        <time>2020-07-21T08:59:09.043Z</time>
      </trkpt>
      <trkpt lat="42.56131" lon="2.05775">
        <ele>1980</ele>
        <time>2020-07-21T08:59:10.043Z</time>
      </trkpt>
      <trkpt lat="42.5613" lon="2.0578">
        <ele>1979</ele>
        <time>2020-07-21T08:59:11.043Z</time>
      </trkpt>
      <trkpt lat="42.5613" lon="2.05784">
        <ele>1979</ele>
        <time>2020-07-21T08:59:12.043Z</time>
      </trkpt>
      <trkpt lat="42.56129" lon="2.05789">
        <ele>1978</ele>
        <time>2020-07-21T08:59:13.043Z</time>
      </trkpt>
      <trkpt lat="42.56129" lon="2.05793">
        <ele>1977</ele>
        <time>2020-07-21T08:59:14.043Z</time>
      </trkpt>
      <trkpt lat="42.56129" lon="2.05797">
        <ele>1977</ele>
        <time>2020-07-21T08:59:15.043Z</time>
      </trkpt>
      <trkpt lat="42.56128" lon="2.05802">
        <ele>1976</ele>
        <time>2020-07-21T08:59:16.043Z</time>
      </trkpt>
      <trkpt lat="42.56128" lon="2.05806">
        <ele>1975</ele>
        <time>2020-07-21T08:59:17.043Z</time>
      </trkpt>
      <trkpt lat="42.56127" lon="2.05811">
        <ele>1974</ele>
        <time>2020-07-21T08:59:18.043Z</time>
      </trkpt>
      <trkpt lat="42.56127" lon="2.05815">
        <ele>1973</ele>
        <time>2020-07-21T08:59:19.043Z</time>
      </trkpt>
      <trkpt lat="42.56126" lon="2.05819">
        <ele>1972</ele>
        <time>2020-07-21T08:59:20.043Z</time>
      </trkpt>
      <trkpt lat="42.56126" lon="2.05823">
        <ele>1971</ele>
        <time>2020-07-21T08:59:21.043Z</time>
      </trkpt>
      <trkpt lat="42.56126" lon="2.05827">
        <ele>1971</ele>
        <time>2020-07-21T08:59:22.043Z</time>
      </trkpt>
      <trkpt lat="42.56126" lon="2.05831">
        <ele>1970</ele>
        <time>2020-07-21T08:59:23.043Z</time>
      </trkpt>
      <trkpt lat="42.56125" lon="2.05835">
        <ele>1969</ele>
        <time>2020-07-21T08:59:24.043Z</time>
      </trkpt>
      <trkpt lat="42.56123" lon="2.05839">
        <ele>1967</ele>
        <time>2020-07-21T08:59:25.043Z</time>
      </trkpt>
      <trkpt lat="42.56121" lon="2.05843">
        <ele>1967</ele>
        <time>2020-07-21T08:59:26.043Z</time>
      </trkpt>
      <trkpt lat="42.56118" lon="2.05847">
        <ele>1967</ele>
        <time>2020-07-21T08:59:27.043Z</time>
      </trkpt>
      <trkpt lat="42.56116" lon="2.05851">
        <ele>1966</ele>
        <time>2020-07-21T08:59:28.043Z</time>
      </trkpt>
      <trkpt lat="42.56115" lon="2.05855">
        <ele>1965</ele>
        <time>2020-07-21T08:59:29.043Z</time>
      </trkpt>
      <trkpt lat="42.56113" lon="2.05858">
        <ele>1965</ele>
        <time>2020-07-21T08:59:30.043Z</time>
      </trkpt>
      <trkpt lat="42.56111" lon="2.05862">
        <ele>1965</ele>
        <time>2020-07-21T08:59:31.043Z</time>
      </trkpt>
      <trkpt lat="42.56109" lon="2.05866">
        <ele>1965</ele>
        <time>2020-07-21T08:59:32.043Z</time>
      </trkpt>
      <trkpt lat="42.56106" lon="2.05869">
        <ele>1964</ele>
        <time>2020-07-21T08:59:33.043Z</time>
      </trkpt>
      <trkpt lat="42.56104" lon="2.05872">
        <ele>1963</ele>
        <time>2020-07-21T08:59:34.043Z</time>
      </trkpt>
      <trkpt lat="42.56101" lon="2.05875">
        <ele>1962</ele>
        <time>2020-07-21T08:59:35.043Z</time>
      </trkpt>
      <trkpt lat="42.56099" lon="2.05879">
        <ele>1962</ele>
        <time>2020-07-21T08:59:36.043Z</time>
      </trkpt>
      <trkpt lat="42.56096" lon="2.05882">
        <ele>1961</ele>
        <time>2020-07-21T08:59:37.043Z</time>
      </trkpt>
      <trkpt lat="42.56093" lon="2.05886">
        <ele>1961</ele>
        <time>2020-07-21T08:59:38.043Z</time>
      </trkpt>
      <trkpt lat="42.5609" lon="2.05889">
        <ele>1960</ele>
        <time>2020-07-21T08:59:39.043Z</time>
      </trkpt>
      <trkpt lat="42.56087" lon="2.05892">
        <ele>1960</ele>
        <time>2020-07-21T08:59:40.043Z</time>
      </trkpt>
      <trkpt lat="42.56084" lon="2.05895">
        <ele>1959</ele>
        <time>2020-07-21T08:59:41.043Z</time>
      </trkpt>
      <trkpt lat="42.56081" lon="2.05898">
        <ele>1959</ele>
        <time>2020-07-21T08:59:42.043Z</time>
      </trkpt>
      <trkpt lat="42.56078" lon="2.05902">
        <ele>1958</ele>
        <time>2020-07-21T08:59:43.043Z</time>
      </trkpt>
      <trkpt lat="42.56075" lon="2.05905">
        <ele>1957</ele>
        <time>2020-07-21T08:59:44.043Z</time>
      </trkpt>
      <trkpt lat="42.56072" lon="2.05908">
        <ele>1956</ele>
        <time>2020-07-21T08:59:45.043Z</time>
      </trkpt>
      <trkpt lat="42.56069" lon="2.05912">
        <ele>1956</ele>
        <time>2020-07-21T08:59:46.043Z</time>
      </trkpt>
      <trkpt lat="42.56066" lon="2.05916">
        <ele>1956</ele>
        <time>2020-07-21T08:59:47.043Z</time>
      </trkpt>
      <trkpt lat="42.56064" lon="2.05919">
        <ele>1955</ele>
        <time>2020-07-21T08:59:48.043Z</time>
      </trkpt>
      <trkpt lat="42.56061" lon="2.05922">
        <ele>1955</ele>
        <time>2020-07-21T08:59:49.043Z</time>
      </trkpt>
      <trkpt lat="42.56058" lon="2.05925">
        <ele>1954</ele>
        <time>2020-07-21T08:59:50.043Z</time>
      </trkpt>
      <trkpt lat="42.56055" lon="2.05928">
        <ele>1954</ele>
        <time>2020-07-21T08:59:51.043Z</time>
      </trkpt>
      <trkpt lat="42.56052" lon="2.05931">
        <ele>1953</ele>
        <time>2020-07-21T08:59:52.043Z</time>
      </trkpt>
      <trkpt lat="42.5605" lon="2.05934">
        <ele>1952</ele>
        <time>2020-07-21T08:59:53.043Z</time>
      </trkpt>
      <trkpt lat="42.56047" lon="2.05937">
        <ele>1952</ele>
        <time>2020-07-21T08:59:54.043Z</time>
      </trkpt>
      <trkpt lat="42.56044" lon="2.0594">
        <ele>1951</ele>
        <time>2020-07-21T08:59:55.043Z</time>
      </trkpt>
      <trkpt lat="42.56041" lon="2.05942">
        <ele>1951</ele>
        <time>2020-07-21T08:59:56.043Z</time>
      </trkpt>
      <trkpt lat="42.56038" lon="2.05945">
        <ele>1951</ele>
        <time>2020-07-21T08:59:57.043Z</time>
      </trkpt>
      <trkpt lat="42.56035" lon="2.05948">
        <ele>1951</ele>
        <time>2020-07-21T08:59:58.043Z</time>
      </trkpt>
      <trkpt lat="42.56032" lon="2.05951">
        <ele>1950</ele>
        <time>2020-07-21T08:59:59.043Z</time>
      </trkpt>
      <trkpt lat="42.56029" lon="2.05954">
        <ele>1951</ele>
        <time>2020-07-21T09:00:00.043Z</time>
      </trkpt>
      <trkpt lat="42.56027" lon="2.05958">
        <ele>1950</ele>
        <time>2020-07-21T09:00:01.043Z</time>
      </trkpt>
      <trkpt lat="42.56024" lon="2.05961">
        <ele>1950</ele>
        <time>2020-07-21T09:00:02.043Z</time>
      </trkpt>
      <trkpt lat="42.56021" lon="2.05965">
        <ele>1950</ele>
        <time>2020-07-21T09:00:03.043Z</time>
      </trkpt>
      <trkpt lat="42.56018" lon="2.05968">
        <ele>1950</ele>
        <time>2020-07-21T09:00:04.043Z</time>
      </trkpt>
      <trkpt lat="42.56015" lon="2.05971">
        <ele>1950</ele>
        <time>2020-07-21T09:00:05.043Z</time>
      </trkpt>
      <trkpt lat="42.56012" lon="2.05974">
        <ele>1949</ele>
        <time>2020-07-21T09:00:06.043Z</time>
      </trkpt>
      <trkpt lat="42.56009" lon="2.05977">
        <ele>1949</ele>
        <time>2020-07-21T09:00:07.043Z</time>
      </trkpt>
      <trkpt lat="42.56007" lon="2.0598">
        <ele>1949</ele>
        <time>2020-07-21T09:00:08.043Z</time>
      </trkpt>
      <trkpt lat="42.56004" lon="2.05983">
        <ele>1948</ele>
        <time>2020-07-21T09:00:09.043Z</time>
      </trkpt>
      <trkpt lat="42.56001" lon="2.05986">
        <ele>1948</ele>
        <time>2020-07-21T09:00:10.043Z</time>
      </trkpt>
      <trkpt lat="42.55998" lon="2.05988">
        <ele>1947</ele>
        <time>2020-07-21T09:00:11.043Z</time>
      </trkpt>
      <trkpt lat="42.55995" lon="2.0599">
        <ele>1946</ele>
        <time>2020-07-21T09:00:12.043Z</time>
      </trkpt>
      <trkpt lat="42.55991" lon="2.05992">
        <ele>1946</ele>
        <time>2020-07-21T09:00:13.043Z</time>
      </trkpt>
      <trkpt lat="42.55988" lon="2.05994">
        <ele>1945</ele>
        <time>2020-07-21T09:00:14.043Z</time>
      </trkpt>
      <trkpt lat="42.55985" lon="2.05997">
        <ele>1944</ele>
        <time>2020-07-21T09:00:15.043Z</time>
      </trkpt>
      <trkpt lat="42.55982" lon="2.05999">
        <ele>1944</ele>
        <time>2020-07-21T09:00:16.043Z</time>
      </trkpt>
      <trkpt lat="42.55979" lon="2.06002">
        <ele>1943</ele>
        <time>2020-07-21T09:00:17.043Z</time>
      </trkpt>
      <trkpt lat="42.55976" lon="2.06005">
        <ele>1943</ele>
        <time>2020-07-21T09:00:18.043Z</time>
      </trkpt>
      <trkpt lat="42.55972" lon="2.06008">
        <ele>1942</ele>
        <time>2020-07-21T09:00:19.043Z</time>
      </trkpt>
      <trkpt lat="42.55969" lon="2.06011">
        <ele>1942</ele>
        <time>2020-07-21T09:00:20.043Z</time>
      </trkpt>
      <trkpt lat="42.55966" lon="2.06013">
        <ele>1941</ele>
        <time>2020-07-21T09:00:21.043Z</time>
      </trkpt>
      <trkpt lat="42.55963" lon="2.06016">
        <ele>1941</ele>
        <time>2020-07-21T09:00:22.043Z</time>
      </trkpt>
      <trkpt lat="42.5596" lon="2.06019">
        <ele>1940</ele>
        <time>2020-07-21T09:00:23.043Z</time>
      </trkpt>
      <trkpt lat="42.55957" lon="2.06022">
        <ele>1940</ele>
        <time>2020-07-21T09:00:24.043Z</time>
      </trkpt>
      <trkpt lat="42.55954" lon="2.06025">
        <ele>1939</ele>
        <time>2020-07-21T09:00:25.043Z</time>
      </trkpt>
      <trkpt lat="42.55951" lon="2.06027">
        <ele>1939</ele>
        <time>2020-07-21T09:00:26.043Z</time>
      </trkpt>
      <trkpt lat="42.55948" lon="2.0603">
        <ele>1939</ele>
        <time>2020-07-21T09:00:27.043Z</time>
      </trkpt>
      <trkpt lat="42.55945" lon="2.06033">
        <ele>1939</ele>
        <time>2020-07-21T09:00:28.043Z</time>
      </trkpt>
      <trkpt lat="42.55943" lon="2.06037">
        <ele>1938</ele>
        <time>2020-07-21T09:00:29.043Z</time>
      </trkpt>
      <trkpt lat="42.5594" lon="2.0604">
        <ele>1938</ele>
        <time>2020-07-21T09:00:30.043Z</time>
      </trkpt>
      <trkpt lat="42.55938" lon="2.06043">
        <ele>1937</ele>
        <time>2020-07-21T09:00:31.043Z</time>
      </trkpt>
      <trkpt lat="42.55935" lon="2.06046">
        <ele>1937</ele>
        <time>2020-07-21T09:00:32.043Z</time>
      </trkpt>
      <trkpt lat="42.55932" lon="2.06049">
        <ele>1936</ele>
        <time>2020-07-21T09:00:33.043Z</time>
      </trkpt>
      <trkpt lat="42.5593" lon="2.06052">
        <ele>1936</ele>
        <time>2020-07-21T09:00:34.043Z</time>
      </trkpt>
      <trkpt lat="42.55927" lon="2.06055">
        <ele>1935</ele>
        <time>2020-07-21T09:00:35.043Z</time>
      </trkpt>
      <trkpt lat="42.55924" lon="2.06058">
        <ele>1934</ele>
        <time>2020-07-21T09:00:36.043Z</time>
      </trkpt>
      <trkpt lat="42.55921" lon="2.0606">
        <ele>1933</ele>
        <time>2020-07-21T09:00:37.043Z</time>
      </trkpt>
      <trkpt lat="42.55917" lon="2.06063">
        <ele>1934</ele>
        <time>2020-07-21T09:00:38.043Z</time>
      </trkpt>
      <trkpt lat="42.55914" lon="2.06066">
        <ele>1934</ele>
        <time>2020-07-21T09:00:39.043Z</time>
      </trkpt>
      <trkpt lat="42.55911" lon="2.06069">
        <ele>1933</ele>
        <time>2020-07-21T09:00:40.043Z</time>
      </trkpt>
      <trkpt lat="42.55908" lon="2.06071">
        <ele>1932</ele>
        <time>2020-07-21T09:00:41.043Z</time>
      </trkpt>
      <trkpt lat="42.55905" lon="2.06074">
        <ele>1932</ele>
        <time>2020-07-21T09:00:42.043Z</time>
      </trkpt>
      <trkpt lat="42.55902" lon="2.06077">
        <ele>1932</ele>
        <time>2020-07-21T09:00:43.043Z</time>
      </trkpt>
      <trkpt lat="42.55899" lon="2.0608">
        <ele>1932</ele>
        <time>2020-07-21T09:00:44.043Z</time>
      </trkpt>
      <trkpt lat="42.55896" lon="2.06083">
        <ele>1932</ele>
        <time>2020-07-21T09:00:45.043Z</time>
      </trkpt>
      <trkpt lat="42.55893" lon="2.06085">
        <ele>1931</ele>
        <time>2020-07-21T09:00:46.043Z</time>
      </trkpt>
      <trkpt lat="42.5589" lon="2.06086">
        <ele>1930</ele>
        <time>2020-07-21T09:00:47.043Z</time>
      </trkpt>
      <trkpt lat="42.55886" lon="2.06087">
        <ele>1929</ele>
        <time>2020-07-21T09:00:48.043Z</time>
      </trkpt>
      <trkpt lat="42.55883" lon="2.06088">
        <ele>1929</ele>
        <time>2020-07-21T09:00:49.043Z</time>
      </trkpt>
      <trkpt lat="42.5588" lon="2.0609">
        <ele>1928</ele>
        <time>2020-07-21T09:00:50.043Z</time>
      </trkpt>
      <trkpt lat="42.55876" lon="2.06092">
        <ele>1927</ele>
        <time>2020-07-21T09:00:51.043Z</time>
      </trkpt>
      <trkpt lat="42.55873" lon="2.06093">
        <ele>1927</ele>
        <time>2020-07-21T09:00:52.043Z</time>
      </trkpt>
      <trkpt lat="42.5587" lon="2.06096">
        <ele>1927</ele>
        <time>2020-07-21T09:00:53.043Z</time>
      </trkpt>
      <trkpt lat="42.55867" lon="2.06098">
        <ele>1926</ele>
        <time>2020-07-21T09:00:54.043Z</time>
      </trkpt>
      <trkpt lat="42.55859" lon="2.06102">
        <ele>1928</ele>
        <time>2020-07-21T09:00:55.015Z</time>
      </trkpt>
      <trkpt lat="42.55858" lon="2.06102">
        <ele>1928</ele>
        <time>2020-07-21T09:00:56.015Z</time>
      </trkpt>
      <trkpt lat="42.55857" lon="2.06102">
        <ele>1928</ele>
        <time>2020-07-21T09:00:57.015Z</time>
      </trkpt>
      <trkpt lat="42.55856" lon="2.06102">
        <ele>1929</ele>
        <time>2020-07-21T09:00:58.015Z</time>
      </trkpt>
      <trkpt lat="42.55854" lon="2.06101">
        <ele>1930</ele>
        <time>2020-07-21T09:00:59.015Z</time>
      </trkpt>
      <trkpt lat="42.55852" lon="2.061">
        <ele>1930</ele>
        <time>2020-07-21T09:01:00.015Z</time>
      </trkpt>
      <trkpt lat="42.55849" lon="2.06097">
        <ele>1931</ele>
        <time>2020-07-21T09:01:01.015Z</time>
      </trkpt>
      <trkpt lat="42.55847" lon="2.06094">
        <ele>1931</ele>
        <time>2020-07-21T09:01:02.015Z</time>
      </trkpt>
      <trkpt lat="42.55845" lon="2.06092">
        <ele>1931</ele>
        <time>2020-07-21T09:01:03.015Z</time>
      </trkpt>
      <trkpt lat="42.55843" lon="2.06089">
        <ele>1931</ele>
        <time>2020-07-21T09:01:04.015Z</time>
      </trkpt>
      <trkpt lat="42.5584" lon="2.06086">
        <ele>1931</ele>
        <time>2020-07-21T09:01:05.015Z</time>
      </trkpt>
      <trkpt lat="42.55838" lon="2.06083">
        <ele>1932</ele>
        <time>2020-07-21T09:01:06.015Z</time>
      </trkpt>
      <trkpt lat="42.55836" lon="2.0608">
        <ele>1932</ele>
        <time>2020-07-21T09:01:07.015Z</time>
      </trkpt>
      <trkpt lat="42.55833" lon="2.06076">
        <ele>1931</ele>
        <time>2020-07-21T09:01:08.015Z</time>
      </trkpt>
      <trkpt lat="42.55831" lon="2.06072">
        <ele>1931</ele>
        <time>2020-07-21T09:01:09.015Z</time>
      </trkpt>
      <trkpt lat="42.55828" lon="2.06067">
        <ele>1931</ele>
        <time>2020-07-21T09:01:10.015Z</time>
      </trkpt>
      <trkpt lat="42.55826" lon="2.06063">
        <ele>1931</ele>
        <time>2020-07-21T09:01:11.015Z</time>
      </trkpt>
      <trkpt lat="42.55824" lon="2.06059">
        <ele>1929</ele>
        <time>2020-07-21T09:01:12.015Z</time>
      </trkpt>
      <trkpt lat="42.55822" lon="2.06055">
        <ele>1929</ele>
        <time>2020-07-21T09:01:13.015Z</time>
      </trkpt>
      <trkpt lat="42.5582" lon="2.06051">
        <ele>1928</ele>
        <time>2020-07-21T09:01:14.015Z</time>
      </trkpt>
      <trkpt lat="42.55818" lon="2.06047">
        <ele>1927</ele>
        <time>2020-07-21T09:01:15.015Z</time>
      </trkpt>
      <trkpt lat="42.55815" lon="2.06044">
        <ele>1927</ele>
        <time>2020-07-21T09:01:16.015Z</time>
      </trkpt>
      <trkpt lat="42.55813" lon="2.0604">
        <ele>1927</ele>
        <time>2020-07-21T09:01:17.015Z</time>
      </trkpt>
      <trkpt lat="42.5581" lon="2.06037">
        <ele>1926</ele>
        <time>2020-07-21T09:01:18.015Z</time>
      </trkpt>
      <trkpt lat="42.55807" lon="2.06033">
        <ele>1926</ele>
        <time>2020-07-21T09:01:19.015Z</time>
      </trkpt>
      <trkpt lat="42.55804" lon="2.0603">
        <ele>1925</ele>
        <time>2020-07-21T09:01:20.015Z</time>
      </trkpt>
      <trkpt lat="42.55802" lon="2.06028">
        <ele>1925</ele>
        <time>2020-07-21T09:01:21.015Z</time>
      </trkpt>
      <trkpt lat="42.55799" lon="2.06025">
        <ele>1925</ele>
        <time>2020-07-21T09:01:22.015Z</time>
      </trkpt>
      <trkpt lat="42.55796" lon="2.06023">
        <ele>1924</ele>
        <time>2020-07-21T09:01:23.015Z</time>
      </trkpt>
      <trkpt lat="42.55793" lon="2.0602">
        <ele>1923</ele>
        <time>2020-07-21T09:01:24.015Z</time>
      </trkpt>
      <trkpt lat="42.5579" lon="2.06018">
        <ele>1923</ele>
        <time>2020-07-21T09:01:25.015Z</time>
      </trkpt>
      <trkpt lat="42.55787" lon="2.06016">
        <ele>1923</ele>
        <time>2020-07-21T09:01:26.015Z</time>
      </trkpt>
      <trkpt lat="42.55784" lon="2.06014">
        <ele>1923</ele>
        <time>2020-07-21T09:01:27.015Z</time>
      </trkpt>
      <trkpt lat="42.55781" lon="2.06012">
        <ele>1923</ele>
        <time>2020-07-21T09:01:28.015Z</time>
      </trkpt>
      <trkpt lat="42.55777" lon="2.06011">
        <ele>1923</ele>
        <time>2020-07-21T09:01:29.015Z</time>
      </trkpt>
      <trkpt lat="42.55774" lon="2.06009">
        <ele>1923</ele>
        <time>2020-07-21T09:01:30.015Z</time>
      </trkpt>
      <trkpt lat="42.5577" lon="2.06008">
        <ele>1922</ele>
        <time>2020-07-21T09:01:31.015Z</time>
      </trkpt>
      <trkpt lat="42.55767" lon="2.06006">
        <ele>1923</ele>
        <time>2020-07-21T09:01:32.015Z</time>
      </trkpt>
      <trkpt lat="42.55764" lon="2.06003">
        <ele>1922</ele>
        <time>2020-07-21T09:01:33.015Z</time>
      </trkpt>
      <trkpt lat="42.55762" lon="2.06">
        <ele>1923</ele>
        <time>2020-07-21T09:01:34.015Z</time>
      </trkpt>
      <trkpt lat="42.5576" lon="2.05997">
        <ele>1922</ele>
        <time>2020-07-21T09:01:35.015Z</time>
      </trkpt>
      <trkpt lat="42.55758" lon="2.05993">
        <ele>1921</ele>
        <time>2020-07-21T09:01:36.015Z</time>
      </trkpt>
      <trkpt lat="42.55756" lon="2.05988">
        <ele>1920</ele>
        <time>2020-07-21T09:01:37.015Z</time>
      </trkpt>
      <trkpt lat="42.55753" lon="2.05984">
        <ele>1920</ele>
        <time>2020-07-21T09:01:38.015Z</time>
      </trkpt>
      <trkpt lat="42.55751" lon="2.0598">
        <ele>1920</ele>
        <time>2020-07-21T09:01:39.015Z</time>
      </trkpt>
      <trkpt lat="42.55749" lon="2.05975">
        <ele>1920</ele>
        <time>2020-07-21T09:01:40.015Z</time>
      </trkpt>
      <trkpt lat="42.55747" lon="2.05971">
        <ele>1919</ele>
        <time>2020-07-21T09:01:41.015Z</time>
      </trkpt>
      <trkpt lat="42.55746" lon="2.05967">
        <ele>1919</ele>
        <time>2020-07-21T09:01:42.015Z</time>
      </trkpt>
      <trkpt lat="42.55744" lon="2.05963">
        <ele>1919</ele>
        <time>2020-07-21T09:01:43.015Z</time>
      </trkpt>
      <trkpt lat="42.55743" lon="2.05958">
        <ele>1919</ele>
        <time>2020-07-21T09:01:44.015Z</time>
      </trkpt>
      <trkpt lat="42.55742" lon="2.05954">
        <ele>1919</ele>
        <time>2020-07-21T09:01:45.015Z</time>
      </trkpt>
      <trkpt lat="42.55741" lon="2.05949">
        <ele>1919</ele>
        <time>2020-07-21T09:01:46.015Z</time>
      </trkpt>
      <trkpt lat="42.5574" lon="2.05944">
        <ele>1919</ele>
        <time>2020-07-21T09:01:47.015Z</time>
      </trkpt>
      <trkpt lat="42.55739" lon="2.0594">
        <ele>1918</ele>
        <time>2020-07-21T09:01:48.015Z</time>
      </trkpt>
      <trkpt lat="42.55738" lon="2.05936">
        <ele>1918</ele>
        <time>2020-07-21T09:01:49.015Z</time>
      </trkpt>
      <trkpt lat="42.55736" lon="2.05932">
        <ele>1918</ele>
        <time>2020-07-21T09:01:50.015Z</time>
      </trkpt>
      <trkpt lat="42.55734" lon="2.05928">
        <ele>1917</ele>
        <time>2020-07-21T09:01:51.015Z</time>
      </trkpt>
      <trkpt lat="42.55733" lon="2.05923">
        <ele>1918</ele>
        <time>2020-07-21T09:01:52.015Z</time>
      </trkpt>
      <trkpt lat="42.55731" lon="2.05919">
        <ele>1919</ele>
        <time>2020-07-21T09:01:53.015Z</time>
      </trkpt>
      <trkpt lat="42.55729" lon="2.05914">
        <ele>1919</ele>
        <time>2020-07-21T09:01:54.015Z</time>
      </trkpt>
      <trkpt lat="42.55728" lon="2.05909">
        <ele>1920</ele>
        <time>2020-07-21T09:01:55.015Z</time>
      </trkpt>
      <trkpt lat="42.55727" lon="2.05904">
        <ele>1919</ele>
        <time>2020-07-21T09:01:56.015Z</time>
      </trkpt>
      <trkpt lat="42.55727" lon="2.05899">
        <ele>1920</ele>
        <time>2020-07-21T09:01:57.015Z</time>
      </trkpt>
      <trkpt lat="42.55726" lon="2.05895">
        <ele>1920</ele>
        <time>2020-07-21T09:01:58.015Z</time>
      </trkpt>
      <trkpt lat="42.55725" lon="2.05891">
        <ele>1920</ele>
        <time>2020-07-21T09:01:59.015Z</time>
      </trkpt>
      <trkpt lat="42.55723" lon="2.05886">
        <ele>1919</ele>
        <time>2020-07-21T09:02:00.015Z</time>
      </trkpt>
      <trkpt lat="42.55721" lon="2.05882">
        <ele>1919</ele>
        <time>2020-07-21T09:02:01.015Z</time>
      </trkpt>
      <trkpt lat="42.55718" lon="2.05878">
        <ele>1918</ele>
        <time>2020-07-21T09:02:02.015Z</time>
      </trkpt>
      <trkpt lat="42.55716" lon="2.05875">
        <ele>1918</ele>
        <time>2020-07-21T09:02:03.015Z</time>
      </trkpt>
      <trkpt lat="42.55714" lon="2.05872">
        <ele>1917</ele>
        <time>2020-07-21T09:02:04.015Z</time>
      </trkpt>
      <trkpt lat="42.55711" lon="2.0587">
        <ele>1917</ele>
        <time>2020-07-21T09:02:05.015Z</time>
      </trkpt>
      <trkpt lat="42.55708" lon="2.05869">
        <ele>1916</ele>
        <time>2020-07-21T09:02:06.015Z</time>
      </trkpt>
      <trkpt lat="42.55705" lon="2.05868">
        <ele>1914</ele>
        <time>2020-07-21T09:02:07.015Z</time>
      </trkpt>
      <trkpt lat="42.55703" lon="2.05867">
        <ele>1914</ele>
        <time>2020-07-21T09:02:08.015Z</time>
      </trkpt>
      <trkpt lat="42.557" lon="2.05867">
        <ele>1913</ele>
        <time>2020-07-21T09:02:09.015Z</time>
      </trkpt>
      <trkpt lat="42.55697" lon="2.05865">
        <ele>1912</ele>
        <time>2020-07-21T09:02:10.015Z</time>
      </trkpt>
      <trkpt lat="42.55694" lon="2.05864">
        <ele>1911</ele>
        <time>2020-07-21T09:02:11.015Z</time>
      </trkpt>
      <trkpt lat="42.55691" lon="2.05863">
        <ele>1910</ele>
        <time>2020-07-21T09:02:12.015Z</time>
      </trkpt>
      <trkpt lat="42.55688" lon="2.05863">
        <ele>1909</ele>
        <time>2020-07-21T09:02:13.015Z</time>
      </trkpt>
      <trkpt lat="42.55685" lon="2.05862">
        <ele>1908</ele>
        <time>2020-07-21T09:02:14.015Z</time>
      </trkpt>
      <trkpt lat="42.55682" lon="2.05861">
        <ele>1905</ele>
        <time>2020-07-21T09:02:15.015Z</time>
      </trkpt>
      <trkpt lat="42.5568" lon="2.05862">
        <ele>1905</ele>
        <time>2020-07-21T09:02:16.015Z</time>
      </trkpt>
      <trkpt lat="42.55677" lon="2.05863">
        <ele>1905</ele>
        <time>2020-07-21T09:02:17.015Z</time>
      </trkpt>
      <trkpt lat="42.55674" lon="2.05866">
        <ele>1905</ele>
        <time>2020-07-21T09:02:18.015Z</time>
      </trkpt>
      <trkpt lat="42.55671" lon="2.05869">
        <ele>1904</ele>
        <time>2020-07-21T09:02:19.015Z</time>
      </trkpt>
      <trkpt lat="42.55669" lon="2.05871">
        <ele>1903</ele>
        <time>2020-07-21T09:02:20.015Z</time>
      </trkpt>
      <trkpt lat="42.55666" lon="2.05874">
        <ele>1903</ele>
        <time>2020-07-21T09:02:21.015Z</time>
      </trkpt>
      <trkpt lat="42.55665" lon="2.05877">
        <ele>1902</ele>
        <time>2020-07-21T09:02:22.015Z</time>
      </trkpt>
      <trkpt lat="42.55663" lon="2.0588">
        <ele>1900</ele>
        <time>2020-07-21T09:02:23.015Z</time>
      </trkpt>
      <trkpt lat="42.55661" lon="2.05883">
        <ele>1899</ele>
        <time>2020-07-21T09:02:24.015Z</time>
      </trkpt>
      <trkpt lat="42.55659" lon="2.05886">
        <ele>1898</ele>
        <time>2020-07-21T09:02:25.015Z</time>
      </trkpt>
      <trkpt lat="42.55657" lon="2.05889">
        <ele>1897</ele>
        <time>2020-07-21T09:02:26.015Z</time>
      </trkpt>
      <trkpt lat="42.55655" lon="2.05891">
        <ele>1896</ele>
        <time>2020-07-21T09:02:27.015Z</time>
      </trkpt>
      <trkpt lat="42.55652" lon="2.05893">
        <ele>1895</ele>
        <time>2020-07-21T09:02:28.015Z</time>
      </trkpt>
      <trkpt lat="42.55649" lon="2.05894">
        <ele>1894</ele>
        <time>2020-07-21T09:02:29.015Z</time>
      </trkpt>
      <trkpt lat="42.55646" lon="2.05894">
        <ele>1892</ele>
        <time>2020-07-21T09:02:30.015Z</time>
      </trkpt>
      <trkpt lat="42.55642" lon="2.05894">
        <ele>1891</ele>
        <time>2020-07-21T09:02:31.015Z</time>
      </trkpt>
      <trkpt lat="42.55639" lon="2.05892">
        <ele>1890</ele>
        <time>2020-07-21T09:02:32.015Z</time>
      </trkpt>
      <trkpt lat="42.55636" lon="2.05891">
        <ele>1889</ele>
        <time>2020-07-21T09:02:33.015Z</time>
      </trkpt>
      <trkpt lat="42.55633" lon="2.0589">
        <ele>1888</ele>
        <time>2020-07-21T09:02:34.015Z</time>
      </trkpt>
      <trkpt lat="42.55631" lon="2.05889">
        <ele>1887</ele>
        <time>2020-07-21T09:02:35.015Z</time>
      </trkpt>
      <trkpt lat="42.55628" lon="2.05887">
        <ele>1886</ele>
        <time>2020-07-21T09:02:36.015Z</time>
      </trkpt>
      <trkpt lat="42.55626" lon="2.05886">
        <ele>1885</ele>
        <time>2020-07-21T09:02:37.015Z</time>
      </trkpt>
      <trkpt lat="42.55623" lon="2.05885">
        <ele>1884</ele>
        <time>2020-07-21T09:02:38.015Z</time>
      </trkpt>
      <trkpt lat="42.55619" lon="2.05885">
        <ele>1883</ele>
        <time>2020-07-21T09:02:39.015Z</time>
      </trkpt>
      <trkpt lat="42.55616" lon="2.05885">
        <ele>1882</ele>
        <time>2020-07-21T09:02:40.015Z</time>
      </trkpt>
      <trkpt lat="42.55613" lon="2.05886">
        <ele>1881</ele>
        <time>2020-07-21T09:02:41.015Z</time>
      </trkpt>
      <trkpt lat="42.5561" lon="2.05887">
        <ele>1881</ele>
        <time>2020-07-21T09:02:42.015Z</time>
      </trkpt>
      <trkpt lat="42.55607" lon="2.05889">
        <ele>1880</ele>
        <time>2020-07-21T09:02:43.015Z</time>
      </trkpt>
      <trkpt lat="42.55604" lon="2.05891">
        <ele>1879</ele>
        <time>2020-07-21T09:02:44.015Z</time>
      </trkpt>
      <trkpt lat="42.556" lon="2.05893">
        <ele>1879</ele>
        <time>2020-07-21T09:02:45.015Z</time>
      </trkpt>
      <trkpt lat="42.55597" lon="2.05896">
        <ele>1878</ele>
        <time>2020-07-21T09:02:46.015Z</time>
      </trkpt>
      <trkpt lat="42.55594" lon="2.05898">
        <ele>1877</ele>
        <time>2020-07-21T09:02:47.015Z</time>
      </trkpt>
      <trkpt lat="42.55591" lon="2.059">
        <ele>1878</ele>
        <time>2020-07-21T09:02:48.015Z</time>
      </trkpt>
      <trkpt lat="42.55588" lon="2.05902">
        <ele>1876</ele>
        <time>2020-07-21T09:02:49.015Z</time>
      </trkpt>
      <trkpt lat="42.55585" lon="2.05904">
        <ele>1876</ele>
        <time>2020-07-21T09:02:50.015Z</time>
      </trkpt>
      <trkpt lat="42.55582" lon="2.05906">
        <ele>1874</ele>
        <time>2020-07-21T09:02:51.015Z</time>
      </trkpt>
      <trkpt lat="42.55579" lon="2.05908">
        <ele>1874</ele>
        <time>2020-07-21T09:02:52.015Z</time>
      </trkpt>
      <trkpt lat="42.55576" lon="2.0591">
        <ele>1873</ele>
        <time>2020-07-21T09:02:53.015Z</time>
      </trkpt>
      <trkpt lat="42.55572" lon="2.05911">
        <ele>1872</ele>
        <time>2020-07-21T09:02:54.015Z</time>
      </trkpt>
      <trkpt lat="42.55569" lon="2.05913">
        <ele>1871</ele>
        <time>2020-07-21T09:02:55.015Z</time>
      </trkpt>
      <trkpt lat="42.55566" lon="2.05916">
        <ele>1870</ele>
        <time>2020-07-21T09:02:56.015Z</time>
      </trkpt>
      <trkpt lat="42.55563" lon="2.05919">
        <ele>1869</ele>
        <time>2020-07-21T09:02:57.015Z</time>
      </trkpt>
      <trkpt lat="42.5556" lon="2.05922">
        <ele>1870</ele>
        <time>2020-07-21T09:02:58.015Z</time>
      </trkpt>
      <trkpt lat="42.55557" lon="2.05924">
        <ele>1869</ele>
        <time>2020-07-21T09:02:59.015Z</time>
      </trkpt>
      <trkpt lat="42.55554" lon="2.05928">
        <ele>1869</ele>
        <time>2020-07-21T09:03:00.015Z</time>
      </trkpt>
      <trkpt lat="42.55551" lon="2.05931">
        <ele>1870</ele>
        <time>2020-07-21T09:03:01.015Z</time>
      </trkpt>
      <trkpt lat="42.55548" lon="2.05935">
        <ele>1870</ele>
        <time>2020-07-21T09:03:02.015Z</time>
      </trkpt>
      <trkpt lat="42.55545" lon="2.05938">
        <ele>1870</ele>
        <time>2020-07-21T09:03:03.015Z</time>
      </trkpt>
      <trkpt lat="42.55542" lon="2.0594">
        <ele>1870</ele>
        <time>2020-07-21T09:03:04.015Z</time>
      </trkpt>
      <trkpt lat="42.55539" lon="2.05942">
        <ele>1869</ele>
        <time>2020-07-21T09:03:05.015Z</time>
      </trkpt>
      <trkpt lat="42.55536" lon="2.05943">
        <ele>1869</ele>
        <time>2020-07-21T09:03:06.015Z</time>
      </trkpt>
      <trkpt lat="42.55532" lon="2.05944">
        <ele>1871</ele>
        <time>2020-07-21T09:03:07.015Z</time>
      </trkpt>
      <trkpt lat="42.5552" lon="2.05945">
        <ele>1874</ele>
        <time>2020-07-21T09:03:08.113Z</time>
      </trkpt>
      <trkpt lat="42.55519" lon="2.05947">
        <ele>1875</ele>
        <time>2020-07-21T09:03:09.113Z</time>
      </trkpt>
      <trkpt lat="42.55519" lon="2.05948">
        <ele>1875</ele>
        <time>2020-07-21T09:03:10.113Z</time>
      </trkpt>
      <trkpt lat="42.55517" lon="2.0595">
        <ele>1875</ele>
        <time>2020-07-21T09:03:11.113Z</time>
      </trkpt>
      <trkpt lat="42.55516" lon="2.05953">
        <ele>1874</ele>
        <time>2020-07-21T09:03:12.113Z</time>
      </trkpt>
      <trkpt lat="42.55514" lon="2.05956">
        <ele>1874</ele>
        <time>2020-07-21T09:03:13.113Z</time>
      </trkpt>
      <trkpt lat="42.55513" lon="2.0596">
        <ele>1874</ele>
        <time>2020-07-21T09:03:14.113Z</time>
      </trkpt>
      <trkpt lat="42.55511" lon="2.05964">
        <ele>1874</ele>
        <time>2020-07-21T09:03:15.113Z</time>
      </trkpt>
      <trkpt lat="42.5551" lon="2.05968">
        <ele>1873</ele>
        <time>2020-07-21T09:03:16.113Z</time>
      </trkpt>
      <trkpt lat="42.55509" lon="2.05973">
        <ele>1873</ele>
        <time>2020-07-21T09:03:17.113Z</time>
      </trkpt>
      <trkpt lat="42.55509" lon="2.05977">
        <ele>1873</ele>
        <time>2020-07-21T09:03:18.113Z</time>
      </trkpt>
      <trkpt lat="42.55509" lon="2.05982">
        <ele>1873</ele>
        <time>2020-07-21T09:03:19.113Z</time>
      </trkpt>
      <trkpt lat="42.55509" lon="2.05987">
        <ele>1873</ele>
        <time>2020-07-21T09:03:20.113Z</time>
      </trkpt>
      <trkpt lat="42.55509" lon="2.05992">
        <ele>1872</ele>
        <time>2020-07-21T09:03:21.113Z</time>
      </trkpt>
      <trkpt lat="42.55509" lon="2.05996">
        <ele>1872</ele>
        <time>2020-07-21T09:03:22.113Z</time>
      </trkpt>
      <trkpt lat="42.55508" lon="2.06001">
        <ele>1872</ele>
        <time>2020-07-21T09:03:23.113Z</time>
      </trkpt>
      <trkpt lat="42.55508" lon="2.06005">
        <ele>1873</ele>
        <time>2020-07-21T09:03:24.113Z</time>
      </trkpt>
      <trkpt lat="42.55508" lon="2.0601">
        <ele>1872</ele>
        <time>2020-07-21T09:03:25.113Z</time>
      </trkpt>
      <trkpt lat="42.55508" lon="2.06014">
        <ele>1872</ele>
        <time>2020-07-21T09:03:26.113Z</time>
      </trkpt>
      <trkpt lat="42.55508" lon="2.06019">
        <ele>1872</ele>
        <time>2020-07-21T09:03:27.113Z</time>
      </trkpt>
      <trkpt lat="42.55509" lon="2.06024">
        <ele>1872</ele>
        <time>2020-07-21T09:03:28.113Z</time>
      </trkpt>
      <trkpt lat="42.55509" lon="2.06029">
        <ele>1872</ele>
        <time>2020-07-21T09:03:29.113Z</time>
      </trkpt>
      <trkpt lat="42.55509" lon="2.06034">
        <ele>1872</ele>
        <time>2020-07-21T09:03:30.113Z</time>
      </trkpt>
      <trkpt lat="42.5551" lon="2.06039">
        <ele>1871</ele>
        <time>2020-07-21T09:03:31.113Z</time>
      </trkpt>
      <trkpt lat="42.5551" lon="2.06044">
        <ele>1871</ele>
        <time>2020-07-21T09:03:32.113Z</time>
      </trkpt>
      <trkpt lat="42.5551" lon="2.06049">
        <ele>1871</ele>
        <time>2020-07-21T09:03:33.113Z</time>
      </trkpt>
      <trkpt lat="42.5551" lon="2.06054">
        <ele>1870</ele>
        <time>2020-07-21T09:03:34.113Z</time>
      </trkpt>
      <trkpt lat="42.5551" lon="2.06059">
        <ele>1870</ele>
        <time>2020-07-21T09:03:35.113Z</time>
      </trkpt>
      <trkpt lat="42.5551" lon="2.06064">
        <ele>1870</ele>
        <time>2020-07-21T09:03:36.113Z</time>
      </trkpt>
      <trkpt lat="42.5551" lon="2.06069">
        <ele>1870</ele>
        <time>2020-07-21T09:03:37.113Z</time>
      </trkpt>
      <trkpt lat="42.5551" lon="2.06074">
        <ele>1870</ele>
        <time>2020-07-21T09:03:38.113Z</time>
      </trkpt>
      <trkpt lat="42.5551" lon="2.06079">
        <ele>1869</ele>
        <time>2020-07-21T09:03:39.113Z</time>
      </trkpt>
      <trkpt lat="42.5551" lon="2.06084">
        <ele>1869</ele>
        <time>2020-07-21T09:03:40.113Z</time>
      </trkpt>
      <trkpt lat="42.5551" lon="2.06089">
        <ele>1869</ele>
        <time>2020-07-21T09:03:41.113Z</time>
      </trkpt>
      <trkpt lat="42.5551" lon="2.06094">
        <ele>1869</ele>
        <time>2020-07-21T09:03:42.113Z</time>
      </trkpt>
      <trkpt lat="42.5551" lon="2.06099">
        <ele>1869</ele>
        <time>2020-07-21T09:03:43.113Z</time>
      </trkpt>
      <trkpt lat="42.5551" lon="2.06104">
        <ele>1869</ele>
        <time>2020-07-21T09:03:44.113Z</time>
      </trkpt>
      <trkpt lat="42.5551" lon="2.06108">
        <ele>1868</ele>
        <time>2020-07-21T09:03:45.113Z</time>
      </trkpt>
      <trkpt lat="42.55511" lon="2.06113">
        <ele>1867</ele>
        <time>2020-07-21T09:03:46.113Z</time>
      </trkpt>
      <trkpt lat="42.55511" lon="2.06118">
        <ele>1867</ele>
        <time>2020-07-21T09:03:47.113Z</time>
      </trkpt>
      <trkpt lat="42.55512" lon="2.06123">
        <ele>1867</ele>
        <time>2020-07-21T09:03:48.113Z</time>
      </trkpt>
      <trkpt lat="42.55512" lon="2.06127">
        <ele>1867</ele>
        <time>2020-07-21T09:03:49.113Z</time>
      </trkpt>
      <trkpt lat="42.55513" lon="2.06132">
        <ele>1867</ele>
        <time>2020-07-21T09:03:50.113Z</time>
      </trkpt>
      <trkpt lat="42.55515" lon="2.06137">
        <ele>1866</ele>
        <time>2020-07-21T09:03:51.113Z</time>
      </trkpt>
      <trkpt lat="42.55516" lon="2.06141">
        <ele>1866</ele>
        <time>2020-07-21T09:03:52.113Z</time>
      </trkpt>
      <trkpt lat="42.55518" lon="2.06145">
        <ele>1866</ele>
        <time>2020-07-21T09:03:53.113Z</time>
      </trkpt>
      <trkpt lat="42.55519" lon="2.0615">
        <ele>1866</ele>
        <time>2020-07-21T09:03:54.113Z</time>
      </trkpt>
      <trkpt lat="42.55521" lon="2.06154">
        <ele>1867</ele>
        <time>2020-07-21T09:03:55.113Z</time>
      </trkpt>
      <trkpt lat="42.55523" lon="2.06158">
        <ele>1867</ele>
        <time>2020-07-21T09:03:56.113Z</time>
      </trkpt>
      <trkpt lat="42.55525" lon="2.06162">
        <ele>1867</ele>
        <time>2020-07-21T09:03:57.113Z</time>
      </trkpt>
      <trkpt lat="42.55527" lon="2.06165">
        <ele>1867</ele>
        <time>2020-07-21T09:03:58.113Z</time>
      </trkpt>
      <trkpt lat="42.55529" lon="2.06169">
        <ele>1867</ele>
        <time>2020-07-21T09:03:59.113Z</time>
      </trkpt>
      <trkpt lat="42.55531" lon="2.06171">
        <ele>1867</ele>
        <time>2020-07-21T09:04:00.113Z</time>
      </trkpt>
      <trkpt lat="42.55533" lon="2.06174">
        <ele>1867</ele>
        <time>2020-07-21T09:04:01.113Z</time>
      </trkpt>
      <trkpt lat="42.55535" lon="2.06177">
        <ele>1866</ele>
        <time>2020-07-21T09:04:02.113Z</time>
      </trkpt>
      <trkpt lat="42.55537" lon="2.0618">
        <ele>1866</ele>
        <time>2020-07-21T09:04:03.113Z</time>
      </trkpt>
      <trkpt lat="42.55539" lon="2.06183">
        <ele>1866</ele>
        <time>2020-07-21T09:04:04.113Z</time>
      </trkpt>
      <trkpt lat="42.5554" lon="2.06186">
        <ele>1865</ele>
        <time>2020-07-21T09:04:05.113Z</time>
      </trkpt>
      <trkpt lat="42.55542" lon="2.06189">
        <ele>1865</ele>
        <time>2020-07-21T09:04:06.113Z</time>
      </trkpt>
      <trkpt lat="42.55544" lon="2.06192">
        <ele>1864</ele>
        <time>2020-07-21T09:04:07.113Z</time>
      </trkpt>
      <trkpt lat="42.55546" lon="2.06196">
        <ele>1864</ele>
        <time>2020-07-21T09:04:08.113Z</time>
      </trkpt>
      <trkpt lat="42.55547" lon="2.06199">
        <ele>1864</ele>
        <time>2020-07-21T09:04:09.113Z</time>
      </trkpt>
      <trkpt lat="42.55549" lon="2.06202">
        <ele>1864</ele>
        <time>2020-07-21T09:04:10.113Z</time>
      </trkpt>
      <trkpt lat="42.55551" lon="2.06205">
        <ele>1864</ele>
        <time>2020-07-21T09:04:11.113Z</time>
      </trkpt>
      <trkpt lat="42.55553" lon="2.06208">
        <ele>1863</ele>
        <time>2020-07-21T09:04:12.113Z</time>
      </trkpt>
      <trkpt lat="42.55555" lon="2.06212">
        <ele>1863</ele>
        <time>2020-07-21T09:04:13.113Z</time>
      </trkpt>
      <trkpt lat="42.55557" lon="2.06216">
        <ele>1863</ele>
        <time>2020-07-21T09:04:14.113Z</time>
      </trkpt>
      <trkpt lat="42.55558" lon="2.0622">
        <ele>1863</ele>
        <time>2020-07-21T09:04:15.113Z</time>
      </trkpt>
      <trkpt lat="42.55559" lon="2.06224">
        <ele>1863</ele>
        <time>2020-07-21T09:04:16.113Z</time>
      </trkpt>
      <trkpt lat="42.5556" lon="2.06228">
        <ele>1863</ele>
        <time>2020-07-21T09:04:17.113Z</time>
      </trkpt>
      <trkpt lat="42.55562" lon="2.06232">
        <ele>1863</ele>
        <time>2020-07-21T09:04:18.113Z</time>
      </trkpt>
      <trkpt lat="42.55563" lon="2.06237">
        <ele>1862</ele>
        <time>2020-07-21T09:04:19.113Z</time>
      </trkpt>
      <trkpt lat="42.55565" lon="2.06241">
        <ele>1861</ele>
        <time>2020-07-21T09:04:20.113Z</time>
      </trkpt>
      <trkpt lat="42.55566" lon="2.06246">
        <ele>1861</ele>
        <time>2020-07-21T09:04:21.113Z</time>
      </trkpt>
      <trkpt lat="42.55567" lon="2.06251">
        <ele>1860</ele>
        <time>2020-07-21T09:04:22.113Z</time>
      </trkpt>
      <trkpt lat="42.55569" lon="2.06256">
        <ele>1860</ele>
        <time>2020-07-21T09:04:23.113Z</time>
      </trkpt>
      <trkpt lat="42.5557" lon="2.06261">
        <ele>1860</ele>
        <time>2020-07-21T09:04:24.113Z</time>
      </trkpt>
      <trkpt lat="42.55572" lon="2.06265">
        <ele>1860</ele>
        <time>2020-07-21T09:04:25.113Z</time>
      </trkpt>
      <trkpt lat="42.55574" lon="2.06269">
        <ele>1860</ele>
        <time>2020-07-21T09:04:26.113Z</time>
      </trkpt>
      <trkpt lat="42.55576" lon="2.06273">
        <ele>1860</ele>
        <time>2020-07-21T09:04:27.113Z</time>
      </trkpt>
      <trkpt lat="42.55578" lon="2.06277">
        <ele>1860</ele>
        <time>2020-07-21T09:04:28.113Z</time>
      </trkpt>
      <trkpt lat="42.5558" lon="2.06281">
        <ele>1860</ele>
        <time>2020-07-21T09:04:29.113Z</time>
      </trkpt>
      <trkpt lat="42.55582" lon="2.06284">
        <ele>1859</ele>
        <time>2020-07-21T09:04:30.113Z</time>
      </trkpt>
      <trkpt lat="42.55583" lon="2.06288">
        <ele>1858</ele>
        <time>2020-07-21T09:04:31.113Z</time>
      </trkpt>
      <trkpt lat="42.55585" lon="2.06292">
        <ele>1859</ele>
        <time>2020-07-21T09:04:32.113Z</time>
      </trkpt>
      <trkpt lat="42.55587" lon="2.06296">
        <ele>1859</ele>
        <time>2020-07-21T09:04:33.113Z</time>
      </trkpt>
      <trkpt lat="42.55589" lon="2.063">
        <ele>1859</ele>
        <time>2020-07-21T09:04:34.113Z</time>
      </trkpt>
      <trkpt lat="42.5559" lon="2.06304">
        <ele>1858</ele>
        <time>2020-07-21T09:04:35.113Z</time>
      </trkpt>
      <trkpt lat="42.55592" lon="2.06308">
        <ele>1859</ele>
        <time>2020-07-21T09:04:36.113Z</time>
      </trkpt>
      <trkpt lat="42.55594" lon="2.06312">
        <ele>1857</ele>
        <time>2020-07-21T09:04:37.113Z</time>
      </trkpt>
      <trkpt lat="42.55596" lon="2.06316">
        <ele>1858</ele>
        <time>2020-07-21T09:04:38.113Z</time>
      </trkpt>
      <trkpt lat="42.55597" lon="2.0632">
        <ele>1858</ele>
        <time>2020-07-21T09:04:39.113Z</time>
      </trkpt>
      <trkpt lat="42.55598" lon="2.06324">
        <ele>1859</ele>
        <time>2020-07-21T09:04:40.113Z</time>
      </trkpt>
      <trkpt lat="42.556" lon="2.06329">
        <ele>1858</ele>
        <time>2020-07-21T09:04:41.113Z</time>
      </trkpt>
      <trkpt lat="42.55601" lon="2.06335">
        <ele>1857</ele>
        <time>2020-07-21T09:04:42.113Z</time>
      </trkpt>
      <trkpt lat="42.55603" lon="2.06339">
        <ele>1857</ele>
        <time>2020-07-21T09:04:43.113Z</time>
      </trkpt>
      <trkpt lat="42.55604" lon="2.06344">
        <ele>1858</ele>
        <time>2020-07-21T09:04:44.113Z</time>
      </trkpt>
      <trkpt lat="42.55606" lon="2.06348">
        <ele>1858</ele>
        <time>2020-07-21T09:04:45.113Z</time>
      </trkpt>
      <trkpt lat="42.55607" lon="2.06353">
        <ele>1859</ele>
        <time>2020-07-21T09:04:46.113Z</time>
      </trkpt>
      <trkpt lat="42.55608" lon="2.06357">
        <ele>1860</ele>
        <time>2020-07-21T09:04:47.113Z</time>
      </trkpt>
      <trkpt lat="42.5561" lon="2.06362">
        <ele>1860</ele>
        <time>2020-07-21T09:04:48.113Z</time>
      </trkpt>
      <trkpt lat="42.5561" lon="2.06368">
        <ele>1861</ele>
        <time>2020-07-21T09:04:49.113Z</time>
      </trkpt>
      <trkpt lat="42.55611" lon="2.06374">
        <ele>1862</ele>
        <time>2020-07-21T09:04:50.113Z</time>
      </trkpt>
      <trkpt lat="42.55611" lon="2.0638">
        <ele>1862</ele>
        <time>2020-07-21T09:04:51.113Z</time>
      </trkpt>
      <trkpt lat="42.55611" lon="2.06385">
        <ele>1862</ele>
        <time>2020-07-21T09:04:52.113Z</time>
      </trkpt>
      <trkpt lat="42.55611" lon="2.0639">
        <ele>1863</ele>
        <time>2020-07-21T09:04:53.113Z</time>
      </trkpt>
      <trkpt lat="42.55611" lon="2.06395">
        <ele>1863</ele>
        <time>2020-07-21T09:04:54.113Z</time>
      </trkpt>
      <trkpt lat="42.55611" lon="2.064">
        <ele>1863</ele>
        <time>2020-07-21T09:04:55.113Z</time>
      </trkpt>
      <trkpt lat="42.55611" lon="2.06405">
        <ele>1863</ele>
        <time>2020-07-21T09:04:56.113Z</time>
      </trkpt>
      <trkpt lat="42.55611" lon="2.0641">
        <ele>1862</ele>
        <time>2020-07-21T09:04:57.113Z</time>
      </trkpt>
      <trkpt lat="42.5561" lon="2.06415">
        <ele>1862</ele>
        <time>2020-07-21T09:04:58.113Z</time>
      </trkpt>
      <trkpt lat="42.5561" lon="2.0642">
        <ele>1862</ele>
        <time>2020-07-21T09:04:59.113Z</time>
      </trkpt>
      <trkpt lat="42.55609" lon="2.06424">
        <ele>1862</ele>
        <time>2020-07-21T09:05:00.113Z</time>
      </trkpt>
      <trkpt lat="42.55609" lon="2.06428">
        <ele>1861</ele>
        <time>2020-07-21T09:05:01.113Z</time>
      </trkpt>
      <trkpt lat="42.55608" lon="2.06432">
        <ele>1860</ele>
        <time>2020-07-21T09:05:02.113Z</time>
      </trkpt>
      <trkpt lat="42.55607" lon="2.06437">
        <ele>1859</ele>
        <time>2020-07-21T09:05:03.113Z</time>
      </trkpt>
      <trkpt lat="42.55606" lon="2.06441">
        <ele>1858</ele>
        <time>2020-07-21T09:05:04.113Z</time>
      </trkpt>
      <trkpt lat="42.55605" lon="2.06446">
        <ele>1858</ele>
        <time>2020-07-21T09:05:05.113Z</time>
      </trkpt>
      <trkpt lat="42.55604" lon="2.06451">
        <ele>1860</ele>
        <time>2020-07-21T09:05:06.113Z</time>
      </trkpt>
      <trkpt lat="42.55603" lon="2.06455">
        <ele>1859</ele>
        <time>2020-07-21T09:05:07.113Z</time>
      </trkpt>
      <trkpt lat="42.55601" lon="2.0646">
        <ele>1860</ele>
        <time>2020-07-21T09:05:08.113Z</time>
      </trkpt>
      <trkpt lat="42.55601" lon="2.06464">
        <ele>1860</ele>
        <time>2020-07-21T09:05:09.113Z</time>
      </trkpt>
      <trkpt lat="42.55602" lon="2.06469">
        <ele>1859</ele>
        <time>2020-07-21T09:05:10.113Z</time>
      </trkpt>
      <trkpt lat="42.55603" lon="2.06473">
        <ele>1859</ele>
        <time>2020-07-21T09:05:11.113Z</time>
      </trkpt>
      <trkpt lat="42.55604" lon="2.06477">
        <ele>1858</ele>
        <time>2020-07-21T09:05:12.113Z</time>
      </trkpt>
      <trkpt lat="42.55606" lon="2.06481">
        <ele>1859</ele>
        <time>2020-07-21T09:05:13.113Z</time>
      </trkpt>
      <trkpt lat="42.55607" lon="2.06483">
        <ele>1859</ele>
        <time>2020-07-21T09:05:14.113Z</time>
      </trkpt>
      <trkpt lat="42.55609" lon="2.06485">
        <ele>1858</ele>
        <time>2020-07-21T09:05:15.113Z</time>
      </trkpt>
      <trkpt lat="42.55612" lon="2.06486">
        <ele>1856</ele>
        <time>2020-07-21T09:05:16.113Z</time>
      </trkpt>
      <trkpt lat="42.55615" lon="2.06486">
        <ele>1855</ele>
        <time>2020-07-21T09:05:17.113Z</time>
      </trkpt>
      <trkpt lat="42.55617" lon="2.06486">
        <ele>1856</ele>
        <time>2020-07-21T09:05:18.113Z</time>
      </trkpt>
      <trkpt lat="42.5562" lon="2.06485">
        <ele>1857</ele>
        <time>2020-07-21T09:05:19.113Z</time>
      </trkpt>
      <trkpt lat="42.55623" lon="2.06485">
        <ele>1858</ele>
        <time>2020-07-21T09:05:20.113Z</time>
      </trkpt>
      <trkpt lat="42.55626" lon="2.06484">
        <ele>1858</ele>
        <time>2020-07-21T09:05:21.113Z</time>
      </trkpt>
      <trkpt lat="42.55629" lon="2.06484">
        <ele>1857</ele>
        <time>2020-07-21T09:05:22.113Z</time>
      </trkpt>
      <trkpt lat="42.55633" lon="2.06483">
        <ele>1857</ele>
        <time>2020-07-21T09:05:23.113Z</time>
      </trkpt>
      <trkpt lat="42.55636" lon="2.06483">
        <ele>1858</ele>
        <time>2020-07-21T09:05:24.113Z</time>
      </trkpt>
      <trkpt lat="42.5564" lon="2.06483">
        <ele>1857</ele>
        <time>2020-07-21T09:05:25.113Z</time>
      </trkpt>
      <trkpt lat="42.55644" lon="2.06483">
        <ele>1856</ele>
        <time>2020-07-21T09:05:26.113Z</time>
      </trkpt>
      <trkpt lat="42.55648" lon="2.06482">
        <ele>1856</ele>
        <time>2020-07-21T09:05:27.113Z</time>
      </trkpt>
      <trkpt lat="42.55652" lon="2.06482">
        <ele>1856</ele>
        <time>2020-07-21T09:05:28.113Z</time>
      </trkpt>
      <trkpt lat="42.55656" lon="2.06483">
        <ele>1855</ele>
        <time>2020-07-21T09:05:29.113Z</time>
      </trkpt>
      <trkpt lat="42.55659" lon="2.06483">
        <ele>1855</ele>
        <time>2020-07-21T09:05:30.113Z</time>
      </trkpt>
      <trkpt lat="42.55662" lon="2.06483">
        <ele>1854</ele>
        <time>2020-07-21T09:05:31.113Z</time>
      </trkpt>
      <trkpt lat="42.55665" lon="2.06483">
        <ele>1853</ele>
        <time>2020-07-21T09:05:32.113Z</time>
      </trkpt>
      <trkpt lat="42.55668" lon="2.06482">
        <ele>1852</ele>
        <time>2020-07-21T09:05:33.113Z</time>
      </trkpt>
      <trkpt lat="42.5567" lon="2.06481">
        <ele>1851</ele>
        <time>2020-07-21T09:05:34.113Z</time>
      </trkpt>
      <trkpt lat="42.55673" lon="2.0648">
        <ele>1850</ele>
        <time>2020-07-21T09:05:35.113Z</time>
      </trkpt>
      <trkpt lat="42.55676" lon="2.06479">
        <ele>1849</ele>
        <time>2020-07-21T09:05:36.113Z</time>
      </trkpt>
      <trkpt lat="42.55679" lon="2.06478">
        <ele>1849</ele>
        <time>2020-07-21T09:05:37.113Z</time>
      </trkpt>
      <trkpt lat="42.55683" lon="2.06477">
        <ele>1849</ele>
        <time>2020-07-21T09:05:38.113Z</time>
      </trkpt>
      <trkpt lat="42.55686" lon="2.06476">
        <ele>1848</ele>
        <time>2020-07-21T09:05:39.113Z</time>
      </trkpt>
      <trkpt lat="42.5569" lon="2.06475">
        <ele>1847</ele>
        <time>2020-07-21T09:05:40.113Z</time>
      </trkpt>
      <trkpt lat="42.55693" lon="2.06474">
        <ele>1846</ele>
        <time>2020-07-21T09:05:41.113Z</time>
      </trkpt>
      <trkpt lat="42.55697" lon="2.06472">
        <ele>1846</ele>
        <time>2020-07-21T09:05:42.113Z</time>
      </trkpt>
      <trkpt lat="42.557" lon="2.06471">
        <ele>1846</ele>
        <time>2020-07-21T09:05:43.113Z</time>
      </trkpt>
      <trkpt lat="42.55704" lon="2.06469">
        <ele>1843</ele>
        <time>2020-07-21T09:05:44.113Z</time>
      </trkpt>
      <trkpt lat="42.55708" lon="2.06467">
        <ele>1842</ele>
        <time>2020-07-21T09:05:45.113Z</time>
      </trkpt>
      <trkpt lat="42.55711" lon="2.06466">
        <ele>1842</ele>
        <time>2020-07-21T09:05:46.113Z</time>
      </trkpt>
      <trkpt lat="42.55714" lon="2.06466">
        <ele>1841</ele>
        <time>2020-07-21T09:05:47.113Z</time>
      </trkpt>
      <trkpt lat="42.55717" lon="2.06466">
        <ele>1841</ele>
        <time>2020-07-21T09:05:48.113Z</time>
      </trkpt>
      <trkpt lat="42.5572" lon="2.06465">
        <ele>1841</ele>
        <time>2020-07-21T09:05:49.113Z</time>
      </trkpt>
      <trkpt lat="42.55723" lon="2.06466">
        <ele>1840</ele>
        <time>2020-07-21T09:05:50.113Z</time>
      </trkpt>
      <trkpt lat="42.55726" lon="2.06467">
        <ele>1839</ele>
        <time>2020-07-21T09:05:51.113Z</time>
      </trkpt>
      <trkpt lat="42.55729" lon="2.06468">
        <ele>1839</ele>
        <time>2020-07-21T09:05:52.113Z</time>
      </trkpt>
      <trkpt lat="42.55733" lon="2.06469">
        <ele>1839</ele>
        <time>2020-07-21T09:05:53.113Z</time>
      </trkpt>
      <trkpt lat="42.55737" lon="2.0647">
        <ele>1838</ele>
        <time>2020-07-21T09:05:54.113Z</time>
      </trkpt>
      <trkpt lat="42.5574" lon="2.06471">
        <ele>1838</ele>
        <time>2020-07-21T09:05:55.113Z</time>
      </trkpt>
      <trkpt lat="42.55744" lon="2.06472">
        <ele>1838</ele>
        <time>2020-07-21T09:05:56.113Z</time>
      </trkpt>
      <trkpt lat="42.55747" lon="2.06473">
        <ele>1838</ele>
        <time>2020-07-21T09:05:57.113Z</time>
      </trkpt>
      <trkpt lat="42.55751" lon="2.06474">
        <ele>1837</ele>
        <time>2020-07-21T09:05:58.113Z</time>
      </trkpt>
      <trkpt lat="42.55754" lon="2.06476">
        <ele>1837</ele>
        <time>2020-07-21T09:05:59.113Z</time>
      </trkpt>
      <trkpt lat="42.55757" lon="2.06478">
        <ele>1838</ele>
        <time>2020-07-21T09:06:00.113Z</time>
      </trkpt>
      <trkpt lat="42.5576" lon="2.06481">
        <ele>1838</ele>
        <time>2020-07-21T09:06:01.113Z</time>
      </trkpt>
      <trkpt lat="42.55763" lon="2.06484">
        <ele>1839</ele>
        <time>2020-07-21T09:06:02.113Z</time>
      </trkpt>
      <trkpt lat="42.55767" lon="2.06487">
        <ele>1840</ele>
        <time>2020-07-21T09:06:03.113Z</time>
      </trkpt>
      <trkpt lat="42.5577" lon="2.06492">
        <ele>1841</ele>
        <time>2020-07-21T09:06:04.113Z</time>
      </trkpt>
      <trkpt lat="42.55773" lon="2.06495">
        <ele>1843</ele>
        <time>2020-07-21T09:06:05.113Z</time>
      </trkpt>
      <trkpt lat="42.55776" lon="2.06499">
        <ele>1844</ele>
        <time>2020-07-21T09:06:06.113Z</time>
      </trkpt>
      <trkpt lat="42.55778" lon="2.06503">
        <ele>1845</ele>
        <time>2020-07-21T09:06:07.113Z</time>
      </trkpt>
      <trkpt lat="42.55781" lon="2.06507">
        <ele>1844</ele>
        <time>2020-07-21T09:06:08.113Z</time>
      </trkpt>
      <trkpt lat="42.55783" lon="2.06511">
        <ele>1847</ele>
        <time>2020-07-21T09:06:09.113Z</time>
      </trkpt>
      <trkpt lat="42.55785" lon="2.06516">
        <ele>1847</ele>
        <time>2020-07-21T09:06:10.113Z</time>
      </trkpt>
      <trkpt lat="42.55787" lon="2.06521">
        <ele>1849</ele>
        <time>2020-07-21T09:06:11.113Z</time>
      </trkpt>
      <trkpt lat="42.55789" lon="2.06525">
        <ele>1850</ele>
        <time>2020-07-21T09:06:12.113Z</time>
      </trkpt>
      <trkpt lat="42.5579" lon="2.06529">
        <ele>1850</ele>
        <time>2020-07-21T09:06:13.113Z</time>
      </trkpt>
      <trkpt lat="42.55792" lon="2.06533">
        <ele>1850</ele>
        <time>2020-07-21T09:06:14.113Z</time>
      </trkpt>
      <trkpt lat="42.55794" lon="2.06537">
        <ele>1851</ele>
        <time>2020-07-21T09:06:15.113Z</time>
      </trkpt>
      <trkpt lat="42.55796" lon="2.0654">
        <ele>1850</ele>
        <time>2020-07-21T09:06:16.113Z</time>
      </trkpt>
      <trkpt lat="42.55799" lon="2.06543">
        <ele>1850</ele>
        <time>2020-07-21T09:06:17.113Z</time>
      </trkpt>
      <trkpt lat="42.55802" lon="2.06544">
        <ele>1849</ele>
        <time>2020-07-21T09:06:18.113Z</time>
      </trkpt>
      <trkpt lat="42.55805" lon="2.06545">
        <ele>1848</ele>
        <time>2020-07-21T09:06:19.113Z</time>
      </trkpt>
      <trkpt lat="42.55809" lon="2.06544">
        <ele>1849</ele>
        <time>2020-07-21T09:06:20.113Z</time>
      </trkpt>
      <trkpt lat="42.55812" lon="2.06544">
        <ele>1850</ele>
        <time>2020-07-21T09:06:21.113Z</time>
      </trkpt>
      <trkpt lat="42.55816" lon="2.06544">
        <ele>1850</ele>
        <time>2020-07-21T09:06:22.113Z</time>
      </trkpt>
      <trkpt lat="42.55819" lon="2.06544">
        <ele>1850</ele>
        <time>2020-07-21T09:06:23.113Z</time>
      </trkpt>
      <trkpt lat="42.55822" lon="2.06543">
        <ele>1849</ele>
        <time>2020-07-21T09:06:24.113Z</time>
      </trkpt>
      <trkpt lat="42.55825" lon="2.06543">
        <ele>1848</ele>
        <time>2020-07-21T09:06:25.113Z</time>
      </trkpt>
      <trkpt lat="42.55829" lon="2.06542">
        <ele>1847</ele>
        <time>2020-07-21T09:06:26.113Z</time>
      </trkpt>
      <trkpt lat="42.55831" lon="2.06541">
        <ele>1848</ele>
        <time>2020-07-21T09:06:27.113Z</time>
      </trkpt>
      <trkpt lat="42.55834" lon="2.0654">
        <ele>1848</ele>
        <time>2020-07-21T09:06:28.113Z</time>
      </trkpt>
      <trkpt lat="42.55838" lon="2.06538">
        <ele>1850</ele>
        <time>2020-07-21T09:06:29.113Z</time>
      </trkpt>
      <trkpt lat="42.55841" lon="2.06537">
        <ele>1850</ele>
        <time>2020-07-21T09:06:30.113Z</time>
      </trkpt>
      <trkpt lat="42.55845" lon="2.06535">
        <ele>1850</ele>
        <time>2020-07-21T09:06:31.113Z</time>
      </trkpt>
      <trkpt lat="42.55848" lon="2.06533">
        <ele>1849</ele>
        <time>2020-07-21T09:06:32.113Z</time>
      </trkpt>
      <trkpt lat="42.55851" lon="2.06531">
        <ele>1849</ele>
        <time>2020-07-21T09:06:33.113Z</time>
      </trkpt>
      <trkpt lat="42.55854" lon="2.06528">
        <ele>1847</ele>
        <time>2020-07-21T09:06:34.113Z</time>
      </trkpt>
      <trkpt lat="42.55858" lon="2.06525">
        <ele>1846</ele>
        <time>2020-07-21T09:06:35.113Z</time>
      </trkpt>
      <trkpt lat="42.55861" lon="2.06521">
        <ele>1844</ele>
        <time>2020-07-21T09:06:36.113Z</time>
      </trkpt>
      <trkpt lat="42.55864" lon="2.06517">
        <ele>1842</ele>
        <time>2020-07-21T09:06:37.113Z</time>
      </trkpt>
      <trkpt lat="42.55867" lon="2.06513">
        <ele>1839</ele>
        <time>2020-07-21T09:06:38.113Z</time>
      </trkpt>
      <trkpt lat="42.55871" lon="2.0651">
        <ele>1837</ele>
        <time>2020-07-21T09:06:39.113Z</time>
      </trkpt>
      <trkpt lat="42.55874" lon="2.06506">
        <ele>1836</ele>
        <time>2020-07-21T09:06:40.113Z</time>
      </trkpt>
      <trkpt lat="42.55877" lon="2.06504">
        <ele>1835</ele>
        <time>2020-07-21T09:06:41.113Z</time>
      </trkpt>
      <trkpt lat="42.5588" lon="2.06502">
        <ele>1833</ele>
        <time>2020-07-21T09:06:42.113Z</time>
      </trkpt>
      <trkpt lat="42.55883" lon="2.065">
        <ele>1832</ele>
        <time>2020-07-21T09:06:43.113Z</time>
      </trkpt>
      <trkpt lat="42.55885" lon="2.06498">
        <ele>1831</ele>
        <time>2020-07-21T09:06:44.113Z</time>
      </trkpt>
      <trkpt lat="42.55888" lon="2.06497">
        <ele>1832</ele>
        <time>2020-07-21T09:06:45.113Z</time>
      </trkpt>
      <trkpt lat="42.55891" lon="2.06496">
        <ele>1833</ele>
        <time>2020-07-21T09:06:46.113Z</time>
      </trkpt>
      <trkpt lat="42.55894" lon="2.06496">
        <ele>1833</ele>
        <time>2020-07-21T09:06:47.113Z</time>
      </trkpt>
      <trkpt lat="42.55897" lon="2.06495">
        <ele>1833</ele>
        <time>2020-07-21T09:06:48.113Z</time>
      </trkpt>
      <trkpt lat="42.559" lon="2.06495">
        <ele>1834</ele>
        <time>2020-07-21T09:06:49.113Z</time>
      </trkpt>
      <trkpt lat="42.55904" lon="2.06495">
        <ele>1834</ele>
        <time>2020-07-21T09:06:50.113Z</time>
      </trkpt>
      <trkpt lat="42.55907" lon="2.06494">
        <ele>1833</ele>
        <time>2020-07-21T09:06:51.113Z</time>
      </trkpt>
      <trkpt lat="42.5591" lon="2.06493">
        <ele>1833</ele>
        <time>2020-07-21T09:06:52.113Z</time>
      </trkpt>
      <trkpt lat="42.55914" lon="2.06492">
        <ele>1833</ele>
        <time>2020-07-21T09:06:53.113Z</time>
      </trkpt>
      <trkpt lat="42.55917" lon="2.06492">
        <ele>1832</ele>
        <time>2020-07-21T09:06:54.113Z</time>
      </trkpt>
      <trkpt lat="42.5592" lon="2.06491">
        <ele>1832</ele>
        <time>2020-07-21T09:06:55.113Z</time>
      </trkpt>
      <trkpt lat="42.55923" lon="2.06491">
        <ele>1832</ele>
        <time>2020-07-21T09:06:56.113Z</time>
      </trkpt>
      <trkpt lat="42.55925" lon="2.0649">
        <ele>1831</ele>
        <time>2020-07-21T09:06:57.113Z</time>
      </trkpt>
      <trkpt lat="42.55928" lon="2.06488">
        <ele>1831</ele>
        <time>2020-07-21T09:06:58.113Z</time>
      </trkpt>
      <trkpt lat="42.55931" lon="2.06486">
        <ele>1831</ele>
        <time>2020-07-21T09:06:59.113Z</time>
      </trkpt>
      <trkpt lat="42.55933" lon="2.06484">
        <ele>1831</ele>
        <time>2020-07-21T09:07:00.113Z</time>
      </trkpt>
      <trkpt lat="42.55937" lon="2.06482">
        <ele>1831</ele>
        <time>2020-07-21T09:07:01.113Z</time>
      </trkpt>
      <trkpt lat="42.55941" lon="2.06481">
        <ele>1830</ele>
        <time>2020-07-21T09:07:02.113Z</time>
      </trkpt>
      <trkpt lat="42.55945" lon="2.06479">
        <ele>1830</ele>
        <time>2020-07-21T09:07:03.113Z</time>
      </trkpt>
      <trkpt lat="42.55948" lon="2.06477">
        <ele>1832</ele>
        <time>2020-07-21T09:07:04.113Z</time>
      </trkpt>
      <trkpt lat="42.55952" lon="2.06476">
        <ele>1831</ele>
        <time>2020-07-21T09:07:05.113Z</time>
      </trkpt>
      <trkpt lat="42.55956" lon="2.06474">
        <ele>1832</ele>
        <time>2020-07-21T09:07:06.113Z</time>
      </trkpt>
      <trkpt lat="42.55959" lon="2.06473">
        <ele>1832</ele>
        <time>2020-07-21T09:07:07.113Z</time>
      </trkpt>
      <trkpt lat="42.55963" lon="2.06471">
        <ele>1833</ele>
        <time>2020-07-21T09:07:08.113Z</time>
      </trkpt>
      <trkpt lat="42.55967" lon="2.06469">
        <ele>1831</ele>
        <time>2020-07-21T09:07:09.113Z</time>
      </trkpt>
      <trkpt lat="42.55971" lon="2.06467">
        <ele>1831</ele>
        <time>2020-07-21T09:07:10.113Z</time>
      </trkpt>
      <trkpt lat="42.55976" lon="2.06466">
        <ele>1831</ele>
        <time>2020-07-21T09:07:11.113Z</time>
      </trkpt>
      <trkpt lat="42.5598" lon="2.06463">
        <ele>1830</ele>
        <time>2020-07-21T09:07:12.113Z</time>
      </trkpt>
      <trkpt lat="42.55984" lon="2.06461">
        <ele>1829</ele>
        <time>2020-07-21T09:07:13.113Z</time>
      </trkpt>
      <trkpt lat="42.55988" lon="2.06459">
        <ele>1828</ele>
        <time>2020-07-21T09:07:14.113Z</time>
      </trkpt>
      <trkpt lat="42.55991" lon="2.06456">
        <ele>1828</ele>
        <time>2020-07-21T09:07:15.113Z</time>
      </trkpt>
      <trkpt lat="42.55994" lon="2.06454">
        <ele>1829</ele>
        <time>2020-07-21T09:07:16.113Z</time>
      </trkpt>
      <trkpt lat="42.55998" lon="2.06451">
        <ele>1829</ele>
        <time>2020-07-21T09:07:17.113Z</time>
      </trkpt>
      <trkpt lat="42.56001" lon="2.06448">
        <ele>1829</ele>
        <time>2020-07-21T09:07:18.113Z</time>
      </trkpt>
      <trkpt lat="42.56005" lon="2.06445">
        <ele>1828</ele>
        <time>2020-07-21T09:07:19.113Z</time>
      </trkpt>
      <trkpt lat="42.56008" lon="2.06443">
        <ele>1827</ele>
        <time>2020-07-21T09:07:20.113Z</time>
      </trkpt>
      <trkpt lat="42.56011" lon="2.06439">
        <ele>1826</ele>
        <time>2020-07-21T09:07:21.113Z</time>
      </trkpt>
      <trkpt lat="42.56014" lon="2.06436">
        <ele>1826</ele>
        <time>2020-07-21T09:07:22.113Z</time>
      </trkpt>
      <trkpt lat="42.56016" lon="2.06432">
        <ele>1825</ele>
        <time>2020-07-21T09:07:23.113Z</time>
      </trkpt>
      <trkpt lat="42.56019" lon="2.06428">
        <ele>1825</ele>
        <time>2020-07-21T09:07:24.113Z</time>
      </trkpt>
      <trkpt lat="42.56021" lon="2.06424">
        <ele>1824</ele>
        <time>2020-07-21T09:07:25.113Z</time>
      </trkpt>
      <trkpt lat="42.56023" lon="2.0642">
        <ele>1823</ele>
        <time>2020-07-21T09:07:26.113Z</time>
      </trkpt>
      <trkpt lat="42.56025" lon="2.06416">
        <ele>1823</ele>
        <time>2020-07-21T09:07:27.113Z</time>
      </trkpt>
      <trkpt lat="42.56027" lon="2.06413">
        <ele>1823</ele>
        <time>2020-07-21T09:07:28.113Z</time>
      </trkpt>
      <trkpt lat="42.56029" lon="2.06409">
        <ele>1822</ele>
        <time>2020-07-21T09:07:29.113Z</time>
      </trkpt>
      <trkpt lat="42.56031" lon="2.06406">
        <ele>1822</ele>
        <time>2020-07-21T09:07:30.113Z</time>
      </trkpt>
      <trkpt lat="42.56033" lon="2.06402">
        <ele>1821</ele>
        <time>2020-07-21T09:07:31.113Z</time>
      </trkpt>
      <trkpt lat="42.56035" lon="2.064">
        <ele>1821</ele>
        <time>2020-07-21T09:07:32.113Z</time>
      </trkpt>
      <trkpt lat="42.56038" lon="2.06398">
        <ele>1821</ele>
        <time>2020-07-21T09:07:33.113Z</time>
      </trkpt>
      <trkpt lat="42.5604" lon="2.06395">
        <ele>1821</ele>
        <time>2020-07-21T09:07:34.113Z</time>
      </trkpt>
      <trkpt lat="42.56043" lon="2.06393">
        <ele>1822</ele>
        <time>2020-07-21T09:07:35.113Z</time>
      </trkpt>
      <trkpt lat="42.56046" lon="2.06391">
        <ele>1822</ele>
        <time>2020-07-21T09:07:36.113Z</time>
      </trkpt>
      <trkpt lat="42.56049" lon="2.06389">
        <ele>1822</ele>
        <time>2020-07-21T09:07:37.113Z</time>
      </trkpt>
      <trkpt lat="42.56052" lon="2.06387">
        <ele>1823</ele>
        <time>2020-07-21T09:07:38.113Z</time>
      </trkpt>
      <trkpt lat="42.56055" lon="2.06385">
        <ele>1822</ele>
        <time>2020-07-21T09:07:39.113Z</time>
      </trkpt>
      <trkpt lat="42.56058" lon="2.06383">
        <ele>1822</ele>
        <time>2020-07-21T09:07:40.113Z</time>
      </trkpt>
      <trkpt lat="42.56062" lon="2.0638">
        <ele>1823</ele>
        <time>2020-07-21T09:07:41.113Z</time>
      </trkpt>
      <trkpt lat="42.56065" lon="2.06378">
        <ele>1822</ele>
        <time>2020-07-21T09:07:42.113Z</time>
      </trkpt>
      <trkpt lat="42.56068" lon="2.06376">
        <ele>1822</ele>
        <time>2020-07-21T09:07:43.113Z</time>
      </trkpt>
      <trkpt lat="42.56071" lon="2.06375">
        <ele>1822</ele>
        <time>2020-07-21T09:07:44.113Z</time>
      </trkpt>
      <trkpt lat="42.56075" lon="2.06373">
        <ele>1822</ele>
        <time>2020-07-21T09:07:45.113Z</time>
      </trkpt>
      <trkpt lat="42.56078" lon="2.06371">
        <ele>1822</ele>
        <time>2020-07-21T09:07:46.113Z</time>
      </trkpt>
      <trkpt lat="42.56081" lon="2.06369">
        <ele>1821</ele>
        <time>2020-07-21T09:07:47.113Z</time>
      </trkpt>
      <trkpt lat="42.56084" lon="2.06367">
        <ele>1822</ele>
        <time>2020-07-21T09:07:48.113Z</time>
      </trkpt>
      <trkpt lat="42.56088" lon="2.06366">
        <ele>1822</ele>
        <time>2020-07-21T09:07:49.113Z</time>
      </trkpt>
      <trkpt lat="42.56091" lon="2.06364">
        <ele>1822</ele>
        <time>2020-07-21T09:07:50.113Z</time>
      </trkpt>
      <trkpt lat="42.56095" lon="2.06363">
        <ele>1822</ele>
        <time>2020-07-21T09:07:51.113Z</time>
      </trkpt>
      <trkpt lat="42.56099" lon="2.06361">
        <ele>1822</ele>
        <time>2020-07-21T09:07:52.113Z</time>
      </trkpt>
      <trkpt lat="42.56102" lon="2.0636">
        <ele>1822</ele>
        <time>2020-07-21T09:07:53.113Z</time>
      </trkpt>
      <trkpt lat="42.56105" lon="2.06358">
        <ele>1821</ele>
        <time>2020-07-21T09:07:54.113Z</time>
      </trkpt>
      <trkpt lat="42.56108" lon="2.06357">
        <ele>1820</ele>
        <time>2020-07-21T09:07:55.113Z</time>
      </trkpt>
      <trkpt lat="42.56111" lon="2.06355">
        <ele>1820</ele>
        <time>2020-07-21T09:07:56.113Z</time>
      </trkpt>
      <trkpt lat="42.56114" lon="2.06353">
        <ele>1820</ele>
        <time>2020-07-21T09:07:57.113Z</time>
      </trkpt>
      <trkpt lat="42.56117" lon="2.06352">
        <ele>1819</ele>
        <time>2020-07-21T09:07:58.113Z</time>
      </trkpt>
      <trkpt lat="42.56121" lon="2.06351">
        <ele>1818</ele>
        <time>2020-07-21T09:07:59.113Z</time>
      </trkpt>
      <trkpt lat="42.56124" lon="2.0635">
        <ele>1818</ele>
        <time>2020-07-21T09:08:00.113Z</time>
      </trkpt>
      <trkpt lat="42.56127" lon="2.06348">
        <ele>1817</ele>
        <time>2020-07-21T09:08:01.113Z</time>
      </trkpt>
      <trkpt lat="42.5613" lon="2.06347">
        <ele>1816</ele>
        <time>2020-07-21T09:08:02.113Z</time>
      </trkpt>
      <trkpt lat="42.56132" lon="2.06347">
        <ele>1816</ele>
        <time>2020-07-21T09:08:03.113Z</time>
      </trkpt>
      <trkpt lat="42.56135" lon="2.06347">
        <ele>1817</ele>
        <time>2020-07-21T09:08:04.113Z</time>
      </trkpt>
      <trkpt lat="42.56138" lon="2.06348">
        <ele>1817</ele>
        <time>2020-07-21T09:08:05.113Z</time>
      </trkpt>
      <trkpt lat="42.56141" lon="2.06351">
        <ele>1820</ele>
        <time>2020-07-21T09:08:06.113Z</time>
      </trkpt>
      <trkpt lat="42.56143" lon="2.06355">
        <ele>1820</ele>
        <time>2020-07-21T09:08:07.113Z</time>
      </trkpt>
      <trkpt lat="42.56146" lon="2.06359">
        <ele>1819</ele>
        <time>2020-07-21T09:08:08.113Z</time>
      </trkpt>
      <trkpt lat="42.56149" lon="2.06362">
        <ele>1819</ele>
        <time>2020-07-21T09:08:09.113Z</time>
      </trkpt>
      <trkpt lat="42.56151" lon="2.06365">
        <ele>1818</ele>
        <time>2020-07-21T09:08:10.113Z</time>
      </trkpt>
      <trkpt lat="42.56154" lon="2.06369">
        <ele>1818</ele>
        <time>2020-07-21T09:08:11.113Z</time>
      </trkpt>
      <trkpt lat="42.56156" lon="2.06372">
        <ele>1819</ele>
        <time>2020-07-21T09:08:12.113Z</time>
      </trkpt>
      <trkpt lat="42.56158" lon="2.06375">
        <ele>1818</ele>
        <time>2020-07-21T09:08:13.113Z</time>
      </trkpt>
      <trkpt lat="42.5616" lon="2.06378">
        <ele>1818</ele>
        <time>2020-07-21T09:08:14.113Z</time>
      </trkpt>
      <trkpt lat="42.56163" lon="2.06381">
        <ele>1817</ele>
        <time>2020-07-21T09:08:15.113Z</time>
      </trkpt>
      <trkpt lat="42.56165" lon="2.06384">
        <ele>1817</ele>
        <time>2020-07-21T09:08:16.113Z</time>
      </trkpt>
      <trkpt lat="42.56167" lon="2.06386">
        <ele>1817</ele>
        <time>2020-07-21T09:08:17.113Z</time>
      </trkpt>
      <trkpt lat="42.56169" lon="2.06389">
        <ele>1817</ele>
        <time>2020-07-21T09:08:18.113Z</time>
      </trkpt>
      <trkpt lat="42.56171" lon="2.06392">
        <ele>1818</ele>
        <time>2020-07-21T09:08:19.113Z</time>
      </trkpt>
      <trkpt lat="42.56174" lon="2.06395">
        <ele>1818</ele>
        <time>2020-07-21T09:08:20.113Z</time>
      </trkpt>
      <trkpt lat="42.56177" lon="2.06398">
        <ele>1820</ele>
        <time>2020-07-21T09:08:21.113Z</time>
      </trkpt>
      <trkpt lat="42.5618" lon="2.06401">
        <ele>1820</ele>
        <time>2020-07-21T09:08:22.113Z</time>
      </trkpt>
      <trkpt lat="42.56183" lon="2.06403">
        <ele>1820</ele>
        <time>2020-07-21T09:08:23.113Z</time>
      </trkpt>
      <trkpt lat="42.56186" lon="2.06405">
        <ele>1820</ele>
        <time>2020-07-21T09:08:24.113Z</time>
      </trkpt>
      <trkpt lat="42.56189" lon="2.06407">
        <ele>1819</ele>
        <time>2020-07-21T09:08:25.113Z</time>
      </trkpt>
      <trkpt lat="42.56192" lon="2.06408">
        <ele>1819</ele>
        <time>2020-07-21T09:08:26.113Z</time>
      </trkpt>
      <trkpt lat="42.56196" lon="2.06409">
        <ele>1818</ele>
        <time>2020-07-21T09:08:27.113Z</time>
      </trkpt>
      <trkpt lat="42.56199" lon="2.06411">
        <ele>1818</ele>
        <time>2020-07-21T09:08:28.113Z</time>
      </trkpt>
      <trkpt lat="42.56202" lon="2.06412">
        <ele>1819</ele>
        <time>2020-07-21T09:08:29.113Z</time>
      </trkpt>
      <trkpt lat="42.56205" lon="2.06414">
        <ele>1820</ele>
        <time>2020-07-21T09:08:30.113Z</time>
      </trkpt>
      <trkpt lat="42.56208" lon="2.06416">
        <ele>1820</ele>
        <time>2020-07-21T09:08:31.113Z</time>
      </trkpt>
      <trkpt lat="42.56211" lon="2.06417">
        <ele>1820</ele>
        <time>2020-07-21T09:08:32.113Z</time>
      </trkpt>
      <trkpt lat="42.56214" lon="2.06418">
        <ele>1820</ele>
        <time>2020-07-21T09:08:33.113Z</time>
      </trkpt>
      <trkpt lat="42.56217" lon="2.06418">
        <ele>1819</ele>
        <time>2020-07-21T09:08:34.113Z</time>
      </trkpt>
      <trkpt lat="42.56221" lon="2.06418">
        <ele>1819</ele>
        <time>2020-07-21T09:08:35.113Z</time>
      </trkpt>
      <trkpt lat="42.56224" lon="2.06417">
        <ele>1816</ele>
        <time>2020-07-21T09:08:36.113Z</time>
      </trkpt>
      <trkpt lat="42.56229" lon="2.06414">
        <ele>1814</ele>
        <time>2020-07-21T09:08:37.113Z</time>
      </trkpt>
      <trkpt lat="42.56233" lon="2.06411">
        <ele>1814</ele>
        <time>2020-07-21T09:08:38.113Z</time>
      </trkpt>
      <trkpt lat="42.56237" lon="2.06409">
        <ele>1815</ele>
        <time>2020-07-21T09:08:39.113Z</time>
      </trkpt>
      <trkpt lat="42.5624" lon="2.06407">
        <ele>1815</ele>
        <time>2020-07-21T09:08:40.113Z</time>
      </trkpt>
      <trkpt lat="42.56243" lon="2.06405">
        <ele>1815</ele>
        <time>2020-07-21T09:08:41.113Z</time>
      </trkpt>
      <trkpt lat="42.56247" lon="2.06403">
        <ele>1814</ele>
        <time>2020-07-21T09:08:42.113Z</time>
      </trkpt>
      <trkpt lat="42.5625" lon="2.06403">
        <ele>1814</ele>
        <time>2020-07-21T09:08:43.113Z</time>
      </trkpt>
      <trkpt lat="42.56254" lon="2.06405">
        <ele>1813</ele>
        <time>2020-07-21T09:08:44.113Z</time>
      </trkpt>
      <trkpt lat="42.56258" lon="2.06409">
        <ele>1813</ele>
        <time>2020-07-21T09:08:45.113Z</time>
      </trkpt>
      <trkpt lat="42.56261" lon="2.06413">
        <ele>1812</ele>
        <time>2020-07-21T09:08:46.113Z</time>
      </trkpt>
      <trkpt lat="42.56264" lon="2.06417">
        <ele>1812</ele>
        <time>2020-07-21T09:08:47.113Z</time>
      </trkpt>
      <trkpt lat="42.56266" lon="2.0642">
        <ele>1812</ele>
        <time>2020-07-21T09:08:48.113Z</time>
      </trkpt>
      <trkpt lat="42.56269" lon="2.06423">
        <ele>1812</ele>
        <time>2020-07-21T09:08:49.113Z</time>
      </trkpt>
      <trkpt lat="42.56271" lon="2.06426">
        <ele>1810</ele>
        <time>2020-07-21T09:08:50.113Z</time>
      </trkpt>
      <trkpt lat="42.56273" lon="2.0643">
        <ele>1810</ele>
        <time>2020-07-21T09:08:51.113Z</time>
      </trkpt>
      <trkpt lat="42.56275" lon="2.06434">
        <ele>1809</ele>
        <time>2020-07-21T09:08:52.113Z</time>
      </trkpt>
      <trkpt lat="42.56277" lon="2.06439">
        <ele>1808</ele>
        <time>2020-07-21T09:08:53.113Z</time>
      </trkpt>
      <trkpt lat="42.56279" lon="2.06443">
        <ele>1807</ele>
        <time>2020-07-21T09:08:54.113Z</time>
      </trkpt>
      <trkpt lat="42.56281" lon="2.06447">
        <ele>1807</ele>
        <time>2020-07-21T09:08:55.113Z</time>
      </trkpt>
      <trkpt lat="42.56283" lon="2.06452">
        <ele>1806</ele>
        <time>2020-07-21T09:08:56.113Z</time>
      </trkpt>
      <trkpt lat="42.56285" lon="2.06456">
        <ele>1806</ele>
        <time>2020-07-21T09:08:57.113Z</time>
      </trkpt>
      <trkpt lat="42.56287" lon="2.06461">
        <ele>1806</ele>
        <time>2020-07-21T09:08:58.113Z</time>
      </trkpt>
      <trkpt lat="42.56289" lon="2.06465">
        <ele>1805</ele>
        <time>2020-07-21T09:08:59.113Z</time>
      </trkpt>
      <trkpt lat="42.56292" lon="2.0647">
        <ele>1804</ele>
        <time>2020-07-21T09:09:00.113Z</time>
      </trkpt>
      <trkpt lat="42.56294" lon="2.06474">
        <ele>1803</ele>
        <time>2020-07-21T09:09:01.113Z</time>
      </trkpt>
      <trkpt lat="42.56296" lon="2.06478">
        <ele>1803</ele>
        <time>2020-07-21T09:09:02.113Z</time>
      </trkpt>
      <trkpt lat="42.56298" lon="2.06482">
        <ele>1802</ele>
        <time>2020-07-21T09:09:03.113Z</time>
      </trkpt>
      <trkpt lat="42.563" lon="2.06485">
        <ele>1802</ele>
        <time>2020-07-21T09:09:04.113Z</time>
      </trkpt>
      <trkpt lat="42.56303" lon="2.06489">
        <ele>1802</ele>
        <time>2020-07-21T09:09:05.113Z</time>
      </trkpt>
      <trkpt lat="42.56305" lon="2.06493">
        <ele>1802</ele>
        <time>2020-07-21T09:09:06.113Z</time>
      </trkpt>
      <trkpt lat="42.56307" lon="2.06497">
        <ele>1802</ele>
        <time>2020-07-21T09:09:07.113Z</time>
      </trkpt>
      <trkpt lat="42.56309" lon="2.06501">
        <ele>1802</ele>
        <time>2020-07-21T09:09:08.113Z</time>
      </trkpt>
      <trkpt lat="42.56311" lon="2.06505">
        <ele>1802</ele>
        <time>2020-07-21T09:09:09.113Z</time>
      </trkpt>
      <trkpt lat="42.56313" lon="2.06509">
        <ele>1802</ele>
        <time>2020-07-21T09:09:10.113Z</time>
      </trkpt>
      <trkpt lat="42.56315" lon="2.06513">
        <ele>1802</ele>
        <time>2020-07-21T09:09:11.113Z</time>
      </trkpt>
      <trkpt lat="42.56316" lon="2.06517">
        <ele>1801</ele>
        <time>2020-07-21T09:09:12.113Z</time>
      </trkpt>
      <trkpt lat="42.56318" lon="2.06521">
        <ele>1802</ele>
        <time>2020-07-21T09:09:13.113Z</time>
      </trkpt>
      <trkpt lat="42.5632" lon="2.06525">
        <ele>1801</ele>
        <time>2020-07-21T09:09:14.113Z</time>
      </trkpt>
      <trkpt lat="42.56322" lon="2.06529">
        <ele>1801</ele>
        <time>2020-07-21T09:09:15.113Z</time>
      </trkpt>
      <trkpt lat="42.56325" lon="2.06532">
        <ele>1800</ele>
        <time>2020-07-21T09:09:16.113Z</time>
      </trkpt>
      <trkpt lat="42.56327" lon="2.06535">
        <ele>1799</ele>
        <time>2020-07-21T09:09:17.113Z</time>
      </trkpt>
      <trkpt lat="42.56329" lon="2.06538">
        <ele>1799</ele>
        <time>2020-07-21T09:09:18.113Z</time>
      </trkpt>
      <trkpt lat="42.5633" lon="2.06539">
        <ele>1802</ele>
        <time>2020-07-21T09:09:19.113Z</time>
      </trkpt>
      <trkpt lat="42.56331" lon="2.06539">
        <ele>1803</ele>
        <time>2020-07-21T09:09:20.113Z</time>
      </trkpt>
      <trkpt lat="42.5633" lon="2.06539">
        <ele>1804</ele>
        <time>2020-07-21T09:09:21.113Z</time>
      </trkpt>
      <trkpt lat="42.56331" lon="2.06539">
        <ele>1803</ele>
        <time>2020-07-21T09:09:22.113Z</time>
      </trkpt>
      <trkpt lat="42.56331" lon="2.06539">
        <ele>1804</ele>
        <time>2020-07-21T09:09:23.113Z</time>
      </trkpt>
      <trkpt lat="42.56331" lon="2.06539">
        <ele>1804</ele>
        <time>2020-07-21T09:09:24.113Z</time>
      </trkpt>
      <trkpt lat="42.56331" lon="2.06539">
        <ele>1804</ele>
        <time>2020-07-21T09:09:25.113Z</time>
      </trkpt>
      <trkpt lat="42.56331" lon="2.06539">
        <ele>1804</ele>
        <time>2020-07-21T09:09:26.113Z</time>
      </trkpt>
      <trkpt lat="42.56332" lon="2.06539">
        <ele>1804</ele>
        <time>2020-07-21T09:09:27.113Z</time>
      </trkpt>
      <trkpt lat="42.56332" lon="2.06539">
        <ele>1804</ele>
        <time>2020-07-21T09:09:28.113Z</time>
      </trkpt>
      <trkpt lat="42.56332" lon="2.06538">
        <ele>1804</ele>
        <time>2020-07-21T09:09:29.113Z</time>
      </trkpt>
      <trkpt lat="42.56332" lon="2.06538">
        <ele>1803</ele>
        <time>2020-07-21T09:09:30.113Z</time>
      </trkpt>
      <trkpt lat="42.56332" lon="2.06538">
        <ele>1803</ele>
        <time>2020-07-21T09:09:31.113Z</time>
      </trkpt>
      <trkpt lat="42.56332" lon="2.06538">
        <ele>1803</ele>
        <time>2020-07-21T09:09:32.113Z</time>
      </trkpt>
      <trkpt lat="42.56332" lon="2.06537">
        <ele>1802</ele>
        <time>2020-07-21T09:09:33.113Z</time>
      </trkpt>
      <trkpt lat="42.56333" lon="2.06537">
        <ele>1802</ele>
        <time>2020-07-21T09:09:34.113Z</time>
      </trkpt>
      <trkpt lat="42.56333" lon="2.06537">
        <ele>1802</ele>
        <time>2020-07-21T09:09:35.113Z</time>
      </trkpt>
      <trkpt lat="42.56333" lon="2.06537">
        <ele>1801</ele>
        <time>2020-07-21T09:09:36.113Z</time>
      </trkpt>
      <trkpt lat="42.56333" lon="2.06537">
        <ele>1801</ele>
        <time>2020-07-21T09:09:37.113Z</time>
      </trkpt>
      <trkpt lat="42.56333" lon="2.06537">
        <ele>1801</ele>
        <time>2020-07-21T09:09:38.113Z</time>
      </trkpt>
      <trkpt lat="42.56333" lon="2.06537">
        <ele>1801</ele>
        <time>2020-07-21T09:09:39.113Z</time>
      </trkpt>
      <trkpt lat="42.56333" lon="2.06536">
        <ele>1801</ele>
        <time>2020-07-21T09:09:40.113Z</time>
      </trkpt>
      <trkpt lat="42.56333" lon="2.06536">
        <ele>1801</ele>
        <time>2020-07-21T09:09:41.113Z</time>
      </trkpt>
      <trkpt lat="42.56333" lon="2.06536">
        <ele>1801</ele>
        <time>2020-07-21T09:09:42.113Z</time>
      </trkpt>
      <trkpt lat="42.56333" lon="2.06536">
        <ele>1801</ele>
        <time>2020-07-21T09:09:43.113Z</time>
      </trkpt>
      <trkpt lat="42.56333" lon="2.06537">
        <ele>1801</ele>
        <time>2020-07-21T09:09:44.113Z</time>
      </trkpt>
      <trkpt lat="42.56333" lon="2.06537">
        <ele>1801</ele>
        <time>2020-07-21T09:09:45.113Z</time>
      </trkpt>
      <trkpt lat="42.56333" lon="2.06537">
        <ele>1801</ele>
        <time>2020-07-21T09:09:46.113Z</time>
      </trkpt>
      <trkpt lat="42.56333" lon="2.06537">
        <ele>1802</ele>
        <time>2020-07-21T09:09:47.113Z</time>
      </trkpt>
      <trkpt lat="42.56333" lon="2.06537">
        <ele>1802</ele>
        <time>2020-07-21T09:09:48.113Z</time>
      </trkpt>
      <trkpt lat="42.56332" lon="2.06537">
        <ele>1802</ele>
        <time>2020-07-21T09:09:49.113Z</time>
      </trkpt>
      <trkpt lat="42.56332" lon="2.06537">
        <ele>1802</ele>
        <time>2020-07-21T09:09:50.113Z</time>
      </trkpt>
      <trkpt lat="42.56332" lon="2.06537">
        <ele>1803</ele>
        <time>2020-07-21T09:09:51.113Z</time>
      </trkpt>
      <trkpt lat="42.56332" lon="2.06537">
        <ele>1803</ele>
        <time>2020-07-21T09:09:52.113Z</time>
      </trkpt>
      <trkpt lat="42.56332" lon="2.06537">
        <ele>1803</ele>
        <time>2020-07-21T09:09:53.113Z</time>
      </trkpt>
      <trkpt lat="42.56332" lon="2.06537">
        <ele>1803</ele>
        <time>2020-07-21T09:09:54.113Z</time>
      </trkpt>
      <trkpt lat="42.56332" lon="2.06537">
        <ele>1803</ele>
        <time>2020-07-21T09:09:55.113Z</time>
      </trkpt>
      <trkpt lat="42.56331" lon="2.06536">
        <ele>1803</ele>
        <time>2020-07-21T09:09:56.113Z</time>
      </trkpt>
      <trkpt lat="42.56331" lon="2.06536">
        <ele>1803</ele>
        <time>2020-07-21T09:09:57.113Z</time>
      </trkpt>
      <trkpt lat="42.56331" lon="2.06536">
        <ele>1803</ele>
        <time>2020-07-21T09:09:58.113Z</time>
      </trkpt>
      <trkpt lat="42.56331" lon="2.06536">
        <ele>1803</ele>
        <time>2020-07-21T09:09:59.113Z</time>
      </trkpt>
      <trkpt lat="42.56331" lon="2.06536">
        <ele>1802</ele>
        <time>2020-07-21T09:10:00.113Z</time>
      </trkpt>
      <trkpt lat="42.56331" lon="2.06536">
        <ele>1802</ele>
        <time>2020-07-21T09:10:01.113Z</time>
      </trkpt>
      <trkpt lat="42.56331" lon="2.06536">
        <ele>1802</ele>
        <time>2020-07-21T09:10:02.113Z</time>
      </trkpt>
      <trkpt lat="42.56331" lon="2.06536">
        <ele>1802</ele>
        <time>2020-07-21T09:10:03.113Z</time>
      </trkpt>
      <trkpt lat="42.56331" lon="2.06536">
        <ele>1802</ele>
        <time>2020-07-21T09:10:04.113Z</time>
      </trkpt>
      <trkpt lat="42.56331" lon="2.06536">
        <ele>1802</ele>
        <time>2020-07-21T09:10:05.113Z</time>
      </trkpt>
      <trkpt lat="42.56331" lon="2.06536">
        <ele>1802</ele>
        <time>2020-07-21T09:10:06.113Z</time>
      </trkpt>
      <trkpt lat="42.56331" lon="2.06536">
        <ele>1802</ele>
        <time>2020-07-21T09:10:07.113Z</time>
      </trkpt>
      <trkpt lat="42.56331" lon="2.06536">
        <ele>1802</ele>
        <time>2020-07-21T09:10:08.113Z</time>
      </trkpt>
      <trkpt lat="42.56331" lon="2.06536">
        <ele>1802</ele>
        <time>2020-07-21T09:10:09.113Z</time>
      </trkpt>
      <trkpt lat="42.56331" lon="2.06536">
        <ele>1802</ele>
        <time>2020-07-21T09:10:10.113Z</time>
      </trkpt>
      <trkpt lat="42.56331" lon="2.06536">
        <ele>1802</ele>
        <time>2020-07-21T09:10:11.113Z</time>
      </trkpt>
      <trkpt lat="42.56331" lon="2.06536">
        <ele>1802</ele>
        <time>2020-07-21T09:10:12.113Z</time>
      </trkpt>
      <trkpt lat="42.56331" lon="2.06536">
        <ele>1802</ele>
        <time>2020-07-21T09:10:13.113Z</time>
      </trkpt>
      <trkpt lat="42.56331" lon="2.06536">
        <ele>1802</ele>
        <time>2020-07-21T09:10:14.113Z</time>
      </trkpt>
      <trkpt lat="42.56331" lon="2.06536">
        <ele>1802</ele>
        <time>2020-07-21T09:10:15.113Z</time>
      </trkpt>
      <trkpt lat="42.56331" lon="2.06536">
        <ele>1802</ele>
        <time>2020-07-21T09:10:16.113Z</time>
      </trkpt>
      <trkpt lat="42.56331" lon="2.06536">
        <ele>1802</ele>
        <time>2020-07-21T09:10:17.113Z</time>
      </trkpt>
      <trkpt lat="42.56331" lon="2.06536">
        <ele>1802</ele>
        <time>2020-07-21T09:10:18.113Z</time>
      </trkpt>
      <trkpt lat="42.56331" lon="2.06536">
        <ele>1802</ele>
        <time>2020-07-21T09:10:19.113Z</time>
      </trkpt>
      <trkpt lat="42.56331" lon="2.06536">
        <ele>1802</ele>
        <time>2020-07-21T09:10:20.113Z</time>
      </trkpt>
      <trkpt lat="42.56331" lon="2.06536">
        <ele>1801</ele>
        <time>2020-07-21T09:10:21.113Z</time>
      </trkpt>
      <trkpt lat="42.56331" lon="2.06536">
        <ele>1801</ele>
        <time>2020-07-21T09:10:22.113Z</time>
      </trkpt>
      <trkpt lat="42.56331" lon="2.06536">
        <ele>1801</ele>
        <time>2020-07-21T09:10:23.113Z</time>
      </trkpt>
      <trkpt lat="42.56331" lon="2.06536">
        <ele>1801</ele>
        <time>2020-07-21T09:10:24.113Z</time>
      </trkpt>
      <trkpt lat="42.56331" lon="2.06536">
        <ele>1801</ele>
        <time>2020-07-21T09:10:25.113Z</time>
      </trkpt>
      <trkpt lat="42.56331" lon="2.06536">
        <ele>1801</ele>
        <time>2020-07-21T09:10:26.113Z</time>
      </trkpt>
      <trkpt lat="42.56331" lon="2.06536">
        <ele>1801</ele>
        <time>2020-07-21T09:10:27.113Z</time>
      </trkpt>
      <trkpt lat="42.56331" lon="2.06536">
        <ele>1801</ele>
        <time>2020-07-21T09:10:28.113Z</time>
      </trkpt>
      <trkpt lat="42.56331" lon="2.06536">
        <ele>1801</ele>
        <time>2020-07-21T09:10:29.113Z</time>
      </trkpt>
      <trkpt lat="42.56331" lon="2.06536">
        <ele>1801</ele>
        <time>2020-07-21T09:10:30.113Z</time>
      </trkpt>
      <trkpt lat="42.56331" lon="2.06536">
        <ele>1801</ele>
        <time>2020-07-21T09:10:31.113Z</time>
      </trkpt>
      <trkpt lat="42.56331" lon="2.06536">
        <ele>1801</ele>
        <time>2020-07-21T09:10:32.113Z</time>
      </trkpt>
      <trkpt lat="42.56331" lon="2.06536">
        <ele>1801</ele>
        <time>2020-07-21T09:10:33.113Z</time>
      </trkpt>
      <trkpt lat="42.56331" lon="2.06536">
        <ele>1801</ele>
        <time>2020-07-21T09:10:34.113Z</time>
      </trkpt>
      <trkpt lat="42.56331" lon="2.06536">
        <ele>1802</ele>
        <time>2020-07-21T09:10:35.113Z</time>
      </trkpt>
      <trkpt lat="42.56331" lon="2.06536">
        <ele>1802</ele>
        <time>2020-07-21T09:10:36.113Z</time>
      </trkpt>
      <trkpt lat="42.56331" lon="2.06536">
        <ele>1802</ele>
        <time>2020-07-21T09:10:37.113Z</time>
      </trkpt>
      <trkpt lat="42.56331" lon="2.06536">
        <ele>1802</ele>
        <time>2020-07-21T09:10:38.113Z</time>
      </trkpt>
      <trkpt lat="42.56331" lon="2.06536">
        <ele>1802</ele>
        <time>2020-07-21T09:10:39.113Z</time>
      </trkpt>
      <trkpt lat="42.56331" lon="2.06536">
        <ele>1802</ele>
        <time>2020-07-21T09:10:40.113Z</time>
      </trkpt>
      <trkpt lat="42.56331" lon="2.06536">
        <ele>1802</ele>
        <time>2020-07-21T09:10:41.113Z</time>
      </trkpt>
      <trkpt lat="42.56331" lon="2.06536">
        <ele>1802</ele>
        <time>2020-07-21T09:10:42.113Z</time>
      </trkpt>
      <trkpt lat="42.56331" lon="2.06536">
        <ele>1802</ele>
        <time>2020-07-21T09:10:43.113Z</time>
      </trkpt>
      <trkpt lat="42.56331" lon="2.06536">
        <ele>1802</ele>
        <time>2020-07-21T09:10:44.113Z</time>
      </trkpt>
      <trkpt lat="42.56331" lon="2.06536">
        <ele>1802</ele>
        <time>2020-07-21T09:10:45.113Z</time>
      </trkpt>
      <trkpt lat="42.56331" lon="2.06536">
        <ele>1802</ele>
        <time>2020-07-21T09:10:46.113Z</time>
      </trkpt>
      <trkpt lat="42.56331" lon="2.06536">
        <ele>1802</ele>
        <time>2020-07-21T09:10:47.113Z</time>
      </trkpt>
      <trkpt lat="42.56331" lon="2.06536">
        <ele>1802</ele>
        <time>2020-07-21T09:10:48.113Z</time>
      </trkpt>
      <trkpt lat="42.56331" lon="2.06536">
        <ele>1802</ele>
        <time>2020-07-21T09:10:49.113Z</time>
      </trkpt>
      <trkpt lat="42.5633" lon="2.06536">
        <ele>1802</ele>
        <time>2020-07-21T09:10:50.113Z</time>
      </trkpt>
      <trkpt lat="42.5633" lon="2.06536">
        <ele>1803</ele>
        <time>2020-07-21T09:10:51.113Z</time>
      </trkpt>
      <trkpt lat="42.5633" lon="2.06536">
        <ele>1803</ele>
        <time>2020-07-21T09:10:52.113Z</time>
      </trkpt>
      <trkpt lat="42.5633" lon="2.06536">
        <ele>1803</ele>
        <time>2020-07-21T09:10:53.113Z</time>
      </trkpt>
      <trkpt lat="42.5633" lon="2.06536">
        <ele>1803</ele>
        <time>2020-07-21T09:10:54.113Z</time>
      </trkpt>
      <trkpt lat="42.5633" lon="2.06536">
        <ele>1803</ele>
        <time>2020-07-21T09:10:55.113Z</time>
      </trkpt>
      <trkpt lat="42.5633" lon="2.06536">
        <ele>1803</ele>
        <time>2020-07-21T09:10:56.113Z</time>
      </trkpt>
      <trkpt lat="42.5633" lon="2.06536">
        <ele>1802</ele>
        <time>2020-07-21T09:10:57.113Z</time>
      </trkpt>
      <trkpt lat="42.5633" lon="2.06536">
        <ele>1802</ele>
        <time>2020-07-21T09:10:58.113Z</time>
      </trkpt>
      <trkpt lat="42.5633" lon="2.06536">
        <ele>1802</ele>
        <time>2020-07-21T09:10:59.113Z</time>
      </trkpt>
      <trkpt lat="42.5633" lon="2.06536">
        <ele>1802</ele>
        <time>2020-07-21T09:11:00.113Z</time>
      </trkpt>
      <trkpt lat="42.5633" lon="2.06536">
        <ele>1802</ele>
        <time>2020-07-21T09:11:01.113Z</time>
      </trkpt>
      <trkpt lat="42.5633" lon="2.06536">
        <ele>1802</ele>
        <time>2020-07-21T09:11:02.113Z</time>
      </trkpt>
      <trkpt lat="42.5633" lon="2.06536">
        <ele>1802</ele>
        <time>2020-07-21T09:11:03.113Z</time>
      </trkpt>
      <trkpt lat="42.5633" lon="2.06536">
        <ele>1802</ele>
        <time>2020-07-21T09:11:04.113Z</time>
      </trkpt>
      <trkpt lat="42.56333" lon="2.06534">
        <ele>1801</ele>
        <time>2020-07-21T09:11:05.086Z</time>
      </trkpt>
      <trkpt lat="42.56334" lon="2.06534">
        <ele>1801</ele>
        <time>2020-07-21T09:11:06.086Z</time>
      </trkpt>
      <trkpt lat="42.56334" lon="2.06532">
        <ele>1801</ele>
        <time>2020-07-21T09:11:07.086Z</time>
      </trkpt>
      <trkpt lat="42.56335" lon="2.0653">
        <ele>1802</ele>
        <time>2020-07-21T09:11:08.086Z</time>
      </trkpt>
      <trkpt lat="42.56337" lon="2.06528">
        <ele>1802</ele>
        <time>2020-07-21T09:11:09.086Z</time>
      </trkpt>
      <trkpt lat="42.56339" lon="2.06525">
        <ele>1802</ele>
        <time>2020-07-21T09:11:10.086Z</time>
      </trkpt>
      <trkpt lat="42.56341" lon="2.06521">
        <ele>1803</ele>
        <time>2020-07-21T09:11:11.086Z</time>
      </trkpt>
      <trkpt lat="42.56343" lon="2.06516">
        <ele>1803</ele>
        <time>2020-07-21T09:11:12.086Z</time>
      </trkpt>
      <trkpt lat="42.56345" lon="2.06513">
        <ele>1803</ele>
        <time>2020-07-21T09:11:13.086Z</time>
      </trkpt>
      <trkpt lat="42.56348" lon="2.06511">
        <ele>1803</ele>
        <time>2020-07-21T09:11:14.086Z</time>
      </trkpt>
      <trkpt lat="42.56352" lon="2.06511">
        <ele>1800</ele>
        <time>2020-07-21T09:11:15.086Z</time>
      </trkpt>
      <trkpt lat="42.56356" lon="2.06514">
        <ele>1802</ele>
        <time>2020-07-21T09:11:16.086Z</time>
      </trkpt>
      <trkpt lat="42.5636" lon="2.06518">
        <ele>1802</ele>
        <time>2020-07-21T09:11:17.086Z</time>
      </trkpt>
      <trkpt lat="42.56363" lon="2.06521">
        <ele>1801</ele>
        <time>2020-07-21T09:11:18.086Z</time>
      </trkpt>
      <trkpt lat="42.56366" lon="2.06523">
        <ele>1801</ele>
        <time>2020-07-21T09:11:19.086Z</time>
      </trkpt>
      <trkpt lat="42.56368" lon="2.06525">
        <ele>1801</ele>
        <time>2020-07-21T09:11:20.086Z</time>
      </trkpt>
      <trkpt lat="42.56371" lon="2.06527">
        <ele>1801</ele>
        <time>2020-07-21T09:11:21.086Z</time>
      </trkpt>
      <trkpt lat="42.56373" lon="2.06529">
        <ele>1801</ele>
        <time>2020-07-21T09:11:22.086Z</time>
      </trkpt>
      <trkpt lat="42.56375" lon="2.06532">
        <ele>1801</ele>
        <time>2020-07-21T09:11:23.086Z</time>
      </trkpt>
      <trkpt lat="42.56377" lon="2.06534">
        <ele>1801</ele>
        <time>2020-07-21T09:11:24.086Z</time>
      </trkpt>
      <trkpt lat="42.5638" lon="2.06535">
        <ele>1801</ele>
        <time>2020-07-21T09:11:25.086Z</time>
      </trkpt>
      <trkpt lat="42.56383" lon="2.06535">
        <ele>1801</ele>
        <time>2020-07-21T09:11:26.086Z</time>
      </trkpt>
      <trkpt lat="42.56387" lon="2.06536">
        <ele>1800</ele>
        <time>2020-07-21T09:11:27.086Z</time>
      </trkpt>
      <trkpt lat="42.5639" lon="2.06535">
        <ele>1799</ele>
        <time>2020-07-21T09:11:28.086Z</time>
      </trkpt>
      <trkpt lat="42.56393" lon="2.06534">
        <ele>1799</ele>
        <time>2020-07-21T09:11:29.086Z</time>
      </trkpt>
      <trkpt lat="42.56396" lon="2.06533">
        <ele>1799</ele>
        <time>2020-07-21T09:11:30.086Z</time>
      </trkpt>
      <trkpt lat="42.56398" lon="2.06532">
        <ele>1799</ele>
        <time>2020-07-21T09:11:31.086Z</time>
      </trkpt>
      <trkpt lat="42.56401" lon="2.0653">
        <ele>1799</ele>
        <time>2020-07-21T09:11:32.086Z</time>
      </trkpt>
      <trkpt lat="42.56404" lon="2.06528">
        <ele>1798</ele>
        <time>2020-07-21T09:11:33.086Z</time>
      </trkpt>
      <trkpt lat="42.56406" lon="2.06525">
        <ele>1799</ele>
        <time>2020-07-21T09:11:34.086Z</time>
      </trkpt>
      <trkpt lat="42.56409" lon="2.06523">
        <ele>1799</ele>
        <time>2020-07-21T09:11:35.086Z</time>
      </trkpt>
      <trkpt lat="42.56412" lon="2.06521">
        <ele>1798</ele>
        <time>2020-07-21T09:11:36.086Z</time>
      </trkpt>
      <trkpt lat="42.56415" lon="2.0652">
        <ele>1798</ele>
        <time>2020-07-21T09:11:37.086Z</time>
      </trkpt>
      <trkpt lat="42.56417" lon="2.06518">
        <ele>1798</ele>
        <time>2020-07-21T09:11:38.086Z</time>
      </trkpt>
      <trkpt lat="42.5642" lon="2.06517">
        <ele>1798</ele>
        <time>2020-07-21T09:11:39.086Z</time>
      </trkpt>
      <trkpt lat="42.56423" lon="2.06517">
        <ele>1798</ele>
        <time>2020-07-21T09:11:40.086Z</time>
      </trkpt>
      <trkpt lat="42.56427" lon="2.06517">
        <ele>1797</ele>
        <time>2020-07-21T09:11:41.086Z</time>
      </trkpt>
      <trkpt lat="42.5643" lon="2.06518">
        <ele>1798</ele>
        <time>2020-07-21T09:11:42.086Z</time>
      </trkpt>
      <trkpt lat="42.56433" lon="2.06518">
        <ele>1798</ele>
        <time>2020-07-21T09:11:43.086Z</time>
      </trkpt>
      <trkpt lat="42.56436" lon="2.06519">
        <ele>1798</ele>
        <time>2020-07-21T09:11:44.086Z</time>
      </trkpt>
      <trkpt lat="42.56439" lon="2.06519">
        <ele>1798</ele>
        <time>2020-07-21T09:11:45.086Z</time>
      </trkpt>
      <trkpt lat="42.56442" lon="2.06519">
        <ele>1799</ele>
        <time>2020-07-21T09:11:46.086Z</time>
      </trkpt>
      <trkpt lat="42.56445" lon="2.0652">
        <ele>1799</ele>
        <time>2020-07-21T09:11:47.086Z</time>
      </trkpt>
      <trkpt lat="42.56448" lon="2.06521">
        <ele>1801</ele>
        <time>2020-07-21T09:11:48.086Z</time>
      </trkpt>
      <trkpt lat="42.5645" lon="2.06522">
        <ele>1801</ele>
        <time>2020-07-21T09:11:49.086Z</time>
      </trkpt>
      <trkpt lat="42.56452" lon="2.06523">
        <ele>1802</ele>
        <time>2020-07-21T09:11:50.086Z</time>
      </trkpt>
      <trkpt lat="42.56454" lon="2.06525">
        <ele>1802</ele>
        <time>2020-07-21T09:11:51.086Z</time>
      </trkpt>
      <trkpt lat="42.56456" lon="2.06527">
        <ele>1802</ele>
        <time>2020-07-21T09:11:52.086Z</time>
      </trkpt>
      <trkpt lat="42.56458" lon="2.06529">
        <ele>1803</ele>
        <time>2020-07-21T09:11:53.086Z</time>
      </trkpt>
      <trkpt lat="42.5646" lon="2.0653">
        <ele>1804</ele>
        <time>2020-07-21T09:11:54.086Z</time>
      </trkpt>
      <trkpt lat="42.56461" lon="2.06532">
        <ele>1804</ele>
        <time>2020-07-21T09:11:55.086Z</time>
      </trkpt>
      <trkpt lat="42.56462" lon="2.06534">
        <ele>1805</ele>
        <time>2020-07-21T09:11:56.086Z</time>
      </trkpt>
      <trkpt lat="42.56464" lon="2.06536">
        <ele>1805</ele>
        <time>2020-07-21T09:11:57.086Z</time>
      </trkpt>
      <trkpt lat="42.56466" lon="2.06538">
        <ele>1805</ele>
        <time>2020-07-21T09:11:58.086Z</time>
      </trkpt>
      <trkpt lat="42.56468" lon="2.0654">
        <ele>1806</ele>
        <time>2020-07-21T09:11:59.086Z</time>
      </trkpt>
      <trkpt lat="42.5647" lon="2.06542">
        <ele>1806</ele>
        <time>2020-07-21T09:12:00.086Z</time>
      </trkpt>
      <trkpt lat="42.56472" lon="2.06544">
        <ele>1807</ele>
        <time>2020-07-21T09:12:01.086Z</time>
      </trkpt>
      <trkpt lat="42.56473" lon="2.06546">
        <ele>1807</ele>
        <time>2020-07-21T09:12:02.086Z</time>
      </trkpt>
      <trkpt lat="42.56475" lon="2.06547">
        <ele>1807</ele>
        <time>2020-07-21T09:12:03.086Z</time>
      </trkpt>
      <trkpt lat="42.56476" lon="2.0655">
        <ele>1807</ele>
        <time>2020-07-21T09:12:04.086Z</time>
      </trkpt>
      <trkpt lat="42.56478" lon="2.06552">
        <ele>1808</ele>
        <time>2020-07-21T09:12:05.086Z</time>
      </trkpt>
      <trkpt lat="42.5648" lon="2.06554">
        <ele>1809</ele>
        <time>2020-07-21T09:12:06.086Z</time>
      </trkpt>
      <trkpt lat="42.56481" lon="2.06556">
        <ele>1810</ele>
        <time>2020-07-21T09:12:07.086Z</time>
      </trkpt>
      <trkpt lat="42.56483" lon="2.06558">
        <ele>1810</ele>
        <time>2020-07-21T09:12:08.086Z</time>
      </trkpt>
      <trkpt lat="42.56484" lon="2.06559">
        <ele>1811</ele>
        <time>2020-07-21T09:12:09.086Z</time>
      </trkpt>
      <trkpt lat="42.56485" lon="2.06561">
        <ele>1812</ele>
        <time>2020-07-21T09:12:10.086Z</time>
      </trkpt>
      <trkpt lat="42.56486" lon="2.06563">
        <ele>1813</ele>
        <time>2020-07-21T09:12:11.086Z</time>
      </trkpt>
      <trkpt lat="42.56487" lon="2.06565">
        <ele>1813</ele>
        <time>2020-07-21T09:12:12.086Z</time>
      </trkpt>
      <trkpt lat="42.56488" lon="2.06567">
        <ele>1814</ele>
        <time>2020-07-21T09:12:13.086Z</time>
      </trkpt>
      <trkpt lat="42.5649" lon="2.0657">
        <ele>1814</ele>
        <time>2020-07-21T09:12:14.086Z</time>
      </trkpt>
      <trkpt lat="42.56491" lon="2.06572">
        <ele>1815</ele>
        <time>2020-07-21T09:12:15.086Z</time>
      </trkpt>
      <trkpt lat="42.56493" lon="2.06574">
        <ele>1816</ele>
        <time>2020-07-21T09:12:16.086Z</time>
      </trkpt>
      <trkpt lat="42.56494" lon="2.06576">
        <ele>1817</ele>
        <time>2020-07-21T09:12:17.086Z</time>
      </trkpt>
      <trkpt lat="42.56495" lon="2.06578">
        <ele>1818</ele>
        <time>2020-07-21T09:12:18.086Z</time>
      </trkpt>
      <trkpt lat="42.56497" lon="2.0658">
        <ele>1817</ele>
        <time>2020-07-21T09:12:19.086Z</time>
      </trkpt>
      <trkpt lat="42.56498" lon="2.06582">
        <ele>1819</ele>
        <time>2020-07-21T09:12:20.086Z</time>
      </trkpt>
      <trkpt lat="42.565" lon="2.06584">
        <ele>1819</ele>
        <time>2020-07-21T09:12:21.086Z</time>
      </trkpt>
      <trkpt lat="42.56501" lon="2.06586">
        <ele>1819</ele>
        <time>2020-07-21T09:12:22.086Z</time>
      </trkpt>
      <trkpt lat="42.56502" lon="2.06588">
        <ele>1819</ele>
        <time>2020-07-21T09:12:23.086Z</time>
      </trkpt>
      <trkpt lat="42.56503" lon="2.0659">
        <ele>1820</ele>
        <time>2020-07-21T09:12:24.086Z</time>
      </trkpt>
      <trkpt lat="42.56504" lon="2.06592">
        <ele>1821</ele>
        <time>2020-07-21T09:12:25.086Z</time>
      </trkpt>
      <trkpt lat="42.56505" lon="2.06594">
        <ele>1822</ele>
        <time>2020-07-21T09:12:26.086Z</time>
      </trkpt>
      <trkpt lat="42.56506" lon="2.06595">
        <ele>1822</ele>
        <time>2020-07-21T09:12:27.086Z</time>
      </trkpt>
      <trkpt lat="42.56508" lon="2.06597">
        <ele>1822</ele>
        <time>2020-07-21T09:12:28.086Z</time>
      </trkpt>
      <trkpt lat="42.56509" lon="2.06598">
        <ele>1823</ele>
        <time>2020-07-21T09:12:29.086Z</time>
      </trkpt>
      <trkpt lat="42.5651" lon="2.066">
        <ele>1823</ele>
        <time>2020-07-21T09:12:30.086Z</time>
      </trkpt>
      <trkpt lat="42.56511" lon="2.06601">
        <ele>1823</ele>
        <time>2020-07-21T09:12:31.086Z</time>
      </trkpt>
      <trkpt lat="42.56513" lon="2.06603">
        <ele>1823</ele>
        <time>2020-07-21T09:12:32.086Z</time>
      </trkpt>
      <trkpt lat="42.56515" lon="2.06604">
        <ele>1823</ele>
        <time>2020-07-21T09:12:33.086Z</time>
      </trkpt>
      <trkpt lat="42.56516" lon="2.06605">
        <ele>1824</ele>
        <time>2020-07-21T09:12:34.086Z</time>
      </trkpt>
      <trkpt lat="42.56518" lon="2.06606">
        <ele>1824</ele>
        <time>2020-07-21T09:12:35.086Z</time>
      </trkpt>
      <trkpt lat="42.56519" lon="2.06607">
        <ele>1825</ele>
        <time>2020-07-21T09:12:36.086Z</time>
      </trkpt>
      <trkpt lat="42.56521" lon="2.06608">
        <ele>1825</ele>
        <time>2020-07-21T09:12:37.086Z</time>
      </trkpt>
      <trkpt lat="42.56522" lon="2.0661">
        <ele>1825</ele>
        <time>2020-07-21T09:12:38.086Z</time>
      </trkpt>
      <trkpt lat="42.56523" lon="2.06611">
        <ele>1825</ele>
        <time>2020-07-21T09:12:39.086Z</time>
      </trkpt>
      <trkpt lat="42.56525" lon="2.06612">
        <ele>1826</ele>
        <time>2020-07-21T09:12:40.086Z</time>
      </trkpt>
      <trkpt lat="42.56527" lon="2.06613">
        <ele>1827</ele>
        <time>2020-07-21T09:12:41.086Z</time>
      </trkpt>
      <trkpt lat="42.56528" lon="2.06614">
        <ele>1828</ele>
        <time>2020-07-21T09:12:42.086Z</time>
      </trkpt>
      <trkpt lat="42.5653" lon="2.06616">
        <ele>1828</ele>
        <time>2020-07-21T09:12:43.086Z</time>
      </trkpt>
      <trkpt lat="42.56531" lon="2.06617">
        <ele>1828</ele>
        <time>2020-07-21T09:12:44.086Z</time>
      </trkpt>
      <trkpt lat="42.56532" lon="2.06618">
        <ele>1829</ele>
        <time>2020-07-21T09:12:45.086Z</time>
      </trkpt>
      <trkpt lat="42.56534" lon="2.06619">
        <ele>1831</ele>
        <time>2020-07-21T09:12:46.086Z</time>
      </trkpt>
      <trkpt lat="42.56535" lon="2.0662">
        <ele>1831</ele>
        <time>2020-07-21T09:12:47.086Z</time>
      </trkpt>
      <trkpt lat="42.56537" lon="2.06622">
        <ele>1831</ele>
        <time>2020-07-21T09:12:48.086Z</time>
      </trkpt>
      <trkpt lat="42.56538" lon="2.06623">
        <ele>1832</ele>
        <time>2020-07-21T09:12:49.086Z</time>
      </trkpt>
      <trkpt lat="42.5654" lon="2.06625">
        <ele>1831</ele>
        <time>2020-07-21T09:12:50.086Z</time>
      </trkpt>
      <trkpt lat="42.56542" lon="2.06626">
        <ele>1831</ele>
        <time>2020-07-21T09:12:51.086Z</time>
      </trkpt>
      <trkpt lat="42.56544" lon="2.06628">
        <ele>1831</ele>
        <time>2020-07-21T09:12:52.086Z</time>
      </trkpt>
      <trkpt lat="42.56546" lon="2.06629">
        <ele>1831</ele>
        <time>2020-07-21T09:12:53.086Z</time>
      </trkpt>
      <trkpt lat="42.56548" lon="2.0663">
        <ele>1832</ele>
        <time>2020-07-21T09:12:54.086Z</time>
      </trkpt>
      <trkpt lat="42.56549" lon="2.06631">
        <ele>1832</ele>
        <time>2020-07-21T09:12:55.086Z</time>
      </trkpt>
      <trkpt lat="42.56551" lon="2.06633">
        <ele>1833</ele>
        <time>2020-07-21T09:12:56.086Z</time>
      </trkpt>
      <trkpt lat="42.56553" lon="2.06635">
        <ele>1833</ele>
        <time>2020-07-21T09:12:57.086Z</time>
      </trkpt>
      <trkpt lat="42.56554" lon="2.06636">
        <ele>1833</ele>
        <time>2020-07-21T09:12:58.086Z</time>
      </trkpt>
      <trkpt lat="42.56554" lon="2.06638">
        <ele>1834</ele>
        <time>2020-07-21T09:12:59.086Z</time>
      </trkpt>
      <trkpt lat="42.56554" lon="2.06639">
        <ele>1835</ele>
        <time>2020-07-21T09:13:00.086Z</time>
      </trkpt>
      <trkpt lat="42.56556" lon="2.06642">
        <ele>1834</ele>
        <time>2020-07-21T09:13:01.086Z</time>
      </trkpt>
      <trkpt lat="42.56557" lon="2.06644">
        <ele>1834</ele>
        <time>2020-07-21T09:13:02.086Z</time>
      </trkpt>
      <trkpt lat="42.56559" lon="2.06646">
        <ele>1835</ele>
        <time>2020-07-21T09:13:03.086Z</time>
      </trkpt>
      <trkpt lat="42.5656" lon="2.06648">
        <ele>1835</ele>
        <time>2020-07-21T09:13:04.086Z</time>
      </trkpt>
      <trkpt lat="42.56562" lon="2.0665">
        <ele>1835</ele>
        <time>2020-07-21T09:13:05.086Z</time>
      </trkpt>
      <trkpt lat="42.56564" lon="2.06652">
        <ele>1835</ele>
        <time>2020-07-21T09:13:06.086Z</time>
      </trkpt>
      <trkpt lat="42.56566" lon="2.06654">
        <ele>1836</ele>
        <time>2020-07-21T09:13:07.086Z</time>
      </trkpt>
      <trkpt lat="42.56567" lon="2.06657">
        <ele>1836</ele>
        <time>2020-07-21T09:13:08.086Z</time>
      </trkpt>
      <trkpt lat="42.56569" lon="2.06659">
        <ele>1837</ele>
        <time>2020-07-21T09:13:09.086Z</time>
      </trkpt>
      <trkpt lat="42.56571" lon="2.06662">
        <ele>1837</ele>
        <time>2020-07-21T09:13:10.086Z</time>
      </trkpt>
      <trkpt lat="42.56573" lon="2.06665">
        <ele>1837</ele>
        <time>2020-07-21T09:13:11.086Z</time>
      </trkpt>
      <trkpt lat="42.56575" lon="2.06668">
        <ele>1836</ele>
        <time>2020-07-21T09:13:12.086Z</time>
      </trkpt>
      <trkpt lat="42.56577" lon="2.06672">
        <ele>1837</ele>
        <time>2020-07-21T09:13:13.086Z</time>
      </trkpt>
      <trkpt lat="42.56579" lon="2.06676">
        <ele>1837</ele>
        <time>2020-07-21T09:13:14.086Z</time>
      </trkpt>
      <trkpt lat="42.5658" lon="2.0668">
        <ele>1836</ele>
        <time>2020-07-21T09:13:15.086Z</time>
      </trkpt>
      <trkpt lat="42.56582" lon="2.06685">
        <ele>1836</ele>
        <time>2020-07-21T09:13:16.086Z</time>
      </trkpt>
      <trkpt lat="42.56583" lon="2.06689">
        <ele>1836</ele>
        <time>2020-07-21T09:13:17.086Z</time>
      </trkpt>
      <trkpt lat="42.56585" lon="2.06693">
        <ele>1836</ele>
        <time>2020-07-21T09:13:18.086Z</time>
      </trkpt>
      <trkpt lat="42.56586" lon="2.06698">
        <ele>1836</ele>
        <time>2020-07-21T09:13:19.086Z</time>
      </trkpt>
      <trkpt lat="42.56588" lon="2.06702">
        <ele>1836</ele>
        <time>2020-07-21T09:13:20.086Z</time>
      </trkpt>
      <trkpt lat="42.56589" lon="2.06707">
        <ele>1835</ele>
        <time>2020-07-21T09:13:21.086Z</time>
      </trkpt>
      <trkpt lat="42.5659" lon="2.06711">
        <ele>1836</ele>
        <time>2020-07-21T09:13:22.086Z</time>
      </trkpt>
      <trkpt lat="42.56591" lon="2.06716">
        <ele>1835</ele>
        <time>2020-07-21T09:13:23.086Z</time>
      </trkpt>
      <trkpt lat="42.56592" lon="2.0672">
        <ele>1835</ele>
        <time>2020-07-21T09:13:24.086Z</time>
      </trkpt>
      <trkpt lat="42.56594" lon="2.06725">
        <ele>1834</ele>
        <time>2020-07-21T09:13:25.086Z</time>
      </trkpt>
      <trkpt lat="42.56595" lon="2.06729">
        <ele>1835</ele>
        <time>2020-07-21T09:13:26.086Z</time>
      </trkpt>
      <trkpt lat="42.56597" lon="2.06733">
        <ele>1835</ele>
        <time>2020-07-21T09:13:27.086Z</time>
      </trkpt>
      <trkpt lat="42.56598" lon="2.06737">
        <ele>1835</ele>
        <time>2020-07-21T09:13:28.086Z</time>
      </trkpt>
      <trkpt lat="42.566" lon="2.06742">
        <ele>1835</ele>
        <time>2020-07-21T09:13:29.086Z</time>
      </trkpt>
      <trkpt lat="42.56601" lon="2.06746">
        <ele>1835</ele>
        <time>2020-07-21T09:13:30.086Z</time>
      </trkpt>
      <trkpt lat="42.56603" lon="2.0675">
        <ele>1834</ele>
        <time>2020-07-21T09:13:31.086Z</time>
      </trkpt>
      <trkpt lat="42.56606" lon="2.06754">
        <ele>1833</ele>
        <time>2020-07-21T09:13:32.086Z</time>
      </trkpt>
      <trkpt lat="42.56608" lon="2.06758">
        <ele>1833</ele>
        <time>2020-07-21T09:13:33.086Z</time>
      </trkpt>
      <trkpt lat="42.56611" lon="2.06761">
        <ele>1833</ele>
        <time>2020-07-21T09:13:34.086Z</time>
      </trkpt>
      <trkpt lat="42.56614" lon="2.06765">
        <ele>1834</ele>
        <time>2020-07-21T09:13:35.086Z</time>
      </trkpt>
      <trkpt lat="42.56617" lon="2.06767">
        <ele>1833</ele>
        <time>2020-07-21T09:13:36.086Z</time>
      </trkpt>
      <trkpt lat="42.5662" lon="2.06769">
        <ele>1832</ele>
        <time>2020-07-21T09:13:37.086Z</time>
      </trkpt>
      <trkpt lat="42.56624" lon="2.06771">
        <ele>1831</ele>
        <time>2020-07-21T09:13:38.086Z</time>
      </trkpt>
      <trkpt lat="42.56627" lon="2.06773">
        <ele>1832</ele>
        <time>2020-07-21T09:13:39.086Z</time>
      </trkpt>
      <trkpt lat="42.5663" lon="2.06775">
        <ele>1832</ele>
        <time>2020-07-21T09:13:40.086Z</time>
      </trkpt>
      <trkpt lat="42.56634" lon="2.06776">
        <ele>1832</ele>
        <time>2020-07-21T09:13:41.086Z</time>
      </trkpt>
      <trkpt lat="42.56637" lon="2.06777">
        <ele>1832</ele>
        <time>2020-07-21T09:13:42.086Z</time>
      </trkpt>
      <trkpt lat="42.56641" lon="2.06778">
        <ele>1831</ele>
        <time>2020-07-21T09:13:43.086Z</time>
      </trkpt>
      <trkpt lat="42.56644" lon="2.06779">
        <ele>1831</ele>
        <time>2020-07-21T09:13:44.086Z</time>
      </trkpt>
      <trkpt lat="42.56647" lon="2.0678">
        <ele>1831</ele>
        <time>2020-07-21T09:13:45.086Z</time>
      </trkpt>
      <trkpt lat="42.56651" lon="2.06781">
        <ele>1830</ele>
        <time>2020-07-21T09:13:46.086Z</time>
      </trkpt>
      <trkpt lat="42.56654" lon="2.06782">
        <ele>1829</ele>
        <time>2020-07-21T09:13:47.086Z</time>
      </trkpt>
      <trkpt lat="42.56658" lon="2.06783">
        <ele>1830</ele>
        <time>2020-07-21T09:13:48.086Z</time>
      </trkpt>
      <trkpt lat="42.56661" lon="2.06784">
        <ele>1831</ele>
        <time>2020-07-21T09:13:49.086Z</time>
      </trkpt>
      <trkpt lat="42.56663" lon="2.06786">
        <ele>1830</ele>
        <time>2020-07-21T09:13:50.086Z</time>
      </trkpt>
      <trkpt lat="42.56666" lon="2.06787">
        <ele>1830</ele>
        <time>2020-07-21T09:13:51.086Z</time>
      </trkpt>
      <trkpt lat="42.56669" lon="2.06789">
        <ele>1829</ele>
        <time>2020-07-21T09:13:52.086Z</time>
      </trkpt>
      <trkpt lat="42.56672" lon="2.06791">
        <ele>1829</ele>
        <time>2020-07-21T09:13:53.086Z</time>
      </trkpt>
      <trkpt lat="42.56675" lon="2.06793">
        <ele>1828</ele>
        <time>2020-07-21T09:13:54.086Z</time>
      </trkpt>
      <trkpt lat="42.56678" lon="2.06794">
        <ele>1828</ele>
        <time>2020-07-21T09:13:55.086Z</time>
      </trkpt>
      <trkpt lat="42.56682" lon="2.06795">
        <ele>1825</ele>
        <time>2020-07-21T09:13:56.086Z</time>
      </trkpt>
      <trkpt lat="42.56685" lon="2.06796">
        <ele>1825</ele>
        <time>2020-07-21T09:13:57.086Z</time>
      </trkpt>
      <trkpt lat="42.56689" lon="2.06795">
        <ele>1824</ele>
        <time>2020-07-21T09:13:58.086Z</time>
      </trkpt>
      <trkpt lat="42.56692" lon="2.06795">
        <ele>1823</ele>
        <time>2020-07-21T09:13:59.086Z</time>
      </trkpt>
      <trkpt lat="42.56695" lon="2.06793">
        <ele>1823</ele>
        <time>2020-07-21T09:14:00.086Z</time>
      </trkpt>
      <trkpt lat="42.56698" lon="2.06792">
        <ele>1822</ele>
        <time>2020-07-21T09:14:01.086Z</time>
      </trkpt>
      <trkpt lat="42.56701" lon="2.0679">
        <ele>1822</ele>
        <time>2020-07-21T09:14:02.086Z</time>
      </trkpt>
      <trkpt lat="42.56704" lon="2.06789">
        <ele>1821</ele>
        <time>2020-07-21T09:14:03.086Z</time>
      </trkpt>
      <trkpt lat="42.56708" lon="2.06788">
        <ele>1820</ele>
        <time>2020-07-21T09:14:04.086Z</time>
      </trkpt>
      <trkpt lat="42.56711" lon="2.06787">
        <ele>1819</ele>
        <time>2020-07-21T09:14:05.086Z</time>
      </trkpt>
      <trkpt lat="42.56715" lon="2.06786">
        <ele>1819</ele>
        <time>2020-07-21T09:14:06.086Z</time>
      </trkpt>
      <trkpt lat="42.56718" lon="2.06785">
        <ele>1819</ele>
        <time>2020-07-21T09:14:07.086Z</time>
      </trkpt>
      <trkpt lat="42.5672" lon="2.06784">
        <ele>1818</ele>
        <time>2020-07-21T09:14:08.086Z</time>
      </trkpt>
      <trkpt lat="42.56723" lon="2.06783">
        <ele>1817</ele>
        <time>2020-07-21T09:14:09.086Z</time>
      </trkpt>
      <trkpt lat="42.56726" lon="2.06783">
        <ele>1817</ele>
        <time>2020-07-21T09:14:10.086Z</time>
      </trkpt>
      <trkpt lat="42.5673" lon="2.06779">
        <ele>1816</ele>
        <time>2020-07-21T09:14:11.105Z</time>
      </trkpt>
      <trkpt lat="42.5673" lon="2.06778">
        <ele>1816</ele>
        <time>2020-07-21T09:14:12.105Z</time>
      </trkpt>
      <trkpt lat="42.5673" lon="2.06777">
        <ele>1816</ele>
        <time>2020-07-21T09:14:13.105Z</time>
      </trkpt>
      <trkpt lat="42.56731" lon="2.06776">
        <ele>1816</ele>
        <time>2020-07-21T09:14:14.105Z</time>
      </trkpt>
      <trkpt lat="42.56732" lon="2.06774">
        <ele>1816</ele>
        <time>2020-07-21T09:14:15.105Z</time>
      </trkpt>
      <trkpt lat="42.56735" lon="2.06772">
        <ele>1818</ele>
        <time>2020-07-21T09:14:16.105Z</time>
      </trkpt>
      <trkpt lat="42.56738" lon="2.06769">
        <ele>1818</ele>
        <time>2020-07-21T09:14:17.105Z</time>
      </trkpt>
      <trkpt lat="42.56742" lon="2.06766">
        <ele>1818</ele>
        <time>2020-07-21T09:14:18.105Z</time>
      </trkpt>
      <trkpt lat="42.56744" lon="2.06764">
        <ele>1817</ele>
        <time>2020-07-21T09:14:19.105Z</time>
      </trkpt>
      <trkpt lat="42.56747" lon="2.06761">
        <ele>1817</ele>
        <time>2020-07-21T09:14:20.105Z</time>
      </trkpt>
      <trkpt lat="42.56749" lon="2.06758">
        <ele>1817</ele>
        <time>2020-07-21T09:14:21.105Z</time>
      </trkpt>
      <trkpt lat="42.56752" lon="2.06756">
        <ele>1817</ele>
        <time>2020-07-21T09:14:22.105Z</time>
      </trkpt>
      <trkpt lat="42.56755" lon="2.06754">
        <ele>1817</ele>
        <time>2020-07-21T09:14:23.105Z</time>
      </trkpt>
      <trkpt lat="42.56758" lon="2.06752">
        <ele>1817</ele>
        <time>2020-07-21T09:14:24.105Z</time>
      </trkpt>
      <trkpt lat="42.56761" lon="2.0675">
        <ele>1817</ele>
        <time>2020-07-21T09:14:25.105Z</time>
      </trkpt>
      <trkpt lat="42.56764" lon="2.06749">
        <ele>1817</ele>
        <time>2020-07-21T09:14:26.105Z</time>
      </trkpt>
      <trkpt lat="42.56768" lon="2.06747">
        <ele>1817</ele>
        <time>2020-07-21T09:14:27.105Z</time>
      </trkpt>
      <trkpt lat="42.56771" lon="2.06745">
        <ele>1816</ele>
        <time>2020-07-21T09:14:28.105Z</time>
      </trkpt>
      <trkpt lat="42.56775" lon="2.06744">
        <ele>1816</ele>
        <time>2020-07-21T09:14:29.105Z</time>
      </trkpt>
      <trkpt lat="42.56778" lon="2.06742">
        <ele>1816</ele>
        <time>2020-07-21T09:14:30.105Z</time>
      </trkpt>
      <trkpt lat="42.56782" lon="2.0674">
        <ele>1816</ele>
        <time>2020-07-21T09:14:31.105Z</time>
      </trkpt>
      <trkpt lat="42.56785" lon="2.06739">
        <ele>1815</ele>
        <time>2020-07-21T09:14:32.105Z</time>
      </trkpt>
      <trkpt lat="42.56789" lon="2.06738">
        <ele>1815</ele>
        <time>2020-07-21T09:14:33.105Z</time>
      </trkpt>
      <trkpt lat="42.56792" lon="2.06738">
        <ele>1814</ele>
        <time>2020-07-21T09:14:34.105Z</time>
      </trkpt>
      <trkpt lat="42.56796" lon="2.06738">
        <ele>1814</ele>
        <time>2020-07-21T09:14:35.105Z</time>
      </trkpt>
      <trkpt lat="42.56799" lon="2.06737">
        <ele>1813</ele>
        <time>2020-07-21T09:14:36.105Z</time>
      </trkpt>
      <trkpt lat="42.56803" lon="2.06736">
        <ele>1813</ele>
        <time>2020-07-21T09:14:37.105Z</time>
      </trkpt>
      <trkpt lat="42.56806" lon="2.06736">
        <ele>1812</ele>
        <time>2020-07-21T09:14:38.105Z</time>
      </trkpt>
      <trkpt lat="42.5681" lon="2.06734">
        <ele>1812</ele>
        <time>2020-07-21T09:14:39.105Z</time>
      </trkpt>
      <trkpt lat="42.56813" lon="2.06734">
        <ele>1810</ele>
        <time>2020-07-21T09:14:40.105Z</time>
      </trkpt>
      <trkpt lat="42.56817" lon="2.06732">
        <ele>1810</ele>
        <time>2020-07-21T09:14:41.105Z</time>
      </trkpt>
      <trkpt lat="42.5682" lon="2.06732">
        <ele>1809</ele>
        <time>2020-07-21T09:14:42.105Z</time>
      </trkpt>
      <trkpt lat="42.56824" lon="2.06731">
        <ele>1808</ele>
        <time>2020-07-21T09:14:43.105Z</time>
      </trkpt>
      <trkpt lat="42.56828" lon="2.0673">
        <ele>1809</ele>
        <time>2020-07-21T09:14:44.105Z</time>
      </trkpt>
      <trkpt lat="42.56831" lon="2.06729">
        <ele>1808</ele>
        <time>2020-07-21T09:14:45.105Z</time>
      </trkpt>
      <trkpt lat="42.56835" lon="2.06729">
        <ele>1808</ele>
        <time>2020-07-21T09:14:46.105Z</time>
      </trkpt>
      <trkpt lat="42.56839" lon="2.06729">
        <ele>1807</ele>
        <time>2020-07-21T09:14:47.105Z</time>
      </trkpt>
      <trkpt lat="42.56842" lon="2.06728">
        <ele>1805</ele>
        <time>2020-07-21T09:14:48.105Z</time>
      </trkpt>
      <trkpt lat="42.56846" lon="2.06728">
        <ele>1805</ele>
        <time>2020-07-21T09:14:49.105Z</time>
      </trkpt>
      <trkpt lat="42.56849" lon="2.06727">
        <ele>1805</ele>
        <time>2020-07-21T09:14:50.105Z</time>
      </trkpt>
      <trkpt lat="42.56853" lon="2.06726">
        <ele>1805</ele>
        <time>2020-07-21T09:14:51.105Z</time>
      </trkpt>
      <trkpt lat="42.56857" lon="2.06725">
        <ele>1805</ele>
        <time>2020-07-21T09:14:52.105Z</time>
      </trkpt>
      <trkpt lat="42.5686" lon="2.06725">
        <ele>1804</ele>
        <time>2020-07-21T09:14:53.105Z</time>
      </trkpt>
      <trkpt lat="42.56864" lon="2.06724">
        <ele>1804</ele>
        <time>2020-07-21T09:14:54.105Z</time>
      </trkpt>
      <trkpt lat="42.56868" lon="2.06723">
        <ele>1803</ele>
        <time>2020-07-21T09:14:55.105Z</time>
      </trkpt>
      <trkpt lat="42.56871" lon="2.06722">
        <ele>1802</ele>
        <time>2020-07-21T09:14:56.105Z</time>
      </trkpt>
      <trkpt lat="42.56875" lon="2.06721">
        <ele>1801</ele>
        <time>2020-07-21T09:14:57.105Z</time>
      </trkpt>
      <trkpt lat="42.56879" lon="2.06721">
        <ele>1800</ele>
        <time>2020-07-21T09:14:58.105Z</time>
      </trkpt>
      <trkpt lat="42.56883" lon="2.06721">
        <ele>1800</ele>
        <time>2020-07-21T09:14:59.105Z</time>
      </trkpt>
      <trkpt lat="42.56887" lon="2.0672">
        <ele>1799</ele>
        <time>2020-07-21T09:15:00.105Z</time>
      </trkpt>
      <trkpt lat="42.56891" lon="2.06719">
        <ele>1799</ele>
        <time>2020-07-21T09:15:01.105Z</time>
      </trkpt>
      <trkpt lat="42.56894" lon="2.06718">
        <ele>1798</ele>
        <time>2020-07-21T09:15:02.105Z</time>
      </trkpt>
      <trkpt lat="42.56898" lon="2.06717">
        <ele>1798</ele>
        <time>2020-07-21T09:15:03.105Z</time>
      </trkpt>
      <trkpt lat="42.56901" lon="2.06716">
        <ele>1797</ele>
        <time>2020-07-21T09:15:04.105Z</time>
      </trkpt>
      <trkpt lat="42.56905" lon="2.06716">
        <ele>1795</ele>
        <time>2020-07-21T09:15:05.105Z</time>
      </trkpt>
      <trkpt lat="42.56908" lon="2.06716">
        <ele>1795</ele>
        <time>2020-07-21T09:15:06.105Z</time>
      </trkpt>
      <trkpt lat="42.56911" lon="2.06715">
        <ele>1794</ele>
        <time>2020-07-21T09:15:07.105Z</time>
      </trkpt>
      <trkpt lat="42.56914" lon="2.06715">
        <ele>1793</ele>
        <time>2020-07-21T09:15:08.105Z</time>
      </trkpt>
      <trkpt lat="42.56917" lon="2.06716">
        <ele>1793</ele>
        <time>2020-07-21T09:15:09.105Z</time>
      </trkpt>
      <trkpt lat="42.5692" lon="2.06715">
        <ele>1792</ele>
        <time>2020-07-21T09:15:10.105Z</time>
      </trkpt>
      <trkpt lat="42.56923" lon="2.06714">
        <ele>1791</ele>
        <time>2020-07-21T09:15:11.105Z</time>
      </trkpt>
      <trkpt lat="42.56925" lon="2.06713">
        <ele>1791</ele>
        <time>2020-07-21T09:15:12.105Z</time>
      </trkpt>
      <trkpt lat="42.56928" lon="2.06713">
        <ele>1791</ele>
        <time>2020-07-21T09:15:13.105Z</time>
      </trkpt>
      <trkpt lat="42.56931" lon="2.06715">
        <ele>1791</ele>
        <time>2020-07-21T09:15:14.105Z</time>
      </trkpt>
      <trkpt lat="42.56935" lon="2.06719">
        <ele>1790</ele>
        <time>2020-07-21T09:15:15.105Z</time>
      </trkpt>
      <trkpt lat="42.56938" lon="2.06723">
        <ele>1788</ele>
        <time>2020-07-21T09:15:16.105Z</time>
      </trkpt>
      <trkpt lat="42.56941" lon="2.06726">
        <ele>1788</ele>
        <time>2020-07-21T09:15:17.105Z</time>
      </trkpt>
      <trkpt lat="42.56943" lon="2.06727">
        <ele>1785</ele>
        <time>2020-07-21T09:15:18.105Z</time>
      </trkpt>
      <trkpt lat="42.56946" lon="2.06728">
        <ele>1784</ele>
        <time>2020-07-21T09:15:19.105Z</time>
      </trkpt>
      <trkpt lat="42.56949" lon="2.06729">
        <ele>1783</ele>
        <time>2020-07-21T09:15:20.105Z</time>
      </trkpt>
      <trkpt lat="42.56952" lon="2.06731">
        <ele>1783</ele>
        <time>2020-07-21T09:15:21.105Z</time>
      </trkpt>
      <trkpt lat="42.56954" lon="2.06733">
        <ele>1782</ele>
        <time>2020-07-21T09:15:22.105Z</time>
      </trkpt>
      <trkpt lat="42.56956" lon="2.06735">
        <ele>1781</ele>
        <time>2020-07-21T09:15:23.105Z</time>
      </trkpt>
      <trkpt lat="42.56958" lon="2.06737">
        <ele>1780</ele>
        <time>2020-07-21T09:15:24.105Z</time>
      </trkpt>
      <trkpt lat="42.56961" lon="2.06738">
        <ele>1780</ele>
        <time>2020-07-21T09:15:25.105Z</time>
      </trkpt>
      <trkpt lat="42.56964" lon="2.06739">
        <ele>1779</ele>
        <time>2020-07-21T09:15:26.105Z</time>
      </trkpt>
      <trkpt lat="42.56967" lon="2.06739">
        <ele>1778</ele>
        <time>2020-07-21T09:15:27.105Z</time>
      </trkpt>
      <trkpt lat="42.5697" lon="2.06739">
        <ele>1776</ele>
        <time>2020-07-21T09:15:28.105Z</time>
      </trkpt>
      <trkpt lat="42.56973" lon="2.0674">
        <ele>1774</ele>
        <time>2020-07-21T09:15:29.105Z</time>
      </trkpt>
      <trkpt lat="42.56976" lon="2.06741">
        <ele>1774</ele>
        <time>2020-07-21T09:15:30.105Z</time>
      </trkpt>
      <trkpt lat="42.56979" lon="2.06741">
        <ele>1772</ele>
        <time>2020-07-21T09:15:31.105Z</time>
      </trkpt>
      <trkpt lat="42.56982" lon="2.06743">
        <ele>1771</ele>
        <time>2020-07-21T09:15:32.105Z</time>
      </trkpt>
      <trkpt lat="42.56985" lon="2.06745">
        <ele>1771</ele>
        <time>2020-07-21T09:15:33.105Z</time>
      </trkpt>
      <trkpt lat="42.56988" lon="2.06748">
        <ele>1769</ele>
        <time>2020-07-21T09:15:34.105Z</time>
      </trkpt>
      <trkpt lat="42.56991" lon="2.06751">
        <ele>1768</ele>
        <time>2020-07-21T09:15:35.105Z</time>
      </trkpt>
      <trkpt lat="42.56994" lon="2.06752">
        <ele>1768</ele>
        <time>2020-07-21T09:15:36.105Z</time>
      </trkpt>
      <trkpt lat="42.56997" lon="2.06753">
        <ele>1767</ele>
        <time>2020-07-21T09:15:37.105Z</time>
      </trkpt>
      <trkpt lat="42.57" lon="2.06752">
        <ele>1766</ele>
        <time>2020-07-21T09:15:38.105Z</time>
      </trkpt>
      <trkpt lat="42.57003" lon="2.06752">
        <ele>1766</ele>
        <time>2020-07-21T09:15:39.105Z</time>
      </trkpt>
      <trkpt lat="42.57006" lon="2.06752">
        <ele>1766</ele>
        <time>2020-07-21T09:15:40.105Z</time>
      </trkpt>
      <trkpt lat="42.57009" lon="2.06754">
        <ele>1764</ele>
        <time>2020-07-21T09:15:41.105Z</time>
      </trkpt>
      <trkpt lat="42.57012" lon="2.06756">
        <ele>1763</ele>
        <time>2020-07-21T09:15:42.105Z</time>
      </trkpt>
      <trkpt lat="42.57014" lon="2.06758">
        <ele>1762</ele>
        <time>2020-07-21T09:15:43.105Z</time>
      </trkpt>
      <trkpt lat="42.57017" lon="2.06761">
        <ele>1761</ele>
        <time>2020-07-21T09:15:44.105Z</time>
      </trkpt>
      <trkpt lat="42.57019" lon="2.06763">
        <ele>1762</ele>
        <time>2020-07-21T09:15:45.105Z</time>
      </trkpt>
      <trkpt lat="42.57022" lon="2.06765">
        <ele>1760</ele>
        <time>2020-07-21T09:15:46.105Z</time>
      </trkpt>
      <trkpt lat="42.57025" lon="2.06767">
        <ele>1760</ele>
        <time>2020-07-21T09:15:47.105Z</time>
      </trkpt>
      <trkpt lat="42.57028" lon="2.06768">
        <ele>1759</ele>
        <time>2020-07-21T09:15:48.105Z</time>
      </trkpt>
      <trkpt lat="42.57031" lon="2.06768">
        <ele>1759</ele>
        <time>2020-07-21T09:15:49.105Z</time>
      </trkpt>
      <trkpt lat="42.57034" lon="2.06768">
        <ele>1759</ele>
        <time>2020-07-21T09:15:50.105Z</time>
      </trkpt>
      <trkpt lat="42.57038" lon="2.06767">
        <ele>1758</ele>
        <time>2020-07-21T09:15:51.105Z</time>
      </trkpt>
      <trkpt lat="42.57041" lon="2.06767">
        <ele>1756</ele>
        <time>2020-07-21T09:15:52.105Z</time>
      </trkpt>
      <trkpt lat="42.57044" lon="2.06767">
        <ele>1755</ele>
        <time>2020-07-21T09:15:53.105Z</time>
      </trkpt>
      <trkpt lat="42.57047" lon="2.06769">
        <ele>1753</ele>
        <time>2020-07-21T09:15:54.105Z</time>
      </trkpt>
      <trkpt lat="42.5705" lon="2.0677">
        <ele>1752</ele>
        <time>2020-07-21T09:15:55.105Z</time>
      </trkpt>
      <trkpt lat="42.57053" lon="2.06771">
        <ele>1752</ele>
        <time>2020-07-21T09:15:56.105Z</time>
      </trkpt>
      <trkpt lat="42.57056" lon="2.06772">
        <ele>1752</ele>
        <time>2020-07-21T09:15:57.105Z</time>
      </trkpt>
      <trkpt lat="42.57059" lon="2.06772">
        <ele>1750</ele>
        <time>2020-07-21T09:15:58.105Z</time>
      </trkpt>
      <trkpt lat="42.57062" lon="2.06772">
        <ele>1749</ele>
        <time>2020-07-21T09:15:59.105Z</time>
      </trkpt>
      <trkpt lat="42.57065" lon="2.06771">
        <ele>1749</ele>
        <time>2020-07-21T09:16:00.105Z</time>
      </trkpt>
      <trkpt lat="42.57068" lon="2.06771">
        <ele>1749</ele>
        <time>2020-07-21T09:16:01.105Z</time>
      </trkpt>
      <trkpt lat="42.57071" lon="2.06772">
        <ele>1748</ele>
        <time>2020-07-21T09:16:02.105Z</time>
      </trkpt>
      <trkpt lat="42.57074" lon="2.06773">
        <ele>1748</ele>
        <time>2020-07-21T09:16:03.105Z</time>
      </trkpt>
      <trkpt lat="42.57077" lon="2.06775">
        <ele>1747</ele>
        <time>2020-07-21T09:16:04.105Z</time>
      </trkpt>
      <trkpt lat="42.57081" lon="2.06776">
        <ele>1747</ele>
        <time>2020-07-21T09:16:05.105Z</time>
      </trkpt>
      <trkpt lat="42.57084" lon="2.06776">
        <ele>1746</ele>
        <time>2020-07-21T09:16:06.105Z</time>
      </trkpt>
      <trkpt lat="42.57088" lon="2.06776">
        <ele>1745</ele>
        <time>2020-07-21T09:16:07.105Z</time>
      </trkpt>
      <trkpt lat="42.57091" lon="2.06776">
        <ele>1745</ele>
        <time>2020-07-21T09:16:08.105Z</time>
      </trkpt>
      <trkpt lat="42.57095" lon="2.06776">
        <ele>1745</ele>
        <time>2020-07-21T09:16:09.105Z</time>
      </trkpt>
      <trkpt lat="42.57098" lon="2.06776">
        <ele>1745</ele>
        <time>2020-07-21T09:16:10.105Z</time>
      </trkpt>
      <trkpt lat="42.57102" lon="2.06776">
        <ele>1745</ele>
        <time>2020-07-21T09:16:11.105Z</time>
      </trkpt>
      <trkpt lat="42.57106" lon="2.06776">
        <ele>1744</ele>
        <time>2020-07-21T09:16:12.105Z</time>
      </trkpt>
      <trkpt lat="42.57109" lon="2.06776">
        <ele>1744</ele>
        <time>2020-07-21T09:16:13.105Z</time>
      </trkpt>
      <trkpt lat="42.57113" lon="2.06775">
        <ele>1743</ele>
        <time>2020-07-21T09:16:14.105Z</time>
      </trkpt>
      <trkpt lat="42.57116" lon="2.06775">
        <ele>1742</ele>
        <time>2020-07-21T09:16:15.105Z</time>
      </trkpt>
      <trkpt lat="42.57119" lon="2.06776">
        <ele>1741</ele>
        <time>2020-07-21T09:16:16.105Z</time>
      </trkpt>
      <trkpt lat="42.57123" lon="2.06777">
        <ele>1741</ele>
        <time>2020-07-21T09:16:17.105Z</time>
      </trkpt>
      <trkpt lat="42.57126" lon="2.06777">
        <ele>1740</ele>
        <time>2020-07-21T09:16:18.105Z</time>
      </trkpt>
      <trkpt lat="42.57129" lon="2.06777">
        <ele>1740</ele>
        <time>2020-07-21T09:16:19.105Z</time>
      </trkpt>
      <trkpt lat="42.57133" lon="2.06778">
        <ele>1739</ele>
        <time>2020-07-21T09:16:20.105Z</time>
      </trkpt>
      <trkpt lat="42.57136" lon="2.0678">
        <ele>1737</ele>
        <time>2020-07-21T09:16:21.105Z</time>
      </trkpt>
      <trkpt lat="42.57139" lon="2.06782">
        <ele>1736</ele>
        <time>2020-07-21T09:16:22.105Z</time>
      </trkpt>
      <trkpt lat="42.57142" lon="2.06784">
        <ele>1735</ele>
        <time>2020-07-21T09:16:23.105Z</time>
      </trkpt>
      <trkpt lat="42.57146" lon="2.06785">
        <ele>1735</ele>
        <time>2020-07-21T09:16:24.105Z</time>
      </trkpt>
      <trkpt lat="42.57148" lon="2.06785">
        <ele>1736</ele>
        <time>2020-07-21T09:16:25.105Z</time>
      </trkpt>
      <trkpt lat="42.57152" lon="2.06786">
        <ele>1736</ele>
        <time>2020-07-21T09:16:26.105Z</time>
      </trkpt>
      <trkpt lat="42.57155" lon="2.06786">
        <ele>1735</ele>
        <time>2020-07-21T09:16:27.105Z</time>
      </trkpt>
      <trkpt lat="42.57158" lon="2.06787">
        <ele>1735</ele>
        <time>2020-07-21T09:16:28.105Z</time>
      </trkpt>
      <trkpt lat="42.57162" lon="2.06787">
        <ele>1733</ele>
        <time>2020-07-21T09:16:29.105Z</time>
      </trkpt>
      <trkpt lat="42.57166" lon="2.06787">
        <ele>1732</ele>
        <time>2020-07-21T09:16:30.105Z</time>
      </trkpt>
      <trkpt lat="42.57169" lon="2.06787">
        <ele>1732</ele>
        <time>2020-07-21T09:16:31.105Z</time>
      </trkpt>
      <trkpt lat="42.57173" lon="2.06786">
        <ele>1731</ele>
        <time>2020-07-21T09:16:32.105Z</time>
      </trkpt>
      <trkpt lat="42.57177" lon="2.06787">
        <ele>1730</ele>
        <time>2020-07-21T09:16:33.105Z</time>
      </trkpt>
      <trkpt lat="42.5718" lon="2.06787">
        <ele>1730</ele>
        <time>2020-07-21T09:16:34.105Z</time>
      </trkpt>
      <trkpt lat="42.57183" lon="2.06788">
        <ele>1729</ele>
        <time>2020-07-21T09:16:35.105Z</time>
      </trkpt>
      <trkpt lat="42.57186" lon="2.06789">
        <ele>1729</ele>
        <time>2020-07-21T09:16:36.105Z</time>
      </trkpt>
      <trkpt lat="42.57189" lon="2.0679">
        <ele>1729</ele>
        <time>2020-07-21T09:16:37.105Z</time>
      </trkpt>
      <trkpt lat="42.57192" lon="2.0679">
        <ele>1728</ele>
        <time>2020-07-21T09:16:38.105Z</time>
      </trkpt>
      <trkpt lat="42.57195" lon="2.06791">
        <ele>1727</ele>
        <time>2020-07-21T09:16:39.105Z</time>
      </trkpt>
      <trkpt lat="42.57198" lon="2.06792">
        <ele>1726</ele>
        <time>2020-07-21T09:16:40.105Z</time>
      </trkpt>
      <trkpt lat="42.57202" lon="2.06793">
        <ele>1725</ele>
        <time>2020-07-21T09:16:41.105Z</time>
      </trkpt>
      <trkpt lat="42.57205" lon="2.06793">
        <ele>1723</ele>
        <time>2020-07-21T09:16:42.105Z</time>
      </trkpt>
      <trkpt lat="42.57208" lon="2.06793">
        <ele>1722</ele>
        <time>2020-07-21T09:16:43.105Z</time>
      </trkpt>
      <trkpt lat="42.57211" lon="2.06793">
        <ele>1721</ele>
        <time>2020-07-21T09:16:44.105Z</time>
      </trkpt>
      <trkpt lat="42.57215" lon="2.06794">
        <ele>1720</ele>
        <time>2020-07-21T09:16:45.105Z</time>
      </trkpt>
      <trkpt lat="42.57218" lon="2.06794">
        <ele>1719</ele>
        <time>2020-07-21T09:16:46.105Z</time>
      </trkpt>
      <trkpt lat="42.57221" lon="2.06795">
        <ele>1720</ele>
        <time>2020-07-21T09:16:47.105Z</time>
      </trkpt>
      <trkpt lat="42.57224" lon="2.06794">
        <ele>1718</ele>
        <time>2020-07-21T09:16:48.105Z</time>
      </trkpt>
      <trkpt lat="42.57227" lon="2.06794">
        <ele>1718</ele>
        <time>2020-07-21T09:16:49.105Z</time>
      </trkpt>
      <trkpt lat="42.5723" lon="2.06793">
        <ele>1718</ele>
        <time>2020-07-21T09:16:50.105Z</time>
      </trkpt>
      <trkpt lat="42.57234" lon="2.06793">
        <ele>1718</ele>
        <time>2020-07-21T09:16:51.105Z</time>
      </trkpt>
      <trkpt lat="42.57237" lon="2.06792">
        <ele>1717</ele>
        <time>2020-07-21T09:16:52.105Z</time>
      </trkpt>
      <trkpt lat="42.57241" lon="2.06792">
        <ele>1717</ele>
        <time>2020-07-21T09:16:53.105Z</time>
      </trkpt>
      <trkpt lat="42.57244" lon="2.06791">
        <ele>1716</ele>
        <time>2020-07-21T09:16:54.105Z</time>
      </trkpt>
      <trkpt lat="42.57248" lon="2.06791">
        <ele>1716</ele>
        <time>2020-07-21T09:16:55.105Z</time>
      </trkpt>
      <trkpt lat="42.57252" lon="2.06791">
        <ele>1714</ele>
        <time>2020-07-21T09:16:56.105Z</time>
      </trkpt>
      <trkpt lat="42.57255" lon="2.06791">
        <ele>1713</ele>
        <time>2020-07-21T09:16:57.105Z</time>
      </trkpt>
      <trkpt lat="42.57259" lon="2.06791">
        <ele>1714</ele>
        <time>2020-07-21T09:16:58.105Z</time>
      </trkpt>
      <trkpt lat="42.57262" lon="2.06791">
        <ele>1714</ele>
        <time>2020-07-21T09:16:59.105Z</time>
      </trkpt>
      <trkpt lat="42.57265" lon="2.06791">
        <ele>1713</ele>
        <time>2020-07-21T09:17:00.105Z</time>
      </trkpt>
      <trkpt lat="42.57269" lon="2.0679">
        <ele>1711</ele>
        <time>2020-07-21T09:17:01.105Z</time>
      </trkpt>
      <trkpt lat="42.57272" lon="2.0679">
        <ele>1712</ele>
        <time>2020-07-21T09:17:02.105Z</time>
      </trkpt>
      <trkpt lat="42.57275" lon="2.06789">
        <ele>1711</ele>
        <time>2020-07-21T09:17:03.105Z</time>
      </trkpt>
      <trkpt lat="42.57278" lon="2.06788">
        <ele>1711</ele>
        <time>2020-07-21T09:17:04.105Z</time>
      </trkpt>
      <trkpt lat="42.57281" lon="2.06788">
        <ele>1710</ele>
        <time>2020-07-21T09:17:05.105Z</time>
      </trkpt>
      <trkpt lat="42.57284" lon="2.06788">
        <ele>1710</ele>
        <time>2020-07-21T09:17:06.105Z</time>
      </trkpt>
      <trkpt lat="42.57288" lon="2.06788">
        <ele>1709</ele>
        <time>2020-07-21T09:17:07.105Z</time>
      </trkpt>
      <trkpt lat="42.57292" lon="2.06788">
        <ele>1710</ele>
        <time>2020-07-21T09:17:08.105Z</time>
      </trkpt>
      <trkpt lat="42.57296" lon="2.06787">
        <ele>1708</ele>
        <time>2020-07-21T09:17:09.105Z</time>
      </trkpt>
      <trkpt lat="42.573" lon="2.06787">
        <ele>1708</ele>
        <time>2020-07-21T09:17:10.105Z</time>
      </trkpt>
      <trkpt lat="42.57303" lon="2.06786">
        <ele>1707</ele>
        <time>2020-07-21T09:17:11.105Z</time>
      </trkpt>
      <trkpt lat="42.57306" lon="2.06785">
        <ele>1706</ele>
        <time>2020-07-21T09:17:12.105Z</time>
      </trkpt>
      <trkpt lat="42.5731" lon="2.06785">
        <ele>1706</ele>
        <time>2020-07-21T09:17:13.105Z</time>
      </trkpt>
      <trkpt lat="42.57314" lon="2.06785">
        <ele>1706</ele>
        <time>2020-07-21T09:17:14.105Z</time>
      </trkpt>
      <trkpt lat="42.57317" lon="2.06784">
        <ele>1705</ele>
        <time>2020-07-21T09:17:15.105Z</time>
      </trkpt>
      <trkpt lat="42.57321" lon="2.06784">
        <ele>1704</ele>
        <time>2020-07-21T09:17:16.105Z</time>
      </trkpt>
      <trkpt lat="42.57324" lon="2.06784">
        <ele>1704</ele>
        <time>2020-07-21T09:17:17.105Z</time>
      </trkpt>
      <trkpt lat="42.57328" lon="2.06784">
        <ele>1703</ele>
        <time>2020-07-21T09:17:18.105Z</time>
      </trkpt>
      <trkpt lat="42.57332" lon="2.06783">
        <ele>1703</ele>
        <time>2020-07-21T09:17:19.105Z</time>
      </trkpt>
      <trkpt lat="42.57335" lon="2.06783">
        <ele>1703</ele>
        <time>2020-07-21T09:17:20.105Z</time>
      </trkpt>
      <trkpt lat="42.57338" lon="2.06785">
        <ele>1705</ele>
        <time>2020-07-21T09:17:21.105Z</time>
      </trkpt>
      <trkpt lat="42.57341" lon="2.06786">
        <ele>1705</ele>
        <time>2020-07-21T09:17:22.105Z</time>
      </trkpt>
      <trkpt lat="42.57345" lon="2.06788">
        <ele>1704</ele>
        <time>2020-07-21T09:17:23.105Z</time>
      </trkpt>
      <trkpt lat="42.57348" lon="2.06789">
        <ele>1702</ele>
        <time>2020-07-21T09:17:24.105Z</time>
      </trkpt>
      <trkpt lat="42.57351" lon="2.0679">
        <ele>1701</ele>
        <time>2020-07-21T09:17:25.105Z</time>
      </trkpt>
      <trkpt lat="42.57354" lon="2.0679">
        <ele>1700</ele>
        <time>2020-07-21T09:17:26.105Z</time>
      </trkpt>
      <trkpt lat="42.57358" lon="2.0679">
        <ele>1699</ele>
        <time>2020-07-21T09:17:27.105Z</time>
      </trkpt>
      <trkpt lat="42.57362" lon="2.0679">
        <ele>1698</ele>
        <time>2020-07-21T09:17:28.105Z</time>
      </trkpt>
      <trkpt lat="42.57366" lon="2.0679">
        <ele>1697</ele>
        <time>2020-07-21T09:17:29.105Z</time>
      </trkpt>
      <trkpt lat="42.5737" lon="2.0679">
        <ele>1695</ele>
        <time>2020-07-21T09:17:30.105Z</time>
      </trkpt>
      <trkpt lat="42.57374" lon="2.0679">
        <ele>1694</ele>
        <time>2020-07-21T09:17:31.105Z</time>
      </trkpt>
      <trkpt lat="42.57378" lon="2.06791">
        <ele>1695</ele>
        <time>2020-07-21T09:17:32.105Z</time>
      </trkpt>
      <trkpt lat="42.57381" lon="2.06791">
        <ele>1695</ele>
        <time>2020-07-21T09:17:33.105Z</time>
      </trkpt>
      <trkpt lat="42.57385" lon="2.06792">
        <ele>1695</ele>
        <time>2020-07-21T09:17:34.105Z</time>
      </trkpt>
      <trkpt lat="42.57389" lon="2.06792">
        <ele>1695</ele>
        <time>2020-07-21T09:17:35.105Z</time>
      </trkpt>
      <trkpt lat="42.57393" lon="2.06792">
        <ele>1694</ele>
        <time>2020-07-21T09:17:36.105Z</time>
      </trkpt>
      <trkpt lat="42.57396" lon="2.06793">
        <ele>1694</ele>
        <time>2020-07-21T09:17:37.105Z</time>
      </trkpt>
      <trkpt lat="42.574" lon="2.06793">
        <ele>1693</ele>
        <time>2020-07-21T09:17:38.105Z</time>
      </trkpt>
      <trkpt lat="42.57403" lon="2.06794">
        <ele>1692</ele>
        <time>2020-07-21T09:17:39.105Z</time>
      </trkpt>
      <trkpt lat="42.57407" lon="2.06795">
        <ele>1692</ele>
        <time>2020-07-21T09:17:40.105Z</time>
      </trkpt>
      <trkpt lat="42.5741" lon="2.06796">
        <ele>1691</ele>
        <time>2020-07-21T09:17:41.105Z</time>
      </trkpt>
      <trkpt lat="42.57414" lon="2.06797">
        <ele>1691</ele>
        <time>2020-07-21T09:17:42.105Z</time>
      </trkpt>
      <trkpt lat="42.57418" lon="2.06798">
        <ele>1690</ele>
        <time>2020-07-21T09:17:43.105Z</time>
      </trkpt>
      <trkpt lat="42.57421" lon="2.06799">
        <ele>1689</ele>
        <time>2020-07-21T09:17:44.105Z</time>
      </trkpt>
      <trkpt lat="42.57425" lon="2.068">
        <ele>1689</ele>
        <time>2020-07-21T09:17:45.105Z</time>
      </trkpt>
      <trkpt lat="42.57429" lon="2.068">
        <ele>1689</ele>
        <time>2020-07-21T09:17:46.105Z</time>
      </trkpt>
      <trkpt lat="42.57433" lon="2.06799">
        <ele>1689</ele>
        <time>2020-07-21T09:17:47.105Z</time>
      </trkpt>
      <trkpt lat="42.57437" lon="2.06798">
        <ele>1686</ele>
        <time>2020-07-21T09:17:48.105Z</time>
      </trkpt>
      <trkpt lat="42.5744" lon="2.06796">
        <ele>1686</ele>
        <time>2020-07-21T09:17:49.105Z</time>
      </trkpt>
      <trkpt lat="42.57444" lon="2.06794">
        <ele>1688</ele>
        <time>2020-07-21T09:17:50.105Z</time>
      </trkpt>
      <trkpt lat="42.57447" lon="2.06792">
        <ele>1688</ele>
        <time>2020-07-21T09:17:51.105Z</time>
      </trkpt>
      <trkpt lat="42.5745" lon="2.06789">
        <ele>1688</ele>
        <time>2020-07-21T09:17:52.105Z</time>
      </trkpt>
      <trkpt lat="42.57452" lon="2.06786">
        <ele>1687</ele>
        <time>2020-07-21T09:17:53.105Z</time>
      </trkpt>
      <trkpt lat="42.57454" lon="2.06782">
        <ele>1687</ele>
        <time>2020-07-21T09:17:54.105Z</time>
      </trkpt>
      <trkpt lat="42.57456" lon="2.06778">
        <ele>1687</ele>
        <time>2020-07-21T09:17:55.105Z</time>
      </trkpt>
      <trkpt lat="42.57459" lon="2.06776">
        <ele>1687</ele>
        <time>2020-07-21T09:17:56.105Z</time>
      </trkpt>
      <trkpt lat="42.57462" lon="2.06773">
        <ele>1687</ele>
        <time>2020-07-21T09:17:57.105Z</time>
      </trkpt>
      <trkpt lat="42.57464" lon="2.0677">
        <ele>1687</ele>
        <time>2020-07-21T09:17:58.105Z</time>
      </trkpt>
      <trkpt lat="42.57468" lon="2.06768">
        <ele>1689</ele>
        <time>2020-07-21T09:17:59.105Z</time>
      </trkpt>
      <trkpt lat="42.57471" lon="2.06767">
        <ele>1688</ele>
        <time>2020-07-21T09:18:00.105Z</time>
      </trkpt>
      <trkpt lat="42.57474" lon="2.06766">
        <ele>1688</ele>
        <time>2020-07-21T09:18:01.105Z</time>
      </trkpt>
      <trkpt lat="42.57477" lon="2.06765">
        <ele>1688</ele>
        <time>2020-07-21T09:18:02.105Z</time>
      </trkpt>
      <trkpt lat="42.5748" lon="2.06764">
        <ele>1688</ele>
        <time>2020-07-21T09:18:03.105Z</time>
      </trkpt>
      <trkpt lat="42.57484" lon="2.06765">
        <ele>1687</ele>
        <time>2020-07-21T09:18:04.105Z</time>
      </trkpt>
      <trkpt lat="42.57487" lon="2.06765">
        <ele>1686</ele>
        <time>2020-07-21T09:18:05.105Z</time>
      </trkpt>
      <trkpt lat="42.57491" lon="2.06766">
        <ele>1686</ele>
        <time>2020-07-21T09:18:06.105Z</time>
      </trkpt>
      <trkpt lat="42.57494" lon="2.06766">
        <ele>1686</ele>
        <time>2020-07-21T09:18:07.105Z</time>
      </trkpt>
      <trkpt lat="42.57497" lon="2.06766">
        <ele>1685</ele>
        <time>2020-07-21T09:18:08.105Z</time>
      </trkpt>
      <trkpt lat="42.57501" lon="2.06766">
        <ele>1685</ele>
        <time>2020-07-21T09:18:09.105Z</time>
      </trkpt>
      <trkpt lat="42.57504" lon="2.06767">
        <ele>1684</ele>
        <time>2020-07-21T09:18:10.105Z</time>
      </trkpt>
      <trkpt lat="42.57507" lon="2.06767">
        <ele>1684</ele>
        <time>2020-07-21T09:18:11.105Z</time>
      </trkpt>
      <trkpt lat="42.57511" lon="2.06768">
        <ele>1683</ele>
        <time>2020-07-21T09:18:12.105Z</time>
      </trkpt>
      <trkpt lat="42.57514" lon="2.06769">
        <ele>1683</ele>
        <time>2020-07-21T09:18:13.105Z</time>
      </trkpt>
      <trkpt lat="42.57518" lon="2.0677">
        <ele>1682</ele>
        <time>2020-07-21T09:18:14.105Z</time>
      </trkpt>
      <trkpt lat="42.57521" lon="2.06772">
        <ele>1683</ele>
        <time>2020-07-21T09:18:15.105Z</time>
      </trkpt>
      <trkpt lat="42.57524" lon="2.06774">
        <ele>1682</ele>
        <time>2020-07-21T09:18:16.105Z</time>
      </trkpt>
      <trkpt lat="42.57527" lon="2.06775">
        <ele>1681</ele>
        <time>2020-07-21T09:18:17.105Z</time>
      </trkpt>
      <trkpt lat="42.5753" lon="2.06777">
        <ele>1680</ele>
        <time>2020-07-21T09:18:18.105Z</time>
      </trkpt>
      <trkpt lat="42.57533" lon="2.06778">
        <ele>1680</ele>
        <time>2020-07-21T09:18:19.105Z</time>
      </trkpt>
      <trkpt lat="42.57536" lon="2.06779">
        <ele>1680</ele>
        <time>2020-07-21T09:18:20.105Z</time>
      </trkpt>
      <trkpt lat="42.57539" lon="2.06781">
        <ele>1678</ele>
        <time>2020-07-21T09:18:21.105Z</time>
      </trkpt>
      <trkpt lat="42.57542" lon="2.06784">
        <ele>1677</ele>
        <time>2020-07-21T09:18:22.105Z</time>
      </trkpt>
      <trkpt lat="42.57545" lon="2.06786">
        <ele>1675</ele>
        <time>2020-07-21T09:18:23.105Z</time>
      </trkpt>
      <trkpt lat="42.57548" lon="2.0679">
        <ele>1674</ele>
        <time>2020-07-21T09:18:24.105Z</time>
      </trkpt>
      <trkpt lat="42.5755" lon="2.06793">
        <ele>1673</ele>
        <time>2020-07-21T09:18:25.105Z</time>
      </trkpt>
      <trkpt lat="42.57548" lon="2.06798">
        <ele>1673</ele>
        <time>2020-07-21T09:18:26.105Z</time>
      </trkpt>
      <trkpt lat="42.57545" lon="2.06802">
        <ele>1673</ele>
        <time>2020-07-21T09:18:27.105Z</time>
      </trkpt>
      <trkpt lat="42.57543" lon="2.06806">
        <ele>1672</ele>
        <time>2020-07-21T09:18:28.105Z</time>
      </trkpt>
      <trkpt lat="42.57541" lon="2.06809">
        <ele>1671</ele>
        <time>2020-07-21T09:18:29.105Z</time>
      </trkpt>
      <trkpt lat="42.57539" lon="2.06812">
        <ele>1669</ele>
        <time>2020-07-21T09:18:30.105Z</time>
      </trkpt>
      <trkpt lat="42.57537" lon="2.06814">
        <ele>1668</ele>
        <time>2020-07-21T09:18:31.105Z</time>
      </trkpt>
      <trkpt lat="42.57534" lon="2.06816">
        <ele>1669</ele>
        <time>2020-07-21T09:18:32.105Z</time>
      </trkpt>
      <trkpt lat="42.57532" lon="2.06818">
        <ele>1668</ele>
        <time>2020-07-21T09:18:33.105Z</time>
      </trkpt>
      <trkpt lat="42.57529" lon="2.06821">
        <ele>1667</ele>
        <time>2020-07-21T09:18:34.105Z</time>
      </trkpt>
      <trkpt lat="42.57527" lon="2.06823">
        <ele>1666</ele>
        <time>2020-07-21T09:18:35.105Z</time>
      </trkpt>
      <trkpt lat="42.57525" lon="2.06826">
        <ele>1666</ele>
        <time>2020-07-21T09:18:36.105Z</time>
      </trkpt>
      <trkpt lat="42.57522" lon="2.06829">
        <ele>1665</ele>
        <time>2020-07-21T09:18:37.105Z</time>
      </trkpt>
      <trkpt lat="42.5752" lon="2.06832">
        <ele>1663</ele>
        <time>2020-07-21T09:18:38.105Z</time>
      </trkpt>
      <trkpt lat="42.57519" lon="2.06835">
        <ele>1662</ele>
        <time>2020-07-21T09:18:39.105Z</time>
      </trkpt>
      <trkpt lat="42.57518" lon="2.06839">
        <ele>1662</ele>
        <time>2020-07-21T09:18:40.105Z</time>
      </trkpt>
      <trkpt lat="42.57516" lon="2.06843">
        <ele>1662</ele>
        <time>2020-07-21T09:18:41.105Z</time>
      </trkpt>
      <trkpt lat="42.57515" lon="2.06847">
        <ele>1661</ele>
        <time>2020-07-21T09:18:42.105Z</time>
      </trkpt>
      <trkpt lat="42.57513" lon="2.0685">
        <ele>1660</ele>
        <time>2020-07-21T09:18:43.105Z</time>
      </trkpt>
      <trkpt lat="42.57512" lon="2.06855">
        <ele>1659</ele>
        <time>2020-07-21T09:18:44.105Z</time>
      </trkpt>
      <trkpt lat="42.57511" lon="2.06859">
        <ele>1658</ele>
        <time>2020-07-21T09:18:45.105Z</time>
      </trkpt>
      <trkpt lat="42.5751" lon="2.06863">
        <ele>1658</ele>
        <time>2020-07-21T09:18:46.105Z</time>
      </trkpt>
      <trkpt lat="42.5751" lon="2.06868">
        <ele>1656</ele>
        <time>2020-07-21T09:18:47.105Z</time>
      </trkpt>
      <trkpt lat="42.5751" lon="2.06873">
        <ele>1657</ele>
        <time>2020-07-21T09:18:48.105Z</time>
      </trkpt>
      <trkpt lat="42.57511" lon="2.06878">
        <ele>1659</ele>
        <time>2020-07-21T09:18:49.105Z</time>
      </trkpt>
      <trkpt lat="42.57511" lon="2.06883">
        <ele>1660</ele>
        <time>2020-07-21T09:18:50.105Z</time>
      </trkpt>
      <trkpt lat="42.57512" lon="2.06887">
        <ele>1659</ele>
        <time>2020-07-21T09:18:51.105Z</time>
      </trkpt>
      <trkpt lat="42.57513" lon="2.06891">
        <ele>1657</ele>
        <time>2020-07-21T09:18:52.105Z</time>
      </trkpt>
      <trkpt lat="42.57515" lon="2.06894">
        <ele>1657</ele>
        <time>2020-07-21T09:18:53.105Z</time>
      </trkpt>
      <trkpt lat="42.57517" lon="2.06898">
        <ele>1656</ele>
        <time>2020-07-21T09:18:54.105Z</time>
      </trkpt>
      <trkpt lat="42.57519" lon="2.06902">
        <ele>1657</ele>
        <time>2020-07-21T09:18:55.105Z</time>
      </trkpt>
      <trkpt lat="42.57522" lon="2.06906">
        <ele>1656</ele>
        <time>2020-07-21T09:18:56.105Z</time>
      </trkpt>
      <trkpt lat="42.57523" lon="2.0691">
        <ele>1655</ele>
        <time>2020-07-21T09:18:57.105Z</time>
      </trkpt>
      <trkpt lat="42.57523" lon="2.06913">
        <ele>1656</ele>
        <time>2020-07-21T09:18:58.105Z</time>
      </trkpt>
      <trkpt lat="42.57522" lon="2.06917">
        <ele>1656</ele>
        <time>2020-07-21T09:18:59.105Z</time>
      </trkpt>
      <trkpt lat="42.5752" lon="2.0692">
        <ele>1657</ele>
        <time>2020-07-21T09:19:00.105Z</time>
      </trkpt>
      <trkpt lat="42.57518" lon="2.06922">
        <ele>1658</ele>
        <time>2020-07-21T09:19:01.105Z</time>
      </trkpt>
      <trkpt lat="42.57516" lon="2.06925">
        <ele>1658</ele>
        <time>2020-07-21T09:19:02.105Z</time>
      </trkpt>
      <trkpt lat="42.57515" lon="2.06927">
        <ele>1658</ele>
        <time>2020-07-21T09:19:03.105Z</time>
      </trkpt>
      <trkpt lat="42.57514" lon="2.0693">
        <ele>1656</ele>
        <time>2020-07-21T09:19:04.105Z</time>
      </trkpt>
      <trkpt lat="42.57514" lon="2.06933">
        <ele>1655</ele>
        <time>2020-07-21T09:19:05.105Z</time>
      </trkpt>
      <trkpt lat="42.57514" lon="2.06935">
        <ele>1653</ele>
        <time>2020-07-21T09:19:06.105Z</time>
      </trkpt>
      <trkpt lat="42.57515" lon="2.06935">
        <ele>1651</ele>
        <time>2020-07-21T09:19:07.105Z</time>
      </trkpt>
      <trkpt lat="42.57516" lon="2.06936">
        <ele>1650</ele>
        <time>2020-07-21T09:19:08.105Z</time>
      </trkpt>
      <trkpt lat="42.57518" lon="2.06936">
        <ele>1649</ele>
        <time>2020-07-21T09:19:09.105Z</time>
      </trkpt>
      <trkpt lat="42.5752" lon="2.06935">
        <ele>1649</ele>
        <time>2020-07-21T09:19:10.105Z</time>
      </trkpt>
      <trkpt lat="42.57523" lon="2.06934">
        <ele>1648</ele>
        <time>2020-07-21T09:19:11.105Z</time>
      </trkpt>
      <trkpt lat="42.57526" lon="2.06934">
        <ele>1648</ele>
        <time>2020-07-21T09:19:12.105Z</time>
      </trkpt>
      <trkpt lat="42.57529" lon="2.06933">
        <ele>1646</ele>
        <time>2020-07-21T09:19:13.105Z</time>
      </trkpt>
      <trkpt lat="42.57532" lon="2.06933">
        <ele>1646</ele>
        <time>2020-07-21T09:19:14.105Z</time>
      </trkpt>
      <trkpt lat="42.57536" lon="2.06932">
        <ele>1646</ele>
        <time>2020-07-21T09:19:15.105Z</time>
      </trkpt>
      <trkpt lat="42.57539" lon="2.06933">
        <ele>1645</ele>
        <time>2020-07-21T09:19:16.105Z</time>
      </trkpt>
      <trkpt lat="42.57542" lon="2.06933">
        <ele>1645</ele>
        <time>2020-07-21T09:19:17.105Z</time>
      </trkpt>
      <trkpt lat="42.57546" lon="2.06934">
        <ele>1645</ele>
        <time>2020-07-21T09:19:18.105Z</time>
      </trkpt>
      <trkpt lat="42.57549" lon="2.06936">
        <ele>1645</ele>
        <time>2020-07-21T09:19:19.105Z</time>
      </trkpt>
      <trkpt lat="42.57552" lon="2.06937">
        <ele>1645</ele>
        <time>2020-07-21T09:19:20.105Z</time>
      </trkpt>
      <trkpt lat="42.57555" lon="2.06938">
        <ele>1645</ele>
        <time>2020-07-21T09:19:21.105Z</time>
      </trkpt>
      <trkpt lat="42.57558" lon="2.06939">
        <ele>1645</ele>
        <time>2020-07-21T09:19:22.105Z</time>
      </trkpt>
      <trkpt lat="42.57561" lon="2.0694">
        <ele>1645</ele>
        <time>2020-07-21T09:19:23.105Z</time>
      </trkpt>
      <trkpt lat="42.57564" lon="2.06942">
        <ele>1645</ele>
        <time>2020-07-21T09:19:24.105Z</time>
      </trkpt>
      <trkpt lat="42.57567" lon="2.06944">
        <ele>1645</ele>
        <time>2020-07-21T09:19:25.105Z</time>
      </trkpt>
      <trkpt lat="42.5757" lon="2.06946">
        <ele>1644</ele>
        <time>2020-07-21T09:19:26.105Z</time>
      </trkpt>
      <trkpt lat="42.57574" lon="2.0695">
        <ele>1645</ele>
        <time>2020-07-21T09:19:27.105Z</time>
      </trkpt>
      <trkpt lat="42.57578" lon="2.06955">
        <ele>1648</ele>
        <time>2020-07-21T09:19:28.105Z</time>
      </trkpt>
      <trkpt lat="42.57582" lon="2.06959">
        <ele>1649</ele>
        <time>2020-07-21T09:19:29.105Z</time>
      </trkpt>
      <trkpt lat="42.57585" lon="2.06964">
        <ele>1650</ele>
        <time>2020-07-21T09:19:30.105Z</time>
      </trkpt>
      <trkpt lat="42.57589" lon="2.06968">
        <ele>1651</ele>
        <time>2020-07-21T09:19:31.105Z</time>
      </trkpt>
      <trkpt lat="42.57592" lon="2.06972">
        <ele>1650</ele>
        <time>2020-07-21T09:19:32.105Z</time>
      </trkpt>
      <trkpt lat="42.57596" lon="2.06977">
        <ele>1651</ele>
        <time>2020-07-21T09:19:33.105Z</time>
      </trkpt>
      <trkpt lat="42.57599" lon="2.06981">
        <ele>1651</ele>
        <time>2020-07-21T09:19:34.105Z</time>
      </trkpt>
      <trkpt lat="42.57603" lon="2.06985">
        <ele>1651</ele>
        <time>2020-07-21T09:19:35.105Z</time>
      </trkpt>
      <trkpt lat="42.57606" lon="2.06988">
        <ele>1651</ele>
        <time>2020-07-21T09:19:36.105Z</time>
      </trkpt>
      <trkpt lat="42.57608" lon="2.06992">
        <ele>1652</ele>
        <time>2020-07-21T09:19:37.105Z</time>
      </trkpt>
      <trkpt lat="42.57611" lon="2.06995">
        <ele>1653</ele>
        <time>2020-07-21T09:19:38.105Z</time>
      </trkpt>
      <trkpt lat="42.57614" lon="2.06998">
        <ele>1654</ele>
        <time>2020-07-21T09:19:39.105Z</time>
      </trkpt>
      <trkpt lat="42.57617" lon="2.07001">
        <ele>1655</ele>
        <time>2020-07-21T09:19:40.105Z</time>
      </trkpt>
      <trkpt lat="42.5762" lon="2.07005">
        <ele>1656</ele>
        <time>2020-07-21T09:19:41.105Z</time>
      </trkpt>
      <trkpt lat="42.57622" lon="2.07008">
        <ele>1656</ele>
        <time>2020-07-21T09:19:42.105Z</time>
      </trkpt>
      <trkpt lat="42.57625" lon="2.07011">
        <ele>1656</ele>
        <time>2020-07-21T09:19:43.105Z</time>
      </trkpt>
      <trkpt lat="42.57627" lon="2.07015">
        <ele>1655</ele>
        <time>2020-07-21T09:19:44.105Z</time>
      </trkpt>
      <trkpt lat="42.57629" lon="2.07018">
        <ele>1655</ele>
        <time>2020-07-21T09:19:45.105Z</time>
      </trkpt>
      <trkpt lat="42.57632" lon="2.07021">
        <ele>1657</ele>
        <time>2020-07-21T09:19:46.105Z</time>
      </trkpt>
      <trkpt lat="42.57636" lon="2.07024">
        <ele>1657</ele>
        <time>2020-07-21T09:19:47.105Z</time>
      </trkpt>
      <trkpt lat="42.57639" lon="2.07028">
        <ele>1655</ele>
        <time>2020-07-21T09:19:48.105Z</time>
      </trkpt>
      <trkpt lat="42.57642" lon="2.07031">
        <ele>1657</ele>
        <time>2020-07-21T09:19:49.105Z</time>
      </trkpt>
      <trkpt lat="42.57644" lon="2.07035">
        <ele>1656</ele>
        <time>2020-07-21T09:19:50.105Z</time>
      </trkpt>
      <trkpt lat="42.57647" lon="2.07038">
        <ele>1656</ele>
        <time>2020-07-21T09:19:51.105Z</time>
      </trkpt>
      <trkpt lat="42.5765" lon="2.07042">
        <ele>1656</ele>
        <time>2020-07-21T09:19:52.105Z</time>
      </trkpt>
      <trkpt lat="42.57653" lon="2.07045">
        <ele>1657</ele>
        <time>2020-07-21T09:19:53.105Z</time>
      </trkpt>
      <trkpt lat="42.57655" lon="2.07049">
        <ele>1658</ele>
        <time>2020-07-21T09:19:54.105Z</time>
      </trkpt>
      <trkpt lat="42.57659" lon="2.07053">
        <ele>1661</ele>
        <time>2020-07-21T09:19:55.105Z</time>
      </trkpt>
      <trkpt lat="42.57662" lon="2.07057">
        <ele>1661</ele>
        <time>2020-07-21T09:19:56.105Z</time>
      </trkpt>
      <trkpt lat="42.57665" lon="2.0706">
        <ele>1662</ele>
        <time>2020-07-21T09:19:57.105Z</time>
      </trkpt>
      <trkpt lat="42.57668" lon="2.07064">
        <ele>1663</ele>
        <time>2020-07-21T09:19:58.105Z</time>
      </trkpt>
      <trkpt lat="42.5767" lon="2.07068">
        <ele>1663</ele>
        <time>2020-07-21T09:19:59.105Z</time>
      </trkpt>
      <trkpt lat="42.57673" lon="2.07071">
        <ele>1664</ele>
        <time>2020-07-21T09:20:00.105Z</time>
      </trkpt>
      <trkpt lat="42.57676" lon="2.07075">
        <ele>1664</ele>
        <time>2020-07-21T09:20:01.105Z</time>
      </trkpt>
      <trkpt lat="42.57679" lon="2.07078">
        <ele>1664</ele>
        <time>2020-07-21T09:20:02.105Z</time>
      </trkpt>
      <trkpt lat="42.57681" lon="2.07082">
        <ele>1664</ele>
        <time>2020-07-21T09:20:03.105Z</time>
      </trkpt>
      <trkpt lat="42.57683" lon="2.07085">
        <ele>1663</ele>
        <time>2020-07-21T09:20:04.105Z</time>
      </trkpt>
      <trkpt lat="42.57685" lon="2.07089">
        <ele>1664</ele>
        <time>2020-07-21T09:20:05.105Z</time>
      </trkpt>
      <trkpt lat="42.57688" lon="2.07093">
        <ele>1662</ele>
        <time>2020-07-21T09:20:06.105Z</time>
      </trkpt>
      <trkpt lat="42.5769" lon="2.07096">
        <ele>1661</ele>
        <time>2020-07-21T09:20:07.105Z</time>
      </trkpt>
      <trkpt lat="42.57692" lon="2.071">
        <ele>1660</ele>
        <time>2020-07-21T09:20:08.105Z</time>
      </trkpt>
      <trkpt lat="42.57694" lon="2.07104">
        <ele>1660</ele>
        <time>2020-07-21T09:20:09.105Z</time>
      </trkpt>
      <trkpt lat="42.57696" lon="2.07108">
        <ele>1661</ele>
        <time>2020-07-21T09:20:10.105Z</time>
      </trkpt>
      <trkpt lat="42.57698" lon="2.07111">
        <ele>1660</ele>
        <time>2020-07-21T09:20:11.105Z</time>
      </trkpt>
      <trkpt lat="42.577" lon="2.07115">
        <ele>1660</ele>
        <time>2020-07-21T09:20:12.105Z</time>
      </trkpt>
      <trkpt lat="42.57702" lon="2.07119">
        <ele>1659</ele>
        <time>2020-07-21T09:20:13.105Z</time>
      </trkpt>
      <trkpt lat="42.57704" lon="2.07123">
        <ele>1658</ele>
        <time>2020-07-21T09:20:14.105Z</time>
      </trkpt>
      <trkpt lat="42.57706" lon="2.07126">
        <ele>1658</ele>
        <time>2020-07-21T09:20:15.105Z</time>
      </trkpt>
      <trkpt lat="42.57708" lon="2.0713">
        <ele>1658</ele>
        <time>2020-07-21T09:20:16.105Z</time>
      </trkpt>
      <trkpt lat="42.5771" lon="2.07134">
        <ele>1657</ele>
        <time>2020-07-21T09:20:17.105Z</time>
      </trkpt>
      <trkpt lat="42.57712" lon="2.07137">
        <ele>1658</ele>
        <time>2020-07-21T09:20:18.105Z</time>
      </trkpt>
      <trkpt lat="42.57714" lon="2.0714">
        <ele>1657</ele>
        <time>2020-07-21T09:20:19.105Z</time>
      </trkpt>
      <trkpt lat="42.57716" lon="2.07144">
        <ele>1657</ele>
        <time>2020-07-21T09:20:20.105Z</time>
      </trkpt>
      <trkpt lat="42.57718" lon="2.07147">
        <ele>1658</ele>
        <time>2020-07-21T09:20:21.105Z</time>
      </trkpt>
      <trkpt lat="42.57719" lon="2.0715">
        <ele>1658</ele>
        <time>2020-07-21T09:20:22.105Z</time>
      </trkpt>
      <trkpt lat="42.57722" lon="2.07153">
        <ele>1658</ele>
        <time>2020-07-21T09:20:23.105Z</time>
      </trkpt>
      <trkpt lat="42.57724" lon="2.07157">
        <ele>1659</ele>
        <time>2020-07-21T09:20:24.105Z</time>
      </trkpt>
      <trkpt lat="42.57726" lon="2.07161">
        <ele>1658</ele>
        <time>2020-07-21T09:20:25.105Z</time>
      </trkpt>
      <trkpt lat="42.57729" lon="2.07165">
        <ele>1657</ele>
        <time>2020-07-21T09:20:26.105Z</time>
      </trkpt>
      <trkpt lat="42.57731" lon="2.07169">
        <ele>1658</ele>
        <time>2020-07-21T09:20:27.105Z</time>
      </trkpt>
      <trkpt lat="42.57733" lon="2.07172">
        <ele>1658</ele>
        <time>2020-07-21T09:20:28.105Z</time>
      </trkpt>
      <trkpt lat="42.57735" lon="2.07175">
        <ele>1658</ele>
        <time>2020-07-21T09:20:29.105Z</time>
      </trkpt>
      <trkpt lat="42.57737" lon="2.07178">
        <ele>1659</ele>
        <time>2020-07-21T09:20:30.105Z</time>
      </trkpt>
      <trkpt lat="42.57739" lon="2.07181">
        <ele>1660</ele>
        <time>2020-07-21T09:20:31.105Z</time>
      </trkpt>
      <trkpt lat="42.57741" lon="2.07185">
        <ele>1660</ele>
        <time>2020-07-21T09:20:32.105Z</time>
      </trkpt>
      <trkpt lat="42.57743" lon="2.07188">
        <ele>1660</ele>
        <time>2020-07-21T09:20:33.105Z</time>
      </trkpt>
      <trkpt lat="42.57745" lon="2.07191">
        <ele>1660</ele>
        <time>2020-07-21T09:20:34.105Z</time>
      </trkpt>
      <trkpt lat="42.57747" lon="2.07195">
        <ele>1659</ele>
        <time>2020-07-21T09:20:35.105Z</time>
      </trkpt>
      <trkpt lat="42.57749" lon="2.07198">
        <ele>1657</ele>
        <time>2020-07-21T09:20:36.105Z</time>
      </trkpt>
      <trkpt lat="42.5775" lon="2.07202">
        <ele>1656</ele>
        <time>2020-07-21T09:20:37.105Z</time>
      </trkpt>
      <trkpt lat="42.5775" lon="2.07207">
        <ele>1655</ele>
        <time>2020-07-21T09:20:38.105Z</time>
      </trkpt>
      <trkpt lat="42.5775" lon="2.07212">
        <ele>1654</ele>
        <time>2020-07-21T09:20:39.105Z</time>
      </trkpt>
      <trkpt lat="42.5775" lon="2.07217">
        <ele>1654</ele>
        <time>2020-07-21T09:20:40.105Z</time>
      </trkpt>
      <trkpt lat="42.5775" lon="2.07221">
        <ele>1654</ele>
        <time>2020-07-21T09:20:41.105Z</time>
      </trkpt>
      <trkpt lat="42.57751" lon="2.07226">
        <ele>1654</ele>
        <time>2020-07-21T09:20:42.105Z</time>
      </trkpt>
      <trkpt lat="42.57752" lon="2.0723">
        <ele>1654</ele>
        <time>2020-07-21T09:20:43.105Z</time>
      </trkpt>
      <trkpt lat="42.57753" lon="2.07235">
        <ele>1654</ele>
        <time>2020-07-21T09:20:44.105Z</time>
      </trkpt>
      <trkpt lat="42.57754" lon="2.07239">
        <ele>1655</ele>
        <time>2020-07-21T09:20:45.105Z</time>
      </trkpt>
      <trkpt lat="42.57755" lon="2.07243">
        <ele>1655</ele>
        <time>2020-07-21T09:20:46.105Z</time>
      </trkpt>
      <trkpt lat="42.57756" lon="2.07247">
        <ele>1655</ele>
        <time>2020-07-21T09:20:47.105Z</time>
      </trkpt>
      <trkpt lat="42.57757" lon="2.07251">
        <ele>1654</ele>
        <time>2020-07-21T09:20:48.105Z</time>
      </trkpt>
      <trkpt lat="42.57758" lon="2.07255">
        <ele>1655</ele>
        <time>2020-07-21T09:20:49.105Z</time>
      </trkpt>
      <trkpt lat="42.5776" lon="2.07258">
        <ele>1655</ele>
        <time>2020-07-21T09:20:50.105Z</time>
      </trkpt>
      <trkpt lat="42.57762" lon="2.07261">
        <ele>1655</ele>
        <time>2020-07-21T09:20:51.105Z</time>
      </trkpt>
      <trkpt lat="42.57764" lon="2.07264">
        <ele>1656</ele>
        <time>2020-07-21T09:20:52.105Z</time>
      </trkpt>
      <trkpt lat="42.57766" lon="2.07267">
        <ele>1655</ele>
        <time>2020-07-21T09:20:53.105Z</time>
      </trkpt>
      <trkpt lat="42.57768" lon="2.0727">
        <ele>1655</ele>
        <time>2020-07-21T09:20:54.105Z</time>
      </trkpt>
      <trkpt lat="42.5777" lon="2.07273">
        <ele>1654</ele>
        <time>2020-07-21T09:20:55.105Z</time>
      </trkpt>
      <trkpt lat="42.57773" lon="2.07274">
        <ele>1654</ele>
        <time>2020-07-21T09:20:56.105Z</time>
      </trkpt>
      <trkpt lat="42.57776" lon="2.07275">
        <ele>1655</ele>
        <time>2020-07-21T09:20:57.105Z</time>
      </trkpt>
      <trkpt lat="42.5778" lon="2.07275">
        <ele>1655</ele>
        <time>2020-07-21T09:20:58.105Z</time>
      </trkpt>
      <trkpt lat="42.57783" lon="2.07276">
        <ele>1656</ele>
        <time>2020-07-21T09:20:59.105Z</time>
      </trkpt>
      <trkpt lat="42.57786" lon="2.07276">
        <ele>1656</ele>
        <time>2020-07-21T09:21:00.105Z</time>
      </trkpt>
      <trkpt lat="42.57789" lon="2.07277">
        <ele>1656</ele>
        <time>2020-07-21T09:21:01.105Z</time>
      </trkpt>
      <trkpt lat="42.57793" lon="2.07277">
        <ele>1657</ele>
        <time>2020-07-21T09:21:02.105Z</time>
      </trkpt>
      <trkpt lat="42.57796" lon="2.07278">
        <ele>1657</ele>
        <time>2020-07-21T09:21:03.105Z</time>
      </trkpt>
      <trkpt lat="42.57799" lon="2.07278">
        <ele>1658</ele>
        <time>2020-07-21T09:21:04.105Z</time>
      </trkpt>
      <trkpt lat="42.57803" lon="2.07278">
        <ele>1658</ele>
        <time>2020-07-21T09:21:05.105Z</time>
      </trkpt>
      <trkpt lat="42.57806" lon="2.07278">
        <ele>1658</ele>
        <time>2020-07-21T09:21:06.105Z</time>
      </trkpt>
      <trkpt lat="42.57808" lon="2.07279">
        <ele>1659</ele>
        <time>2020-07-21T09:21:07.105Z</time>
      </trkpt>
      <trkpt lat="42.57811" lon="2.0728">
        <ele>1658</ele>
        <time>2020-07-21T09:21:08.105Z</time>
      </trkpt>
      <trkpt lat="42.57813" lon="2.07282">
        <ele>1658</ele>
        <time>2020-07-21T09:21:09.105Z</time>
      </trkpt>
      <trkpt lat="42.57816" lon="2.07284">
        <ele>1658</ele>
        <time>2020-07-21T09:21:10.105Z</time>
      </trkpt>
      <trkpt lat="42.57818" lon="2.07285">
        <ele>1658</ele>
        <time>2020-07-21T09:21:11.105Z</time>
      </trkpt>
      <trkpt lat="42.5782" lon="2.07287">
        <ele>1657</ele>
        <time>2020-07-21T09:21:12.105Z</time>
      </trkpt>
      <trkpt lat="42.57823" lon="2.07289">
        <ele>1658</ele>
        <time>2020-07-21T09:21:13.105Z</time>
      </trkpt>
      <trkpt lat="42.57825" lon="2.07291">
        <ele>1657</ele>
        <time>2020-07-21T09:21:14.105Z</time>
      </trkpt>
      <trkpt lat="42.57828" lon="2.07293">
        <ele>1657</ele>
        <time>2020-07-21T09:21:15.105Z</time>
      </trkpt>
      <trkpt lat="42.57831" lon="2.07296">
        <ele>1657</ele>
        <time>2020-07-21T09:21:16.105Z</time>
      </trkpt>
      <trkpt lat="42.57833" lon="2.07298">
        <ele>1656</ele>
        <time>2020-07-21T09:21:17.105Z</time>
      </trkpt>
      <trkpt lat="42.57836" lon="2.073">
        <ele>1656</ele>
        <time>2020-07-21T09:21:18.105Z</time>
      </trkpt>
      <trkpt lat="42.57838" lon="2.07303">
        <ele>1656</ele>
        <time>2020-07-21T09:21:19.105Z</time>
      </trkpt>
      <trkpt lat="42.57841" lon="2.07306">
        <ele>1658</ele>
        <time>2020-07-21T09:21:20.105Z</time>
      </trkpt>
      <trkpt lat="42.57843" lon="2.07309">
        <ele>1658</ele>
        <time>2020-07-21T09:21:21.105Z</time>
      </trkpt>
      <trkpt lat="42.57846" lon="2.07312">
        <ele>1659</ele>
        <time>2020-07-21T09:21:22.105Z</time>
      </trkpt>
      <trkpt lat="42.57849" lon="2.07315">
        <ele>1660</ele>
        <time>2020-07-21T09:21:23.105Z</time>
      </trkpt>
      <trkpt lat="42.57852" lon="2.07318">
        <ele>1660</ele>
        <time>2020-07-21T09:21:24.105Z</time>
      </trkpt>
      <trkpt lat="42.57855" lon="2.07322">
        <ele>1661</ele>
        <time>2020-07-21T09:21:25.105Z</time>
      </trkpt>
      <trkpt lat="42.57858" lon="2.07325">
        <ele>1661</ele>
        <time>2020-07-21T09:21:26.105Z</time>
      </trkpt>
      <trkpt lat="42.57861" lon="2.07328">
        <ele>1662</ele>
        <time>2020-07-21T09:21:27.105Z</time>
      </trkpt>
      <trkpt lat="42.57864" lon="2.07331">
        <ele>1663</ele>
        <time>2020-07-21T09:21:28.105Z</time>
      </trkpt>
      <trkpt lat="42.57868" lon="2.07335">
        <ele>1663</ele>
        <time>2020-07-21T09:21:29.105Z</time>
      </trkpt>
      <trkpt lat="42.5787" lon="2.07338">
        <ele>1664</ele>
        <time>2020-07-21T09:21:30.105Z</time>
      </trkpt>
      <trkpt lat="42.57873" lon="2.07342">
        <ele>1665</ele>
        <time>2020-07-21T09:21:31.105Z</time>
      </trkpt>
      <trkpt lat="42.57875" lon="2.07345">
        <ele>1665</ele>
        <time>2020-07-21T09:21:32.105Z</time>
      </trkpt>
      <trkpt lat="42.57878" lon="2.07348">
        <ele>1664</ele>
        <time>2020-07-21T09:21:33.105Z</time>
      </trkpt>
      <trkpt lat="42.57879" lon="2.07352">
        <ele>1663</ele>
        <time>2020-07-21T09:21:34.105Z</time>
      </trkpt>
      <trkpt lat="42.57882" lon="2.07356">
        <ele>1664</ele>
        <time>2020-07-21T09:21:35.105Z</time>
      </trkpt>
      <trkpt lat="42.57884" lon="2.07361">
        <ele>1664</ele>
        <time>2020-07-21T09:21:36.105Z</time>
      </trkpt>
      <trkpt lat="42.57887" lon="2.07365">
        <ele>1664</ele>
        <time>2020-07-21T09:21:37.105Z</time>
      </trkpt>
      <trkpt lat="42.57889" lon="2.0737">
        <ele>1663</ele>
        <time>2020-07-21T09:21:38.105Z</time>
      </trkpt>
      <trkpt lat="42.57891" lon="2.07374">
        <ele>1662</ele>
        <time>2020-07-21T09:21:39.105Z</time>
      </trkpt>
      <trkpt lat="42.57892" lon="2.07378">
        <ele>1662</ele>
        <time>2020-07-21T09:21:40.105Z</time>
      </trkpt>
      <trkpt lat="42.57894" lon="2.07382">
        <ele>1663</ele>
        <time>2020-07-21T09:21:41.105Z</time>
      </trkpt>
      <trkpt lat="42.57896" lon="2.07386">
        <ele>1663</ele>
        <time>2020-07-21T09:21:42.105Z</time>
      </trkpt>
      <trkpt lat="42.57897" lon="2.0739">
        <ele>1664</ele>
        <time>2020-07-21T09:21:43.105Z</time>
      </trkpt>
      <trkpt lat="42.57899" lon="2.07393">
        <ele>1664</ele>
        <time>2020-07-21T09:21:44.105Z</time>
      </trkpt>
      <trkpt lat="42.57901" lon="2.07397">
        <ele>1665</ele>
        <time>2020-07-21T09:21:45.105Z</time>
      </trkpt>
      <trkpt lat="42.57903" lon="2.07401">
        <ele>1666</ele>
        <time>2020-07-21T09:21:46.105Z</time>
      </trkpt>
      <trkpt lat="42.57905" lon="2.07404">
        <ele>1667</ele>
        <time>2020-07-21T09:21:47.105Z</time>
      </trkpt>
      <trkpt lat="42.57907" lon="2.07407">
        <ele>1667</ele>
        <time>2020-07-21T09:21:48.105Z</time>
      </trkpt>
      <trkpt lat="42.57909" lon="2.07411">
        <ele>1668</ele>
        <time>2020-07-21T09:21:49.105Z</time>
      </trkpt>
      <trkpt lat="42.57911" lon="2.07414">
        <ele>1669</ele>
        <time>2020-07-21T09:21:50.105Z</time>
      </trkpt>
      <trkpt lat="42.57913" lon="2.07417">
        <ele>1669</ele>
        <time>2020-07-21T09:21:51.105Z</time>
      </trkpt>
      <trkpt lat="42.57915" lon="2.0742">
        <ele>1669</ele>
        <time>2020-07-21T09:21:52.105Z</time>
      </trkpt>
      <trkpt lat="42.57918" lon="2.07424">
        <ele>1669</ele>
        <time>2020-07-21T09:21:53.105Z</time>
      </trkpt>
      <trkpt lat="42.5792" lon="2.07427">
        <ele>1669</ele>
        <time>2020-07-21T09:21:54.105Z</time>
      </trkpt>
      <trkpt lat="42.57922" lon="2.0743">
        <ele>1670</ele>
        <time>2020-07-21T09:21:55.105Z</time>
      </trkpt>
      <trkpt lat="42.57924" lon="2.07433">
        <ele>1670</ele>
        <time>2020-07-21T09:21:56.105Z</time>
      </trkpt>
      <trkpt lat="42.57927" lon="2.07436">
        <ele>1670</ele>
        <time>2020-07-21T09:21:57.105Z</time>
      </trkpt>
      <trkpt lat="42.57929" lon="2.07439">
        <ele>1671</ele>
        <time>2020-07-21T09:21:58.105Z</time>
      </trkpt>
      <trkpt lat="42.57931" lon="2.07441">
        <ele>1672</ele>
        <time>2020-07-21T09:21:59.105Z</time>
      </trkpt>
      <trkpt lat="42.57934" lon="2.07444">
        <ele>1672</ele>
        <time>2020-07-21T09:22:00.105Z</time>
      </trkpt>
      <trkpt lat="42.57936" lon="2.07447">
        <ele>1671</ele>
        <time>2020-07-21T09:22:01.105Z</time>
      </trkpt>
      <trkpt lat="42.57939" lon="2.07449">
        <ele>1671</ele>
        <time>2020-07-21T09:22:02.105Z</time>
      </trkpt>
      <trkpt lat="42.57942" lon="2.07451">
        <ele>1671</ele>
        <time>2020-07-21T09:22:03.105Z</time>
      </trkpt>
      <trkpt lat="42.57944" lon="2.07452">
        <ele>1671</ele>
        <time>2020-07-21T09:22:04.105Z</time>
      </trkpt>
      <trkpt lat="42.57947" lon="2.07453">
        <ele>1671</ele>
        <time>2020-07-21T09:22:05.105Z</time>
      </trkpt>
      <trkpt lat="42.57949" lon="2.07453">
        <ele>1672</ele>
        <time>2020-07-21T09:22:06.105Z</time>
      </trkpt>
      <trkpt lat="42.57952" lon="2.07454">
        <ele>1673</ele>
        <time>2020-07-21T09:22:07.105Z</time>
      </trkpt>
      <trkpt lat="42.57955" lon="2.07454">
        <ele>1671</ele>
        <time>2020-07-21T09:22:08.105Z</time>
      </trkpt>
      <trkpt lat="42.57958" lon="2.07454">
        <ele>1670</ele>
        <time>2020-07-21T09:22:09.105Z</time>
      </trkpt>
      <trkpt lat="42.57961" lon="2.07454">
        <ele>1669</ele>
        <time>2020-07-21T09:22:10.105Z</time>
      </trkpt>
      <trkpt lat="42.57964" lon="2.07454">
        <ele>1669</ele>
        <time>2020-07-21T09:22:11.105Z</time>
      </trkpt>
      <trkpt lat="42.57967" lon="2.07454">
        <ele>1669</ele>
        <time>2020-07-21T09:22:12.105Z</time>
      </trkpt>
      <trkpt lat="42.57971" lon="2.07453">
        <ele>1669</ele>
        <time>2020-07-21T09:22:13.105Z</time>
      </trkpt>
      <trkpt lat="42.57974" lon="2.07453">
        <ele>1668</ele>
        <time>2020-07-21T09:22:14.105Z</time>
      </trkpt>
      <trkpt lat="42.57977" lon="2.07454">
        <ele>1667</ele>
        <time>2020-07-21T09:22:15.105Z</time>
      </trkpt>
      <trkpt lat="42.57981" lon="2.07454">
        <ele>1668</ele>
        <time>2020-07-21T09:22:16.105Z</time>
      </trkpt>
      <trkpt lat="42.57984" lon="2.07455">
        <ele>1668</ele>
        <time>2020-07-21T09:22:17.105Z</time>
      </trkpt>
      <trkpt lat="42.57987" lon="2.07455">
        <ele>1668</ele>
        <time>2020-07-21T09:22:18.105Z</time>
      </trkpt>
      <trkpt lat="42.57991" lon="2.07456">
        <ele>1669</ele>
        <time>2020-07-21T09:22:19.105Z</time>
      </trkpt>
      <trkpt lat="42.57994" lon="2.07457">
        <ele>1669</ele>
        <time>2020-07-21T09:22:20.105Z</time>
      </trkpt>
      <trkpt lat="42.57998" lon="2.07457">
        <ele>1668</ele>
        <time>2020-07-21T09:22:21.105Z</time>
      </trkpt>
      <trkpt lat="42.58001" lon="2.07458">
        <ele>1668</ele>
        <time>2020-07-21T09:22:22.105Z</time>
      </trkpt>
      <trkpt lat="42.58005" lon="2.07458">
        <ele>1668</ele>
        <time>2020-07-21T09:22:23.105Z</time>
      </trkpt>
      <trkpt lat="42.58008" lon="2.07458">
        <ele>1669</ele>
        <time>2020-07-21T09:22:24.105Z</time>
      </trkpt>
      <trkpt lat="42.5801" lon="2.07459">
        <ele>1669</ele>
        <time>2020-07-21T09:22:25.105Z</time>
      </trkpt>
      <trkpt lat="42.58014" lon="2.0746">
        <ele>1668</ele>
        <time>2020-07-21T09:22:26.105Z</time>
      </trkpt>
      <trkpt lat="42.58017" lon="2.07461">
        <ele>1669</ele>
        <time>2020-07-21T09:22:27.105Z</time>
      </trkpt>
      <trkpt lat="42.5802" lon="2.07462">
        <ele>1669</ele>
        <time>2020-07-21T09:22:28.105Z</time>
      </trkpt>
      <trkpt lat="42.58023" lon="2.07463">
        <ele>1669</ele>
        <time>2020-07-21T09:22:29.105Z</time>
      </trkpt>
      <trkpt lat="42.58027" lon="2.07465">
        <ele>1667</ele>
        <time>2020-07-21T09:22:30.105Z</time>
      </trkpt>
      <trkpt lat="42.5803" lon="2.07468">
        <ele>1667</ele>
        <time>2020-07-21T09:22:31.105Z</time>
      </trkpt>
      <trkpt lat="42.58033" lon="2.07472">
        <ele>1666</ele>
        <time>2020-07-21T09:22:32.105Z</time>
      </trkpt>
      <trkpt lat="42.58034" lon="2.07476">
        <ele>1665</ele>
        <time>2020-07-21T09:22:33.105Z</time>
      </trkpt>
      <trkpt lat="42.58035" lon="2.07481">
        <ele>1664</ele>
        <time>2020-07-21T09:22:34.105Z</time>
      </trkpt>
      <trkpt lat="42.58036" lon="2.07485">
        <ele>1664</ele>
        <time>2020-07-21T09:22:35.105Z</time>
      </trkpt>
      <trkpt lat="42.58037" lon="2.0749">
        <ele>1663</ele>
        <time>2020-07-21T09:22:36.105Z</time>
      </trkpt>
      <trkpt lat="42.58038" lon="2.07494">
        <ele>1663</ele>
        <time>2020-07-21T09:22:37.105Z</time>
      </trkpt>
      <trkpt lat="42.58038" lon="2.07499">
        <ele>1663</ele>
        <time>2020-07-21T09:22:38.105Z</time>
      </trkpt>
      <trkpt lat="42.58038" lon="2.07504">
        <ele>1662</ele>
        <time>2020-07-21T09:22:39.105Z</time>
      </trkpt>
      <trkpt lat="42.58035" lon="2.07509">
        <ele>1661</ele>
        <time>2020-07-21T09:22:40.105Z</time>
      </trkpt>
      <trkpt lat="42.58032" lon="2.07513">
        <ele>1659</ele>
        <time>2020-07-21T09:22:41.105Z</time>
      </trkpt>
      <trkpt lat="42.58029" lon="2.07517">
        <ele>1657</ele>
        <time>2020-07-21T09:22:42.105Z</time>
      </trkpt>
      <trkpt lat="42.58027" lon="2.07521">
        <ele>1656</ele>
        <time>2020-07-21T09:22:43.105Z</time>
      </trkpt>
      <trkpt lat="42.58024" lon="2.07523">
        <ele>1653</ele>
        <time>2020-07-21T09:22:44.105Z</time>
      </trkpt>
      <trkpt lat="42.58022" lon="2.07526">
        <ele>1652</ele>
        <time>2020-07-21T09:22:45.105Z</time>
      </trkpt>
      <trkpt lat="42.58019" lon="2.07528">
        <ele>1651</ele>
        <time>2020-07-21T09:22:46.105Z</time>
      </trkpt>
      <trkpt lat="42.58016" lon="2.07531">
        <ele>1650</ele>
        <time>2020-07-21T09:22:47.105Z</time>
      </trkpt>
      <trkpt lat="42.58014" lon="2.07533">
        <ele>1648</ele>
        <time>2020-07-21T09:22:48.105Z</time>
      </trkpt>
      <trkpt lat="42.58011" lon="2.07536">
        <ele>1648</ele>
        <time>2020-07-21T09:22:49.105Z</time>
      </trkpt>
      <trkpt lat="42.58009" lon="2.07539">
        <ele>1647</ele>
        <time>2020-07-21T09:22:50.105Z</time>
      </trkpt>
      <trkpt lat="42.58006" lon="2.07542">
        <ele>1646</ele>
        <time>2020-07-21T09:22:51.105Z</time>
      </trkpt>
      <trkpt lat="42.58004" lon="2.07544">
        <ele>1645</ele>
        <time>2020-07-21T09:22:52.105Z</time>
      </trkpt>
      <trkpt lat="42.58002" lon="2.07548">
        <ele>1643</ele>
        <time>2020-07-21T09:22:53.105Z</time>
      </trkpt>
      <trkpt lat="42.58001" lon="2.07552">
        <ele>1641</ele>
        <time>2020-07-21T09:22:54.105Z</time>
      </trkpt>
      <trkpt lat="42.57999" lon="2.07556">
        <ele>1640</ele>
        <time>2020-07-21T09:22:55.105Z</time>
      </trkpt>
      <trkpt lat="42.57997" lon="2.07561">
        <ele>1639</ele>
        <time>2020-07-21T09:22:56.105Z</time>
      </trkpt>
      <trkpt lat="42.57995" lon="2.07566">
        <ele>1638</ele>
        <time>2020-07-21T09:22:57.105Z</time>
      </trkpt>
      <trkpt lat="42.57993" lon="2.07571">
        <ele>1638</ele>
        <time>2020-07-21T09:22:58.105Z</time>
      </trkpt>
      <trkpt lat="42.57992" lon="2.07575">
        <ele>1637</ele>
        <time>2020-07-21T09:22:59.105Z</time>
      </trkpt>
      <trkpt lat="42.57989" lon="2.07579">
        <ele>1637</ele>
        <time>2020-07-21T09:23:00.105Z</time>
      </trkpt>
      <trkpt lat="42.57986" lon="2.07581">
        <ele>1638</ele>
        <time>2020-07-21T09:23:01.105Z</time>
      </trkpt>
      <trkpt lat="42.57982" lon="2.07583">
        <ele>1639</ele>
        <time>2020-07-21T09:23:02.105Z</time>
      </trkpt>
      <trkpt lat="42.57979" lon="2.07585">
        <ele>1639</ele>
        <time>2020-07-21T09:23:03.105Z</time>
      </trkpt>
      <trkpt lat="42.57976" lon="2.07586">
        <ele>1639</ele>
        <time>2020-07-21T09:23:04.105Z</time>
      </trkpt>
      <trkpt lat="42.57973" lon="2.07588">
        <ele>1638</ele>
        <time>2020-07-21T09:23:05.105Z</time>
      </trkpt>
      <trkpt lat="42.5797" lon="2.0759">
        <ele>1639</ele>
        <time>2020-07-21T09:23:06.105Z</time>
      </trkpt>
      <trkpt lat="42.57967" lon="2.07592">
        <ele>1639</ele>
        <time>2020-07-21T09:23:07.105Z</time>
      </trkpt>
      <trkpt lat="42.57964" lon="2.07593">
        <ele>1639</ele>
        <time>2020-07-21T09:23:08.105Z</time>
      </trkpt>
      <trkpt lat="42.57961" lon="2.07595">
        <ele>1639</ele>
        <time>2020-07-21T09:23:09.105Z</time>
      </trkpt>
      <trkpt lat="42.57958" lon="2.07597">
        <ele>1640</ele>
        <time>2020-07-21T09:23:10.105Z</time>
      </trkpt>
      <trkpt lat="42.57955" lon="2.076">
        <ele>1641</ele>
        <time>2020-07-21T09:23:11.105Z</time>
      </trkpt>
      <trkpt lat="42.57952" lon="2.07603">
        <ele>1641</ele>
        <time>2020-07-21T09:23:12.105Z</time>
      </trkpt>
      <trkpt lat="42.57949" lon="2.07606">
        <ele>1639</ele>
        <time>2020-07-21T09:23:13.105Z</time>
      </trkpt>
      <trkpt lat="42.57946" lon="2.07608">
        <ele>1641</ele>
        <time>2020-07-21T09:23:14.105Z</time>
      </trkpt>
      <trkpt lat="42.57943" lon="2.07611">
        <ele>1641</ele>
        <time>2020-07-21T09:23:15.105Z</time>
      </trkpt>
      <trkpt lat="42.5794" lon="2.07614">
        <ele>1641</ele>
        <time>2020-07-21T09:23:16.105Z</time>
      </trkpt>
      <trkpt lat="42.57936" lon="2.07616">
        <ele>1642</ele>
        <time>2020-07-21T09:23:17.105Z</time>
      </trkpt>
      <trkpt lat="42.57932" lon="2.07618">
        <ele>1642</ele>
        <time>2020-07-21T09:23:18.105Z</time>
      </trkpt>
      <trkpt lat="42.57929" lon="2.0762">
        <ele>1643</ele>
        <time>2020-07-21T09:23:19.105Z</time>
      </trkpt>
      <trkpt lat="42.57925" lon="2.07621">
        <ele>1644</ele>
        <time>2020-07-21T09:23:20.105Z</time>
      </trkpt>
      <trkpt lat="42.57922" lon="2.07621">
        <ele>1644</ele>
        <time>2020-07-21T09:23:21.105Z</time>
      </trkpt>
      <trkpt lat="42.57918" lon="2.07622">
        <ele>1644</ele>
        <time>2020-07-21T09:23:22.105Z</time>
      </trkpt>
      <trkpt lat="42.57915" lon="2.07622">
        <ele>1644</ele>
        <time>2020-07-21T09:23:23.105Z</time>
      </trkpt>
      <trkpt lat="42.57912" lon="2.07622">
        <ele>1644</ele>
        <time>2020-07-21T09:23:24.105Z</time>
      </trkpt>
      <trkpt lat="42.57909" lon="2.07621">
        <ele>1644</ele>
        <time>2020-07-21T09:23:25.105Z</time>
      </trkpt>
      <trkpt lat="42.57905" lon="2.0762">
        <ele>1645</ele>
        <time>2020-07-21T09:23:26.105Z</time>
      </trkpt>
      <trkpt lat="42.57902" lon="2.07619">
        <ele>1645</ele>
        <time>2020-07-21T09:23:27.105Z</time>
      </trkpt>
      <trkpt lat="42.57899" lon="2.07617">
        <ele>1646</ele>
        <time>2020-07-21T09:23:28.105Z</time>
      </trkpt>
      <trkpt lat="42.57896" lon="2.07615">
        <ele>1646</ele>
        <time>2020-07-21T09:23:29.105Z</time>
      </trkpt>
      <trkpt lat="42.57894" lon="2.07613">
        <ele>1647</ele>
        <time>2020-07-21T09:23:30.105Z</time>
      </trkpt>
      <trkpt lat="42.57891" lon="2.0761">
        <ele>1647</ele>
        <time>2020-07-21T09:23:31.105Z</time>
      </trkpt>
      <trkpt lat="42.57889" lon="2.07608">
        <ele>1647</ele>
        <time>2020-07-21T09:23:32.105Z</time>
      </trkpt>
      <trkpt lat="42.57887" lon="2.07605">
        <ele>1648</ele>
        <time>2020-07-21T09:23:33.105Z</time>
      </trkpt>
      <trkpt lat="42.57885" lon="2.07602">
        <ele>1648</ele>
        <time>2020-07-21T09:23:34.105Z</time>
      </trkpt>
      <trkpt lat="42.57883" lon="2.07599">
        <ele>1648</ele>
        <time>2020-07-21T09:23:35.105Z</time>
      </trkpt>
      <trkpt lat="42.57881" lon="2.07596">
        <ele>1649</ele>
        <time>2020-07-21T09:23:36.105Z</time>
      </trkpt>
      <trkpt lat="42.57878" lon="2.07594">
        <ele>1648</ele>
        <time>2020-07-21T09:23:37.105Z</time>
      </trkpt>
      <trkpt lat="42.57875" lon="2.07591">
        <ele>1649</ele>
        <time>2020-07-21T09:23:38.105Z</time>
      </trkpt>
      <trkpt lat="42.57872" lon="2.07588">
        <ele>1649</ele>
        <time>2020-07-21T09:23:39.105Z</time>
      </trkpt>
      <trkpt lat="42.57869" lon="2.07586">
        <ele>1648</ele>
        <time>2020-07-21T09:23:40.105Z</time>
      </trkpt>
      <trkpt lat="42.57866" lon="2.07584">
        <ele>1648</ele>
        <time>2020-07-21T09:23:41.105Z</time>
      </trkpt>
      <trkpt lat="42.57863" lon="2.07582">
        <ele>1648</ele>
        <time>2020-07-21T09:23:42.105Z</time>
      </trkpt>
      <trkpt lat="42.57861" lon="2.07579">
        <ele>1648</ele>
        <time>2020-07-21T09:23:43.105Z</time>
      </trkpt>
      <trkpt lat="42.57858" lon="2.07577">
        <ele>1648</ele>
        <time>2020-07-21T09:23:44.105Z</time>
      </trkpt>
      <trkpt lat="42.57855" lon="2.07574">
        <ele>1648</ele>
        <time>2020-07-21T09:23:45.105Z</time>
      </trkpt>
      <trkpt lat="42.57852" lon="2.07573">
        <ele>1647</ele>
        <time>2020-07-21T09:23:46.105Z</time>
      </trkpt>
      <trkpt lat="42.57848" lon="2.07571">
        <ele>1647</ele>
        <time>2020-07-21T09:23:47.105Z</time>
      </trkpt>
      <trkpt lat="42.57845" lon="2.07569">
        <ele>1647</ele>
        <time>2020-07-21T09:23:48.105Z</time>
      </trkpt>
      <trkpt lat="42.57842" lon="2.07567">
        <ele>1646</ele>
        <time>2020-07-21T09:23:49.105Z</time>
      </trkpt>
      <trkpt lat="42.57839" lon="2.07565">
        <ele>1646</ele>
        <time>2020-07-21T09:23:50.105Z</time>
      </trkpt>
      <trkpt lat="42.57836" lon="2.07563">
        <ele>1646</ele>
        <time>2020-07-21T09:23:51.105Z</time>
      </trkpt>
      <trkpt lat="42.57833" lon="2.07561">
        <ele>1646</ele>
        <time>2020-07-21T09:23:52.105Z</time>
      </trkpt>
      <trkpt lat="42.5783" lon="2.07559">
        <ele>1646</ele>
        <time>2020-07-21T09:23:53.105Z</time>
      </trkpt>
      <trkpt lat="42.57827" lon="2.07556">
        <ele>1646</ele>
        <time>2020-07-21T09:23:54.105Z</time>
      </trkpt>
      <trkpt lat="42.57824" lon="2.07554">
        <ele>1646</ele>
        <time>2020-07-21T09:23:55.105Z</time>
      </trkpt>
      <trkpt lat="42.57821" lon="2.07552">
        <ele>1645</ele>
        <time>2020-07-21T09:23:56.105Z</time>
      </trkpt>
      <trkpt lat="42.57819" lon="2.07549">
        <ele>1646</ele>
        <time>2020-07-21T09:23:57.105Z</time>
      </trkpt>
      <trkpt lat="42.57816" lon="2.07548">
        <ele>1646</ele>
        <time>2020-07-21T09:23:58.105Z</time>
      </trkpt>
      <trkpt lat="42.57815" lon="2.07547">
        <ele>1646</ele>
        <time>2020-07-21T09:23:59.105Z</time>
      </trkpt>
    </trkseg>
  </trk>
</gpx>